<?xml version="1.0" encoding="UTF-8" standalone="no" ?>
<gpx xmlns="http://www.topografix.com/GPX/1/1" xmlns:xsi="http://www.w3.org/2001/XMLSchema-instance" xsi:schemaLocation="http://www.topografix.com/GPX/1/1 http://www.topografix.com/GPX/1/1/gpx.xsd" version="1.1" creator="VisuGPX - https://www.visugpx.com">
  <metadata>
    <name>St Germain Arbresle à Feurs</name>
    <desc><![CDATA[Super, un bon dénivelé mais sur 48km]]></desc>
  </metadata>
  <trk>
    <name><![CDATA[St Germain L Arbresle-Feurs 48.2 km]]></name>
    <trkseg>
      <trkpt lat="45.85218" lon="4.61126">
        <ele>298.3</ele>
        <time>2017-10-28T05:03:25Z</time>
      </trkpt>
      <trkpt lat="45.85218" lon="4.61126">
        <ele>371.538</ele>
        <time>2017-10-28T05:03:35Z</time>
      </trkpt>
      <trkpt lat="45.85224" lon="4.61096">
        <ele>363.034</ele>
        <time>2017-10-28T05:03:42Z</time>
      </trkpt>
      <trkpt lat="45.85238" lon="4.61079">
        <ele>348.888</ele>
        <time>2017-10-28T05:03:59Z</time>
      </trkpt>
      <trkpt lat="45.85256" lon="4.6107">
        <ele>346.731</ele>
        <time>2017-10-28T05:04:12Z</time>
      </trkpt>
      <trkpt lat="45.85271" lon="4.61059">
        <ele>347.053</ele>
        <time>2017-10-28T05:04:25Z</time>
      </trkpt>
      <trkpt lat="45.85285" lon="4.61051">
        <ele>348.284</ele>
        <time>2017-10-28T05:04:38Z</time>
      </trkpt>
      <trkpt lat="45.85293" lon="4.61027">
        <ele>349.099</ele>
        <time>2017-10-28T05:04:49Z</time>
      </trkpt>
      <trkpt lat="45.85299" lon="4.61002">
        <ele>349.87</ele>
        <time>2017-10-28T05:05:02Z</time>
      </trkpt>
      <trkpt lat="45.85304" lon="4.60985">
        <ele>350.512</ele>
        <time>2017-10-28T05:05:11Z</time>
      </trkpt>
      <trkpt lat="45.85311" lon="4.60964">
        <ele>351.164</ele>
        <time>2017-10-28T05:05:22Z</time>
      </trkpt>
      <trkpt lat="45.85318" lon="4.60941">
        <ele>352.39</ele>
        <time>2017-10-28T05:05:33Z</time>
      </trkpt>
      <trkpt lat="45.85327" lon="4.60909">
        <ele>354.431</ele>
        <time>2017-10-28T05:05:49Z</time>
      </trkpt>
      <trkpt lat="45.85337" lon="4.60875">
        <ele>356.045</ele>
        <time>2017-10-28T05:06:06Z</time>
      </trkpt>
      <trkpt lat="45.85346" lon="4.60848">
        <ele>358.576</ele>
        <time>2017-10-28T05:06:20Z</time>
      </trkpt>
      <trkpt lat="45.85357" lon="4.60822">
        <ele>359.747</ele>
        <time>2017-10-28T05:06:33Z</time>
      </trkpt>
      <trkpt lat="45.85366" lon="4.60804">
        <ele>360.199</ele>
        <time>2017-10-28T05:06:43Z</time>
      </trkpt>
      <trkpt lat="45.85373" lon="4.60786">
        <ele>360.049</ele>
        <time>2017-10-28T05:06:52Z</time>
      </trkpt>
      <trkpt lat="45.85383" lon="4.6076">
        <ele>358.698</ele>
        <time>2017-10-28T05:07:04Z</time>
      </trkpt>
      <trkpt lat="45.85392" lon="4.60737">
        <ele>356.841</ele>
        <time>2017-10-28T05:07:15Z</time>
      </trkpt>
      <trkpt lat="45.85403" lon="4.60708">
        <ele>355.128</ele>
        <time>2017-10-28T05:07:29Z</time>
      </trkpt>
      <trkpt lat="45.85413" lon="4.60688">
        <ele>354.169</ele>
        <time>2017-10-28T05:07:40Z</time>
      </trkpt>
      <trkpt lat="45.85418" lon="4.60672">
        <ele>353.699</ele>
        <time>2017-10-28T05:07:48Z</time>
      </trkpt>
      <trkpt lat="45.85422" lon="4.60659">
        <ele>353.593</ele>
        <time>2017-10-28T05:07:54Z</time>
      </trkpt>
      <trkpt lat="45.85426" lon="4.60645">
        <ele>353.639</ele>
        <time>2017-10-28T05:08:01Z</time>
      </trkpt>
      <trkpt lat="45.85431" lon="4.60626">
        <ele>353.902</ele>
        <time>2017-10-28T05:08:10Z</time>
      </trkpt>
      <trkpt lat="45.85433" lon="4.60611">
        <ele>354.268</ele>
        <time>2017-10-28T05:08:17Z</time>
      </trkpt>
      <trkpt lat="45.85435" lon="4.60591">
        <ele>355.29</ele>
        <time>2017-10-28T05:08:27Z</time>
      </trkpt>
      <trkpt lat="45.85442" lon="4.60566">
        <ele>356.1</ele>
        <time>2017-10-28T05:08:38Z</time>
      </trkpt>
      <trkpt lat="45.85445" lon="4.60548">
        <ele>356.609</ele>
        <time>2017-10-28T05:08:47Z</time>
      </trkpt>
      <trkpt lat="45.85453" lon="4.60522">
        <ele>356.695</ele>
        <time>2017-10-28T05:09:00Z</time>
      </trkpt>
      <trkpt lat="45.85458" lon="4.60497">
        <ele>356.763</ele>
        <time>2017-10-28T05:09:12Z</time>
      </trkpt>
      <trkpt lat="45.85463" lon="4.60471">
        <ele>357.375</ele>
        <time>2017-10-28T05:09:25Z</time>
      </trkpt>
      <trkpt lat="45.85466" lon="4.6045">
        <ele>357.917</ele>
        <time>2017-10-28T05:09:35Z</time>
      </trkpt>
      <trkpt lat="45.8547" lon="4.60435">
        <ele>358.151</ele>
        <time>2017-10-28T05:09:43Z</time>
      </trkpt>
      <trkpt lat="45.85474" lon="4.60408">
        <ele>357.58</ele>
        <time>2017-10-28T05:09:54Z</time>
      </trkpt>
      <trkpt lat="45.85478" lon="4.60379">
        <ele>357.064</ele>
        <time>2017-10-28T05:10:09Z</time>
      </trkpt>
      <trkpt lat="45.8548" lon="4.60348">
        <ele>355.747</ele>
        <time>2017-10-28T05:10:23Z</time>
      </trkpt>
      <trkpt lat="45.8548" lon="4.60321">
        <ele>354.448</ele>
        <time>2017-10-28T05:10:35Z</time>
      </trkpt>
      <trkpt lat="45.85483" lon="4.60295">
        <ele>352.51</ele>
        <time>2017-10-28T05:10:47Z</time>
      </trkpt>
      <trkpt lat="45.85491" lon="4.60281">
        <ele>351.925</ele>
        <time>2017-10-28T05:10:55Z</time>
      </trkpt>
      <trkpt lat="45.85499" lon="4.60271">
        <ele>352.144</ele>
        <time>2017-10-28T05:11:02Z</time>
      </trkpt>
      <trkpt lat="45.85516" lon="4.60249">
        <ele>353.021</ele>
        <time>2017-10-28T05:11:19Z</time>
      </trkpt>
      <trkpt lat="45.85531" lon="4.60242">
        <ele>354.297</ele>
        <time>2017-10-28T05:11:32Z</time>
      </trkpt>
      <trkpt lat="45.85559" lon="4.60228">
        <ele>356.382</ele>
        <time>2017-10-28T05:11:52Z</time>
      </trkpt>
      <trkpt lat="45.85574" lon="4.60221">
        <ele>356.982</ele>
        <time>2017-10-28T05:12:03Z</time>
      </trkpt>
      <trkpt lat="45.85585" lon="4.60216">
        <ele>357.744</ele>
        <time>2017-10-28T05:12:11Z</time>
      </trkpt>
      <trkpt lat="45.85603" lon="4.60216">
        <ele>358.992</ele>
        <time>2017-10-28T05:12:23Z</time>
      </trkpt>
      <trkpt lat="45.85611" lon="4.60218">
        <ele>359.817</ele>
        <time>2017-10-28T05:12:30Z</time>
      </trkpt>
      <trkpt lat="45.85623" lon="4.60188">
        <ele>359.651</ele>
        <time>2017-10-28T05:12:48Z</time>
      </trkpt>
      <trkpt lat="45.85623" lon="4.60169">
        <ele>359.148</ele>
        <time>2017-10-28T05:12:57Z</time>
      </trkpt>
      <trkpt lat="45.85616" lon="4.60136">
        <ele>357.825</ele>
        <time>2017-10-28T05:13:13Z</time>
      </trkpt>
      <trkpt lat="45.85606" lon="4.60116">
        <ele>356.06</ele>
        <time>2017-10-28T05:13:24Z</time>
      </trkpt>
      <trkpt lat="45.85596" lon="4.60085">
        <ele>353.564</ele>
        <time>2017-10-28T05:13:39Z</time>
      </trkpt>
      <trkpt lat="45.85594" lon="4.60048">
        <ele>351.158</ele>
        <time>2017-10-28T05:13:56Z</time>
      </trkpt>
      <trkpt lat="45.85609" lon="4.6003">
        <ele>351.249</ele>
        <time>2017-10-28T05:14:07Z</time>
      </trkpt>
      <trkpt lat="45.85624" lon="4.60015">
        <ele>350.774</ele>
        <time>2017-10-28T05:14:19Z</time>
      </trkpt>
      <trkpt lat="45.85636" lon="4.59999">
        <ele>350.626</ele>
        <time>2017-10-28T05:14:30Z</time>
      </trkpt>
      <trkpt lat="45.85638" lon="4.59964">
        <ele>350.77</ele>
        <time>2017-10-28T05:14:44Z</time>
      </trkpt>
      <trkpt lat="45.85643" lon="4.59944">
        <ele>350.551</ele>
        <time>2017-10-28T05:14:52Z</time>
      </trkpt>
      <trkpt lat="45.85644" lon="4.5992">
        <ele>350.981</ele>
        <time>2017-10-28T05:15:03Z</time>
      </trkpt>
      <trkpt lat="45.85646" lon="4.59891">
        <ele>350.317</ele>
        <time>2017-10-28T05:15:18Z</time>
      </trkpt>
      <trkpt lat="45.85642" lon="4.59868">
        <ele>350.525</ele>
        <time>2017-10-28T05:15:33Z</time>
      </trkpt>
      <trkpt lat="45.85621" lon="4.59847">
        <ele>351.092</ele>
        <time>2017-10-28T05:15:46Z</time>
      </trkpt>
      <trkpt lat="45.85615" lon="4.59839">
        <ele>351.018</ele>
        <time>2017-10-28T05:15:51Z</time>
      </trkpt>
      <trkpt lat="45.85604" lon="4.5983">
        <ele>351.535</ele>
        <time>2017-10-28T05:16:02Z</time>
      </trkpt>
      <trkpt lat="45.8558" lon="4.59817">
        <ele>352.582</ele>
        <time>2017-10-28T05:16:19Z</time>
      </trkpt>
      <trkpt lat="45.8556" lon="4.59807">
        <ele>352.093</ele>
        <time>2017-10-28T05:16:33Z</time>
      </trkpt>
      <trkpt lat="45.85532" lon="4.59806">
        <ele>351.629</ele>
        <time>2017-10-28T05:16:49Z</time>
      </trkpt>
      <trkpt lat="45.85514" lon="4.59788">
        <ele>350.552</ele>
        <time>2017-10-28T05:17:04Z</time>
      </trkpt>
      <trkpt lat="45.85516" lon="4.59764">
        <ele>349.072</ele>
        <time>2017-10-28T05:17:16Z</time>
      </trkpt>
      <trkpt lat="45.85522" lon="4.59732">
        <ele>347.396</ele>
        <time>2017-10-28T05:17:30Z</time>
      </trkpt>
      <trkpt lat="45.85523" lon="4.59718">
        <ele>347.194</ele>
        <time>2017-10-28T05:17:37Z</time>
      </trkpt>
      <trkpt lat="45.85526" lon="4.59686">
        <ele>346.189</ele>
        <time>2017-10-28T05:17:52Z</time>
      </trkpt>
      <trkpt lat="45.85519" lon="4.59661">
        <ele>344.835</ele>
        <time>2017-10-28T05:18:06Z</time>
      </trkpt>
      <trkpt lat="45.855" lon="4.59641">
        <ele>343.017</ele>
        <time>2017-10-28T05:18:19Z</time>
      </trkpt>
      <trkpt lat="45.85493" lon="4.59623">
        <ele>341.082</ele>
        <time>2017-10-28T05:18:30Z</time>
      </trkpt>
      <trkpt lat="45.85489" lon="4.59608">
        <ele>339.738</ele>
        <time>2017-10-28T05:18:38Z</time>
      </trkpt>
      <trkpt lat="45.85485" lon="4.59585">
        <ele>338.282</ele>
        <time>2017-10-28T05:18:50Z</time>
      </trkpt>
      <trkpt lat="45.85472" lon="4.59576">
        <ele>337.916</ele>
        <time>2017-10-28T05:19:00Z</time>
      </trkpt>
      <trkpt lat="45.85457" lon="4.59569">
        <ele>338.134</ele>
        <time>2017-10-28T05:19:11Z</time>
      </trkpt>
      <trkpt lat="45.85429" lon="4.59555">
        <ele>336.881</ele>
        <time>2017-10-28T05:19:31Z</time>
      </trkpt>
      <trkpt lat="45.85408" lon="4.59538">
        <ele>335.388</ele>
        <time>2017-10-28T05:19:48Z</time>
      </trkpt>
      <trkpt lat="45.85388" lon="4.59524">
        <ele>335.397</ele>
        <time>2017-10-28T05:20:03Z</time>
      </trkpt>
      <trkpt lat="45.85372" lon="4.5951">
        <ele>335.197</ele>
        <time>2017-10-28T05:20:17Z</time>
      </trkpt>
      <trkpt lat="45.85348" lon="4.59491">
        <ele>335.046</ele>
        <time>2017-10-28T05:20:35Z</time>
      </trkpt>
      <trkpt lat="45.85335" lon="4.59483">
        <ele>334.171</ele>
        <time>2017-10-28T05:20:49Z</time>
      </trkpt>
      <trkpt lat="45.85321" lon="4.59479">
        <ele>332.896</ele>
        <time>2017-10-28T05:20:57Z</time>
      </trkpt>
      <trkpt lat="45.85307" lon="4.59479">
        <ele>331.793</ele>
        <time>2017-10-28T05:21:05Z</time>
      </trkpt>
      <trkpt lat="45.85297" lon="4.5948">
        <ele>330.634</ele>
        <time>2017-10-28T05:21:12Z</time>
      </trkpt>
      <trkpt lat="45.85272" lon="4.59481">
        <ele>327.126</ele>
        <time>2017-10-28T05:21:31Z</time>
      </trkpt>
      <trkpt lat="45.85255" lon="4.5947">
        <ele>326.685</ele>
        <time>2017-10-28T05:21:44Z</time>
      </trkpt>
      <trkpt lat="45.85255" lon="4.5947">
        <ele>326.685</ele>
        <time>2017-10-28T05:21:49Z</time>
      </trkpt>
      <trkpt lat="45.85255" lon="4.5947">
        <ele>276</ele>
        <time>2017-10-28T05:21:49Z</time>
      </trkpt>
      <trkpt lat="45.85255" lon="4.5947">
        <ele>276</ele>
        <time>2017-10-28T05:21:52Z</time>
      </trkpt>
      <trkpt lat="45.85249" lon="4.59463">
        <ele>326.72</ele>
        <time>2017-10-28T05:21:52Z</time>
      </trkpt>
      <trkpt lat="45.85236" lon="4.59455">
        <ele>326.349</ele>
        <time>2017-10-28T05:22:00Z</time>
      </trkpt>
      <trkpt lat="45.85217" lon="4.59447">
        <ele>325.49</ele>
        <time>2017-10-28T05:22:14Z</time>
      </trkpt>
      <trkpt lat="45.85204" lon="4.59436">
        <ele>324.285</ele>
        <time>2017-10-28T05:22:26Z</time>
      </trkpt>
      <trkpt lat="45.8519" lon="4.5943">
        <ele>323.128</ele>
        <time>2017-10-28T05:22:39Z</time>
      </trkpt>
      <trkpt lat="45.85178" lon="4.59424">
        <ele>321.821</ele>
        <time>2017-10-28T05:22:49Z</time>
      </trkpt>
      <trkpt lat="45.85154" lon="4.5941">
        <ele>318.619</ele>
        <time>2017-10-28T05:23:06Z</time>
      </trkpt>
      <trkpt lat="45.85143" lon="4.59399">
        <ele>317.503</ele>
        <time>2017-10-28T05:23:14Z</time>
      </trkpt>
      <trkpt lat="45.85143" lon="4.59399">
        <ele>266.7</ele>
        <time>2017-10-28T05:23:21Z</time>
      </trkpt>
      <trkpt lat="45.85143" lon="4.59399">
        <ele>266.7</ele>
        <time>2017-10-28T05:23:27Z</time>
      </trkpt>
      <trkpt lat="45.85152" lon="4.59387">
        <ele>316.896</ele>
        <time>2017-10-28T05:23:27Z</time>
      </trkpt>
      <trkpt lat="45.8516" lon="4.5937">
        <ele>316.372</ele>
        <time>2017-10-28T05:23:39Z</time>
      </trkpt>
      <trkpt lat="45.85166" lon="4.59348">
        <ele>316.352</ele>
        <time>2017-10-28T05:23:55Z</time>
      </trkpt>
      <trkpt lat="45.85171" lon="4.59327">
        <ele>318.571</ele>
        <time>2017-10-28T05:24:11Z</time>
      </trkpt>
      <trkpt lat="45.85182" lon="4.59309">
        <ele>320.745</ele>
        <time>2017-10-28T05:24:23Z</time>
      </trkpt>
      <trkpt lat="45.85193" lon="4.59291">
        <ele>322.268</ele>
        <time>2017-10-28T05:24:33Z</time>
      </trkpt>
      <trkpt lat="45.85203" lon="4.59281">
        <ele>322.662</ele>
        <time>2017-10-28T05:24:44Z</time>
      </trkpt>
      <trkpt lat="45.85221" lon="4.59261">
        <ele>324.367</ele>
        <time>2017-10-28T05:25:01Z</time>
      </trkpt>
      <trkpt lat="45.85229" lon="4.59251">
        <ele>325.174</ele>
        <time>2017-10-28T05:25:09Z</time>
      </trkpt>
      <trkpt lat="45.85239" lon="4.59239">
        <ele>325.422</ele>
        <time>2017-10-28T05:25:21Z</time>
      </trkpt>
      <trkpt lat="45.85251" lon="4.59222">
        <ele>325.885</ele>
        <time>2017-10-28T05:25:36Z</time>
      </trkpt>
      <trkpt lat="45.85264" lon="4.59205">
        <ele>327.492</ele>
        <time>2017-10-28T05:25:54Z</time>
      </trkpt>
      <trkpt lat="45.85271" lon="4.5919">
        <ele>328.395</ele>
        <time>2017-10-28T05:26:02Z</time>
      </trkpt>
      <trkpt lat="45.85271" lon="4.5919">
        <ele>283</ele>
        <time>2017-10-28T05:26:09Z</time>
      </trkpt>
      <trkpt lat="45.85271" lon="4.5919">
        <ele>283</ele>
        <time>2017-10-28T05:26:13Z</time>
      </trkpt>
      <trkpt lat="45.85279" lon="4.59182">
        <ele>329.259</ele>
        <time>2017-10-28T05:26:13Z</time>
      </trkpt>
      <trkpt lat="45.85292" lon="4.59171">
        <ele>331.887</ele>
        <time>2017-10-28T05:26:24Z</time>
      </trkpt>
      <trkpt lat="45.85302" lon="4.59159">
        <ele>335.291</ele>
        <time>2017-10-28T05:26:39Z</time>
      </trkpt>
      <trkpt lat="45.85319" lon="4.59132">
        <ele>336.745</ele>
        <time>2017-10-28T05:26:57Z</time>
      </trkpt>
      <trkpt lat="45.85333" lon="4.59114">
        <ele>338.567</ele>
        <time>2017-10-28T05:27:12Z</time>
      </trkpt>
      <trkpt lat="45.85347" lon="4.59088">
        <ele>341.382</ele>
        <time>2017-10-28T05:27:27Z</time>
      </trkpt>
      <trkpt lat="45.85354" lon="4.59078">
        <ele>342.322</ele>
        <time>2017-10-28T05:27:38Z</time>
      </trkpt>
      <trkpt lat="45.85371" lon="4.5904">
        <ele>343.731</ele>
        <time>2017-10-28T05:28:00Z</time>
      </trkpt>
      <trkpt lat="45.85382" lon="4.59011">
        <ele>346.145</ele>
        <time>2017-10-28T05:28:16Z</time>
      </trkpt>
      <trkpt lat="45.85393" lon="4.58995">
        <ele>348.108</ele>
        <time>2017-10-28T05:28:29Z</time>
      </trkpt>
      <trkpt lat="45.85399" lon="4.58975">
        <ele>349.944</ele>
        <time>2017-10-28T05:28:44Z</time>
      </trkpt>
      <trkpt lat="45.85411" lon="4.58952">
        <ele>350.538</ele>
        <time>2017-10-28T05:29:02Z</time>
      </trkpt>
      <trkpt lat="45.85414" lon="4.58922">
        <ele>351.07</ele>
        <time>2017-10-28T05:29:21Z</time>
      </trkpt>
      <trkpt lat="45.85419" lon="4.58901">
        <ele>352.039</ele>
        <time>2017-10-28T05:29:35Z</time>
      </trkpt>
      <trkpt lat="45.85426" lon="4.58875">
        <ele>352.319</ele>
        <time>2017-10-28T05:29:54Z</time>
      </trkpt>
      <trkpt lat="45.85427" lon="4.58857">
        <ele>353.825</ele>
        <time>2017-10-28T05:30:06Z</time>
      </trkpt>
      <trkpt lat="45.8543" lon="4.58839">
        <ele>355.272</ele>
        <time>2017-10-28T05:30:18Z</time>
      </trkpt>
      <trkpt lat="45.85439" lon="4.5882">
        <ele>357.272</ele>
        <time>2017-10-28T05:30:32Z</time>
      </trkpt>
      <trkpt lat="45.85444" lon="4.58798">
        <ele>360.484</ele>
        <time>2017-10-28T05:30:49Z</time>
      </trkpt>
      <trkpt lat="45.85443" lon="4.58778">
        <ele>365.481</ele>
        <time>2017-10-28T05:31:03Z</time>
      </trkpt>
      <trkpt lat="45.85435" lon="4.58754">
        <ele>370.063</ele>
        <time>2017-10-28T05:31:17Z</time>
      </trkpt>
      <trkpt lat="45.85426" lon="4.5874">
        <ele>371.95</ele>
        <time>2017-10-28T05:31:26Z</time>
      </trkpt>
      <trkpt lat="45.85413" lon="4.58721">
        <ele>374.071</ele>
        <time>2017-10-28T05:31:41Z</time>
      </trkpt>
      <trkpt lat="45.854" lon="4.58704">
        <ele>374.737</ele>
        <time>2017-10-28T05:31:53Z</time>
      </trkpt>
      <trkpt lat="45.85395" lon="4.5869">
        <ele>375.306</ele>
        <time>2017-10-28T05:32:04Z</time>
      </trkpt>
      <trkpt lat="45.85385" lon="4.58661">
        <ele>377.222</ele>
        <time>2017-10-28T05:32:24Z</time>
      </trkpt>
      <trkpt lat="45.85371" lon="4.58639">
        <ele>379.651</ele>
        <time>2017-10-28T05:32:42Z</time>
      </trkpt>
      <trkpt lat="45.85358" lon="4.58604">
        <ele>382.618</ele>
        <time>2017-10-28T05:32:59Z</time>
      </trkpt>
      <trkpt lat="45.85345" lon="4.58579">
        <ele>383.271</ele>
        <time>2017-10-28T05:33:14Z</time>
      </trkpt>
      <trkpt lat="45.85339" lon="4.58559">
        <ele>384.221</ele>
        <time>2017-10-28T05:33:23Z</time>
      </trkpt>
      <trkpt lat="45.85333" lon="4.58539">
        <ele>384.954</ele>
        <time>2017-10-28T05:33:33Z</time>
      </trkpt>
      <trkpt lat="45.85328" lon="4.58517">
        <ele>385.488</ele>
        <time>2017-10-28T05:33:45Z</time>
      </trkpt>
      <trkpt lat="45.85319" lon="4.58504">
        <ele>385.335</ele>
        <time>2017-10-28T05:33:53Z</time>
      </trkpt>
      <trkpt lat="45.85307" lon="4.58489">
        <ele>385.183</ele>
        <time>2017-10-28T05:34:04Z</time>
      </trkpt>
      <trkpt lat="45.85297" lon="4.58465">
        <ele>385.13</ele>
        <time>2017-10-28T05:34:16Z</time>
      </trkpt>
      <trkpt lat="45.85296" lon="4.58451">
        <ele>385.486</ele>
        <time>2017-10-28T05:34:25Z</time>
      </trkpt>
      <trkpt lat="45.85286" lon="4.58434">
        <ele>386.514</ele>
        <time>2017-10-28T05:34:35Z</time>
      </trkpt>
      <trkpt lat="45.85269" lon="4.58409">
        <ele>386.187</ele>
        <time>2017-10-28T05:34:50Z</time>
      </trkpt>
      <trkpt lat="45.85254" lon="4.58389">
        <ele>385.425</ele>
        <time>2017-10-28T05:35:03Z</time>
      </trkpt>
      <trkpt lat="45.85235" lon="4.58381">
        <ele>387.102</ele>
        <time>2017-10-28T05:35:27Z</time>
      </trkpt>
      <trkpt lat="45.85222" lon="4.58381">
        <ele>388.298</ele>
        <time>2017-10-28T05:35:35Z</time>
      </trkpt>
      <trkpt lat="45.85204" lon="4.58383">
        <ele>388.969</ele>
        <time>2017-10-28T05:35:47Z</time>
      </trkpt>
      <trkpt lat="45.85185" lon="4.58384">
        <ele>388.632</ele>
        <time>2017-10-28T05:36:01Z</time>
      </trkpt>
      <trkpt lat="45.85161" lon="4.58378">
        <ele>388.365</ele>
        <time>2017-10-28T05:36:18Z</time>
      </trkpt>
      <trkpt lat="45.85138" lon="4.58361">
        <ele>388.438</ele>
        <time>2017-10-28T05:36:32Z</time>
      </trkpt>
      <trkpt lat="45.85126" lon="4.58342">
        <ele>388.147</ele>
        <time>2017-10-28T05:36:43Z</time>
      </trkpt>
      <trkpt lat="45.85113" lon="4.58323">
        <ele>386.884</ele>
        <time>2017-10-28T05:36:56Z</time>
      </trkpt>
      <trkpt lat="45.851" lon="4.58305">
        <ele>385.412</ele>
        <time>2017-10-28T05:37:07Z</time>
      </trkpt>
      <trkpt lat="45.85084" lon="4.5829">
        <ele>383.785</ele>
        <time>2017-10-28T05:37:19Z</time>
      </trkpt>
      <trkpt lat="45.85066" lon="4.58276">
        <ele>382.269</ele>
        <time>2017-10-28T05:37:33Z</time>
      </trkpt>
      <trkpt lat="45.85046" lon="4.58262">
        <ele>381.379</ele>
        <time>2017-10-28T05:37:48Z</time>
      </trkpt>
      <trkpt lat="45.85027" lon="4.58251">
        <ele>380.366</ele>
        <time>2017-10-28T05:38:00Z</time>
      </trkpt>
      <trkpt lat="45.85008" lon="4.58244">
        <ele>378.719</ele>
        <time>2017-10-28T05:38:14Z</time>
      </trkpt>
      <trkpt lat="45.84999" lon="4.58259">
        <ele>377.94</ele>
        <time>2017-10-28T05:38:23Z</time>
      </trkpt>
      <trkpt lat="45.84992" lon="4.58275">
        <ele>377.38</ele>
        <time>2017-10-28T05:38:31Z</time>
      </trkpt>
      <trkpt lat="45.84984" lon="4.58295">
        <ele>376.968</ele>
        <time>2017-10-28T05:38:42Z</time>
      </trkpt>
      <trkpt lat="45.84981" lon="4.58322">
        <ele>375.584</ele>
        <time>2017-10-28T05:38:55Z</time>
      </trkpt>
      <trkpt lat="45.84972" lon="4.5835">
        <ele>372.611</ele>
        <time>2017-10-28T05:39:10Z</time>
      </trkpt>
      <trkpt lat="45.8496" lon="4.58366">
        <ele>369.244</ele>
        <time>2017-10-28T05:39:22Z</time>
      </trkpt>
      <trkpt lat="45.84942" lon="4.58376">
        <ele>366.089</ele>
        <time>2017-10-28T05:39:37Z</time>
      </trkpt>
      <trkpt lat="45.8492" lon="4.58386">
        <ele>363.14</ele>
        <time>2017-10-28T05:39:54Z</time>
      </trkpt>
      <trkpt lat="45.84906" lon="4.58408">
        <ele>359.469</ele>
        <time>2017-10-28T05:40:12Z</time>
      </trkpt>
      <trkpt lat="45.84893" lon="4.58429">
        <ele>356.664</ele>
        <time>2017-10-28T05:40:26Z</time>
      </trkpt>
      <trkpt lat="45.84885" lon="4.58446">
        <ele>354.763</ele>
        <time>2017-10-28T05:40:36Z</time>
      </trkpt>
      <trkpt lat="45.84877" lon="4.58467">
        <ele>351.559</ele>
        <time>2017-10-28T05:40:48Z</time>
      </trkpt>
      <trkpt lat="45.84864" lon="4.58481">
        <ele>348.494</ele>
        <time>2017-10-28T05:41:00Z</time>
      </trkpt>
      <trkpt lat="45.84842" lon="4.58497">
        <ele>344.325</ele>
        <time>2017-10-28T05:41:16Z</time>
      </trkpt>
      <trkpt lat="45.8483" lon="4.58513">
        <ele>341.309</ele>
        <time>2017-10-28T05:41:28Z</time>
      </trkpt>
      <trkpt lat="45.84817" lon="4.58527">
        <ele>339.083</ele>
        <time>2017-10-28T05:41:38Z</time>
      </trkpt>
      <trkpt lat="45.8481" lon="4.58538">
        <ele>337.705</ele>
        <time>2017-10-28T05:41:45Z</time>
      </trkpt>
      <trkpt lat="45.84795" lon="4.5856">
        <ele>334.859</ele>
        <time>2017-10-28T05:42:00Z</time>
      </trkpt>
      <trkpt lat="45.84778" lon="4.58576">
        <ele>333.016</ele>
        <time>2017-10-28T05:42:12Z</time>
      </trkpt>
      <trkpt lat="45.84767" lon="4.58584">
        <ele>332.099</ele>
        <time>2017-10-28T05:42:19Z</time>
      </trkpt>
      <trkpt lat="45.84751" lon="4.586">
        <ele>330.475</ele>
        <time>2017-10-28T05:42:31Z</time>
      </trkpt>
      <trkpt lat="45.84735" lon="4.58614">
        <ele>328.771</ele>
        <time>2017-10-28T05:42:43Z</time>
      </trkpt>
      <trkpt lat="45.8472" lon="4.58627">
        <ele>327.126</ele>
        <time>2017-10-28T05:42:54Z</time>
      </trkpt>
      <trkpt lat="45.84704" lon="4.58643">
        <ele>325.686</ele>
        <time>2017-10-28T05:43:06Z</time>
      </trkpt>
      <trkpt lat="45.84689" lon="4.58664">
        <ele>323.637</ele>
        <time>2017-10-28T05:43:19Z</time>
      </trkpt>
      <trkpt lat="45.84675" lon="4.58686">
        <ele>321.094</ele>
        <time>2017-10-28T05:43:33Z</time>
      </trkpt>
      <trkpt lat="45.8466" lon="4.5871">
        <ele>319.121</ele>
        <time>2017-10-28T05:43:47Z</time>
      </trkpt>
      <trkpt lat="45.84651" lon="4.58726">
        <ele>318.301</ele>
        <time>2017-10-28T05:43:56Z</time>
      </trkpt>
      <trkpt lat="45.8464" lon="4.58742">
        <ele>317.339</ele>
        <time>2017-10-28T05:44:06Z</time>
      </trkpt>
      <trkpt lat="45.84629" lon="4.5876">
        <ele>316.121</ele>
        <time>2017-10-28T05:44:17Z</time>
      </trkpt>
      <trkpt lat="45.84616" lon="4.58772">
        <ele>314.79</ele>
        <time>2017-10-28T05:44:27Z</time>
      </trkpt>
      <trkpt lat="45.84604" lon="4.5875">
        <ele>313.011</ele>
        <time>2017-10-28T05:44:42Z</time>
      </trkpt>
      <trkpt lat="45.84589" lon="4.58733">
        <ele>311.537</ele>
        <time>2017-10-28T05:44:55Z</time>
      </trkpt>
      <trkpt lat="45.84578" lon="4.58721">
        <ele>310.511</ele>
        <time>2017-10-28T05:45:05Z</time>
      </trkpt>
      <trkpt lat="45.84561" lon="4.58724">
        <ele>310.1</ele>
        <time>2017-10-28T05:45:17Z</time>
      </trkpt>
      <trkpt lat="45.84547" lon="4.58726">
        <ele>311.087</ele>
        <time>2017-10-28T05:45:29Z</time>
      </trkpt>
      <trkpt lat="45.84532" lon="4.58737">
        <ele>311.584</ele>
        <time>2017-10-28T05:45:41Z</time>
      </trkpt>
      <trkpt lat="45.84508" lon="4.58743">
        <ele>310.451</ele>
        <time>2017-10-28T05:45:55Z</time>
      </trkpt>
      <trkpt lat="45.84494" lon="4.58747">
        <ele>308.646</ele>
        <time>2017-10-28T05:46:06Z</time>
      </trkpt>
      <trkpt lat="45.84464" lon="4.5875">
        <ele>306.963</ele>
        <time>2017-10-28T05:46:24Z</time>
      </trkpt>
      <trkpt lat="45.84449" lon="4.58729">
        <ele>306.2</ele>
        <time>2017-10-28T05:46:39Z</time>
      </trkpt>
      <trkpt lat="45.84433" lon="4.58704">
        <ele>306.206</ele>
        <time>2017-10-28T05:46:55Z</time>
      </trkpt>
      <trkpt lat="45.84422" lon="4.58681">
        <ele>306.732</ele>
        <time>2017-10-28T05:47:09Z</time>
      </trkpt>
      <trkpt lat="45.84412" lon="4.5866">
        <ele>307.768</ele>
        <time>2017-10-28T05:47:21Z</time>
      </trkpt>
      <trkpt lat="45.84402" lon="4.58637">
        <ele>308.057</ele>
        <time>2017-10-28T05:47:34Z</time>
      </trkpt>
      <trkpt lat="45.84391" lon="4.58616">
        <ele>307.845</ele>
        <time>2017-10-28T05:47:46Z</time>
      </trkpt>
      <trkpt lat="45.84372" lon="4.58604">
        <ele>307.145</ele>
        <time>2017-10-28T05:48:00Z</time>
      </trkpt>
      <trkpt lat="45.84353" lon="4.5862">
        <ele>305.784</ele>
        <time>2017-10-28T05:48:14Z</time>
      </trkpt>
      <trkpt lat="45.84338" lon="4.5864">
        <ele>302.729</ele>
        <time>2017-10-28T05:48:28Z</time>
      </trkpt>
      <trkpt lat="45.84335" lon="4.58646">
        <ele>301.689</ele>
        <time>2017-10-28T05:48:33Z</time>
      </trkpt>
      <trkpt lat="45.84335" lon="4.58646">
        <ele>248</ele>
        <time>2017-10-28T05:48:40Z</time>
      </trkpt>
      <trkpt lat="45.84335" lon="4.58646">
        <ele>248</ele>
        <time>2017-10-28T05:48:44Z</time>
      </trkpt>
      <trkpt lat="45.84327" lon="4.58636">
        <ele>299.616</ele>
        <time>2017-10-28T05:48:44Z</time>
      </trkpt>
      <trkpt lat="45.84317" lon="4.58617">
        <ele>298.065</ele>
        <time>2017-10-28T05:48:52Z</time>
      </trkpt>
      <trkpt lat="45.84311" lon="4.58606">
        <ele>296.935</ele>
        <time>2017-10-28T05:48:58Z</time>
      </trkpt>
      <trkpt lat="45.84295" lon="4.58581">
        <ele>294.474</ele>
        <time>2017-10-28T05:49:13Z</time>
      </trkpt>
      <trkpt lat="45.8428" lon="4.58576">
        <ele>292.98</ele>
        <time>2017-10-28T05:49:23Z</time>
      </trkpt>
      <trkpt lat="45.84263" lon="4.58579">
        <ele>291.586</ele>
        <time>2017-10-28T05:49:32Z</time>
      </trkpt>
      <trkpt lat="45.84246" lon="4.58583">
        <ele>289.952</ele>
        <time>2017-10-28T05:49:43Z</time>
      </trkpt>
      <trkpt lat="45.84227" lon="4.5859">
        <ele>287.731</ele>
        <time>2017-10-28T05:49:57Z</time>
      </trkpt>
      <trkpt lat="45.84209" lon="4.58594">
        <ele>285.607</ele>
        <time>2017-10-28T05:50:11Z</time>
      </trkpt>
      <trkpt lat="45.84187" lon="4.58596">
        <ele>284.37</ele>
        <time>2017-10-28T05:50:30Z</time>
      </trkpt>
      <trkpt lat="45.84173" lon="4.58604">
        <ele>283.71</ele>
        <time>2017-10-28T05:50:44Z</time>
      </trkpt>
      <trkpt lat="45.84162" lon="4.58607">
        <ele>282.988</ele>
        <time>2017-10-28T05:50:53Z</time>
      </trkpt>
      <trkpt lat="45.84143" lon="4.58597">
        <ele>281.823</ele>
        <time>2017-10-28T05:51:13Z</time>
      </trkpt>
      <trkpt lat="45.84124" lon="4.58602">
        <ele>283.762</ele>
        <time>2017-10-28T05:51:29Z</time>
      </trkpt>
      <trkpt lat="45.84103" lon="4.58607">
        <ele>285.193</ele>
        <time>2017-10-28T05:51:43Z</time>
      </trkpt>
      <trkpt lat="45.84085" lon="4.58631">
        <ele>284.364</ele>
        <time>2017-10-28T05:51:58Z</time>
      </trkpt>
      <trkpt lat="45.84071" lon="4.5865">
        <ele>283.241</ele>
        <time>2017-10-28T05:52:12Z</time>
      </trkpt>
      <trkpt lat="45.84054" lon="4.5866">
        <ele>284.659</ele>
        <time>2017-10-28T05:52:29Z</time>
      </trkpt>
      <trkpt lat="45.8404" lon="4.58665">
        <ele>288.768</ele>
        <time>2017-10-28T05:52:44Z</time>
      </trkpt>
      <trkpt lat="45.84024" lon="4.58664">
        <ele>291.93</ele>
        <time>2017-10-28T05:52:53Z</time>
      </trkpt>
      <trkpt lat="45.84006" lon="4.58674">
        <ele>300.311</ele>
        <time>2017-10-28T05:53:21Z</time>
      </trkpt>
      <trkpt lat="45.83986" lon="4.58665">
        <ele>300.93</ele>
        <time>2017-10-28T05:53:26Z</time>
      </trkpt>
      <trkpt lat="45.83967" lon="4.58634">
        <ele>301.439</ele>
        <time>2017-10-28T05:53:33Z</time>
      </trkpt>
      <trkpt lat="45.83961" lon="4.58635">
        <ele>301.709</ele>
        <time>2017-10-28T05:53:39Z</time>
      </trkpt>
      <trkpt lat="45.83961" lon="4.58635">
        <ele>251.6</ele>
        <time>2017-10-28T05:53:45Z</time>
      </trkpt>
      <trkpt lat="45.83961" lon="4.58635">
        <ele>251.6</ele>
        <time>2017-10-28T05:54:01Z</time>
      </trkpt>
      <trkpt lat="45.83964" lon="4.58611">
        <ele>303.375</ele>
        <time>2017-10-28T05:54:01Z</time>
      </trkpt>
      <trkpt lat="45.83971" lon="4.58587">
        <ele>304.925</ele>
        <time>2017-10-28T05:54:18Z</time>
      </trkpt>
      <trkpt lat="45.83973" lon="4.58571">
        <ele>305.338</ele>
        <time>2017-10-28T05:54:29Z</time>
      </trkpt>
      <trkpt lat="45.83975" lon="4.58551">
        <ele>305.764</ele>
        <time>2017-10-28T05:54:41Z</time>
      </trkpt>
      <trkpt lat="45.83978" lon="4.58524">
        <ele>306.756</ele>
        <time>2017-10-28T05:54:57Z</time>
      </trkpt>
      <trkpt lat="45.83979" lon="4.58495">
        <ele>308.546</ele>
        <time>2017-10-28T05:55:12Z</time>
      </trkpt>
      <trkpt lat="45.83978" lon="4.58472">
        <ele>311.122</ele>
        <time>2017-10-28T05:55:27Z</time>
      </trkpt>
      <trkpt lat="45.83975" lon="4.58443">
        <ele>314.667</ele>
        <time>2017-10-28T05:55:44Z</time>
      </trkpt>
      <trkpt lat="45.83977" lon="4.58414">
        <ele>318.716</ele>
        <time>2017-10-28T05:56:00Z</time>
      </trkpt>
      <trkpt lat="45.83976" lon="4.58392">
        <ele>322.573</ele>
        <time>2017-10-28T05:56:13Z</time>
      </trkpt>
      <trkpt lat="45.83973" lon="4.58358">
        <ele>326.189</ele>
        <time>2017-10-28T05:56:31Z</time>
      </trkpt>
      <trkpt lat="45.83974" lon="4.58337">
        <ele>327.816</ele>
        <time>2017-10-28T05:56:42Z</time>
      </trkpt>
      <trkpt lat="45.83975" lon="4.58312">
        <ele>329.184</ele>
        <time>2017-10-28T05:56:55Z</time>
      </trkpt>
      <trkpt lat="45.83974" lon="4.5828">
        <ele>331.055</ele>
        <time>2017-10-28T05:57:08Z</time>
      </trkpt>
      <trkpt lat="45.83966" lon="4.58256">
        <ele>332.733</ele>
        <time>2017-10-28T05:57:22Z</time>
      </trkpt>
      <trkpt lat="45.8396" lon="4.58238">
        <ele>332.65</ele>
        <time>2017-10-28T05:57:32Z</time>
      </trkpt>
      <trkpt lat="45.83948" lon="4.58217">
        <ele>332.245</ele>
        <time>2017-10-28T05:57:46Z</time>
      </trkpt>
      <trkpt lat="45.83939" lon="4.58201">
        <ele>332.959</ele>
        <time>2017-10-28T05:57:55Z</time>
      </trkpt>
      <trkpt lat="45.83926" lon="4.58175">
        <ele>333.752</ele>
        <time>2017-10-28T05:58:09Z</time>
      </trkpt>
      <trkpt lat="45.83913" lon="4.5815">
        <ele>334.293</ele>
        <time>2017-10-28T05:58:23Z</time>
      </trkpt>
      <trkpt lat="45.83905" lon="4.58128">
        <ele>335.346</ele>
        <time>2017-10-28T05:58:36Z</time>
      </trkpt>
      <trkpt lat="45.83896" lon="4.58103">
        <ele>336.257</ele>
        <time>2017-10-28T05:58:49Z</time>
      </trkpt>
      <trkpt lat="45.83887" lon="4.58083">
        <ele>337.596</ele>
        <time>2017-10-28T05:59:00Z</time>
      </trkpt>
      <trkpt lat="45.83875" lon="4.58057">
        <ele>339.284</ele>
        <time>2017-10-28T05:59:15Z</time>
      </trkpt>
      <trkpt lat="45.83871" lon="4.58046">
        <ele>339.909</ele>
        <time>2017-10-28T05:59:21Z</time>
      </trkpt>
      <trkpt lat="45.83855" lon="4.58023">
        <ele>341.425</ele>
        <time>2017-10-28T05:59:35Z</time>
      </trkpt>
      <trkpt lat="45.83849" lon="4.58013">
        <ele>341.92</ele>
        <time>2017-10-28T05:59:43Z</time>
      </trkpt>
      <trkpt lat="45.83832" lon="4.57983">
        <ele>341.328</ele>
        <time>2017-10-28T06:00:00Z</time>
      </trkpt>
      <trkpt lat="45.83815" lon="4.5798">
        <ele>339.927</ele>
        <time>2017-10-28T06:00:16Z</time>
      </trkpt>
      <trkpt lat="45.83801" lon="4.57972">
        <ele>340.091</ele>
        <time>2017-10-28T06:00:24Z</time>
      </trkpt>
      <trkpt lat="45.83788" lon="4.57968">
        <ele>341.449</ele>
        <time>2017-10-28T06:00:34Z</time>
      </trkpt>
      <trkpt lat="45.83774" lon="4.57958">
        <ele>343.026</ele>
        <time>2017-10-28T06:00:46Z</time>
      </trkpt>
      <trkpt lat="45.83758" lon="4.57947">
        <ele>344.562</ele>
        <time>2017-10-28T06:00:58Z</time>
      </trkpt>
      <trkpt lat="45.83738" lon="4.57933">
        <ele>345.408</ele>
        <time>2017-10-28T06:01:12Z</time>
      </trkpt>
      <trkpt lat="45.83731" lon="4.57912">
        <ele>346.564</ele>
        <time>2017-10-28T06:01:24Z</time>
      </trkpt>
      <trkpt lat="45.83721" lon="4.57893">
        <ele>347.718</ele>
        <time>2017-10-28T06:01:36Z</time>
      </trkpt>
      <trkpt lat="45.83714" lon="4.57874">
        <ele>348.844</ele>
        <time>2017-10-28T06:01:47Z</time>
      </trkpt>
      <trkpt lat="45.83702" lon="4.57858">
        <ele>348.947</ele>
        <time>2017-10-28T06:01:59Z</time>
      </trkpt>
      <trkpt lat="45.83683" lon="4.57841">
        <ele>349.398</ele>
        <time>2017-10-28T06:02:13Z</time>
      </trkpt>
      <trkpt lat="45.83672" lon="4.57827">
        <ele>350.713</ele>
        <time>2017-10-28T06:02:23Z</time>
      </trkpt>
      <trkpt lat="45.8366" lon="4.5781">
        <ele>352.252</ele>
        <time>2017-10-28T06:02:35Z</time>
      </trkpt>
      <trkpt lat="45.83645" lon="4.57787">
        <ele>353.416</ele>
        <time>2017-10-28T06:02:49Z</time>
      </trkpt>
      <trkpt lat="45.83626" lon="4.57767">
        <ele>354.071</ele>
        <time>2017-10-28T06:03:05Z</time>
      </trkpt>
      <trkpt lat="45.83611" lon="4.57746">
        <ele>354.247</ele>
        <time>2017-10-28T06:03:18Z</time>
      </trkpt>
      <trkpt lat="45.836" lon="4.57731">
        <ele>354.641</ele>
        <time>2017-10-28T06:03:29Z</time>
      </trkpt>
      <trkpt lat="45.83582" lon="4.57709">
        <ele>356.232</ele>
        <time>2017-10-28T06:03:45Z</time>
      </trkpt>
      <trkpt lat="45.83565" lon="4.57693">
        <ele>357.245</ele>
        <time>2017-10-28T06:03:58Z</time>
      </trkpt>
      <trkpt lat="45.83548" lon="4.57679">
        <ele>357.161</ele>
        <time>2017-10-28T06:04:10Z</time>
      </trkpt>
      <trkpt lat="45.83545" lon="4.57647">
        <ele>356.695</ele>
        <time>2017-10-28T06:04:25Z</time>
      </trkpt>
      <trkpt lat="45.83543" lon="4.57624">
        <ele>357.602</ele>
        <time>2017-10-28T06:04:36Z</time>
      </trkpt>
      <trkpt lat="45.8354" lon="4.57595">
        <ele>359.195</ele>
        <time>2017-10-28T06:04:50Z</time>
      </trkpt>
      <trkpt lat="45.83535" lon="4.57565">
        <ele>360.3</ele>
        <time>2017-10-28T06:05:04Z</time>
      </trkpt>
      <trkpt lat="45.83531" lon="4.57547">
        <ele>361.286</ele>
        <time>2017-10-28T06:05:13Z</time>
      </trkpt>
      <trkpt lat="45.83525" lon="4.57525">
        <ele>362.354</ele>
        <time>2017-10-28T06:05:24Z</time>
      </trkpt>
      <trkpt lat="45.83522" lon="4.57496">
        <ele>362.571</ele>
        <time>2017-10-28T06:05:38Z</time>
      </trkpt>
      <trkpt lat="45.8352" lon="4.5748">
        <ele>362.748</ele>
        <time>2017-10-28T06:05:46Z</time>
      </trkpt>
      <trkpt lat="45.83507" lon="4.5747">
        <ele>363.228</ele>
        <time>2017-10-28T06:05:57Z</time>
      </trkpt>
      <trkpt lat="45.83483" lon="4.57472">
        <ele>364.861</ele>
        <time>2017-10-28T06:06:13Z</time>
      </trkpt>
      <trkpt lat="45.83463" lon="4.57484">
        <ele>366.771</ele>
        <time>2017-10-28T06:06:25Z</time>
      </trkpt>
      <trkpt lat="45.83443" lon="4.57484">
        <ele>366.776</ele>
        <time>2017-10-28T06:06:37Z</time>
      </trkpt>
      <trkpt lat="45.83425" lon="4.57481">
        <ele>366.529</ele>
        <time>2017-10-28T06:06:49Z</time>
      </trkpt>
      <trkpt lat="45.8341" lon="4.57486">
        <ele>365.932</ele>
        <time>2017-10-28T06:06:59Z</time>
      </trkpt>
      <trkpt lat="45.83398" lon="4.57489">
        <ele>366.151</ele>
        <time>2017-10-28T06:07:08Z</time>
      </trkpt>
      <trkpt lat="45.83383" lon="4.57488">
        <ele>368.279</ele>
        <time>2017-10-28T06:07:21Z</time>
      </trkpt>
      <trkpt lat="45.83369" lon="4.5748">
        <ele>369.623</ele>
        <time>2017-10-28T06:07:31Z</time>
      </trkpt>
      <trkpt lat="45.83348" lon="4.57475">
        <ele>371.029</ele>
        <time>2017-10-28T06:07:45Z</time>
      </trkpt>
      <trkpt lat="45.83327" lon="4.57476">
        <ele>371.463</ele>
        <time>2017-10-28T06:07:59Z</time>
      </trkpt>
      <trkpt lat="45.83297" lon="4.57471">
        <ele>371.673</ele>
        <time>2017-10-28T06:08:19Z</time>
      </trkpt>
      <trkpt lat="45.8328" lon="4.5748">
        <ele>372.571</ele>
        <time>2017-10-28T06:08:33Z</time>
      </trkpt>
      <trkpt lat="45.83266" lon="4.57489">
        <ele>372.144</ele>
        <time>2017-10-28T06:08:42Z</time>
      </trkpt>
      <trkpt lat="45.83256" lon="4.57499">
        <ele>370.471</ele>
        <time>2017-10-28T06:08:50Z</time>
      </trkpt>
      <trkpt lat="45.83241" lon="4.57509">
        <ele>368.998</ele>
        <time>2017-10-28T06:09:00Z</time>
      </trkpt>
      <trkpt lat="45.8323" lon="4.57516">
        <ele>369.132</ele>
        <time>2017-10-28T06:09:08Z</time>
      </trkpt>
      <trkpt lat="45.83212" lon="4.57531">
        <ele>370.165</ele>
        <time>2017-10-28T06:09:22Z</time>
      </trkpt>
      <trkpt lat="45.83188" lon="4.5755">
        <ele>369.412</ele>
        <time>2017-10-28T06:09:40Z</time>
      </trkpt>
      <trkpt lat="45.83164" lon="4.57559">
        <ele>368.145</ele>
        <time>2017-10-28T06:09:54Z</time>
      </trkpt>
      <trkpt lat="45.83148" lon="4.57567">
        <ele>367.636</ele>
        <time>2017-10-28T06:10:05Z</time>
      </trkpt>
      <trkpt lat="45.83128" lon="4.57585">
        <ele>366.723</ele>
        <time>2017-10-28T06:10:19Z</time>
      </trkpt>
      <trkpt lat="45.83114" lon="4.57599">
        <ele>364.316</ele>
        <time>2017-10-28T06:10:32Z</time>
      </trkpt>
      <trkpt lat="45.83095" lon="4.57613">
        <ele>361.801</ele>
        <time>2017-10-28T06:10:44Z</time>
      </trkpt>
      <trkpt lat="45.83077" lon="4.57621">
        <ele>360.291</ele>
        <time>2017-10-28T06:10:57Z</time>
      </trkpt>
      <trkpt lat="45.83062" lon="4.57629">
        <ele>360.406</ele>
        <time>2017-10-28T06:11:07Z</time>
      </trkpt>
      <trkpt lat="45.83036" lon="4.57639">
        <ele>361.021</ele>
        <time>2017-10-28T06:11:23Z</time>
      </trkpt>
      <trkpt lat="45.83023" lon="4.57647">
        <ele>361.305</ele>
        <time>2017-10-28T06:11:34Z</time>
      </trkpt>
      <trkpt lat="45.83009" lon="4.57653">
        <ele>361.45</ele>
        <time>2017-10-28T06:11:43Z</time>
      </trkpt>
      <trkpt lat="45.82988" lon="4.57657">
        <ele>361.848</ele>
        <time>2017-10-28T06:11:56Z</time>
      </trkpt>
      <trkpt lat="45.82966" lon="4.5766">
        <ele>362.008</ele>
        <time>2017-10-28T06:12:10Z</time>
      </trkpt>
      <trkpt lat="45.82949" lon="4.57664">
        <ele>361.286</ele>
        <time>2017-10-28T06:12:20Z</time>
      </trkpt>
      <trkpt lat="45.82938" lon="4.57663">
        <ele>361.031</ele>
        <time>2017-10-28T06:12:26Z</time>
      </trkpt>
      <trkpt lat="45.82922" lon="4.57656">
        <ele>362.058</ele>
        <time>2017-10-28T06:12:37Z</time>
      </trkpt>
      <trkpt lat="45.82908" lon="4.57654">
        <ele>363.9</ele>
        <time>2017-10-28T06:12:47Z</time>
      </trkpt>
      <trkpt lat="45.82886" lon="4.57663">
        <ele>364.874</ele>
        <time>2017-10-28T06:13:01Z</time>
      </trkpt>
      <trkpt lat="45.82875" lon="4.57683">
        <ele>363.925</ele>
        <time>2017-10-28T06:13:14Z</time>
      </trkpt>
      <trkpt lat="45.82866" lon="4.57701">
        <ele>362.8</ele>
        <time>2017-10-28T06:13:25Z</time>
      </trkpt>
      <trkpt lat="45.82847" lon="4.57718">
        <ele>361.253</ele>
        <time>2017-10-28T06:13:38Z</time>
      </trkpt>
      <trkpt lat="45.82837" lon="4.57722">
        <ele>360.352</ele>
        <time>2017-10-28T06:13:44Z</time>
      </trkpt>
      <trkpt lat="45.82818" lon="4.57727">
        <ele>359.885</ele>
        <time>2017-10-28T06:13:56Z</time>
      </trkpt>
      <trkpt lat="45.828" lon="4.5773">
        <ele>360.157</ele>
        <time>2017-10-28T06:14:06Z</time>
      </trkpt>
      <trkpt lat="45.82786" lon="4.5773">
        <ele>360.516</ele>
        <time>2017-10-28T06:14:15Z</time>
      </trkpt>
      <trkpt lat="45.82765" lon="4.57735">
        <ele>360.56</ele>
        <time>2017-10-28T06:14:29Z</time>
      </trkpt>
      <trkpt lat="45.82746" lon="4.57734">
        <ele>360.598</ele>
        <time>2017-10-28T06:14:43Z</time>
      </trkpt>
      <trkpt lat="45.82729" lon="4.57736">
        <ele>361.344</ele>
        <time>2017-10-28T06:14:58Z</time>
      </trkpt>
      <trkpt lat="45.82701" lon="4.57729">
        <ele>363.624</ele>
        <time>2017-10-28T06:15:16Z</time>
      </trkpt>
      <trkpt lat="45.82685" lon="4.57722">
        <ele>366.124</ele>
        <time>2017-10-28T06:15:29Z</time>
      </trkpt>
      <trkpt lat="45.82669" lon="4.57716">
        <ele>366.895</ele>
        <time>2017-10-28T06:15:39Z</time>
      </trkpt>
      <trkpt lat="45.82646" lon="4.57708">
        <ele>368.549</ele>
        <time>2017-10-28T06:15:53Z</time>
      </trkpt>
      <trkpt lat="45.82628" lon="4.57703">
        <ele>369.235</ele>
        <time>2017-10-28T06:16:03Z</time>
      </trkpt>
      <trkpt lat="45.82606" lon="4.57695">
        <ele>368.806</ele>
        <time>2017-10-28T06:16:18Z</time>
      </trkpt>
      <trkpt lat="45.82588" lon="4.57684">
        <ele>370.035</ele>
        <time>2017-10-28T06:16:34Z</time>
      </trkpt>
      <trkpt lat="45.82571" lon="4.57676">
        <ele>371.088</ele>
        <time>2017-10-28T06:16:45Z</time>
      </trkpt>
      <trkpt lat="45.82554" lon="4.57666">
        <ele>372.885</ele>
        <time>2017-10-28T06:16:59Z</time>
      </trkpt>
      <trkpt lat="45.82534" lon="4.57657">
        <ele>374.603</ele>
        <time>2017-10-28T06:17:12Z</time>
      </trkpt>
      <trkpt lat="45.82518" lon="4.57648">
        <ele>373.995</ele>
        <time>2017-10-28T06:17:24Z</time>
      </trkpt>
      <trkpt lat="45.82501" lon="4.57643">
        <ele>374.975</ele>
        <time>2017-10-28T06:17:36Z</time>
      </trkpt>
      <trkpt lat="45.82483" lon="4.57637">
        <ele>375.057</ele>
        <time>2017-10-28T06:17:47Z</time>
      </trkpt>
      <trkpt lat="45.82461" lon="4.57632">
        <ele>375.025</ele>
        <time>2017-10-28T06:18:00Z</time>
      </trkpt>
      <trkpt lat="45.82453" lon="4.57632">
        <ele>375.202</ele>
        <time>2017-10-28T06:18:04Z</time>
      </trkpt>
      <trkpt lat="45.82453" lon="4.57632">
        <ele>321.6</ele>
        <time>2017-10-28T06:18:09Z</time>
      </trkpt>
      <trkpt lat="45.82453" lon="4.57632">
        <ele>321.6</ele>
        <time>2017-10-28T06:18:14Z</time>
      </trkpt>
      <trkpt lat="45.82443" lon="4.57628">
        <ele>376.464</ele>
        <time>2017-10-28T06:18:14Z</time>
      </trkpt>
      <trkpt lat="45.82428" lon="4.57628">
        <ele>377.236</ele>
        <time>2017-10-28T06:18:25Z</time>
      </trkpt>
      <trkpt lat="45.82406" lon="4.5762">
        <ele>375.664</ele>
        <time>2017-10-28T06:18:40Z</time>
      </trkpt>
      <trkpt lat="45.82395" lon="4.57622">
        <ele>374.158</ele>
        <time>2017-10-28T06:18:48Z</time>
      </trkpt>
      <trkpt lat="45.82381" lon="4.57618">
        <ele>373.143</ele>
        <time>2017-10-28T06:18:56Z</time>
      </trkpt>
      <trkpt lat="45.82367" lon="4.57612">
        <ele>372.712</ele>
        <time>2017-10-28T06:19:03Z</time>
      </trkpt>
      <trkpt lat="45.82353" lon="4.57609">
        <ele>372.345</ele>
        <time>2017-10-28T06:19:13Z</time>
      </trkpt>
      <trkpt lat="45.82335" lon="4.57603">
        <ele>372.502</ele>
        <time>2017-10-28T06:19:25Z</time>
      </trkpt>
      <trkpt lat="45.82325" lon="4.57601">
        <ele>372.044</ele>
        <time>2017-10-28T06:19:32Z</time>
      </trkpt>
      <trkpt lat="45.82303" lon="4.57605">
        <ele>369.434</ele>
        <time>2017-10-28T06:19:46Z</time>
      </trkpt>
      <trkpt lat="45.82285" lon="4.57607">
        <ele>368.992</ele>
        <time>2017-10-28T06:19:58Z</time>
      </trkpt>
      <trkpt lat="45.82263" lon="4.57617">
        <ele>370.761</ele>
        <time>2017-10-28T06:20:14Z</time>
      </trkpt>
      <trkpt lat="45.82235" lon="4.57616">
        <ele>368.592</ele>
        <time>2017-10-28T06:20:33Z</time>
      </trkpt>
      <trkpt lat="45.82215" lon="4.57621">
        <ele>366.387</ele>
        <time>2017-10-28T06:20:49Z</time>
      </trkpt>
      <trkpt lat="45.82192" lon="4.57634">
        <ele>365.354</ele>
        <time>2017-10-28T06:21:04Z</time>
      </trkpt>
      <trkpt lat="45.82175" lon="4.57641">
        <ele>366.94</ele>
        <time>2017-10-28T06:21:17Z</time>
      </trkpt>
      <trkpt lat="45.82152" lon="4.57644">
        <ele>367.073</ele>
        <time>2017-10-28T06:21:30Z</time>
      </trkpt>
      <trkpt lat="45.8213" lon="4.57651">
        <ele>367.471</ele>
        <time>2017-10-28T06:21:43Z</time>
      </trkpt>
      <trkpt lat="45.82116" lon="4.57651">
        <ele>367.013</ele>
        <time>2017-10-28T06:21:53Z</time>
      </trkpt>
      <trkpt lat="45.82089" lon="4.57648">
        <ele>366.102</ele>
        <time>2017-10-28T06:22:10Z</time>
      </trkpt>
      <trkpt lat="45.82076" lon="4.57648">
        <ele>366.762</ele>
        <time>2017-10-28T06:22:20Z</time>
      </trkpt>
      <trkpt lat="45.82053" lon="4.57653">
        <ele>365.008</ele>
        <time>2017-10-28T06:22:37Z</time>
      </trkpt>
      <trkpt lat="45.82039" lon="4.57651">
        <ele>363.81</ele>
        <time>2017-10-28T06:22:46Z</time>
      </trkpt>
      <trkpt lat="45.82022" lon="4.57657">
        <ele>362.239</ele>
        <time>2017-10-28T06:22:58Z</time>
      </trkpt>
      <trkpt lat="45.82001" lon="4.57662">
        <ele>359.217</ele>
        <time>2017-10-28T06:23:13Z</time>
      </trkpt>
      <trkpt lat="45.81983" lon="4.57665">
        <ele>356.96</ele>
        <time>2017-10-28T06:23:26Z</time>
      </trkpt>
      <trkpt lat="45.81966" lon="4.57663">
        <ele>355.774</ele>
        <time>2017-10-28T06:23:38Z</time>
      </trkpt>
      <trkpt lat="45.81955" lon="4.57662">
        <ele>355.442</ele>
        <time>2017-10-28T06:23:45Z</time>
      </trkpt>
      <trkpt lat="45.81933" lon="4.57667">
        <ele>354.794</ele>
        <time>2017-10-28T06:24:01Z</time>
      </trkpt>
      <trkpt lat="45.81909" lon="4.57667">
        <ele>354.461</ele>
        <time>2017-10-28T06:24:16Z</time>
      </trkpt>
      <trkpt lat="45.81886" lon="4.57676">
        <ele>354.155</ele>
        <time>2017-10-28T06:24:33Z</time>
      </trkpt>
      <trkpt lat="45.8187" lon="4.5769">
        <ele>352.173</ele>
        <time>2017-10-28T06:24:45Z</time>
      </trkpt>
      <trkpt lat="45.81858" lon="4.57698">
        <ele>349.711</ele>
        <time>2017-10-28T06:24:57Z</time>
      </trkpt>
      <trkpt lat="45.8184" lon="4.57712">
        <ele>346.242</ele>
        <time>2017-10-28T06:25:12Z</time>
      </trkpt>
      <trkpt lat="45.81825" lon="4.57728">
        <ele>343.493</ele>
        <time>2017-10-28T06:25:27Z</time>
      </trkpt>
      <trkpt lat="45.81807" lon="4.57724">
        <ele>343.842</ele>
        <time>2017-10-28T06:25:39Z</time>
      </trkpt>
      <trkpt lat="45.81795" lon="4.57707">
        <ele>342.957</ele>
        <time>2017-10-28T06:25:50Z</time>
      </trkpt>
      <trkpt lat="45.81783" lon="4.57692">
        <ele>341.016</ele>
        <time>2017-10-28T06:26:02Z</time>
      </trkpt>
      <trkpt lat="45.81764" lon="4.57673">
        <ele>339.756</ele>
        <time>2017-10-28T06:26:18Z</time>
      </trkpt>
      <trkpt lat="45.81748" lon="4.57649">
        <ele>339.592</ele>
        <time>2017-10-28T06:26:36Z</time>
      </trkpt>
      <trkpt lat="45.81724" lon="4.5763">
        <ele>341.126</ele>
        <time>2017-10-28T06:26:54Z</time>
      </trkpt>
      <trkpt lat="45.81721" lon="4.57625">
        <ele>342.157</ele>
        <time>2017-10-28T06:26:58Z</time>
      </trkpt>
      <trkpt lat="45.81721" lon="4.57625">
        <ele>290.5</ele>
        <time>2017-10-28T06:27:06Z</time>
      </trkpt>
      <trkpt lat="45.81721" lon="4.57625">
        <ele>290.5</ele>
        <time>2017-10-28T06:27:13Z</time>
      </trkpt>
      <trkpt lat="45.81712" lon="4.5763">
        <ele>345.943</ele>
        <time>2017-10-28T06:27:13Z</time>
      </trkpt>
      <trkpt lat="45.81702" lon="4.57638">
        <ele>345.777</ele>
        <time>2017-10-28T06:27:26Z</time>
      </trkpt>
      <trkpt lat="45.81702" lon="4.57638">
        <ele>345.777</ele>
        <time>2017-10-28T06:29:59Z</time>
      </trkpt>
      <trkpt lat="45.81704" lon="4.57613">
        <ele>343.852</ele>
        <time>2017-10-28T06:34:08Z</time>
      </trkpt>
      <trkpt lat="45.81692" lon="4.57593">
        <ele>343.779</ele>
        <time>2017-10-28T06:34:23Z</time>
      </trkpt>
      <trkpt lat="45.81684" lon="4.5758">
        <ele>344.138</ele>
        <time>2017-10-28T06:34:31Z</time>
      </trkpt>
      <trkpt lat="45.81672" lon="4.57559">
        <ele>345.15</ele>
        <time>2017-10-28T06:34:45Z</time>
      </trkpt>
      <trkpt lat="45.81657" lon="4.57532">
        <ele>345.615</ele>
        <time>2017-10-28T06:35:01Z</time>
      </trkpt>
      <trkpt lat="45.81652" lon="4.57514">
        <ele>346</ele>
        <time>2017-10-28T06:35:12Z</time>
      </trkpt>
      <trkpt lat="45.81643" lon="4.5749">
        <ele>346.277</ele>
        <time>2017-10-28T06:35:24Z</time>
      </trkpt>
      <trkpt lat="45.81624" lon="4.57487">
        <ele>346.43</ele>
        <time>2017-10-28T06:35:35Z</time>
      </trkpt>
      <trkpt lat="45.81614" lon="4.57482">
        <ele>346.731</ele>
        <time>2017-10-28T06:35:41Z</time>
      </trkpt>
      <trkpt lat="45.81595" lon="4.5747">
        <ele>347.808</ele>
        <time>2017-10-28T06:35:56Z</time>
      </trkpt>
      <trkpt lat="45.81574" lon="4.57463">
        <ele>349.447</ele>
        <time>2017-10-28T06:36:07Z</time>
      </trkpt>
      <trkpt lat="45.81561" lon="4.57481">
        <ele>352.08</ele>
        <time>2017-10-28T06:36:21Z</time>
      </trkpt>
      <trkpt lat="45.81546" lon="4.57499">
        <ele>353.593</ele>
        <time>2017-10-28T06:36:34Z</time>
      </trkpt>
      <trkpt lat="45.81528" lon="4.57512">
        <ele>353.531</ele>
        <time>2017-10-28T06:36:49Z</time>
      </trkpt>
      <trkpt lat="45.81512" lon="4.57522">
        <ele>351.115</ele>
        <time>2017-10-28T06:37:03Z</time>
      </trkpt>
      <trkpt lat="45.81479" lon="4.57527">
        <ele>347.456</ele>
        <time>2017-10-28T06:37:21Z</time>
      </trkpt>
      <trkpt lat="45.81469" lon="4.57528">
        <ele>346.075</ele>
        <time>2017-10-28T06:37:29Z</time>
      </trkpt>
      <trkpt lat="45.81442" lon="4.57526">
        <ele>343.546</ele>
        <time>2017-10-28T06:37:49Z</time>
      </trkpt>
      <trkpt lat="45.8142" lon="4.57529">
        <ele>340.903</ele>
        <time>2017-10-28T06:38:04Z</time>
      </trkpt>
      <trkpt lat="45.81406" lon="4.57523">
        <ele>339.836</ele>
        <time>2017-10-28T06:38:13Z</time>
      </trkpt>
      <trkpt lat="45.81398" lon="4.57515">
        <ele>339.301</ele>
        <time>2017-10-28T06:38:20Z</time>
      </trkpt>
      <trkpt lat="45.81387" lon="4.57502">
        <ele>337.856</ele>
        <time>2017-10-28T06:38:31Z</time>
      </trkpt>
      <trkpt lat="45.81377" lon="4.5749">
        <ele>336.201</ele>
        <time>2017-10-28T06:38:39Z</time>
      </trkpt>
      <trkpt lat="45.8137" lon="4.57482">
        <ele>334.676</ele>
        <time>2017-10-28T06:38:46Z</time>
      </trkpt>
      <trkpt lat="45.81373" lon="4.57451">
        <ele>332.996</ele>
        <time>2017-10-28T06:39:01Z</time>
      </trkpt>
      <trkpt lat="45.81369" lon="4.5743">
        <ele>332.708</ele>
        <time>2017-10-28T06:39:12Z</time>
      </trkpt>
      <trkpt lat="45.81365" lon="4.57416">
        <ele>332.544</ele>
        <time>2017-10-28T06:39:22Z</time>
      </trkpt>
      <trkpt lat="45.81348" lon="4.57399">
        <ele>333.936</ele>
        <time>2017-10-28T06:39:35Z</time>
      </trkpt>
      <trkpt lat="45.81338" lon="4.57391">
        <ele>335.9</ele>
        <time>2017-10-28T06:39:43Z</time>
      </trkpt>
      <trkpt lat="45.81324" lon="4.57375">
        <ele>338.971</ele>
        <time>2017-10-28T06:39:56Z</time>
      </trkpt>
      <trkpt lat="45.81311" lon="4.57357">
        <ele>341.015</ele>
        <time>2017-10-28T06:40:08Z</time>
      </trkpt>
      <trkpt lat="45.81295" lon="4.57331">
        <ele>342.022</ele>
        <time>2017-10-28T06:40:23Z</time>
      </trkpt>
      <trkpt lat="45.8128" lon="4.57311">
        <ele>341.886</ele>
        <time>2017-10-28T06:40:36Z</time>
      </trkpt>
      <trkpt lat="45.81272" lon="4.57277">
        <ele>340.256</ele>
        <time>2017-10-28T06:40:50Z</time>
      </trkpt>
      <trkpt lat="45.81275" lon="4.57255">
        <ele>337.524</ele>
        <time>2017-10-28T06:41:01Z</time>
      </trkpt>
      <trkpt lat="45.8127" lon="4.5723">
        <ele>335.051</ele>
        <time>2017-10-28T06:41:17Z</time>
      </trkpt>
      <trkpt lat="45.81267" lon="4.57201">
        <ele>334.065</ele>
        <time>2017-10-28T06:41:27Z</time>
      </trkpt>
      <trkpt lat="45.81263" lon="4.5717">
        <ele>332.574</ele>
        <time>2017-10-28T06:41:43Z</time>
      </trkpt>
      <trkpt lat="45.81259" lon="4.57137">
        <ele>331.402</ele>
        <time>2017-10-28T06:41:54Z</time>
      </trkpt>
      <trkpt lat="45.81244" lon="4.5711">
        <ele>331.687</ele>
        <time>2017-10-28T06:42:08Z</time>
      </trkpt>
      <trkpt lat="45.8124" lon="4.57099">
        <ele>332.285</ele>
        <time>2017-10-28T06:42:15Z</time>
      </trkpt>
      <trkpt lat="45.81231" lon="4.57076">
        <ele>333.322</ele>
        <time>2017-10-28T06:42:26Z</time>
      </trkpt>
      <trkpt lat="45.81226" lon="4.57058">
        <ele>334.279</ele>
        <time>2017-10-28T06:42:34Z</time>
      </trkpt>
      <trkpt lat="45.81222" lon="4.57032">
        <ele>334.427</ele>
        <time>2017-10-28T06:42:46Z</time>
      </trkpt>
      <trkpt lat="45.81222" lon="4.57009">
        <ele>335.04</ele>
        <time>2017-10-28T06:42:57Z</time>
      </trkpt>
      <trkpt lat="45.81227" lon="4.56977">
        <ele>336.942</ele>
        <time>2017-10-28T06:43:10Z</time>
      </trkpt>
      <trkpt lat="45.81227" lon="4.56966">
        <ele>337.413</ele>
        <time>2017-10-28T06:43:15Z</time>
      </trkpt>
      <trkpt lat="45.81231" lon="4.56946">
        <ele>337.021</ele>
        <time>2017-10-28T06:43:27Z</time>
      </trkpt>
      <trkpt lat="45.81239" lon="4.56918">
        <ele>335.371</ele>
        <time>2017-10-28T06:43:40Z</time>
      </trkpt>
      <trkpt lat="45.81249" lon="4.56899">
        <ele>333.48</ele>
        <time>2017-10-28T06:43:50Z</time>
      </trkpt>
      <trkpt lat="45.81256" lon="4.56879">
        <ele>331.557</ele>
        <time>2017-10-28T06:44:00Z</time>
      </trkpt>
      <trkpt lat="45.81263" lon="4.56858">
        <ele>331.146</ele>
        <time>2017-10-28T06:44:10Z</time>
      </trkpt>
      <trkpt lat="45.81256" lon="4.5684">
        <ele>332.044</ele>
        <time>2017-10-28T06:44:25Z</time>
      </trkpt>
      <trkpt lat="45.81255" lon="4.56818">
        <ele>333.837</ele>
        <time>2017-10-28T06:44:41Z</time>
      </trkpt>
      <trkpt lat="45.81255" lon="4.56777">
        <ele>332.231</ele>
        <time>2017-10-28T06:44:58Z</time>
      </trkpt>
      <trkpt lat="45.81253" lon="4.56765">
        <ele>331.008</ele>
        <time>2017-10-28T06:45:06Z</time>
      </trkpt>
      <trkpt lat="45.81249" lon="4.56749">
        <ele>331.532</ele>
        <time>2017-10-28T06:45:17Z</time>
      </trkpt>
      <trkpt lat="45.81244" lon="4.56738">
        <ele>331.454</ele>
        <time>2017-10-28T06:45:28Z</time>
      </trkpt>
      <trkpt lat="45.81242" lon="4.56721">
        <ele>332.356</ele>
        <time>2017-10-28T06:45:39Z</time>
      </trkpt>
      <trkpt lat="45.81228" lon="4.56707">
        <ele>335.638</ele>
        <time>2017-10-28T06:45:54Z</time>
      </trkpt>
      <trkpt lat="45.81215" lon="4.56706">
        <ele>339.554</ele>
        <time>2017-10-28T06:46:10Z</time>
      </trkpt>
      <trkpt lat="45.81201" lon="4.56703">
        <ele>341.851</ele>
        <time>2017-10-28T06:46:20Z</time>
      </trkpt>
      <trkpt lat="45.81184" lon="4.56696">
        <ele>346.174</ele>
        <time>2017-10-28T06:46:39Z</time>
      </trkpt>
      <trkpt lat="45.81175" lon="4.56694">
        <ele>349.353</ele>
        <time>2017-10-28T06:46:47Z</time>
      </trkpt>
      <trkpt lat="45.81161" lon="4.56685">
        <ele>355.013</ele>
        <time>2017-10-28T06:47:03Z</time>
      </trkpt>
      <trkpt lat="45.81147" lon="4.56678">
        <ele>357.807</ele>
        <time>2017-10-28T06:47:14Z</time>
      </trkpt>
      <trkpt lat="45.81126" lon="4.56668">
        <ele>361.182</ele>
        <time>2017-10-28T06:47:31Z</time>
      </trkpt>
      <trkpt lat="45.8111" lon="4.56662">
        <ele>361.947</ele>
        <time>2017-10-28T06:47:41Z</time>
      </trkpt>
      <trkpt lat="45.81097" lon="4.56645">
        <ele>363.76</ele>
        <time>2017-10-28T06:47:55Z</time>
      </trkpt>
      <trkpt lat="45.81081" lon="4.56629">
        <ele>366.894</ele>
        <time>2017-10-28T06:48:12Z</time>
      </trkpt>
      <trkpt lat="45.8106" lon="4.56613">
        <ele>370.286</ele>
        <time>2017-10-28T06:48:31Z</time>
      </trkpt>
      <trkpt lat="45.81046" lon="4.56605">
        <ele>373.588</ele>
        <time>2017-10-28T06:48:44Z</time>
      </trkpt>
      <trkpt lat="45.81036" lon="4.56601">
        <ele>374.188</ele>
        <time>2017-10-28T06:48:57Z</time>
      </trkpt>
      <trkpt lat="45.81018" lon="4.56591">
        <ele>374.752</ele>
        <time>2017-10-28T06:49:18Z</time>
      </trkpt>
      <trkpt lat="45.81007" lon="4.56583">
        <ele>377.179</ele>
        <time>2017-10-28T06:49:29Z</time>
      </trkpt>
      <trkpt lat="45.80991" lon="4.56579">
        <ele>380.307</ele>
        <time>2017-10-28T06:49:43Z</time>
      </trkpt>
      <trkpt lat="45.80975" lon="4.56568">
        <ele>383.663</ele>
        <time>2017-10-28T06:50:01Z</time>
      </trkpt>
      <trkpt lat="45.80958" lon="4.56558">
        <ele>385.376</ele>
        <time>2017-10-28T06:50:16Z</time>
      </trkpt>
      <trkpt lat="45.80934" lon="4.56541">
        <ele>387.376</ele>
        <time>2017-10-28T06:50:33Z</time>
      </trkpt>
      <trkpt lat="45.8092" lon="4.56537">
        <ele>389.823</ele>
        <time>2017-10-28T06:50:42Z</time>
      </trkpt>
      <trkpt lat="45.8091" lon="4.56529">
        <ele>392.791</ele>
        <time>2017-10-28T06:50:51Z</time>
      </trkpt>
      <trkpt lat="45.80906" lon="4.56527">
        <ele>393.356</ele>
        <time>2017-10-28T06:50:53Z</time>
      </trkpt>
      <trkpt lat="45.80906" lon="4.56527">
        <ele>350.2</ele>
        <time>2017-10-28T06:50:58Z</time>
      </trkpt>
      <trkpt lat="45.80906" lon="4.56527">
        <ele>350.2</ele>
        <time>2017-10-28T06:51:00Z</time>
      </trkpt>
      <trkpt lat="45.80898" lon="4.56522">
        <ele>394.994</ele>
        <time>2017-10-28T06:51:00Z</time>
      </trkpt>
      <trkpt lat="45.8089" lon="4.56516">
        <ele>397.029</ele>
        <time>2017-10-28T06:51:09Z</time>
      </trkpt>
      <trkpt lat="45.80878" lon="4.56507">
        <ele>399.768</ele>
        <time>2017-10-28T06:51:22Z</time>
      </trkpt>
      <trkpt lat="45.80868" lon="4.56496">
        <ele>401.634</ele>
        <time>2017-10-28T06:51:32Z</time>
      </trkpt>
      <trkpt lat="45.80858" lon="4.56489">
        <ele>402.336</ele>
        <time>2017-10-28T06:51:38Z</time>
      </trkpt>
      <trkpt lat="45.80858" lon="4.56489">
        <ele>356.3</ele>
        <time>2017-10-28T06:51:45Z</time>
      </trkpt>
      <trkpt lat="45.80858" lon="4.56489">
        <ele>356.3</ele>
        <time>2017-10-28T06:51:50Z</time>
      </trkpt>
      <trkpt lat="45.80851" lon="4.56483">
        <ele>403.345</ele>
        <time>2017-10-28T06:51:50Z</time>
      </trkpt>
      <trkpt lat="45.8083" lon="4.56468">
        <ele>405.149</ele>
        <time>2017-10-28T06:52:08Z</time>
      </trkpt>
      <trkpt lat="45.80817" lon="4.56441">
        <ele>407.737</ele>
        <time>2017-10-28T06:52:25Z</time>
      </trkpt>
      <trkpt lat="45.80814" lon="4.56422">
        <ele>408.699</ele>
        <time>2017-10-28T06:52:35Z</time>
      </trkpt>
      <trkpt lat="45.80801" lon="4.56403">
        <ele>409.166</ele>
        <time>2017-10-28T06:52:46Z</time>
      </trkpt>
      <trkpt lat="45.80791" lon="4.5638">
        <ele>408.825</ele>
        <time>2017-10-28T06:53:01Z</time>
      </trkpt>
      <trkpt lat="45.80782" lon="4.56355">
        <ele>408.925</ele>
        <time>2017-10-28T06:53:17Z</time>
      </trkpt>
      <trkpt lat="45.8078" lon="4.56336">
        <ele>411.423</ele>
        <time>2017-10-28T06:53:30Z</time>
      </trkpt>
      <trkpt lat="45.80775" lon="4.56324">
        <ele>414.014</ele>
        <time>2017-10-28T06:53:40Z</time>
      </trkpt>
      <trkpt lat="45.80775" lon="4.56324">
        <ele>370.5</ele>
        <time>2017-10-28T06:53:47Z</time>
      </trkpt>
      <trkpt lat="45.80775" lon="4.56324">
        <ele>370.5</ele>
        <time>2017-10-28T06:53:54Z</time>
      </trkpt>
      <trkpt lat="45.80772" lon="4.56312">
        <ele>418.344</ele>
        <time>2017-10-28T06:53:54Z</time>
      </trkpt>
      <trkpt lat="45.80755" lon="4.56285">
        <ele>423.555</ele>
        <time>2017-10-28T06:54:14Z</time>
      </trkpt>
      <trkpt lat="45.80744" lon="4.56265">
        <ele>425.262</ele>
        <time>2017-10-28T06:54:30Z</time>
      </trkpt>
      <trkpt lat="45.80739" lon="4.56243">
        <ele>427.977</ele>
        <time>2017-10-28T06:54:44Z</time>
      </trkpt>
      <trkpt lat="45.80734" lon="4.5623">
        <ele>429.481</ele>
        <time>2017-10-28T06:54:53Z</time>
      </trkpt>
      <trkpt lat="45.80715" lon="4.56213">
        <ele>433.324</ele>
        <time>2017-10-28T06:55:13Z</time>
      </trkpt>
      <trkpt lat="45.80699" lon="4.56196">
        <ele>436.676</ele>
        <time>2017-10-28T06:55:30Z</time>
      </trkpt>
      <trkpt lat="45.80681" lon="4.56179">
        <ele>440.316</ele>
        <time>2017-10-28T06:55:47Z</time>
      </trkpt>
      <trkpt lat="45.8067" lon="4.56163">
        <ele>442.659</ele>
        <time>2017-10-28T06:55:59Z</time>
      </trkpt>
      <trkpt lat="45.80665" lon="4.56151">
        <ele>443.58</ele>
        <time>2017-10-28T06:56:07Z</time>
      </trkpt>
      <trkpt lat="45.80657" lon="4.56131">
        <ele>445.583</ele>
        <time>2017-10-28T06:56:21Z</time>
      </trkpt>
      <trkpt lat="45.80632" lon="4.56121">
        <ele>448.09</ele>
        <time>2017-10-28T06:56:41Z</time>
      </trkpt>
      <trkpt lat="45.80614" lon="4.56118">
        <ele>449.463</ele>
        <time>2017-10-28T06:56:54Z</time>
      </trkpt>
      <trkpt lat="45.80596" lon="4.56117">
        <ele>450.126</ele>
        <time>2017-10-28T06:57:07Z</time>
      </trkpt>
      <trkpt lat="45.80581" lon="4.56117">
        <ele>450.261</ele>
        <time>2017-10-28T06:57:18Z</time>
      </trkpt>
      <trkpt lat="45.80558" lon="4.5611">
        <ele>450.056</ele>
        <time>2017-10-28T06:57:34Z</time>
      </trkpt>
      <trkpt lat="45.80532" lon="4.56099">
        <ele>450.844</ele>
        <time>2017-10-28T06:57:50Z</time>
      </trkpt>
      <trkpt lat="45.80515" lon="4.56096">
        <ele>451.544</ele>
        <time>2017-10-28T06:58:02Z</time>
      </trkpt>
      <trkpt lat="45.80504" lon="4.56063">
        <ele>452.441</ele>
        <time>2017-10-28T06:58:20Z</time>
      </trkpt>
      <trkpt lat="45.80509" lon="4.56035">
        <ele>454.073</ele>
        <time>2017-10-28T06:58:33Z</time>
      </trkpt>
      <trkpt lat="45.80512" lon="4.56018">
        <ele>454.976</ele>
        <time>2017-10-28T06:58:41Z</time>
      </trkpt>
      <trkpt lat="45.80516" lon="4.5599">
        <ele>455.795</ele>
        <time>2017-10-28T06:58:54Z</time>
      </trkpt>
      <trkpt lat="45.80518" lon="4.5596">
        <ele>457.253</ele>
        <time>2017-10-28T06:59:09Z</time>
      </trkpt>
      <trkpt lat="45.80521" lon="4.55937">
        <ele>457.922</ele>
        <time>2017-10-28T06:59:21Z</time>
      </trkpt>
      <trkpt lat="45.80522" lon="4.55904">
        <ele>458.281</ele>
        <time>2017-10-28T06:59:37Z</time>
      </trkpt>
      <trkpt lat="45.80519" lon="4.55885">
        <ele>458.837</ele>
        <time>2017-10-28T06:59:47Z</time>
      </trkpt>
      <trkpt lat="45.80516" lon="4.55866">
        <ele>459.936</ele>
        <time>2017-10-28T06:59:57Z</time>
      </trkpt>
      <trkpt lat="45.8051" lon="4.55839">
        <ele>462.192</ele>
        <time>2017-10-28T07:00:11Z</time>
      </trkpt>
      <trkpt lat="45.80506" lon="4.55816">
        <ele>464.535</ele>
        <time>2017-10-28T07:00:22Z</time>
      </trkpt>
      <trkpt lat="45.80504" lon="4.55797">
        <ele>466.25</ele>
        <time>2017-10-28T07:00:31Z</time>
      </trkpt>
      <trkpt lat="45.80505" lon="4.5578">
        <ele>467.8</ele>
        <time>2017-10-28T07:00:39Z</time>
      </trkpt>
      <trkpt lat="45.80507" lon="4.55758">
        <ele>469.688</ele>
        <time>2017-10-28T07:00:51Z</time>
      </trkpt>
      <trkpt lat="45.80507" lon="4.55728">
        <ele>471.528</ele>
        <time>2017-10-28T07:01:05Z</time>
      </trkpt>
      <trkpt lat="45.8051" lon="4.55702">
        <ele>471.825</ele>
        <time>2017-10-28T07:01:18Z</time>
      </trkpt>
      <trkpt lat="45.80509" lon="4.55671">
        <ele>470.142</ele>
        <time>2017-10-28T07:01:33Z</time>
      </trkpt>
      <trkpt lat="45.80508" lon="4.55658">
        <ele>469.639</ele>
        <time>2017-10-28T07:01:39Z</time>
      </trkpt>
      <trkpt lat="45.80506" lon="4.5563">
        <ele>468.145</ele>
        <time>2017-10-28T07:01:52Z</time>
      </trkpt>
      <trkpt lat="45.80506" lon="4.55615">
        <ele>467.021</ele>
        <time>2017-10-28T07:02:00Z</time>
      </trkpt>
      <trkpt lat="45.80503" lon="4.55586">
        <ele>466.001</ele>
        <time>2017-10-28T07:02:15Z</time>
      </trkpt>
      <trkpt lat="45.805" lon="4.55558">
        <ele>465.751</ele>
        <time>2017-10-28T07:02:29Z</time>
      </trkpt>
      <trkpt lat="45.80495" lon="4.55529">
        <ele>465.331</ele>
        <time>2017-10-28T07:02:43Z</time>
      </trkpt>
      <trkpt lat="45.80494" lon="4.55508">
        <ele>464.915</ele>
        <time>2017-10-28T07:02:53Z</time>
      </trkpt>
      <trkpt lat="45.80491" lon="4.55487">
        <ele>464.36</ele>
        <time>2017-10-28T07:03:03Z</time>
      </trkpt>
      <trkpt lat="45.80488" lon="4.55464">
        <ele>463.212</ele>
        <time>2017-10-28T07:03:14Z</time>
      </trkpt>
      <trkpt lat="45.80491" lon="4.5544">
        <ele>461.615</ele>
        <time>2017-10-28T07:03:26Z</time>
      </trkpt>
      <trkpt lat="45.805" lon="4.55424">
        <ele>460.31</ele>
        <time>2017-10-28T07:03:35Z</time>
      </trkpt>
      <trkpt lat="45.80507" lon="4.55401">
        <ele>458.791</ele>
        <time>2017-10-28T07:03:47Z</time>
      </trkpt>
      <trkpt lat="45.8052" lon="4.55374">
        <ele>456.479</ele>
        <time>2017-10-28T07:04:01Z</time>
      </trkpt>
      <trkpt lat="45.80527" lon="4.5536">
        <ele>456.02</ele>
        <time>2017-10-28T07:04:09Z</time>
      </trkpt>
      <trkpt lat="45.8054" lon="4.55338">
        <ele>455.653</ele>
        <time>2017-10-28T07:04:22Z</time>
      </trkpt>
      <trkpt lat="45.80542" lon="4.55324">
        <ele>455.492</ele>
        <time>2017-10-28T07:04:30Z</time>
      </trkpt>
      <trkpt lat="45.80534" lon="4.55299">
        <ele>456.02</ele>
        <time>2017-10-28T07:04:42Z</time>
      </trkpt>
      <trkpt lat="45.80528" lon="4.55276">
        <ele>455.137</ele>
        <time>2017-10-28T07:04:54Z</time>
      </trkpt>
      <trkpt lat="45.80525" lon="4.55244">
        <ele>453.041</ele>
        <time>2017-10-28T07:05:08Z</time>
      </trkpt>
      <trkpt lat="45.80525" lon="4.55221">
        <ele>451.612</ele>
        <time>2017-10-28T07:05:18Z</time>
      </trkpt>
      <trkpt lat="45.80523" lon="4.552">
        <ele>450.241</ele>
        <time>2017-10-28T07:05:27Z</time>
      </trkpt>
      <trkpt lat="45.80526" lon="4.55181">
        <ele>448.81</ele>
        <time>2017-10-28T07:05:36Z</time>
      </trkpt>
      <trkpt lat="45.80528" lon="4.55164">
        <ele>447.563</ele>
        <time>2017-10-28T07:05:44Z</time>
      </trkpt>
      <trkpt lat="45.80529" lon="4.55152">
        <ele>446.603</ele>
        <time>2017-10-28T07:05:50Z</time>
      </trkpt>
      <trkpt lat="45.80513" lon="4.55136">
        <ele>444.717</ele>
        <time>2017-10-28T07:06:02Z</time>
      </trkpt>
      <trkpt lat="45.80497" lon="4.5514">
        <ele>444.115</ele>
        <time>2017-10-28T07:06:13Z</time>
      </trkpt>
      <trkpt lat="45.80481" lon="4.55161">
        <ele>444.293</ele>
        <time>2017-10-28T07:06:30Z</time>
      </trkpt>
      <trkpt lat="45.80457" lon="4.55172">
        <ele>445.186</ele>
        <time>2017-10-28T07:06:47Z</time>
      </trkpt>
      <trkpt lat="45.80445" lon="4.55193">
        <ele>444.676</ele>
        <time>2017-10-28T07:06:59Z</time>
      </trkpt>
      <trkpt lat="45.8044" lon="4.55212">
        <ele>443.447</ele>
        <time>2017-10-28T07:07:10Z</time>
      </trkpt>
      <trkpt lat="45.80425" lon="4.55231">
        <ele>445.092</ele>
        <time>2017-10-28T07:07:24Z</time>
      </trkpt>
      <trkpt lat="45.8041" lon="4.55223">
        <ele>446.953</ele>
        <time>2017-10-28T07:07:34Z</time>
      </trkpt>
      <trkpt lat="45.804" lon="4.55223">
        <ele>448.41</ele>
        <time>2017-10-28T07:07:42Z</time>
      </trkpt>
      <trkpt lat="45.80385" lon="4.55215">
        <ele>448.877</ele>
        <time>2017-10-28T07:07:56Z</time>
      </trkpt>
      <trkpt lat="45.80371" lon="4.55203">
        <ele>449.211</ele>
        <time>2017-10-28T07:08:05Z</time>
      </trkpt>
      <trkpt lat="45.80357" lon="4.55187">
        <ele>449.764</ele>
        <time>2017-10-28T07:08:19Z</time>
      </trkpt>
      <trkpt lat="45.80346" lon="4.55171">
        <ele>451.168</ele>
        <time>2017-10-28T07:08:31Z</time>
      </trkpt>
      <trkpt lat="45.80328" lon="4.55155">
        <ele>452.772</ele>
        <time>2017-10-28T07:08:46Z</time>
      </trkpt>
      <trkpt lat="45.80308" lon="4.55163">
        <ele>454.903</ele>
        <time>2017-10-28T07:09:01Z</time>
      </trkpt>
      <trkpt lat="45.80287" lon="4.55179">
        <ele>456.213</ele>
        <time>2017-10-28T07:09:16Z</time>
      </trkpt>
      <trkpt lat="45.8027" lon="4.5519">
        <ele>457.032</ele>
        <time>2017-10-28T07:09:28Z</time>
      </trkpt>
      <trkpt lat="45.8025" lon="4.5518">
        <ele>458.31</ele>
        <time>2017-10-28T07:09:43Z</time>
      </trkpt>
      <trkpt lat="45.80237" lon="4.55158">
        <ele>459.603</ele>
        <time>2017-10-28T07:09:55Z</time>
      </trkpt>
      <trkpt lat="45.80229" lon="4.55142">
        <ele>460.577</ele>
        <time>2017-10-28T07:10:05Z</time>
      </trkpt>
      <trkpt lat="45.80223" lon="4.55125">
        <ele>461.364</ele>
        <time>2017-10-28T07:10:17Z</time>
      </trkpt>
      <trkpt lat="45.80248" lon="4.55097">
        <ele>459.578</ele>
        <time>2017-10-28T07:10:34Z</time>
      </trkpt>
      <trkpt lat="45.80261" lon="4.5508">
        <ele>458.547</ele>
        <time>2017-10-28T07:10:45Z</time>
      </trkpt>
      <trkpt lat="45.80273" lon="4.55067">
        <ele>458.013</ele>
        <time>2017-10-28T07:10:55Z</time>
      </trkpt>
      <trkpt lat="45.80288" lon="4.55051">
        <ele>458.268</ele>
        <time>2017-10-28T07:11:07Z</time>
      </trkpt>
      <trkpt lat="45.80304" lon="4.55032">
        <ele>459.137</ele>
        <time>2017-10-28T07:11:18Z</time>
      </trkpt>
      <trkpt lat="45.80315" lon="4.55021">
        <ele>461.535</ele>
        <time>2017-10-28T07:11:28Z</time>
      </trkpt>
      <trkpt lat="45.80331" lon="4.55018">
        <ele>463.738</ele>
        <time>2017-10-28T07:11:39Z</time>
      </trkpt>
      <trkpt lat="45.80351" lon="4.55011">
        <ele>465.813</ele>
        <time>2017-10-28T07:11:53Z</time>
      </trkpt>
      <trkpt lat="45.80364" lon="4.55007">
        <ele>465.682</ele>
        <time>2017-10-28T07:12:01Z</time>
      </trkpt>
      <trkpt lat="45.80385" lon="4.54996">
        <ele>465.229</ele>
        <time>2017-10-28T07:12:15Z</time>
      </trkpt>
      <trkpt lat="45.80396" lon="4.54991">
        <ele>465.333</ele>
        <time>2017-10-28T07:12:23Z</time>
      </trkpt>
      <trkpt lat="45.80409" lon="4.5497">
        <ele>465.398</ele>
        <time>2017-10-28T07:12:36Z</time>
      </trkpt>
      <trkpt lat="45.80415" lon="4.54948">
        <ele>464.925</ele>
        <time>2017-10-28T07:12:47Z</time>
      </trkpt>
      <trkpt lat="45.80418" lon="4.54919">
        <ele>465.47</ele>
        <time>2017-10-28T07:13:00Z</time>
      </trkpt>
      <trkpt lat="45.8042" lon="4.54897">
        <ele>465.455</ele>
        <time>2017-10-28T07:13:11Z</time>
      </trkpt>
      <trkpt lat="45.80419" lon="4.54868">
        <ele>465.804</ele>
        <time>2017-10-28T07:13:26Z</time>
      </trkpt>
      <trkpt lat="45.80417" lon="4.54857">
        <ele>466.839</ele>
        <time>2017-10-28T07:13:33Z</time>
      </trkpt>
      <trkpt lat="45.8042" lon="4.5482">
        <ele>469.832</ele>
        <time>2017-10-28T07:13:49Z</time>
      </trkpt>
      <trkpt lat="45.80422" lon="4.54807">
        <ele>470.633</ele>
        <time>2017-10-28T07:13:55Z</time>
      </trkpt>
      <trkpt lat="45.80422" lon="4.54807">
        <ele>420.1</ele>
        <time>2017-10-28T07:14:01Z</time>
      </trkpt>
      <trkpt lat="45.80422" lon="4.54807">
        <ele>420.1</ele>
        <time>2017-10-28T07:14:07Z</time>
      </trkpt>
      <trkpt lat="45.80414" lon="4.54798">
        <ele>471.106</ele>
        <time>2017-10-28T07:14:07Z</time>
      </trkpt>
      <trkpt lat="45.80393" lon="4.54804">
        <ele>471.656</ele>
        <time>2017-10-28T07:14:21Z</time>
      </trkpt>
      <trkpt lat="45.80379" lon="4.54804">
        <ele>472.82</ele>
        <time>2017-10-28T07:14:31Z</time>
      </trkpt>
      <trkpt lat="45.80368" lon="4.5479">
        <ele>473.895</ele>
        <time>2017-10-28T07:14:40Z</time>
      </trkpt>
      <trkpt lat="45.80363" lon="4.54776">
        <ele>475.064</ele>
        <time>2017-10-28T07:14:51Z</time>
      </trkpt>
      <trkpt lat="45.80351" lon="4.54747">
        <ele>478.244</ele>
        <time>2017-10-28T07:15:12Z</time>
      </trkpt>
      <trkpt lat="45.80339" lon="4.54729">
        <ele>479.567</ele>
        <time>2017-10-28T07:15:26Z</time>
      </trkpt>
      <trkpt lat="45.80327" lon="4.54717">
        <ele>481.248</ele>
        <time>2017-10-28T07:15:38Z</time>
      </trkpt>
      <trkpt lat="45.80318" lon="4.54693">
        <ele>483.746</ele>
        <time>2017-10-28T07:15:54Z</time>
      </trkpt>
      <trkpt lat="45.80306" lon="4.54676">
        <ele>484.753</ele>
        <time>2017-10-28T07:16:06Z</time>
      </trkpt>
      <trkpt lat="45.80294" lon="4.54658">
        <ele>487.048</ele>
        <time>2017-10-28T07:16:23Z</time>
      </trkpt>
      <trkpt lat="45.80285" lon="4.54639">
        <ele>489.822</ele>
        <time>2017-10-28T07:16:37Z</time>
      </trkpt>
      <trkpt lat="45.80266" lon="4.54617">
        <ele>493.199</ele>
        <time>2017-10-28T07:16:55Z</time>
      </trkpt>
      <trkpt lat="45.80249" lon="4.54599">
        <ele>496.453</ele>
        <time>2017-10-28T07:17:14Z</time>
      </trkpt>
      <trkpt lat="45.80236" lon="4.54582">
        <ele>500.094</ele>
        <time>2017-10-28T07:17:36Z</time>
      </trkpt>
      <trkpt lat="45.80217" lon="4.54565">
        <ele>505.311</ele>
        <time>2017-10-28T07:18:00Z</time>
      </trkpt>
      <trkpt lat="45.80203" lon="4.54567">
        <ele>507.777</ele>
        <time>2017-10-28T07:18:14Z</time>
      </trkpt>
      <trkpt lat="45.80186" lon="4.54556">
        <ele>511.087</ele>
        <time>2017-10-28T07:18:30Z</time>
      </trkpt>
      <trkpt lat="45.80176" lon="4.54541">
        <ele>513.998</ele>
        <time>2017-10-28T07:18:44Z</time>
      </trkpt>
      <trkpt lat="45.80167" lon="4.54523">
        <ele>517.323</ele>
        <time>2017-10-28T07:18:58Z</time>
      </trkpt>
      <trkpt lat="45.80153" lon="4.54501">
        <ele>520.463</ele>
        <time>2017-10-28T07:19:14Z</time>
      </trkpt>
      <trkpt lat="45.80143" lon="4.54482">
        <ele>522.861</ele>
        <time>2017-10-28T07:19:29Z</time>
      </trkpt>
      <trkpt lat="45.8013" lon="4.54467">
        <ele>525.992</ele>
        <time>2017-10-28T07:19:45Z</time>
      </trkpt>
      <trkpt lat="45.80112" lon="4.54441">
        <ele>529.507</ele>
        <time>2017-10-28T07:20:03Z</time>
      </trkpt>
      <trkpt lat="45.80108" lon="4.54416">
        <ele>532.021</ele>
        <time>2017-10-28T07:20:18Z</time>
      </trkpt>
      <trkpt lat="45.80122" lon="4.54396">
        <ele>533.423</ele>
        <time>2017-10-28T07:20:31Z</time>
      </trkpt>
      <trkpt lat="45.80131" lon="4.54374">
        <ele>535.258</ele>
        <time>2017-10-28T07:20:44Z</time>
      </trkpt>
      <trkpt lat="45.80141" lon="4.54346">
        <ele>536.822</ele>
        <time>2017-10-28T07:20:59Z</time>
      </trkpt>
      <trkpt lat="45.80147" lon="4.54327">
        <ele>536.918</ele>
        <time>2017-10-28T07:21:09Z</time>
      </trkpt>
      <trkpt lat="45.8015" lon="4.54308">
        <ele>536.845</ele>
        <time>2017-10-28T07:21:19Z</time>
      </trkpt>
      <trkpt lat="45.80165" lon="4.54284">
        <ele>536.358</ele>
        <time>2017-10-28T07:21:34Z</time>
      </trkpt>
      <trkpt lat="45.80175" lon="4.54274">
        <ele>536.01</ele>
        <time>2017-10-28T07:21:40Z</time>
      </trkpt>
      <trkpt lat="45.80185" lon="4.54263">
        <ele>536.124</ele>
        <time>2017-10-28T07:21:49Z</time>
      </trkpt>
      <trkpt lat="45.80193" lon="4.54251">
        <ele>536.635</ele>
        <time>2017-10-28T07:21:58Z</time>
      </trkpt>
      <trkpt lat="45.80199" lon="4.54222">
        <ele>538.652</ele>
        <time>2017-10-28T07:22:16Z</time>
      </trkpt>
      <trkpt lat="45.80205" lon="4.54195">
        <ele>540.195</ele>
        <time>2017-10-28T07:22:31Z</time>
      </trkpt>
      <trkpt lat="45.80209" lon="4.54178">
        <ele>541.778</ele>
        <time>2017-10-28T07:22:41Z</time>
      </trkpt>
      <trkpt lat="45.80218" lon="4.54153">
        <ele>544.082</ele>
        <time>2017-10-28T07:22:58Z</time>
      </trkpt>
      <trkpt lat="45.80223" lon="4.54137">
        <ele>545.549</ele>
        <time>2017-10-28T07:23:10Z</time>
      </trkpt>
      <trkpt lat="45.80228" lon="4.54121">
        <ele>548.109</ele>
        <time>2017-10-28T07:23:29Z</time>
      </trkpt>
      <trkpt lat="45.80237" lon="4.54083">
        <ele>555.049</ele>
        <time>2017-10-28T07:24:09Z</time>
      </trkpt>
      <trkpt lat="45.80243" lon="4.54048">
        <ele>561.147</ele>
        <time>2017-10-28T07:25:02Z</time>
      </trkpt>
      <trkpt lat="45.80244" lon="4.54013">
        <ele>569.828</ele>
        <time>2017-10-28T07:25:38Z</time>
      </trkpt>
      <trkpt lat="45.80242" lon="4.53989">
        <ele>575.347</ele>
        <time>2017-10-28T07:25:56Z</time>
      </trkpt>
      <trkpt lat="45.80239" lon="4.53968">
        <ele>579.792</ele>
        <time>2017-10-28T07:26:11Z</time>
      </trkpt>
      <trkpt lat="45.80243" lon="4.53948">
        <ele>584.937</ele>
        <time>2017-10-28T07:26:29Z</time>
      </trkpt>
      <trkpt lat="45.80244" lon="4.53923">
        <ele>588.674</ele>
        <time>2017-10-28T07:26:45Z</time>
      </trkpt>
      <trkpt lat="45.80246" lon="4.539">
        <ele>591.907</ele>
        <time>2017-10-28T07:27:01Z</time>
      </trkpt>
      <trkpt lat="45.80248" lon="4.53868">
        <ele>595.51</ele>
        <time>2017-10-28T07:27:18Z</time>
      </trkpt>
      <trkpt lat="45.80252" lon="4.53847">
        <ele>596.782</ele>
        <time>2017-10-28T07:27:30Z</time>
      </trkpt>
      <trkpt lat="45.80255" lon="4.53823">
        <ele>597.868</ele>
        <time>2017-10-28T07:27:44Z</time>
      </trkpt>
      <trkpt lat="45.80255" lon="4.5381">
        <ele>598.492</ele>
        <time>2017-10-28T07:27:52Z</time>
      </trkpt>
      <trkpt lat="45.80261" lon="4.53788">
        <ele>599.784</ele>
        <time>2017-10-28T07:28:05Z</time>
      </trkpt>
      <trkpt lat="45.80267" lon="4.53767">
        <ele>602.299</ele>
        <time>2017-10-28T07:28:21Z</time>
      </trkpt>
      <trkpt lat="45.80275" lon="4.5374">
        <ele>605.576</ele>
        <time>2017-10-28T07:28:37Z</time>
      </trkpt>
      <trkpt lat="45.80283" lon="4.5371">
        <ele>607.726</ele>
        <time>2017-10-28T07:28:53Z</time>
      </trkpt>
      <trkpt lat="45.80298" lon="4.53671">
        <ele>607.906</ele>
        <time>2017-10-28T07:29:09Z</time>
      </trkpt>
      <trkpt lat="45.80296" lon="4.53645">
        <ele>607.703</ele>
        <time>2017-10-28T07:29:24Z</time>
      </trkpt>
      <trkpt lat="45.80299" lon="4.53614">
        <ele>608.24</ele>
        <time>2017-10-28T07:29:38Z</time>
      </trkpt>
      <trkpt lat="45.803" lon="4.53588">
        <ele>607.664</ele>
        <time>2017-10-28T07:29:51Z</time>
      </trkpt>
      <trkpt lat="45.80302" lon="4.53576">
        <ele>607.39</ele>
        <time>2017-10-28T07:29:57Z</time>
      </trkpt>
      <trkpt lat="45.80304" lon="4.53572">
        <ele>607.317</ele>
        <time>2017-10-28T07:30:01Z</time>
      </trkpt>
      <trkpt lat="45.80304" lon="4.53572">
        <ele>555.4</ele>
        <time>2017-10-28T07:30:09Z</time>
      </trkpt>
      <trkpt lat="45.80304" lon="4.53572">
        <ele>555.4</ele>
        <time>2017-10-28T07:30:12Z</time>
      </trkpt>
      <trkpt lat="45.80304" lon="4.53557">
        <ele>607.957</ele>
        <time>2017-10-28T07:30:12Z</time>
      </trkpt>
      <trkpt lat="45.80308" lon="4.53536">
        <ele>607.89</ele>
        <time>2017-10-28T07:30:21Z</time>
      </trkpt>
      <trkpt lat="45.80325" lon="4.53503">
        <ele>607.72</ele>
        <time>2017-10-28T07:30:37Z</time>
      </trkpt>
      <trkpt lat="45.80331" lon="4.53489">
        <ele>606.988</ele>
        <time>2017-10-28T07:30:47Z</time>
      </trkpt>
      <trkpt lat="45.80341" lon="4.53476">
        <ele>606.3</ele>
        <time>2017-10-28T07:30:56Z</time>
      </trkpt>
      <trkpt lat="45.80351" lon="4.53463">
        <ele>606.608</ele>
        <time>2017-10-28T07:31:05Z</time>
      </trkpt>
      <trkpt lat="45.8036" lon="4.53447">
        <ele>607.412</ele>
        <time>2017-10-28T07:31:18Z</time>
      </trkpt>
      <trkpt lat="45.8037" lon="4.53429">
        <ele>608.351</ele>
        <time>2017-10-28T07:31:31Z</time>
      </trkpt>
      <trkpt lat="45.80382" lon="4.53415">
        <ele>609.389</ele>
        <time>2017-10-28T07:31:44Z</time>
      </trkpt>
      <trkpt lat="45.80394" lon="4.53402">
        <ele>611.056</ele>
        <time>2017-10-28T07:31:56Z</time>
      </trkpt>
      <trkpt lat="45.80413" lon="4.53382">
        <ele>612.82</ele>
        <time>2017-10-28T07:32:13Z</time>
      </trkpt>
      <trkpt lat="45.80427" lon="4.53358">
        <ele>614.234</ele>
        <time>2017-10-28T07:32:25Z</time>
      </trkpt>
      <trkpt lat="45.80442" lon="4.53338">
        <ele>615.551</ele>
        <time>2017-10-28T07:32:37Z</time>
      </trkpt>
      <trkpt lat="45.80452" lon="4.53326">
        <ele>615.073</ele>
        <time>2017-10-28T07:32:46Z</time>
      </trkpt>
      <trkpt lat="45.8047" lon="4.53296">
        <ele>614.551</ele>
        <time>2017-10-28T07:33:04Z</time>
      </trkpt>
      <trkpt lat="45.80486" lon="4.53265">
        <ele>615.659</ele>
        <time>2017-10-28T07:33:24Z</time>
      </trkpt>
      <trkpt lat="45.80497" lon="4.53236">
        <ele>615.887</ele>
        <time>2017-10-28T07:33:38Z</time>
      </trkpt>
      <trkpt lat="45.80502" lon="4.53209">
        <ele>615.603</ele>
        <time>2017-10-28T07:33:52Z</time>
      </trkpt>
      <trkpt lat="45.80508" lon="4.53187">
        <ele>615.621</ele>
        <time>2017-10-28T07:34:03Z</time>
      </trkpt>
      <trkpt lat="45.80515" lon="4.53167">
        <ele>615.697</ele>
        <time>2017-10-28T07:34:14Z</time>
      </trkpt>
      <trkpt lat="45.80522" lon="4.53148">
        <ele>615.527</ele>
        <time>2017-10-28T07:34:25Z</time>
      </trkpt>
      <trkpt lat="45.80526" lon="4.53134">
        <ele>615.448</ele>
        <time>2017-10-28T07:34:33Z</time>
      </trkpt>
      <trkpt lat="45.80534" lon="4.53113">
        <ele>615.791</ele>
        <time>2017-10-28T07:34:43Z</time>
      </trkpt>
      <trkpt lat="45.80539" lon="4.53092">
        <ele>616.196</ele>
        <time>2017-10-28T07:34:52Z</time>
      </trkpt>
      <trkpt lat="45.8054" lon="4.53063">
        <ele>616.456</ele>
        <time>2017-10-28T07:35:06Z</time>
      </trkpt>
      <trkpt lat="45.80537" lon="4.53034">
        <ele>616.417</ele>
        <time>2017-10-28T07:35:21Z</time>
      </trkpt>
      <trkpt lat="45.80536" lon="4.53012">
        <ele>616.383</ele>
        <time>2017-10-28T07:35:32Z</time>
      </trkpt>
      <trkpt lat="45.80541" lon="4.5299">
        <ele>616.193</ele>
        <time>2017-10-28T07:35:43Z</time>
      </trkpt>
      <trkpt lat="45.80541" lon="4.5299">
        <ele>567.3</ele>
        <time>2017-10-28T07:35:51Z</time>
      </trkpt>
      <trkpt lat="45.80541" lon="4.5299">
        <ele>567.3</ele>
        <time>2017-10-28T07:43:04Z</time>
      </trkpt>
      <trkpt lat="45.80558" lon="4.52972">
        <ele>618.161</ele>
        <time>2017-10-28T07:43:04Z</time>
      </trkpt>
      <trkpt lat="45.80571" lon="4.52969">
        <ele>618.719</ele>
        <time>2017-10-28T07:43:17Z</time>
      </trkpt>
      <trkpt lat="45.80583" lon="4.52954">
        <ele>619.67</ele>
        <time>2017-10-28T07:43:28Z</time>
      </trkpt>
      <trkpt lat="45.80596" lon="4.52941">
        <ele>620.481</ele>
        <time>2017-10-28T07:43:40Z</time>
      </trkpt>
      <trkpt lat="45.8061" lon="4.52931">
        <ele>621.213</ele>
        <time>2017-10-28T07:43:52Z</time>
      </trkpt>
      <trkpt lat="45.80629" lon="4.52919">
        <ele>621.515</ele>
        <time>2017-10-28T07:44:07Z</time>
      </trkpt>
      <trkpt lat="45.80644" lon="4.52902">
        <ele>621.29</ele>
        <time>2017-10-28T07:44:18Z</time>
      </trkpt>
      <trkpt lat="45.80655" lon="4.52887">
        <ele>621.49</ele>
        <time>2017-10-28T07:44:31Z</time>
      </trkpt>
      <trkpt lat="45.80665" lon="4.52872">
        <ele>621.523</ele>
        <time>2017-10-28T07:44:41Z</time>
      </trkpt>
      <trkpt lat="45.80682" lon="4.52851">
        <ele>621.309</ele>
        <time>2017-10-28T07:44:55Z</time>
      </trkpt>
      <trkpt lat="45.80694" lon="4.52835">
        <ele>620.313</ele>
        <time>2017-10-28T07:45:08Z</time>
      </trkpt>
      <trkpt lat="45.80705" lon="4.52821">
        <ele>619.904</ele>
        <time>2017-10-28T07:45:18Z</time>
      </trkpt>
      <trkpt lat="45.80715" lon="4.52807">
        <ele>619.949</ele>
        <time>2017-10-28T07:45:27Z</time>
      </trkpt>
      <trkpt lat="45.80724" lon="4.52794">
        <ele>620.032</ele>
        <time>2017-10-28T07:45:35Z</time>
      </trkpt>
      <trkpt lat="45.8074" lon="4.52779">
        <ele>618.823</ele>
        <time>2017-10-28T07:45:46Z</time>
      </trkpt>
      <trkpt lat="45.80749" lon="4.52762">
        <ele>619.014</ele>
        <time>2017-10-28T07:45:59Z</time>
      </trkpt>
      <trkpt lat="45.8076" lon="4.52738">
        <ele>619.803</ele>
        <time>2017-10-28T07:46:12Z</time>
      </trkpt>
      <trkpt lat="45.80767" lon="4.52728">
        <ele>621.117</ele>
        <time>2017-10-28T07:46:24Z</time>
      </trkpt>
      <trkpt lat="45.80785" lon="4.52709">
        <ele>623.413</ele>
        <time>2017-10-28T07:46:40Z</time>
      </trkpt>
      <trkpt lat="45.808" lon="4.52693">
        <ele>627.163</ele>
        <time>2017-10-28T07:46:59Z</time>
      </trkpt>
      <trkpt lat="45.80816" lon="4.52671">
        <ele>629.247</ele>
        <time>2017-10-28T07:47:14Z</time>
      </trkpt>
      <trkpt lat="45.80832" lon="4.52646">
        <ele>631.218</ele>
        <time>2017-10-28T07:47:29Z</time>
      </trkpt>
      <trkpt lat="45.80838" lon="4.52637">
        <ele>632.086</ele>
        <time>2017-10-28T07:47:36Z</time>
      </trkpt>
      <trkpt lat="45.80846" lon="4.52623">
        <ele>633.6</ele>
        <time>2017-10-28T07:47:47Z</time>
      </trkpt>
      <trkpt lat="45.80864" lon="4.52609">
        <ele>636.603</ele>
        <time>2017-10-28T07:48:05Z</time>
      </trkpt>
      <trkpt lat="45.80879" lon="4.52602">
        <ele>639.933</ele>
        <time>2017-10-28T07:48:21Z</time>
      </trkpt>
      <trkpt lat="45.80899" lon="4.52582">
        <ele>642.537</ele>
        <time>2017-10-28T07:48:41Z</time>
      </trkpt>
      <trkpt lat="45.80917" lon="4.52577">
        <ele>645.567</ele>
        <time>2017-10-28T07:48:58Z</time>
      </trkpt>
      <trkpt lat="45.80937" lon="4.52568">
        <ele>649.959</ele>
        <time>2017-10-28T07:49:16Z</time>
      </trkpt>
      <trkpt lat="45.80949" lon="4.52568">
        <ele>652.4</ele>
        <time>2017-10-28T07:49:27Z</time>
      </trkpt>
      <trkpt lat="45.80973" lon="4.52563">
        <ele>655.109</ele>
        <time>2017-10-28T07:49:47Z</time>
      </trkpt>
      <trkpt lat="45.81001" lon="4.52561">
        <ele>656.733</ele>
        <time>2017-10-28T07:50:06Z</time>
      </trkpt>
      <trkpt lat="45.81021" lon="4.52559">
        <ele>657.885</ele>
        <time>2017-10-28T07:50:20Z</time>
      </trkpt>
      <trkpt lat="45.81037" lon="4.52559">
        <ele>659.335</ele>
        <time>2017-10-28T07:50:30Z</time>
      </trkpt>
      <trkpt lat="45.81052" lon="4.5255">
        <ele>660.123</ele>
        <time>2017-10-28T07:50:39Z</time>
      </trkpt>
      <trkpt lat="45.81064" lon="4.52542">
        <ele>660.764</ele>
        <time>2017-10-28T07:50:48Z</time>
      </trkpt>
      <trkpt lat="45.81083" lon="4.52532">
        <ele>661.499</ele>
        <time>2017-10-28T07:51:03Z</time>
      </trkpt>
      <trkpt lat="45.81098" lon="4.52515">
        <ele>663.199</ele>
        <time>2017-10-28T07:51:15Z</time>
      </trkpt>
      <trkpt lat="45.81094" lon="4.52494">
        <ele>664.547</ele>
        <time>2017-10-28T07:51:27Z</time>
      </trkpt>
      <trkpt lat="45.81084" lon="4.52478">
        <ele>665.906</ele>
        <time>2017-10-28T07:51:39Z</time>
      </trkpt>
      <trkpt lat="45.81067" lon="4.52463">
        <ele>668.173</ele>
        <time>2017-10-28T07:51:56Z</time>
      </trkpt>
      <trkpt lat="45.81053" lon="4.52455">
        <ele>670.949</ele>
        <time>2017-10-28T07:52:12Z</time>
      </trkpt>
      <trkpt lat="45.81048" lon="4.52431">
        <ele>674.248</ele>
        <time>2017-10-28T07:52:29Z</time>
      </trkpt>
      <trkpt lat="45.81051" lon="4.52403">
        <ele>677.003</ele>
        <time>2017-10-28T07:52:45Z</time>
      </trkpt>
      <trkpt lat="45.81054" lon="4.52378">
        <ele>679.148</ele>
        <time>2017-10-28T07:53:00Z</time>
      </trkpt>
      <trkpt lat="45.81053" lon="4.52357">
        <ele>680.427</ele>
        <time>2017-10-28T07:53:12Z</time>
      </trkpt>
      <trkpt lat="45.81044" lon="4.5233">
        <ele>682.094</ele>
        <time>2017-10-28T07:53:27Z</time>
      </trkpt>
      <trkpt lat="45.81036" lon="4.52306">
        <ele>683.434</ele>
        <time>2017-10-28T07:53:40Z</time>
      </trkpt>
      <trkpt lat="45.81027" lon="4.52291">
        <ele>684.249</ele>
        <time>2017-10-28T07:53:49Z</time>
      </trkpt>
      <trkpt lat="45.81015" lon="4.52274">
        <ele>685.764</ele>
        <time>2017-10-28T07:54:01Z</time>
      </trkpt>
      <trkpt lat="45.81009" lon="4.5225">
        <ele>687.329</ele>
        <time>2017-10-28T07:54:13Z</time>
      </trkpt>
      <trkpt lat="45.81002" lon="4.52224">
        <ele>688.473</ele>
        <time>2017-10-28T07:54:26Z</time>
      </trkpt>
      <trkpt lat="45.80992" lon="4.52197">
        <ele>689.617</ele>
        <time>2017-10-28T07:54:40Z</time>
      </trkpt>
      <trkpt lat="45.8098" lon="4.52175">
        <ele>691.828</ele>
        <time>2017-10-28T07:54:53Z</time>
      </trkpt>
      <trkpt lat="45.80969" lon="4.52154">
        <ele>693.847</ele>
        <time>2017-10-28T07:55:05Z</time>
      </trkpt>
      <trkpt lat="45.80962" lon="4.52142">
        <ele>695.014</ele>
        <time>2017-10-28T07:55:14Z</time>
      </trkpt>
      <trkpt lat="45.80954" lon="4.52113">
        <ele>697.525</ele>
        <time>2017-10-28T07:55:31Z</time>
      </trkpt>
      <trkpt lat="45.80952" lon="4.52094">
        <ele>698.849</ele>
        <time>2017-10-28T07:55:43Z</time>
      </trkpt>
      <trkpt lat="45.80956" lon="4.52067">
        <ele>701.802</ele>
        <time>2017-10-28T07:56:01Z</time>
      </trkpt>
      <trkpt lat="45.80957" lon="4.52041">
        <ele>704.557</ele>
        <time>2017-10-28T07:56:17Z</time>
      </trkpt>
      <trkpt lat="45.80957" lon="4.52041">
        <ele>704.557</ele>
        <time>2017-10-28T07:56:22Z</time>
      </trkpt>
      <trkpt lat="45.80957" lon="4.52041">
        <ele>661.9</ele>
        <time>2017-10-28T07:56:22Z</time>
      </trkpt>
      <trkpt lat="45.80957" lon="4.52041">
        <ele>661.9</ele>
        <time>2017-10-28T07:56:29Z</time>
      </trkpt>
      <trkpt lat="45.80957" lon="4.52026">
        <ele>707.491</ele>
        <time>2017-10-28T07:56:29Z</time>
      </trkpt>
      <trkpt lat="45.80961" lon="4.51996">
        <ele>711.331</ele>
        <time>2017-10-28T07:56:48Z</time>
      </trkpt>
      <trkpt lat="45.80968" lon="4.51972">
        <ele>714.484</ele>
        <time>2017-10-28T07:57:03Z</time>
      </trkpt>
      <trkpt lat="45.80964" lon="4.51946">
        <ele>717.456</ele>
        <time>2017-10-28T07:57:21Z</time>
      </trkpt>
      <trkpt lat="45.80965" lon="4.51926">
        <ele>720.222</ele>
        <time>2017-10-28T07:57:35Z</time>
      </trkpt>
      <trkpt lat="45.80972" lon="4.51895">
        <ele>724.118</ele>
        <time>2017-10-28T07:57:54Z</time>
      </trkpt>
      <trkpt lat="45.80979" lon="4.51857">
        <ele>726.585</ele>
        <time>2017-10-28T07:58:11Z</time>
      </trkpt>
      <trkpt lat="45.80978" lon="4.51846">
        <ele>726.17</ele>
        <time>2017-10-28T07:58:19Z</time>
      </trkpt>
      <trkpt lat="45.80981" lon="4.51807">
        <ele>728.278</ele>
        <time>2017-10-28T07:58:38Z</time>
      </trkpt>
      <trkpt lat="45.80975" lon="4.51771">
        <ele>730.69</ele>
        <time>2017-10-28T07:58:57Z</time>
      </trkpt>
      <trkpt lat="45.80969" lon="4.51741">
        <ele>731.223</ele>
        <time>2017-10-28T07:59:13Z</time>
      </trkpt>
      <trkpt lat="45.80967" lon="4.51718">
        <ele>732.431</ele>
        <time>2017-10-28T07:59:25Z</time>
      </trkpt>
      <trkpt lat="45.80968" lon="4.51699">
        <ele>733.8</ele>
        <time>2017-10-28T07:59:37Z</time>
      </trkpt>
      <trkpt lat="45.80972" lon="4.51659">
        <ele>736.773</ele>
        <time>2017-10-28T07:59:55Z</time>
      </trkpt>
      <trkpt lat="45.80977" lon="4.5164">
        <ele>737.038</ele>
        <time>2017-10-28T08:00:04Z</time>
      </trkpt>
      <trkpt lat="45.80979" lon="4.516">
        <ele>736.79</ele>
        <time>2017-10-28T08:00:19Z</time>
      </trkpt>
      <trkpt lat="45.80977" lon="4.51573">
        <ele>738.086</ele>
        <time>2017-10-28T08:00:36Z</time>
      </trkpt>
      <trkpt lat="45.80982" lon="4.51551">
        <ele>739.236</ele>
        <time>2017-10-28T08:00:46Z</time>
      </trkpt>
      <trkpt lat="45.80985" lon="4.51525">
        <ele>739.931</ele>
        <time>2017-10-28T08:00:57Z</time>
      </trkpt>
      <trkpt lat="45.80987" lon="4.51507">
        <ele>740.104</ele>
        <time>2017-10-28T08:01:08Z</time>
      </trkpt>
      <trkpt lat="45.80992" lon="4.51493">
        <ele>740.666</ele>
        <time>2017-10-28T08:01:15Z</time>
      </trkpt>
      <trkpt lat="45.80994" lon="4.51476">
        <ele>740.769</ele>
        <time>2017-10-28T08:01:23Z</time>
      </trkpt>
      <trkpt lat="45.80998" lon="4.51443">
        <ele>739.965</ele>
        <time>2017-10-28T08:01:39Z</time>
      </trkpt>
      <trkpt lat="45.81001" lon="4.51422">
        <ele>739.181</ele>
        <time>2017-10-28T08:01:51Z</time>
      </trkpt>
      <trkpt lat="45.80998" lon="4.51392">
        <ele>737.136</ele>
        <time>2017-10-28T08:02:05Z</time>
      </trkpt>
      <trkpt lat="45.80996" lon="4.51367">
        <ele>734.519</ele>
        <time>2017-10-28T08:02:17Z</time>
      </trkpt>
      <trkpt lat="45.80993" lon="4.51335">
        <ele>731.869</ele>
        <time>2017-10-28T08:02:32Z</time>
      </trkpt>
      <trkpt lat="45.80992" lon="4.51314">
        <ele>730.985</ele>
        <time>2017-10-28T08:02:41Z</time>
      </trkpt>
      <trkpt lat="45.80992" lon="4.51301">
        <ele>730.328</ele>
        <time>2017-10-28T08:02:47Z</time>
      </trkpt>
      <trkpt lat="45.80992" lon="4.51271">
        <ele>729.167</ele>
        <time>2017-10-28T08:03:01Z</time>
      </trkpt>
      <trkpt lat="45.80989" lon="4.51257">
        <ele>728.849</ele>
        <time>2017-10-28T08:03:10Z</time>
      </trkpt>
      <trkpt lat="45.80962" lon="4.51259">
        <ele>729.315</ele>
        <time>2017-10-28T08:03:27Z</time>
      </trkpt>
      <trkpt lat="45.80948" lon="4.51253">
        <ele>730.167</ele>
        <time>2017-10-28T08:03:38Z</time>
      </trkpt>
      <trkpt lat="45.80933" lon="4.51226">
        <ele>729.141</ele>
        <time>2017-10-28T08:03:54Z</time>
      </trkpt>
      <trkpt lat="45.80918" lon="4.51203">
        <ele>727.402</ele>
        <time>2017-10-28T08:04:10Z</time>
      </trkpt>
      <trkpt lat="45.80909" lon="4.51185">
        <ele>726.419</ele>
        <time>2017-10-28T08:04:21Z</time>
      </trkpt>
      <trkpt lat="45.809" lon="4.51157">
        <ele>724.33</ele>
        <time>2017-10-28T08:04:37Z</time>
      </trkpt>
      <trkpt lat="45.80896" lon="4.5115">
        <ele>724.191</ele>
        <time>2017-10-28T08:04:41Z</time>
      </trkpt>
      <trkpt lat="45.80896" lon="4.5115">
        <ele>677.1</ele>
        <time>2017-10-28T08:04:48Z</time>
      </trkpt>
      <trkpt lat="45.80896" lon="4.5115">
        <ele>677.1</ele>
        <time>2017-10-28T08:05:06Z</time>
      </trkpt>
      <trkpt lat="45.80915" lon="4.51137">
        <ele>727.853</ele>
        <time>2017-10-28T08:05:06Z</time>
      </trkpt>
      <trkpt lat="45.80924" lon="4.51125">
        <ele>729.479</ele>
        <time>2017-10-28T08:05:20Z</time>
      </trkpt>
      <trkpt lat="45.80934" lon="4.51103">
        <ele>731.56</ele>
        <time>2017-10-28T08:05:39Z</time>
      </trkpt>
      <trkpt lat="45.80939" lon="4.51087">
        <ele>733.348</ele>
        <time>2017-10-28T08:05:53Z</time>
      </trkpt>
      <trkpt lat="45.80944" lon="4.51068">
        <ele>735.386</ele>
        <time>2017-10-28T08:06:06Z</time>
      </trkpt>
      <trkpt lat="45.8095" lon="4.51045">
        <ele>736.194</ele>
        <time>2017-10-28T08:06:23Z</time>
      </trkpt>
      <trkpt lat="45.80957" lon="4.51034">
        <ele>737.73</ele>
        <time>2017-10-28T08:06:33Z</time>
      </trkpt>
      <trkpt lat="45.80969" lon="4.51015">
        <ele>740.162</ele>
        <time>2017-10-28T08:06:46Z</time>
      </trkpt>
      <trkpt lat="45.80972" lon="4.51006">
        <ele>742.096</ele>
        <time>2017-10-28T08:06:53Z</time>
      </trkpt>
      <trkpt lat="45.80972" lon="4.51006">
        <ele>704</ele>
        <time>2017-10-28T08:06:59Z</time>
      </trkpt>
      <trkpt lat="45.80972" lon="4.51006">
        <ele>704</ele>
        <time>2017-10-28T08:07:05Z</time>
      </trkpt>
      <trkpt lat="45.80975" lon="4.50992">
        <ele>745.393</ele>
        <time>2017-10-28T08:07:05Z</time>
      </trkpt>
      <trkpt lat="45.80975" lon="4.50992">
        <ele>745.393</ele>
        <time>2017-10-28T08:07:12Z</time>
      </trkpt>
      <trkpt lat="45.80975" lon="4.50992">
        <ele>706.3</ele>
        <time>2017-10-28T08:07:12Z</time>
      </trkpt>
      <trkpt lat="45.80975" lon="4.50992">
        <ele>706.3</ele>
        <time>2017-10-28T08:07:18Z</time>
      </trkpt>
      <trkpt lat="45.8098" lon="4.50979">
        <ele>748.307</ele>
        <time>2017-10-28T08:07:18Z</time>
      </trkpt>
      <trkpt lat="45.80988" lon="4.50954">
        <ele>752.557</ele>
        <time>2017-10-28T08:07:36Z</time>
      </trkpt>
      <trkpt lat="45.80988" lon="4.50954">
        <ele>752.557</ele>
        <time>2017-10-28T08:07:43Z</time>
      </trkpt>
      <trkpt lat="45.80988" lon="4.50954">
        <ele>712.1</ele>
        <time>2017-10-28T08:07:43Z</time>
      </trkpt>
      <trkpt lat="45.80988" lon="4.50954">
        <ele>712.1</ele>
        <time>2017-10-28T08:07:55Z</time>
      </trkpt>
      <trkpt lat="45.80993" lon="4.50933">
        <ele>758.043</ele>
        <time>2017-10-28T08:07:55Z</time>
      </trkpt>
      <trkpt lat="45.80996" lon="4.50927">
        <ele>760.273</ele>
        <time>2017-10-28T08:08:02Z</time>
      </trkpt>
      <trkpt lat="45.80996" lon="4.50927">
        <ele>716.5</ele>
        <time>2017-10-28T08:08:09Z</time>
      </trkpt>
      <trkpt lat="45.80996" lon="4.50927">
        <ele>716.5</ele>
        <time>2017-10-28T08:08:15Z</time>
      </trkpt>
      <trkpt lat="45.81" lon="4.50914">
        <ele>764.648</ele>
        <time>2017-10-28T08:08:15Z</time>
      </trkpt>
      <trkpt lat="45.81007" lon="4.50889">
        <ele>768.592</ele>
        <time>2017-10-28T08:08:31Z</time>
      </trkpt>
      <trkpt lat="45.81007" lon="4.50889">
        <ele>768.592</ele>
        <time>2017-10-28T08:08:39Z</time>
      </trkpt>
      <trkpt lat="45.81007" lon="4.50889">
        <ele>722</ele>
        <time>2017-10-28T08:08:39Z</time>
      </trkpt>
      <trkpt lat="45.81007" lon="4.50889">
        <ele>722</ele>
        <time>2017-10-28T08:08:48Z</time>
      </trkpt>
      <trkpt lat="45.81018" lon="4.50863">
        <ele>771.314</ele>
        <time>2017-10-28T08:08:48Z</time>
      </trkpt>
      <trkpt lat="45.81026" lon="4.50843">
        <ele>773.269</ele>
        <time>2017-10-28T08:09:03Z</time>
      </trkpt>
      <trkpt lat="45.81034" lon="4.5081">
        <ele>775.828</ele>
        <time>2017-10-28T08:09:19Z</time>
      </trkpt>
      <trkpt lat="45.81036" lon="4.50786">
        <ele>778.066</ele>
        <time>2017-10-28T08:09:35Z</time>
      </trkpt>
      <trkpt lat="45.81043" lon="4.50756">
        <ele>780.271</ele>
        <time>2017-10-28T08:09:53Z</time>
      </trkpt>
      <trkpt lat="45.81051" lon="4.50728">
        <ele>781.854</ele>
        <time>2017-10-28T08:10:06Z</time>
      </trkpt>
      <trkpt lat="45.81058" lon="4.50715">
        <ele>783.213</ele>
        <time>2017-10-28T08:10:14Z</time>
      </trkpt>
      <trkpt lat="45.81067" lon="4.50683">
        <ele>785.886</ele>
        <time>2017-10-28T08:10:32Z</time>
      </trkpt>
      <trkpt lat="45.81074" lon="4.50664">
        <ele>786.666</ele>
        <time>2017-10-28T08:10:41Z</time>
      </trkpt>
      <trkpt lat="45.81075" lon="4.50652">
        <ele>787.424</ele>
        <time>2017-10-28T08:10:47Z</time>
      </trkpt>
      <trkpt lat="45.81075" lon="4.50652">
        <ele>737.3</ele>
        <time>2017-10-28T08:10:52Z</time>
      </trkpt>
      <trkpt lat="45.81075" lon="4.50652">
        <ele>737.3</ele>
        <time>2017-10-28T08:10:55Z</time>
      </trkpt>
      <trkpt lat="45.81076" lon="4.50645">
        <ele>787.87</ele>
        <time>2017-10-28T08:10:55Z</time>
      </trkpt>
      <trkpt lat="45.81085" lon="4.50617">
        <ele>787.588</ele>
        <time>2017-10-28T08:11:11Z</time>
      </trkpt>
      <trkpt lat="45.81089" lon="4.50609">
        <ele>787.31</ele>
        <time>2017-10-28T08:11:16Z</time>
      </trkpt>
      <trkpt lat="45.81095" lon="4.50594">
        <ele>786.588</ele>
        <time>2017-10-28T08:11:26Z</time>
      </trkpt>
      <trkpt lat="45.81102" lon="4.50574">
        <ele>785.995</ele>
        <time>2017-10-28T08:11:38Z</time>
      </trkpt>
      <trkpt lat="45.81106" lon="4.50557">
        <ele>785.806</ele>
        <time>2017-10-28T08:11:48Z</time>
      </trkpt>
      <trkpt lat="45.81116" lon="4.50536">
        <ele>786.38</ele>
        <time>2017-10-28T08:12:01Z</time>
      </trkpt>
      <trkpt lat="45.81126" lon="4.50514">
        <ele>787.405</ele>
        <time>2017-10-28T08:12:13Z</time>
      </trkpt>
      <trkpt lat="45.81139" lon="4.50482">
        <ele>788.96</ele>
        <time>2017-10-28T08:12:33Z</time>
      </trkpt>
      <trkpt lat="45.81146" lon="4.50442">
        <ele>790.6</ele>
        <time>2017-10-28T08:12:52Z</time>
      </trkpt>
      <trkpt lat="45.81142" lon="4.50401">
        <ele>791.978</ele>
        <time>2017-10-28T08:13:09Z</time>
      </trkpt>
      <trkpt lat="45.81142" lon="4.50385">
        <ele>792.247</ele>
        <time>2017-10-28T08:13:16Z</time>
      </trkpt>
      <trkpt lat="45.8114" lon="4.50364">
        <ele>793.665</ele>
        <time>2017-10-28T08:13:27Z</time>
      </trkpt>
      <trkpt lat="45.81134" lon="4.50349">
        <ele>794.238</ele>
        <time>2017-10-28T08:13:34Z</time>
      </trkpt>
      <trkpt lat="45.81134" lon="4.50349">
        <ele>750</ele>
        <time>2017-10-28T08:13:41Z</time>
      </trkpt>
      <trkpt lat="45.81134" lon="4.50349">
        <ele>750</ele>
        <time>2017-10-28T08:13:44Z</time>
      </trkpt>
      <trkpt lat="45.81129" lon="4.50337">
        <ele>795.105</ele>
        <time>2017-10-28T08:13:44Z</time>
      </trkpt>
      <trkpt lat="45.81121" lon="4.50323">
        <ele>794.737</ele>
        <time>2017-10-28T08:13:51Z</time>
      </trkpt>
      <trkpt lat="45.81104" lon="4.50297">
        <ele>794.97</ele>
        <time>2017-10-28T08:14:10Z</time>
      </trkpt>
      <trkpt lat="45.81089" lon="4.50261">
        <ele>794.646</ele>
        <time>2017-10-28T08:14:28Z</time>
      </trkpt>
      <trkpt lat="45.81081" lon="4.50233">
        <ele>794.284</ele>
        <time>2017-10-28T08:14:42Z</time>
      </trkpt>
      <trkpt lat="45.8105" lon="4.50213">
        <ele>793.726</ele>
        <time>2017-10-28T08:14:57Z</time>
      </trkpt>
      <trkpt lat="45.81034" lon="4.50203">
        <ele>793.525</ele>
        <time>2017-10-28T08:15:05Z</time>
      </trkpt>
      <trkpt lat="45.81024" lon="4.50185">
        <ele>793.037</ele>
        <time>2017-10-28T08:15:14Z</time>
      </trkpt>
      <trkpt lat="45.81024" lon="4.50158">
        <ele>791.105</ele>
        <time>2017-10-28T08:15:27Z</time>
      </trkpt>
      <trkpt lat="45.8102" lon="4.50136">
        <ele>789.396</ele>
        <time>2017-10-28T08:15:38Z</time>
      </trkpt>
      <trkpt lat="45.81033" lon="4.50111">
        <ele>787.476</ele>
        <time>2017-10-28T08:15:48Z</time>
      </trkpt>
      <trkpt lat="45.81034" lon="4.50085">
        <ele>785.256</ele>
        <time>2017-10-28T08:16:00Z</time>
      </trkpt>
      <trkpt lat="45.81035" lon="4.5006">
        <ele>783.91</ele>
        <time>2017-10-28T08:16:12Z</time>
      </trkpt>
      <trkpt lat="45.81029" lon="4.50032">
        <ele>782.517</ele>
        <time>2017-10-28T08:16:27Z</time>
      </trkpt>
      <trkpt lat="45.8103" lon="4.50015">
        <ele>781.457</ele>
        <time>2017-10-28T08:16:35Z</time>
      </trkpt>
      <trkpt lat="45.81032" lon="4.49989">
        <ele>778.859</ele>
        <time>2017-10-28T08:16:50Z</time>
      </trkpt>
      <trkpt lat="45.81032" lon="4.4996">
        <ele>775.799</ele>
        <time>2017-10-28T08:17:07Z</time>
      </trkpt>
      <trkpt lat="45.8103" lon="4.49931">
        <ele>772.585</ele>
        <time>2017-10-28T08:17:23Z</time>
      </trkpt>
      <trkpt lat="45.81022" lon="4.49908">
        <ele>770.891</ele>
        <time>2017-10-28T08:17:33Z</time>
      </trkpt>
      <trkpt lat="45.81017" lon="4.49885">
        <ele>769.699</ele>
        <time>2017-10-28T08:17:44Z</time>
      </trkpt>
      <trkpt lat="45.81015" lon="4.49872">
        <ele>768.982</ele>
        <time>2017-10-28T08:17:53Z</time>
      </trkpt>
      <trkpt lat="45.81012" lon="4.49849">
        <ele>768.373</ele>
        <time>2017-10-28T08:18:08Z</time>
      </trkpt>
      <trkpt lat="45.81012" lon="4.49819">
        <ele>768.516</ele>
        <time>2017-10-28T08:18:21Z</time>
      </trkpt>
      <trkpt lat="45.81008" lon="4.49794">
        <ele>768.344</ele>
        <time>2017-10-28T08:18:35Z</time>
      </trkpt>
      <trkpt lat="45.81003" lon="4.49773">
        <ele>767.859</ele>
        <time>2017-10-28T08:18:46Z</time>
      </trkpt>
      <trkpt lat="45.80994" lon="4.4974">
        <ele>766.452</ele>
        <time>2017-10-28T08:19:01Z</time>
      </trkpt>
      <trkpt lat="45.80987" lon="4.49715">
        <ele>765.247</ele>
        <time>2017-10-28T08:19:12Z</time>
      </trkpt>
      <trkpt lat="45.80984" lon="4.49688">
        <ele>764.003</ele>
        <time>2017-10-28T08:19:29Z</time>
      </trkpt>
      <trkpt lat="45.80992" lon="4.49655">
        <ele>763.426</ele>
        <time>2017-10-28T08:19:44Z</time>
      </trkpt>
      <trkpt lat="45.80995" lon="4.49624">
        <ele>762.365</ele>
        <time>2017-10-28T08:19:58Z</time>
      </trkpt>
      <trkpt lat="45.80997" lon="4.49604">
        <ele>761.668</ele>
        <time>2017-10-28T08:20:06Z</time>
      </trkpt>
      <trkpt lat="45.80997" lon="4.49604">
        <ele>705.7</ele>
        <time>2017-10-28T08:20:13Z</time>
      </trkpt>
      <trkpt lat="45.80997" lon="4.49604">
        <ele>705.7</ele>
        <time>2017-10-28T08:20:18Z</time>
      </trkpt>
      <trkpt lat="45.80991" lon="4.49595">
        <ele>761.447</ele>
        <time>2017-10-28T08:20:18Z</time>
      </trkpt>
      <trkpt lat="45.8097" lon="4.49585">
        <ele>763.297</ele>
        <time>2017-10-28T08:20:32Z</time>
      </trkpt>
      <trkpt lat="45.80953" lon="4.49584">
        <ele>766.031</ele>
        <time>2017-10-28T08:20:47Z</time>
      </trkpt>
      <trkpt lat="45.80928" lon="4.49579">
        <ele>769.422</ele>
        <time>2017-10-28T08:21:05Z</time>
      </trkpt>
      <trkpt lat="45.80918" lon="4.49589">
        <ele>772.184</ele>
        <time>2017-10-28T08:21:19Z</time>
      </trkpt>
      <trkpt lat="45.80895" lon="4.49571">
        <ele>774.334</ele>
        <time>2017-10-28T08:21:51Z</time>
      </trkpt>
      <trkpt lat="45.8088" lon="4.49566">
        <ele>775.228</ele>
        <time>2017-10-28T08:22:03Z</time>
      </trkpt>
      <trkpt lat="45.80864" lon="4.49561">
        <ele>776.394</ele>
        <time>2017-10-28T08:22:20Z</time>
      </trkpt>
      <trkpt lat="45.80847" lon="4.49544">
        <ele>778.075</ele>
        <time>2017-10-28T08:22:38Z</time>
      </trkpt>
      <trkpt lat="45.80858" lon="4.49509">
        <ele>779.23</ele>
        <time>2017-10-28T08:22:55Z</time>
      </trkpt>
      <trkpt lat="45.80864" lon="4.49496">
        <ele>779.505</ele>
        <time>2017-10-28T08:23:03Z</time>
      </trkpt>
      <trkpt lat="45.80872" lon="4.4948">
        <ele>779.599</ele>
        <time>2017-10-28T08:23:12Z</time>
      </trkpt>
      <trkpt lat="45.80884" lon="4.49463">
        <ele>779.688</ele>
        <time>2017-10-28T08:23:24Z</time>
      </trkpt>
      <trkpt lat="45.80893" lon="4.49453">
        <ele>779.66</ele>
        <time>2017-10-28T08:23:31Z</time>
      </trkpt>
      <trkpt lat="45.80905" lon="4.49432">
        <ele>779.757</ele>
        <time>2017-10-28T08:23:45Z</time>
      </trkpt>
      <trkpt lat="45.80915" lon="4.49406">
        <ele>779.854</ele>
        <time>2017-10-28T08:24:00Z</time>
      </trkpt>
      <trkpt lat="45.80924" lon="4.49377">
        <ele>780.31</ele>
        <time>2017-10-28T08:24:14Z</time>
      </trkpt>
      <trkpt lat="45.80932" lon="4.49355">
        <ele>780.877</ele>
        <time>2017-10-28T08:24:26Z</time>
      </trkpt>
      <trkpt lat="45.80943" lon="4.49323">
        <ele>781.374</ele>
        <time>2017-10-28T08:24:41Z</time>
      </trkpt>
      <trkpt lat="45.80952" lon="4.49297">
        <ele>782.006</ele>
        <time>2017-10-28T08:24:55Z</time>
      </trkpt>
      <trkpt lat="45.80964" lon="4.49271">
        <ele>782.712</ele>
        <time>2017-10-28T08:25:10Z</time>
      </trkpt>
      <trkpt lat="45.80972" lon="4.49249">
        <ele>783.7</ele>
        <time>2017-10-28T08:25:23Z</time>
      </trkpt>
      <trkpt lat="45.80979" lon="4.4922">
        <ele>784.803</ele>
        <time>2017-10-28T08:25:37Z</time>
      </trkpt>
      <trkpt lat="45.80992" lon="4.49192">
        <ele>785.479</ele>
        <time>2017-10-28T08:25:52Z</time>
      </trkpt>
      <trkpt lat="45.81004" lon="4.49164">
        <ele>785.847</ele>
        <time>2017-10-28T08:26:08Z</time>
      </trkpt>
      <trkpt lat="45.80997" lon="4.49147">
        <ele>785.426</ele>
        <time>2017-10-28T08:26:19Z</time>
      </trkpt>
      <trkpt lat="45.80976" lon="4.49135">
        <ele>786.679</ele>
        <time>2017-10-28T08:26:37Z</time>
      </trkpt>
      <trkpt lat="45.80963" lon="4.49122">
        <ele>788.637</ele>
        <time>2017-10-28T08:26:52Z</time>
      </trkpt>
      <trkpt lat="45.80963" lon="4.49122">
        <ele>788.637</ele>
        <time>2017-10-28T08:26:59Z</time>
      </trkpt>
      <trkpt lat="45.80963" lon="4.49122">
        <ele>747.9</ele>
        <time>2017-10-28T08:26:59Z</time>
      </trkpt>
      <trkpt lat="45.80963" lon="4.49122">
        <ele>747.9</ele>
        <time>2017-10-28T08:27:13Z</time>
      </trkpt>
      <trkpt lat="45.80947" lon="4.49114">
        <ele>791.501</ele>
        <time>2017-10-28T08:27:13Z</time>
      </trkpt>
      <trkpt lat="45.80931" lon="4.4913">
        <ele>792.81</ele>
        <time>2017-10-28T08:27:28Z</time>
      </trkpt>
      <trkpt lat="45.80916" lon="4.49135">
        <ele>794.478</ele>
        <time>2017-10-28T08:27:42Z</time>
      </trkpt>
      <trkpt lat="45.80901" lon="4.49139">
        <ele>796.685</ele>
        <time>2017-10-28T08:27:54Z</time>
      </trkpt>
      <trkpt lat="45.80887" lon="4.49151">
        <ele>799.219</ele>
        <time>2017-10-28T08:28:09Z</time>
      </trkpt>
      <trkpt lat="45.80864" lon="4.49162">
        <ele>802.375</ele>
        <time>2017-10-28T08:28:27Z</time>
      </trkpt>
      <trkpt lat="45.80856" lon="4.49166">
        <ele>803.341</ele>
        <time>2017-10-28T08:28:33Z</time>
      </trkpt>
      <trkpt lat="45.80856" lon="4.49166">
        <ele>764.6</ele>
        <time>2017-10-28T08:28:41Z</time>
      </trkpt>
      <trkpt lat="45.80856" lon="4.49166">
        <ele>764.6</ele>
        <time>2017-10-28T08:28:59Z</time>
      </trkpt>
      <trkpt lat="45.80855" lon="4.49132">
        <ele>809.039</ele>
        <time>2017-10-28T08:28:59Z</time>
      </trkpt>
      <trkpt lat="45.80853" lon="4.49113">
        <ele>809.64</ele>
        <time>2017-10-28T08:29:11Z</time>
      </trkpt>
      <trkpt lat="45.80857" lon="4.49097">
        <ele>810.053</ele>
        <time>2017-10-28T08:29:20Z</time>
      </trkpt>
      <trkpt lat="45.80867" lon="4.49063">
        <ele>811.281</ele>
        <time>2017-10-28T08:29:40Z</time>
      </trkpt>
      <trkpt lat="45.8087" lon="4.49044">
        <ele>812.158</ele>
        <time>2017-10-28T08:29:50Z</time>
      </trkpt>
      <trkpt lat="45.80872" lon="4.49014">
        <ele>812.484</ele>
        <time>2017-10-28T08:30:03Z</time>
      </trkpt>
      <trkpt lat="45.80875" lon="4.48985">
        <ele>813.254</ele>
        <time>2017-10-28T08:30:18Z</time>
      </trkpt>
      <trkpt lat="45.80877" lon="4.4897">
        <ele>813.396</ele>
        <time>2017-10-28T08:30:26Z</time>
      </trkpt>
      <trkpt lat="45.80877" lon="4.48955">
        <ele>813.698</ele>
        <time>2017-10-28T08:30:34Z</time>
      </trkpt>
      <trkpt lat="45.80881" lon="4.48941">
        <ele>815.08</ele>
        <time>2017-10-28T08:30:43Z</time>
      </trkpt>
      <trkpt lat="45.80881" lon="4.48917">
        <ele>816.615</ele>
        <time>2017-10-28T08:30:55Z</time>
      </trkpt>
      <trkpt lat="45.80885" lon="4.48886">
        <ele>817.568</ele>
        <time>2017-10-28T08:31:11Z</time>
      </trkpt>
      <trkpt lat="45.80888" lon="4.4886">
        <ele>817.868</ele>
        <time>2017-10-28T08:31:24Z</time>
      </trkpt>
      <trkpt lat="45.80889" lon="4.48838">
        <ele>818.773</ele>
        <time>2017-10-28T08:31:34Z</time>
      </trkpt>
      <trkpt lat="45.80884" lon="4.48823">
        <ele>820.28</ele>
        <time>2017-10-28T08:31:45Z</time>
      </trkpt>
      <trkpt lat="45.80884" lon="4.48795">
        <ele>821.531</ele>
        <time>2017-10-28T08:32:00Z</time>
      </trkpt>
      <trkpt lat="45.80878" lon="4.4877">
        <ele>824.113</ele>
        <time>2017-10-28T08:32:18Z</time>
      </trkpt>
      <trkpt lat="45.80876" lon="4.4874">
        <ele>826.318</ele>
        <time>2017-10-28T08:32:33Z</time>
      </trkpt>
      <trkpt lat="45.80871" lon="4.48715">
        <ele>829.294</ele>
        <time>2017-10-28T08:32:47Z</time>
      </trkpt>
      <trkpt lat="45.80868" lon="4.48688">
        <ele>832.172</ele>
        <time>2017-10-28T08:33:04Z</time>
      </trkpt>
      <trkpt lat="45.80864" lon="4.48662">
        <ele>833.967</ele>
        <time>2017-10-28T08:33:18Z</time>
      </trkpt>
      <trkpt lat="45.80858" lon="4.4863">
        <ele>835.625</ele>
        <time>2017-10-28T08:33:35Z</time>
      </trkpt>
      <trkpt lat="45.80857" lon="4.48607">
        <ele>837.193</ele>
        <time>2017-10-28T08:33:47Z</time>
      </trkpt>
      <trkpt lat="45.80857" lon="4.48585">
        <ele>838.082</ele>
        <time>2017-10-28T08:33:57Z</time>
      </trkpt>
      <trkpt lat="45.80854" lon="4.48559">
        <ele>839.486</ele>
        <time>2017-10-28T08:34:10Z</time>
      </trkpt>
      <trkpt lat="45.80853" lon="4.48535">
        <ele>840.371</ele>
        <time>2017-10-28T08:34:21Z</time>
      </trkpt>
      <trkpt lat="45.80851" lon="4.48514">
        <ele>840.927</ele>
        <time>2017-10-28T08:34:31Z</time>
      </trkpt>
      <trkpt lat="45.80847" lon="4.48498">
        <ele>841.113</ele>
        <time>2017-10-28T08:34:39Z</time>
      </trkpt>
      <trkpt lat="45.80843" lon="4.48469">
        <ele>841.632</ele>
        <time>2017-10-28T08:34:53Z</time>
      </trkpt>
      <trkpt lat="45.80843" lon="4.48446">
        <ele>841.897</ele>
        <time>2017-10-28T08:35:03Z</time>
      </trkpt>
      <trkpt lat="45.80846" lon="4.48426">
        <ele>841.903</ele>
        <time>2017-10-28T08:35:13Z</time>
      </trkpt>
      <trkpt lat="45.80852" lon="4.48399">
        <ele>841.203</ele>
        <time>2017-10-28T08:35:26Z</time>
      </trkpt>
      <trkpt lat="45.80858" lon="4.48377">
        <ele>840.611</ele>
        <time>2017-10-28T08:35:37Z</time>
      </trkpt>
      <trkpt lat="45.80862" lon="4.48359">
        <ele>840.294</ele>
        <time>2017-10-28T08:35:47Z</time>
      </trkpt>
      <trkpt lat="45.80867" lon="4.48334">
        <ele>840.366</ele>
        <time>2017-10-28T08:35:58Z</time>
      </trkpt>
      <trkpt lat="45.80872" lon="4.48309">
        <ele>840.22</ele>
        <time>2017-10-28T08:36:09Z</time>
      </trkpt>
      <trkpt lat="45.80876" lon="4.48292">
        <ele>839.842</ele>
        <time>2017-10-28T08:36:17Z</time>
      </trkpt>
      <trkpt lat="45.8088" lon="4.48264">
        <ele>838.648</ele>
        <time>2017-10-28T08:36:30Z</time>
      </trkpt>
      <trkpt lat="45.80885" lon="4.48238">
        <ele>837.471</ele>
        <time>2017-10-28T08:36:42Z</time>
      </trkpt>
      <trkpt lat="45.80884" lon="4.48211">
        <ele>835.992</ele>
        <time>2017-10-28T08:36:55Z</time>
      </trkpt>
      <trkpt lat="45.80884" lon="4.48181">
        <ele>834.388</ele>
        <time>2017-10-28T08:37:09Z</time>
      </trkpt>
      <trkpt lat="45.80885" lon="4.48159">
        <ele>833.548</ele>
        <time>2017-10-28T08:37:18Z</time>
      </trkpt>
      <trkpt lat="45.80888" lon="4.48135">
        <ele>832.078</ele>
        <time>2017-10-28T08:37:30Z</time>
      </trkpt>
      <trkpt lat="45.8089" lon="4.48113">
        <ele>831.311</ele>
        <time>2017-10-28T08:37:40Z</time>
      </trkpt>
      <trkpt lat="45.80893" lon="4.48082">
        <ele>831.24</ele>
        <time>2017-10-28T08:37:54Z</time>
      </trkpt>
      <trkpt lat="45.80897" lon="4.48061">
        <ele>830.177</ele>
        <time>2017-10-28T08:38:06Z</time>
      </trkpt>
      <trkpt lat="45.80895" lon="4.48026">
        <ele>827.803</ele>
        <time>2017-10-28T08:38:22Z</time>
      </trkpt>
      <trkpt lat="45.809" lon="4.48">
        <ele>827.775</ele>
        <time>2017-10-28T08:38:33Z</time>
      </trkpt>
      <trkpt lat="45.8091" lon="4.47983">
        <ele>827.304</ele>
        <time>2017-10-28T08:38:45Z</time>
      </trkpt>
      <trkpt lat="45.80916" lon="4.47958">
        <ele>824.916</ele>
        <time>2017-10-28T08:38:59Z</time>
      </trkpt>
      <trkpt lat="45.80928" lon="4.47931">
        <ele>821.298</ele>
        <time>2017-10-28T08:39:16Z</time>
      </trkpt>
      <trkpt lat="45.80937" lon="4.47924">
        <ele>819.566</ele>
        <time>2017-10-28T08:39:24Z</time>
      </trkpt>
      <trkpt lat="45.80945" lon="4.47907">
        <ele>817.387</ele>
        <time>2017-10-28T08:39:34Z</time>
      </trkpt>
      <trkpt lat="45.8095" lon="4.47894">
        <ele>814.664</ele>
        <time>2017-10-28T08:39:42Z</time>
      </trkpt>
      <trkpt lat="45.80963" lon="4.47867">
        <ele>809.499</ele>
        <time>2017-10-28T08:39:57Z</time>
      </trkpt>
      <trkpt lat="45.80976" lon="4.47839">
        <ele>806.195</ele>
        <time>2017-10-28T08:40:11Z</time>
      </trkpt>
      <trkpt lat="45.80983" lon="4.47812">
        <ele>803.639</ele>
        <time>2017-10-28T08:40:23Z</time>
      </trkpt>
      <trkpt lat="45.80989" lon="4.47797">
        <ele>801.774</ele>
        <time>2017-10-28T08:40:31Z</time>
      </trkpt>
      <trkpt lat="45.80999" lon="4.47766">
        <ele>797.358</ele>
        <time>2017-10-28T08:40:46Z</time>
      </trkpt>
      <trkpt lat="45.81004" lon="4.47737">
        <ele>792.984</ele>
        <time>2017-10-28T08:40:59Z</time>
      </trkpt>
      <trkpt lat="45.8101" lon="4.47711">
        <ele>788.866</ele>
        <time>2017-10-28T08:41:11Z</time>
      </trkpt>
      <trkpt lat="45.81012" lon="4.47689">
        <ele>786.4</ele>
        <time>2017-10-28T08:41:19Z</time>
      </trkpt>
      <trkpt lat="45.81011" lon="4.4767">
        <ele>783.679</ele>
        <time>2017-10-28T08:41:28Z</time>
      </trkpt>
      <trkpt lat="45.81012" lon="4.47654">
        <ele>781.615</ele>
        <time>2017-10-28T08:41:35Z</time>
      </trkpt>
      <trkpt lat="45.81013" lon="4.47634">
        <ele>778.889</ele>
        <time>2017-10-28T08:41:46Z</time>
      </trkpt>
      <trkpt lat="45.81015" lon="4.47593">
        <ele>775.203</ele>
        <time>2017-10-28T08:42:03Z</time>
      </trkpt>
      <trkpt lat="45.81016" lon="4.47567">
        <ele>773.313</ele>
        <time>2017-10-28T08:42:13Z</time>
      </trkpt>
      <trkpt lat="45.81018" lon="4.47545">
        <ele>771.804</ele>
        <time>2017-10-28T08:42:24Z</time>
      </trkpt>
      <trkpt lat="45.81023" lon="4.47523">
        <ele>770.182</ele>
        <time>2017-10-28T08:42:34Z</time>
      </trkpt>
      <trkpt lat="45.81025" lon="4.47494">
        <ele>768.11</ele>
        <time>2017-10-28T08:42:48Z</time>
      </trkpt>
      <trkpt lat="45.8102" lon="4.47463">
        <ele>765.733</ele>
        <time>2017-10-28T08:43:01Z</time>
      </trkpt>
      <trkpt lat="45.8101" lon="4.47449">
        <ele>764.106</ele>
        <time>2017-10-28T08:43:10Z</time>
      </trkpt>
      <trkpt lat="45.80996" lon="4.47428">
        <ele>762.253</ele>
        <time>2017-10-28T08:43:22Z</time>
      </trkpt>
      <trkpt lat="45.80988" lon="4.47411">
        <ele>760.651</ele>
        <time>2017-10-28T08:43:31Z</time>
      </trkpt>
      <trkpt lat="45.8098" lon="4.47393">
        <ele>758.837</ele>
        <time>2017-10-28T08:43:40Z</time>
      </trkpt>
      <trkpt lat="45.80974" lon="4.47374">
        <ele>757.049</ele>
        <time>2017-10-28T08:43:49Z</time>
      </trkpt>
      <trkpt lat="45.80971" lon="4.47357">
        <ele>755.259</ele>
        <time>2017-10-28T08:43:57Z</time>
      </trkpt>
      <trkpt lat="45.80965" lon="4.47329">
        <ele>752.271</ele>
        <time>2017-10-28T08:44:10Z</time>
      </trkpt>
      <trkpt lat="45.80954" lon="4.47304">
        <ele>749.848</ele>
        <time>2017-10-28T08:44:22Z</time>
      </trkpt>
      <trkpt lat="45.80943" lon="4.47282">
        <ele>748.029</ele>
        <time>2017-10-28T08:44:34Z</time>
      </trkpt>
      <trkpt lat="45.8093" lon="4.47259">
        <ele>745.844</ele>
        <time>2017-10-28T08:44:46Z</time>
      </trkpt>
      <trkpt lat="45.80921" lon="4.47246">
        <ele>743.79</ele>
        <time>2017-10-28T08:44:54Z</time>
      </trkpt>
      <trkpt lat="45.80906" lon="4.4723">
        <ele>740.55</ele>
        <time>2017-10-28T08:45:07Z</time>
      </trkpt>
      <trkpt lat="45.80886" lon="4.47214">
        <ele>737.679</ele>
        <time>2017-10-28T08:45:20Z</time>
      </trkpt>
      <trkpt lat="45.80862" lon="4.47208">
        <ele>734.608</ele>
        <time>2017-10-28T08:45:36Z</time>
      </trkpt>
      <trkpt lat="45.80837" lon="4.47204">
        <ele>733.655</ele>
        <time>2017-10-28T08:45:49Z</time>
      </trkpt>
      <trkpt lat="45.80823" lon="4.4721">
        <ele>733.742</ele>
        <time>2017-10-28T08:45:58Z</time>
      </trkpt>
      <trkpt lat="45.80809" lon="4.47219">
        <ele>735.452</ele>
        <time>2017-10-28T08:46:07Z</time>
      </trkpt>
      <trkpt lat="45.80792" lon="4.47232">
        <ele>737.483</ele>
        <time>2017-10-28T08:46:21Z</time>
      </trkpt>
      <trkpt lat="45.80777" lon="4.47242">
        <ele>738.156</ele>
        <time>2017-10-28T08:46:34Z</time>
      </trkpt>
      <trkpt lat="45.80757" lon="4.47257">
        <ele>738.394</ele>
        <time>2017-10-28T08:46:48Z</time>
      </trkpt>
      <trkpt lat="45.80735" lon="4.47262">
        <ele>738.146</ele>
        <time>2017-10-28T08:47:04Z</time>
      </trkpt>
      <trkpt lat="45.80721" lon="4.47264">
        <ele>739.23</ele>
        <time>2017-10-28T08:47:15Z</time>
      </trkpt>
      <trkpt lat="45.80705" lon="4.4726">
        <ele>739.733</ele>
        <time>2017-10-28T08:47:21Z</time>
      </trkpt>
      <trkpt lat="45.80697" lon="4.47259">
        <ele>739.74</ele>
        <time>2017-10-28T08:47:25Z</time>
      </trkpt>
      <trkpt lat="45.80697" lon="4.47259">
        <ele>692</ele>
        <time>2017-10-28T08:47:30Z</time>
      </trkpt>
      <trkpt lat="45.80697" lon="4.47259">
        <ele>692</ele>
        <time>2017-10-28T08:47:36Z</time>
      </trkpt>
      <trkpt lat="45.80688" lon="4.47257">
        <ele>739.53</ele>
        <time>2017-10-28T08:47:36Z</time>
      </trkpt>
      <trkpt lat="45.80675" lon="4.4726">
        <ele>740.477</ele>
        <time>2017-10-28T08:47:46Z</time>
      </trkpt>
      <trkpt lat="45.80656" lon="4.47265">
        <ele>741.777</ele>
        <time>2017-10-28T08:47:57Z</time>
      </trkpt>
      <trkpt lat="45.80645" lon="4.47269">
        <ele>742.793</ele>
        <time>2017-10-28T08:48:05Z</time>
      </trkpt>
      <trkpt lat="45.80625" lon="4.47282">
        <ele>743.902</ele>
        <time>2017-10-28T08:48:17Z</time>
      </trkpt>
      <trkpt lat="45.80617" lon="4.47283">
        <ele>743.716</ele>
        <time>2017-10-28T08:48:24Z</time>
      </trkpt>
      <trkpt lat="45.80602" lon="4.4729">
        <ele>742.392</ele>
        <time>2017-10-28T08:48:36Z</time>
      </trkpt>
      <trkpt lat="45.80592" lon="4.47303">
        <ele>741.589</ele>
        <time>2017-10-28T08:48:45Z</time>
      </trkpt>
      <trkpt lat="45.80576" lon="4.47308">
        <ele>740.627</ele>
        <time>2017-10-28T08:48:56Z</time>
      </trkpt>
      <trkpt lat="45.80555" lon="4.47327">
        <ele>739.049</ele>
        <time>2017-10-28T08:49:12Z</time>
      </trkpt>
      <trkpt lat="45.8054" lon="4.47331">
        <ele>737.954</ele>
        <time>2017-10-28T08:49:20Z</time>
      </trkpt>
      <trkpt lat="45.80523" lon="4.47328">
        <ele>737.12</ele>
        <time>2017-10-28T08:49:32Z</time>
      </trkpt>
      <trkpt lat="45.80511" lon="4.47326">
        <ele>736.666</ele>
        <time>2017-10-28T08:49:40Z</time>
      </trkpt>
      <trkpt lat="45.80492" lon="4.47324">
        <ele>735.904</ele>
        <time>2017-10-28T08:49:54Z</time>
      </trkpt>
      <trkpt lat="45.80483" lon="4.47292">
        <ele>734.622</ele>
        <time>2017-10-28T08:50:10Z</time>
      </trkpt>
      <trkpt lat="45.80477" lon="4.47268">
        <ele>733.747</ele>
        <time>2017-10-28T08:50:23Z</time>
      </trkpt>
      <trkpt lat="45.80469" lon="4.47246">
        <ele>733.07</ele>
        <time>2017-10-28T08:50:35Z</time>
      </trkpt>
      <trkpt lat="45.80455" lon="4.47225">
        <ele>731.127</ele>
        <time>2017-10-28T08:50:48Z</time>
      </trkpt>
      <trkpt lat="45.80448" lon="4.47211">
        <ele>730.023</ele>
        <time>2017-10-28T08:50:57Z</time>
      </trkpt>
      <trkpt lat="45.80431" lon="4.47193">
        <ele>728.553</ele>
        <time>2017-10-28T08:51:12Z</time>
      </trkpt>
      <trkpt lat="45.80409" lon="4.4717">
        <ele>728.278</ele>
        <time>2017-10-28T08:51:30Z</time>
      </trkpt>
      <trkpt lat="45.80392" lon="4.47155">
        <ele>728.473</ele>
        <time>2017-10-28T08:51:44Z</time>
      </trkpt>
      <trkpt lat="45.80377" lon="4.4715">
        <ele>727.635</ele>
        <time>2017-10-28T08:51:55Z</time>
      </trkpt>
      <trkpt lat="45.80367" lon="4.47145">
        <ele>726.466</ele>
        <time>2017-10-28T08:52:05Z</time>
      </trkpt>
      <trkpt lat="45.80352" lon="4.47129">
        <ele>726.025</ele>
        <time>2017-10-28T08:52:16Z</time>
      </trkpt>
      <trkpt lat="45.80345" lon="4.4712">
        <ele>725.801</ele>
        <time>2017-10-28T08:52:24Z</time>
      </trkpt>
      <trkpt lat="45.80331" lon="4.47103">
        <ele>725.115</ele>
        <time>2017-10-28T08:52:38Z</time>
      </trkpt>
      <trkpt lat="45.80309" lon="4.47085">
        <ele>723.5</ele>
        <time>2017-10-28T08:52:53Z</time>
      </trkpt>
      <trkpt lat="45.80292" lon="4.47068">
        <ele>722.067</ele>
        <time>2017-10-28T08:53:04Z</time>
      </trkpt>
      <trkpt lat="45.80286" lon="4.47067">
        <ele>721.511</ele>
        <time>2017-10-28T08:53:10Z</time>
      </trkpt>
      <trkpt lat="45.80286" lon="4.47067">
        <ele>672.7</ele>
        <time>2017-10-28T08:53:16Z</time>
      </trkpt>
      <trkpt lat="45.80286" lon="4.47067">
        <ele>672.7</ele>
        <time>2017-10-28T08:53:19Z</time>
      </trkpt>
      <trkpt lat="45.80278" lon="4.47062">
        <ele>720.823</ele>
        <time>2017-10-28T08:53:19Z</time>
      </trkpt>
      <trkpt lat="45.80272" lon="4.47051">
        <ele>719.791</ele>
        <time>2017-10-28T08:53:27Z</time>
      </trkpt>
      <trkpt lat="45.80268" lon="4.47009">
        <ele>717.818</ele>
        <time>2017-10-28T08:53:43Z</time>
      </trkpt>
      <trkpt lat="45.80271" lon="4.46985">
        <ele>716.246</ele>
        <time>2017-10-28T08:53:55Z</time>
      </trkpt>
      <trkpt lat="45.80262" lon="4.46962">
        <ele>715.194</ele>
        <time>2017-10-28T08:54:07Z</time>
      </trkpt>
      <trkpt lat="45.80248" lon="4.46938">
        <ele>714.537</ele>
        <time>2017-10-28T08:54:22Z</time>
      </trkpt>
      <trkpt lat="45.80246" lon="4.46908">
        <ele>714.614</ele>
        <time>2017-10-28T08:54:35Z</time>
      </trkpt>
      <trkpt lat="45.80248" lon="4.46889">
        <ele>714.466</ele>
        <time>2017-10-28T08:54:47Z</time>
      </trkpt>
      <trkpt lat="45.80247" lon="4.46863">
        <ele>713.094</ele>
        <time>2017-10-28T08:55:04Z</time>
      </trkpt>
      <trkpt lat="45.80238" lon="4.46841">
        <ele>711.668</ele>
        <time>2017-10-28T08:55:20Z</time>
      </trkpt>
      <trkpt lat="45.80232" lon="4.46829">
        <ele>710.886</ele>
        <time>2017-10-28T08:55:26Z</time>
      </trkpt>
      <trkpt lat="45.80222" lon="4.46811">
        <ele>709.136</ele>
        <time>2017-10-28T08:55:37Z</time>
      </trkpt>
      <trkpt lat="45.80211" lon="4.46788">
        <ele>706.618</ele>
        <time>2017-10-28T08:55:50Z</time>
      </trkpt>
      <trkpt lat="45.80199" lon="4.46773">
        <ele>704.594</ele>
        <time>2017-10-28T08:56:02Z</time>
      </trkpt>
      <trkpt lat="45.80189" lon="4.46758">
        <ele>702.924</ele>
        <time>2017-10-28T08:56:12Z</time>
      </trkpt>
      <trkpt lat="45.80177" lon="4.46729">
        <ele>700.26</ele>
        <time>2017-10-28T08:56:27Z</time>
      </trkpt>
      <trkpt lat="45.80168" lon="4.46706">
        <ele>698.601</ele>
        <time>2017-10-28T08:56:39Z</time>
      </trkpt>
      <trkpt lat="45.80161" lon="4.46683">
        <ele>697.265</ele>
        <time>2017-10-28T08:56:54Z</time>
      </trkpt>
      <trkpt lat="45.80147" lon="4.46652">
        <ele>695.712</ele>
        <time>2017-10-28T08:57:11Z</time>
      </trkpt>
      <trkpt lat="45.80139" lon="4.46641">
        <ele>695.059</ele>
        <time>2017-10-28T08:57:19Z</time>
      </trkpt>
      <trkpt lat="45.8013" lon="4.46631">
        <ele>694.656</ele>
        <time>2017-10-28T08:57:27Z</time>
      </trkpt>
      <trkpt lat="45.80113" lon="4.46618">
        <ele>694.033</ele>
        <time>2017-10-28T08:57:40Z</time>
      </trkpt>
      <trkpt lat="45.80102" lon="4.46612">
        <ele>693.242</ele>
        <time>2017-10-28T08:57:46Z</time>
      </trkpt>
      <trkpt lat="45.80085" lon="4.46615">
        <ele>692.683</ele>
        <time>2017-10-28T08:57:56Z</time>
      </trkpt>
      <trkpt lat="45.80079" lon="4.4662">
        <ele>693.059</ele>
        <time>2017-10-28T08:58:03Z</time>
      </trkpt>
      <trkpt lat="45.80066" lon="4.46623">
        <ele>693.08</ele>
        <time>2017-10-28T08:58:13Z</time>
      </trkpt>
      <trkpt lat="45.80057" lon="4.46631">
        <ele>693.198</ele>
        <time>2017-10-28T08:58:21Z</time>
      </trkpt>
      <trkpt lat="45.80042" lon="4.46639">
        <ele>695.017</ele>
        <time>2017-10-28T08:58:40Z</time>
      </trkpt>
      <trkpt lat="45.80029" lon="4.46637">
        <ele>696.643</ele>
        <time>2017-10-28T08:58:50Z</time>
      </trkpt>
      <trkpt lat="45.80018" lon="4.46631">
        <ele>699.103</ele>
        <time>2017-10-28T08:59:02Z</time>
      </trkpt>
      <trkpt lat="45.79995" lon="4.46617">
        <ele>701.026</ele>
        <time>2017-10-28T08:59:20Z</time>
      </trkpt>
      <trkpt lat="45.79979" lon="4.46599">
        <ele>701.928</ele>
        <time>2017-10-28T08:59:34Z</time>
      </trkpt>
      <trkpt lat="45.79966" lon="4.46578">
        <ele>701.912</ele>
        <time>2017-10-28T08:59:47Z</time>
      </trkpt>
      <trkpt lat="45.79957" lon="4.46547">
        <ele>701.466</ele>
        <time>2017-10-28T09:00:03Z</time>
      </trkpt>
      <trkpt lat="45.79951" lon="4.46526">
        <ele>701.251</ele>
        <time>2017-10-28T09:00:13Z</time>
      </trkpt>
      <trkpt lat="45.79946" lon="4.46508">
        <ele>700.827</ele>
        <time>2017-10-28T09:00:22Z</time>
      </trkpt>
      <trkpt lat="45.79939" lon="4.46484">
        <ele>699.855</ele>
        <time>2017-10-28T09:00:34Z</time>
      </trkpt>
      <trkpt lat="45.79935" lon="4.46469">
        <ele>699.415</ele>
        <time>2017-10-28T09:00:42Z</time>
      </trkpt>
      <trkpt lat="45.7993" lon="4.4644">
        <ele>699.305</ele>
        <time>2017-10-28T09:00:56Z</time>
      </trkpt>
      <trkpt lat="45.79922" lon="4.46417">
        <ele>698.902</ele>
        <time>2017-10-28T09:01:07Z</time>
      </trkpt>
      <trkpt lat="45.79909" lon="4.46393">
        <ele>698.494</ele>
        <time>2017-10-28T09:01:22Z</time>
      </trkpt>
      <trkpt lat="45.79893" lon="4.46369">
        <ele>698.345</ele>
        <time>2017-10-28T09:01:38Z</time>
      </trkpt>
      <trkpt lat="45.79879" lon="4.46347">
        <ele>698.419</ele>
        <time>2017-10-28T09:01:51Z</time>
      </trkpt>
      <trkpt lat="45.79871" lon="4.46335">
        <ele>698.318</ele>
        <time>2017-10-28T09:01:59Z</time>
      </trkpt>
      <trkpt lat="45.79859" lon="4.4631">
        <ele>697.989</ele>
        <time>2017-10-28T09:02:13Z</time>
      </trkpt>
      <trkpt lat="45.79849" lon="4.46295">
        <ele>698.189</ele>
        <time>2017-10-28T09:02:23Z</time>
      </trkpt>
      <trkpt lat="45.79835" lon="4.46282">
        <ele>698.234</ele>
        <time>2017-10-28T09:02:32Z</time>
      </trkpt>
      <trkpt lat="45.7982" lon="4.46276">
        <ele>698.354</ele>
        <time>2017-10-28T09:02:41Z</time>
      </trkpt>
      <trkpt lat="45.79811" lon="4.46277">
        <ele>698.622</ele>
        <time>2017-10-28T09:02:49Z</time>
      </trkpt>
      <trkpt lat="45.79791" lon="4.46286">
        <ele>699.308</ele>
        <time>2017-10-28T09:02:58Z</time>
      </trkpt>
      <trkpt lat="45.79779" lon="4.46297">
        <ele>699.843</ele>
        <time>2017-10-28T09:03:13Z</time>
      </trkpt>
      <trkpt lat="45.79762" lon="4.46305">
        <ele>699.29</ele>
        <time>2017-10-28T09:03:23Z</time>
      </trkpt>
      <trkpt lat="45.79754" lon="4.46314">
        <ele>698.859</ele>
        <time>2017-10-28T09:03:29Z</time>
      </trkpt>
      <trkpt lat="45.79744" lon="4.4633">
        <ele>699.062</ele>
        <time>2017-10-28T09:03:39Z</time>
      </trkpt>
      <trkpt lat="45.79733" lon="4.46354">
        <ele>700.514</ele>
        <time>2017-10-28T09:03:53Z</time>
      </trkpt>
      <trkpt lat="45.79724" lon="4.4636">
        <ele>700.573</ele>
        <time>2017-10-28T09:04:00Z</time>
      </trkpt>
      <trkpt lat="45.79711" lon="4.46371">
        <ele>700.68</ele>
        <time>2017-10-28T09:04:12Z</time>
      </trkpt>
      <trkpt lat="45.79695" lon="4.46378">
        <ele>700.499</ele>
        <time>2017-10-28T09:04:23Z</time>
      </trkpt>
      <trkpt lat="45.79677" lon="4.46392">
        <ele>700.781</ele>
        <time>2017-10-28T09:04:36Z</time>
      </trkpt>
      <trkpt lat="45.79662" lon="4.46411">
        <ele>701.797</ele>
        <time>2017-10-28T09:04:52Z</time>
      </trkpt>
      <trkpt lat="45.79646" lon="4.4642">
        <ele>703.464</ele>
        <time>2017-10-28T09:05:03Z</time>
      </trkpt>
      <trkpt lat="45.7963" lon="4.46424">
        <ele>704.498</ele>
        <time>2017-10-28T09:05:12Z</time>
      </trkpt>
      <trkpt lat="45.79613" lon="4.46432">
        <ele>704.938</ele>
        <time>2017-10-28T09:05:23Z</time>
      </trkpt>
      <trkpt lat="45.796" lon="4.46433">
        <ele>705.239</ele>
        <time>2017-10-28T09:05:35Z</time>
      </trkpt>
      <trkpt lat="45.79574" lon="4.46421">
        <ele>706.333</ele>
        <time>2017-10-28T09:05:53Z</time>
      </trkpt>
      <trkpt lat="45.79554" lon="4.46414">
        <ele>706.95</ele>
        <time>2017-10-28T09:06:07Z</time>
      </trkpt>
      <trkpt lat="45.79542" lon="4.4641">
        <ele>707.031</ele>
        <time>2017-10-28T09:06:16Z</time>
      </trkpt>
      <trkpt lat="45.79524" lon="4.46408">
        <ele>707.563</ele>
        <time>2017-10-28T09:06:29Z</time>
      </trkpt>
      <trkpt lat="45.79511" lon="4.46393">
        <ele>708.747</ele>
        <time>2017-10-28T09:06:41Z</time>
      </trkpt>
      <trkpt lat="45.79498" lon="4.4638">
        <ele>709.145</ele>
        <time>2017-10-28T09:06:52Z</time>
      </trkpt>
      <trkpt lat="45.7949" lon="4.46371">
        <ele>708.806</ele>
        <time>2017-10-28T09:06:58Z</time>
      </trkpt>
      <trkpt lat="45.79476" lon="4.46351">
        <ele>707.457</ele>
        <time>2017-10-28T09:07:12Z</time>
      </trkpt>
      <trkpt lat="45.79461" lon="4.46331">
        <ele>707.175</ele>
        <time>2017-10-28T09:07:26Z</time>
      </trkpt>
      <trkpt lat="45.7945" lon="4.46314">
        <ele>707.191</ele>
        <time>2017-10-28T09:07:37Z</time>
      </trkpt>
      <trkpt lat="45.79442" lon="4.46298">
        <ele>707.856</ele>
        <time>2017-10-28T09:07:47Z</time>
      </trkpt>
      <trkpt lat="45.79436" lon="4.46279">
        <ele>708.561</ele>
        <time>2017-10-28T09:07:57Z</time>
      </trkpt>
      <trkpt lat="45.79423" lon="4.4626">
        <ele>710.241</ele>
        <time>2017-10-28T09:08:10Z</time>
      </trkpt>
      <trkpt lat="45.79406" lon="4.46245">
        <ele>710.301</ele>
        <time>2017-10-28T09:08:23Z</time>
      </trkpt>
      <trkpt lat="45.79392" lon="4.46232">
        <ele>709.205</ele>
        <time>2017-10-28T09:08:33Z</time>
      </trkpt>
      <trkpt lat="45.79373" lon="4.46217">
        <ele>707.676</ele>
        <time>2017-10-28T09:08:49Z</time>
      </trkpt>
      <trkpt lat="45.79361" lon="4.46207">
        <ele>707.369</ele>
        <time>2017-10-28T09:08:59Z</time>
      </trkpt>
      <trkpt lat="45.79346" lon="4.46195">
        <ele>707.123</ele>
        <time>2017-10-28T09:09:10Z</time>
      </trkpt>
      <trkpt lat="45.79333" lon="4.46177">
        <ele>706.414</ele>
        <time>2017-10-28T09:09:23Z</time>
      </trkpt>
      <trkpt lat="45.79317" lon="4.46158">
        <ele>703.95</ele>
        <time>2017-10-28T09:09:37Z</time>
      </trkpt>
      <trkpt lat="45.79304" lon="4.46138">
        <ele>702.538</ele>
        <time>2017-10-28T09:09:50Z</time>
      </trkpt>
      <trkpt lat="45.79294" lon="4.46112">
        <ele>701.114</ele>
        <time>2017-10-28T09:10:06Z</time>
      </trkpt>
      <trkpt lat="45.79288" lon="4.46095">
        <ele>700.156</ele>
        <time>2017-10-28T09:10:15Z</time>
      </trkpt>
      <trkpt lat="45.79278" lon="4.46068">
        <ele>697.863</ele>
        <time>2017-10-28T09:10:32Z</time>
      </trkpt>
      <trkpt lat="45.79283" lon="4.46041">
        <ele>695.487</ele>
        <time>2017-10-28T09:10:46Z</time>
      </trkpt>
      <trkpt lat="45.79287" lon="4.46024">
        <ele>694.015</ele>
        <time>2017-10-28T09:10:54Z</time>
      </trkpt>
      <trkpt lat="45.79288" lon="4.4601">
        <ele>692.863</ele>
        <time>2017-10-28T09:11:01Z</time>
      </trkpt>
      <trkpt lat="45.79297" lon="4.45989">
        <ele>691.706</ele>
        <time>2017-10-28T09:11:14Z</time>
      </trkpt>
      <trkpt lat="45.79306" lon="4.45967">
        <ele>690.966</ele>
        <time>2017-10-28T09:11:27Z</time>
      </trkpt>
      <trkpt lat="45.79318" lon="4.45941">
        <ele>689.82</ele>
        <time>2017-10-28T09:11:42Z</time>
      </trkpt>
      <trkpt lat="45.79317" lon="4.45912">
        <ele>688.506</ele>
        <time>2017-10-28T09:11:55Z</time>
      </trkpt>
      <trkpt lat="45.79322" lon="4.45889">
        <ele>686.126</ele>
        <time>2017-10-28T09:12:07Z</time>
      </trkpt>
      <trkpt lat="45.79323" lon="4.45869">
        <ele>684.17</ele>
        <time>2017-10-28T09:12:18Z</time>
      </trkpt>
      <trkpt lat="45.79335" lon="4.45836">
        <ele>682.765</ele>
        <time>2017-10-28T09:12:35Z</time>
      </trkpt>
      <trkpt lat="45.7934" lon="4.4582">
        <ele>682.396</ele>
        <time>2017-10-28T09:12:43Z</time>
      </trkpt>
      <trkpt lat="45.79345" lon="4.45808">
        <ele>682.335</ele>
        <time>2017-10-28T09:12:50Z</time>
      </trkpt>
      <trkpt lat="45.79355" lon="4.45794">
        <ele>682.462</ele>
        <time>2017-10-28T09:13:01Z</time>
      </trkpt>
      <trkpt lat="45.79374" lon="4.45783">
        <ele>682.909</ele>
        <time>2017-10-28T09:13:13Z</time>
      </trkpt>
      <trkpt lat="45.79384" lon="4.4577">
        <ele>682.367</ele>
        <time>2017-10-28T09:13:24Z</time>
      </trkpt>
      <trkpt lat="45.7939" lon="4.45758">
        <ele>682.384</ele>
        <time>2017-10-28T09:13:31Z</time>
      </trkpt>
      <trkpt lat="45.79398" lon="4.4574">
        <ele>681.748</ele>
        <time>2017-10-28T09:13:41Z</time>
      </trkpt>
      <trkpt lat="45.79414" lon="4.45719">
        <ele>682.281</ele>
        <time>2017-10-28T09:13:57Z</time>
      </trkpt>
      <trkpt lat="45.79427" lon="4.4569">
        <ele>682.156</ele>
        <time>2017-10-28T09:14:12Z</time>
      </trkpt>
      <trkpt lat="45.79433" lon="4.45677">
        <ele>681.583</ele>
        <time>2017-10-28T09:14:22Z</time>
      </trkpt>
      <trkpt lat="45.79443" lon="4.45659">
        <ele>680.542</ele>
        <time>2017-10-28T09:14:36Z</time>
      </trkpt>
      <trkpt lat="45.79456" lon="4.45631">
        <ele>681.105</ele>
        <time>2017-10-28T09:14:50Z</time>
      </trkpt>
      <trkpt lat="45.79463" lon="4.45609">
        <ele>682.336</ele>
        <time>2017-10-28T09:15:04Z</time>
      </trkpt>
      <trkpt lat="45.79472" lon="4.45585">
        <ele>683.902</ele>
        <time>2017-10-28T09:15:19Z</time>
      </trkpt>
      <trkpt lat="45.79477" lon="4.45568">
        <ele>686.921</ele>
        <time>2017-10-28T09:15:34Z</time>
      </trkpt>
      <trkpt lat="45.79487" lon="4.45552">
        <ele>690.382</ele>
        <time>2017-10-28T09:15:50Z</time>
      </trkpt>
      <trkpt lat="45.79493" lon="4.45528">
        <ele>692.99</ele>
        <time>2017-10-28T09:16:07Z</time>
      </trkpt>
      <trkpt lat="45.79502" lon="4.45486">
        <ele>696.627</ele>
        <time>2017-10-28T09:16:43Z</time>
      </trkpt>
      <trkpt lat="45.79502" lon="4.45486">
        <ele>696.627</ele>
        <time>2017-10-28T09:16:50Z</time>
      </trkpt>
      <trkpt lat="45.79502" lon="4.45486">
        <ele>671.3</ele>
        <time>2017-10-28T09:16:50Z</time>
      </trkpt>
      <trkpt lat="45.79502" lon="4.45486">
        <ele>671.3</ele>
        <time>2017-10-28T09:17:07Z</time>
      </trkpt>
      <trkpt lat="45.79504" lon="4.45457">
        <ele>701.011</ele>
        <time>2017-10-28T09:17:07Z</time>
      </trkpt>
      <trkpt lat="45.79506" lon="4.45443">
        <ele>703.368</ele>
        <time>2017-10-28T09:17:18Z</time>
      </trkpt>
      <trkpt lat="45.7951" lon="4.45418">
        <ele>706.487</ele>
        <time>2017-10-28T09:17:34Z</time>
      </trkpt>
      <trkpt lat="45.7951" lon="4.45391">
        <ele>709.21</ele>
        <time>2017-10-28T09:17:50Z</time>
      </trkpt>
      <trkpt lat="45.79513" lon="4.45364">
        <ele>713.575</ele>
        <time>2017-10-28T09:18:08Z</time>
      </trkpt>
      <trkpt lat="45.79513" lon="4.45335">
        <ele>716.672</ele>
        <time>2017-10-28T09:18:24Z</time>
      </trkpt>
      <trkpt lat="45.79508" lon="4.4531">
        <ele>719.55</ele>
        <time>2017-10-28T09:18:37Z</time>
      </trkpt>
      <trkpt lat="45.79497" lon="4.45285">
        <ele>723.327</ele>
        <time>2017-10-28T09:18:53Z</time>
      </trkpt>
      <trkpt lat="45.79483" lon="4.45265">
        <ele>726.028</ele>
        <time>2017-10-28T09:19:05Z</time>
      </trkpt>
      <trkpt lat="45.79473" lon="4.45251">
        <ele>727.899</ele>
        <time>2017-10-28T09:19:16Z</time>
      </trkpt>
      <trkpt lat="45.79464" lon="4.45243">
        <ele>728.738</ele>
        <time>2017-10-28T09:19:24Z</time>
      </trkpt>
      <trkpt lat="45.7945" lon="4.45233">
        <ele>731.391</ele>
        <time>2017-10-28T09:19:37Z</time>
      </trkpt>
      <trkpt lat="45.79439" lon="4.45229">
        <ele>732.923</ele>
        <time>2017-10-28T09:19:44Z</time>
      </trkpt>
      <trkpt lat="45.79425" lon="4.45223">
        <ele>735.014</ele>
        <time>2017-10-28T09:19:57Z</time>
      </trkpt>
      <trkpt lat="45.79412" lon="4.45217">
        <ele>735.691</ele>
        <time>2017-10-28T09:20:11Z</time>
      </trkpt>
      <trkpt lat="45.79397" lon="4.45202">
        <ele>736.507</ele>
        <time>2017-10-28T09:20:25Z</time>
      </trkpt>
      <trkpt lat="45.79383" lon="4.45195">
        <ele>737.217</ele>
        <time>2017-10-28T09:20:34Z</time>
      </trkpt>
      <trkpt lat="45.79371" lon="4.45184">
        <ele>738.1</ele>
        <time>2017-10-28T09:20:47Z</time>
      </trkpt>
      <trkpt lat="45.79355" lon="4.45175">
        <ele>739.653</ele>
        <time>2017-10-28T09:21:05Z</time>
      </trkpt>
      <trkpt lat="45.79348" lon="4.45155">
        <ele>741.603</ele>
        <time>2017-10-28T09:21:21Z</time>
      </trkpt>
      <trkpt lat="45.79353" lon="4.45134">
        <ele>742.746</ele>
        <time>2017-10-28T09:21:33Z</time>
      </trkpt>
      <trkpt lat="45.79356" lon="4.45096">
        <ele>743.473</ele>
        <time>2017-10-28T09:21:50Z</time>
      </trkpt>
      <trkpt lat="45.7936" lon="4.45074">
        <ele>743.508</ele>
        <time>2017-10-28T09:22:02Z</time>
      </trkpt>
      <trkpt lat="45.79364" lon="4.4505">
        <ele>744.125</ele>
        <time>2017-10-28T09:22:14Z</time>
      </trkpt>
      <trkpt lat="45.79374" lon="4.45026">
        <ele>745.819</ele>
        <time>2017-10-28T09:22:29Z</time>
      </trkpt>
      <trkpt lat="45.7938" lon="4.45005">
        <ele>747.703</ele>
        <time>2017-10-28T09:22:41Z</time>
      </trkpt>
      <trkpt lat="45.79388" lon="4.44985">
        <ele>749.285</ele>
        <time>2017-10-28T09:22:52Z</time>
      </trkpt>
      <trkpt lat="45.79393" lon="4.44957">
        <ele>749.21</ele>
        <time>2017-10-28T09:23:04Z</time>
      </trkpt>
      <trkpt lat="45.79398" lon="4.44932">
        <ele>747.997</ele>
        <time>2017-10-28T09:23:16Z</time>
      </trkpt>
      <trkpt lat="45.79406" lon="4.44907">
        <ele>747.657</ele>
        <time>2017-10-28T09:23:28Z</time>
      </trkpt>
      <trkpt lat="45.79409" lon="4.44883">
        <ele>747.549</ele>
        <time>2017-10-28T09:23:39Z</time>
      </trkpt>
      <trkpt lat="45.79415" lon="4.44856">
        <ele>747.819</ele>
        <time>2017-10-28T09:23:53Z</time>
      </trkpt>
      <trkpt lat="45.79423" lon="4.44826">
        <ele>748.773</ele>
        <time>2017-10-28T09:24:08Z</time>
      </trkpt>
      <trkpt lat="45.79431" lon="4.44797">
        <ele>748.353</ele>
        <time>2017-10-28T09:24:23Z</time>
      </trkpt>
      <trkpt lat="45.79438" lon="4.44774">
        <ele>748.1</ele>
        <time>2017-10-28T09:24:36Z</time>
      </trkpt>
      <trkpt lat="45.79444" lon="4.44748">
        <ele>748.518</ele>
        <time>2017-10-28T09:24:50Z</time>
      </trkpt>
      <trkpt lat="45.79444" lon="4.44724">
        <ele>749.979</ele>
        <time>2017-10-28T09:25:04Z</time>
      </trkpt>
      <trkpt lat="45.79441" lon="4.44703">
        <ele>751.488</ele>
        <time>2017-10-28T09:25:16Z</time>
      </trkpt>
      <trkpt lat="45.79435" lon="4.44673">
        <ele>753.937</ele>
        <time>2017-10-28T09:25:32Z</time>
      </trkpt>
      <trkpt lat="45.79426" lon="4.44651">
        <ele>755.352</ele>
        <time>2017-10-28T09:25:45Z</time>
      </trkpt>
      <trkpt lat="45.79418" lon="4.44632">
        <ele>756.887</ele>
        <time>2017-10-28T09:25:54Z</time>
      </trkpt>
      <trkpt lat="45.7941" lon="4.44616">
        <ele>758.682</ele>
        <time>2017-10-28T09:26:04Z</time>
      </trkpt>
      <trkpt lat="45.79399" lon="4.44602">
        <ele>760.973</ele>
        <time>2017-10-28T09:26:14Z</time>
      </trkpt>
      <trkpt lat="45.79386" lon="4.44584">
        <ele>763.302</ele>
        <time>2017-10-28T09:26:27Z</time>
      </trkpt>
      <trkpt lat="45.79372" lon="4.44571">
        <ele>766.707</ele>
        <time>2017-10-28T09:26:41Z</time>
      </trkpt>
      <trkpt lat="45.7935" lon="4.44553">
        <ele>769.695</ele>
        <time>2017-10-28T09:26:58Z</time>
      </trkpt>
      <trkpt lat="45.79336" lon="4.44546">
        <ele>770.897</ele>
        <time>2017-10-28T09:27:09Z</time>
      </trkpt>
      <trkpt lat="45.79324" lon="4.44523">
        <ele>772.872</ele>
        <time>2017-10-28T09:27:24Z</time>
      </trkpt>
      <trkpt lat="45.79322" lon="4.44493">
        <ele>772.832</ele>
        <time>2017-10-28T09:27:40Z</time>
      </trkpt>
      <trkpt lat="45.7932" lon="4.44482">
        <ele>772.324</ele>
        <time>2017-10-28T09:27:46Z</time>
      </trkpt>
      <trkpt lat="45.79317" lon="4.44451">
        <ele>771.367</ele>
        <time>2017-10-28T09:28:00Z</time>
      </trkpt>
      <trkpt lat="45.79319" lon="4.44433">
        <ele>771.887</ele>
        <time>2017-10-28T09:28:10Z</time>
      </trkpt>
      <trkpt lat="45.79323" lon="4.44402">
        <ele>773.491</ele>
        <time>2017-10-28T09:28:26Z</time>
      </trkpt>
      <trkpt lat="45.79325" lon="4.44376">
        <ele>774.814</ele>
        <time>2017-10-28T09:28:39Z</time>
      </trkpt>
      <trkpt lat="45.79324" lon="4.4435">
        <ele>776.089</ele>
        <time>2017-10-28T09:28:52Z</time>
      </trkpt>
      <trkpt lat="45.79321" lon="4.44318">
        <ele>775.966</ele>
        <time>2017-10-28T09:29:06Z</time>
      </trkpt>
      <trkpt lat="45.79329" lon="4.44291">
        <ele>775.922</ele>
        <time>2017-10-28T09:29:21Z</time>
      </trkpt>
      <trkpt lat="45.79333" lon="4.44263">
        <ele>775.334</ele>
        <time>2017-10-28T09:29:35Z</time>
      </trkpt>
      <trkpt lat="45.79339" lon="4.44248">
        <ele>774.458</ele>
        <time>2017-10-28T09:29:45Z</time>
      </trkpt>
      <trkpt lat="45.79346" lon="4.44233">
        <ele>774.223</ele>
        <time>2017-10-28T09:29:59Z</time>
      </trkpt>
      <trkpt lat="45.79346" lon="4.44233">
        <ele>774.223</ele>
        <time>2017-10-28T09:39:20Z</time>
      </trkpt>
      <trkpt lat="45.79344" lon="4.44197">
        <ele>778</ele>
        <time>2017-10-28T09:39:31Z</time>
      </trkpt>
      <trkpt lat="45.79347" lon="4.44174">
        <ele>778.011</ele>
        <time>2017-10-28T09:39:43Z</time>
      </trkpt>
      <trkpt lat="45.79351" lon="4.44158">
        <ele>778.089</ele>
        <time>2017-10-28T09:39:52Z</time>
      </trkpt>
      <trkpt lat="45.79355" lon="4.44134">
        <ele>778.534</ele>
        <time>2017-10-28T09:40:04Z</time>
      </trkpt>
      <trkpt lat="45.79357" lon="4.44113">
        <ele>779.539</ele>
        <time>2017-10-28T09:40:15Z</time>
      </trkpt>
      <trkpt lat="45.79358" lon="4.44096">
        <ele>779.84</ele>
        <time>2017-10-28T09:40:23Z</time>
      </trkpt>
      <trkpt lat="45.79362" lon="4.44068">
        <ele>780.173</ele>
        <time>2017-10-28T09:40:37Z</time>
      </trkpt>
      <trkpt lat="45.79365" lon="4.44036">
        <ele>780.225</ele>
        <time>2017-10-28T09:40:52Z</time>
      </trkpt>
      <trkpt lat="45.79365" lon="4.44012">
        <ele>780.021</ele>
        <time>2017-10-28T09:41:04Z</time>
      </trkpt>
      <trkpt lat="45.7937" lon="4.43985">
        <ele>779.707</ele>
        <time>2017-10-28T09:41:17Z</time>
      </trkpt>
      <trkpt lat="45.7937" lon="4.43966">
        <ele>779.789</ele>
        <time>2017-10-28T09:41:26Z</time>
      </trkpt>
      <trkpt lat="45.7937" lon="4.43946">
        <ele>779.393</ele>
        <time>2017-10-28T09:41:37Z</time>
      </trkpt>
      <trkpt lat="45.79375" lon="4.43922">
        <ele>778.431</ele>
        <time>2017-10-28T09:41:54Z</time>
      </trkpt>
      <trkpt lat="45.79373" lon="4.43893">
        <ele>778.541</ele>
        <time>2017-10-28T09:42:09Z</time>
      </trkpt>
      <trkpt lat="45.79364" lon="4.43873">
        <ele>781.09</ele>
        <time>2017-10-28T09:42:28Z</time>
      </trkpt>
      <trkpt lat="45.79355" lon="4.43856">
        <ele>782.399</ele>
        <time>2017-10-28T09:42:39Z</time>
      </trkpt>
      <trkpt lat="45.79346" lon="4.43842">
        <ele>783.918</ele>
        <time>2017-10-28T09:42:50Z</time>
      </trkpt>
      <trkpt lat="45.79335" lon="4.43825">
        <ele>788.737</ele>
        <time>2017-10-28T09:43:06Z</time>
      </trkpt>
      <trkpt lat="45.79328" lon="4.43811">
        <ele>790.192</ele>
        <time>2017-10-28T09:43:16Z</time>
      </trkpt>
      <trkpt lat="45.79328" lon="4.43791">
        <ele>790.445</ele>
        <time>2017-10-28T09:43:26Z</time>
      </trkpt>
      <trkpt lat="45.7933" lon="4.43779">
        <ele>790.294</ele>
        <time>2017-10-28T09:43:32Z</time>
      </trkpt>
      <trkpt lat="45.7933" lon="4.43779">
        <ele>752.9</ele>
        <time>2017-10-28T09:43:37Z</time>
      </trkpt>
      <trkpt lat="45.7933" lon="4.43779">
        <ele>752.9</ele>
        <time>2017-10-28T09:43:43Z</time>
      </trkpt>
      <trkpt lat="45.79331" lon="4.43763">
        <ele>790.584</ele>
        <time>2017-10-28T09:43:43Z</time>
      </trkpt>
      <trkpt lat="45.79335" lon="4.43735">
        <ele>792.968</ele>
        <time>2017-10-28T09:43:59Z</time>
      </trkpt>
      <trkpt lat="45.79333" lon="4.43705">
        <ele>793.567</ele>
        <time>2017-10-28T09:44:13Z</time>
      </trkpt>
      <trkpt lat="45.79338" lon="4.43681">
        <ele>792.38</ele>
        <time>2017-10-28T09:44:25Z</time>
      </trkpt>
      <trkpt lat="45.79349" lon="4.43664">
        <ele>790.484</ele>
        <time>2017-10-28T09:44:40Z</time>
      </trkpt>
      <trkpt lat="45.79352" lon="4.43658">
        <ele>789.942</ele>
        <time>2017-10-28T09:44:46Z</time>
      </trkpt>
      <trkpt lat="45.79352" lon="4.43658">
        <ele>742.7</ele>
        <time>2017-10-28T09:44:54Z</time>
      </trkpt>
      <trkpt lat="45.79352" lon="4.43658">
        <ele>742.7</ele>
        <time>2017-10-28T09:44:58Z</time>
      </trkpt>
      <trkpt lat="45.79357" lon="4.4365">
        <ele>788.71</ele>
        <time>2017-10-28T09:44:58Z</time>
      </trkpt>
      <trkpt lat="45.79357" lon="4.4365">
        <ele>788.71</ele>
        <time>2017-10-28T09:45:05Z</time>
      </trkpt>
      <trkpt lat="45.79357" lon="4.4365">
        <ele>741.1</ele>
        <time>2017-10-28T09:45:05Z</time>
      </trkpt>
      <trkpt lat="45.79357" lon="4.4365">
        <ele>741.1</ele>
        <time>2017-10-28T09:45:11Z</time>
      </trkpt>
      <trkpt lat="45.79361" lon="4.43637">
        <ele>787.109</ele>
        <time>2017-10-28T09:45:11Z</time>
      </trkpt>
      <trkpt lat="45.79362" lon="4.43633">
        <ele>787.053</ele>
        <time>2017-10-28T09:45:13Z</time>
      </trkpt>
      <trkpt lat="45.79362" lon="4.43633">
        <ele>738</ele>
        <time>2017-10-28T09:45:21Z</time>
      </trkpt>
      <trkpt lat="45.79362" lon="4.43633">
        <ele>738</ele>
        <time>2017-10-28T09:46:44Z</time>
      </trkpt>
      <trkpt lat="45.79384" lon="4.43619">
        <ele>785.142</ele>
        <time>2017-10-28T09:46:44Z</time>
      </trkpt>
      <trkpt lat="45.79393" lon="4.43606">
        <ele>784.506</ele>
        <time>2017-10-28T09:46:52Z</time>
      </trkpt>
      <trkpt lat="45.79393" lon="4.43606">
        <ele>734.7</ele>
        <time>2017-10-28T09:47:00Z</time>
      </trkpt>
      <trkpt lat="45.79393" lon="4.43606">
        <ele>734.7</ele>
        <time>2017-10-28T09:47:06Z</time>
      </trkpt>
      <trkpt lat="45.79397" lon="4.43599">
        <ele>784.718</ele>
        <time>2017-10-28T09:47:06Z</time>
      </trkpt>
      <trkpt lat="45.79405" lon="4.43559">
        <ele>783.3</ele>
        <time>2017-10-28T09:47:24Z</time>
      </trkpt>
      <trkpt lat="45.7941" lon="4.43532">
        <ele>781.662</ele>
        <time>2017-10-28T09:47:37Z</time>
      </trkpt>
      <trkpt lat="45.79414" lon="4.43512">
        <ele>780.527</ele>
        <time>2017-10-28T09:47:47Z</time>
      </trkpt>
      <trkpt lat="45.79407" lon="4.43488">
        <ele>779.816</ele>
        <time>2017-10-28T09:47:57Z</time>
      </trkpt>
      <trkpt lat="45.79403" lon="4.43473">
        <ele>778.849</ele>
        <time>2017-10-28T09:48:05Z</time>
      </trkpt>
      <trkpt lat="45.79402" lon="4.43454">
        <ele>777.379</ele>
        <time>2017-10-28T09:48:15Z</time>
      </trkpt>
      <trkpt lat="45.79401" lon="4.43431">
        <ele>775.169</ele>
        <time>2017-10-28T09:48:26Z</time>
      </trkpt>
      <trkpt lat="45.79397" lon="4.43411">
        <ele>774.647</ele>
        <time>2017-10-28T09:48:34Z</time>
      </trkpt>
      <trkpt lat="45.79396" lon="4.43397">
        <ele>774.073</ele>
        <time>2017-10-28T09:48:41Z</time>
      </trkpt>
      <trkpt lat="45.79397" lon="4.43369">
        <ele>773.134</ele>
        <time>2017-10-28T09:48:53Z</time>
      </trkpt>
      <trkpt lat="45.79398" lon="4.43349">
        <ele>771.267</ele>
        <time>2017-10-28T09:49:03Z</time>
      </trkpt>
      <trkpt lat="45.79396" lon="4.43316">
        <ele>767.3</ele>
        <time>2017-10-28T09:49:18Z</time>
      </trkpt>
      <trkpt lat="45.79392" lon="4.43291">
        <ele>764.511</ele>
        <time>2017-10-28T09:49:31Z</time>
      </trkpt>
      <trkpt lat="45.79388" lon="4.43273">
        <ele>763.185</ele>
        <time>2017-10-28T09:49:39Z</time>
      </trkpt>
      <trkpt lat="45.79385" lon="4.43254">
        <ele>761.719</ele>
        <time>2017-10-28T09:49:49Z</time>
      </trkpt>
      <trkpt lat="45.79381" lon="4.43229">
        <ele>759.935</ele>
        <time>2017-10-28T09:50:01Z</time>
      </trkpt>
      <trkpt lat="45.79375" lon="4.43207">
        <ele>757.504</ele>
        <time>2017-10-28T09:50:11Z</time>
      </trkpt>
      <trkpt lat="45.79369" lon="4.4319">
        <ele>755.812</ele>
        <time>2017-10-28T09:50:19Z</time>
      </trkpt>
      <trkpt lat="45.79362" lon="4.4317">
        <ele>754.469</ele>
        <time>2017-10-28T09:50:30Z</time>
      </trkpt>
      <trkpt lat="45.79358" lon="4.43143">
        <ele>753.132</ele>
        <time>2017-10-28T09:50:43Z</time>
      </trkpt>
      <trkpt lat="45.79361" lon="4.43116">
        <ele>752.588</ele>
        <time>2017-10-28T09:50:57Z</time>
      </trkpt>
      <trkpt lat="45.79356" lon="4.43093">
        <ele>750.862</ele>
        <time>2017-10-28T09:51:09Z</time>
      </trkpt>
      <trkpt lat="45.79361" lon="4.43061">
        <ele>748.613</ele>
        <time>2017-10-28T09:51:27Z</time>
      </trkpt>
      <trkpt lat="45.79363" lon="4.43047">
        <ele>747.708</ele>
        <time>2017-10-28T09:51:36Z</time>
      </trkpt>
      <trkpt lat="45.79361" lon="4.43025">
        <ele>747.078</ele>
        <time>2017-10-28T09:51:46Z</time>
      </trkpt>
      <trkpt lat="45.79361" lon="4.4301">
        <ele>745.569</ele>
        <time>2017-10-28T09:51:55Z</time>
      </trkpt>
      <trkpt lat="45.7936" lon="4.42985">
        <ele>744.071</ele>
        <time>2017-10-28T09:52:06Z</time>
      </trkpt>
      <trkpt lat="45.79363" lon="4.42959">
        <ele>740.922</ele>
        <time>2017-10-28T09:52:20Z</time>
      </trkpt>
      <trkpt lat="45.79372" lon="4.42921">
        <ele>736.588</ele>
        <time>2017-10-28T09:52:37Z</time>
      </trkpt>
      <trkpt lat="45.79367" lon="4.42884">
        <ele>734.866</ele>
        <time>2017-10-28T09:52:52Z</time>
      </trkpt>
      <trkpt lat="45.79359" lon="4.42866">
        <ele>734.256</ele>
        <time>2017-10-28T09:53:02Z</time>
      </trkpt>
      <trkpt lat="45.79349" lon="4.42851">
        <ele>733.714</ele>
        <time>2017-10-28T09:53:11Z</time>
      </trkpt>
      <trkpt lat="45.79335" lon="4.42838">
        <ele>732.369</ele>
        <time>2017-10-28T09:53:19Z</time>
      </trkpt>
      <trkpt lat="45.79326" lon="4.42822">
        <ele>730.808</ele>
        <time>2017-10-28T09:53:32Z</time>
      </trkpt>
      <trkpt lat="45.79315" lon="4.42803">
        <ele>729.561</ele>
        <time>2017-10-28T09:53:50Z</time>
      </trkpt>
      <trkpt lat="45.79302" lon="4.42783">
        <ele>730.617</ele>
        <time>2017-10-28T09:54:04Z</time>
      </trkpt>
      <trkpt lat="45.79292" lon="4.42754">
        <ele>731.238</ele>
        <time>2017-10-28T09:54:22Z</time>
      </trkpt>
      <trkpt lat="45.79297" lon="4.42726">
        <ele>731.714</ele>
        <time>2017-10-28T09:54:37Z</time>
      </trkpt>
      <trkpt lat="45.79302" lon="4.42698">
        <ele>730.476</ele>
        <time>2017-10-28T09:54:52Z</time>
      </trkpt>
      <trkpt lat="45.79306" lon="4.42679">
        <ele>730.954</ele>
        <time>2017-10-28T09:55:02Z</time>
      </trkpt>
      <trkpt lat="45.79312" lon="4.42659">
        <ele>732.437</ele>
        <time>2017-10-28T09:55:15Z</time>
      </trkpt>
      <trkpt lat="45.79315" lon="4.42628">
        <ele>733.837</ele>
        <time>2017-10-28T09:55:32Z</time>
      </trkpt>
      <trkpt lat="45.79297" lon="4.42601">
        <ele>737.149</ele>
        <time>2017-10-28T09:55:46Z</time>
      </trkpt>
      <trkpt lat="45.7929" lon="4.42591">
        <ele>738.153</ele>
        <time>2017-10-28T09:55:54Z</time>
      </trkpt>
      <trkpt lat="45.79279" lon="4.42568">
        <ele>738.568</ele>
        <time>2017-10-28T09:56:08Z</time>
      </trkpt>
      <trkpt lat="45.79258" lon="4.42547">
        <ele>741.913</ele>
        <time>2017-10-28T09:56:27Z</time>
      </trkpt>
      <trkpt lat="45.79247" lon="4.42532">
        <ele>742.691</ele>
        <time>2017-10-28T09:56:36Z</time>
      </trkpt>
      <trkpt lat="45.79233" lon="4.42517">
        <ele>742.338</ele>
        <time>2017-10-28T09:56:49Z</time>
      </trkpt>
      <trkpt lat="45.79226" lon="4.42499">
        <ele>742.306</ele>
        <time>2017-10-28T09:57:00Z</time>
      </trkpt>
      <trkpt lat="45.79213" lon="4.42478">
        <ele>742.436</ele>
        <time>2017-10-28T09:57:15Z</time>
      </trkpt>
      <trkpt lat="45.79199" lon="4.42461">
        <ele>743.248</ele>
        <time>2017-10-28T09:57:27Z</time>
      </trkpt>
      <trkpt lat="45.79189" lon="4.42437">
        <ele>743.944</ele>
        <time>2017-10-28T09:57:38Z</time>
      </trkpt>
      <trkpt lat="45.79189" lon="4.42437">
        <ele>698.6</ele>
        <time>2017-10-28T09:57:46Z</time>
      </trkpt>
      <trkpt lat="45.79189" lon="4.42437">
        <ele>698.6</ele>
        <time>2017-10-28T09:57:52Z</time>
      </trkpt>
      <trkpt lat="45.79184" lon="4.42426">
        <ele>744.135</ele>
        <time>2017-10-28T09:57:52Z</time>
      </trkpt>
      <trkpt lat="45.79175" lon="4.42401">
        <ele>742.482</ele>
        <time>2017-10-28T09:58:07Z</time>
      </trkpt>
      <trkpt lat="45.79169" lon="4.42383">
        <ele>742.227</ele>
        <time>2017-10-28T09:58:16Z</time>
      </trkpt>
      <trkpt lat="45.79159" lon="4.4237">
        <ele>742.42</ele>
        <time>2017-10-28T09:58:30Z</time>
      </trkpt>
      <trkpt lat="45.79155" lon="4.42338">
        <ele>741.98</ele>
        <time>2017-10-28T09:58:46Z</time>
      </trkpt>
      <trkpt lat="45.79148" lon="4.42314">
        <ele>740.521</ele>
        <time>2017-10-28T09:58:59Z</time>
      </trkpt>
      <trkpt lat="45.79143" lon="4.42298">
        <ele>739.632</ele>
        <time>2017-10-28T09:59:06Z</time>
      </trkpt>
      <trkpt lat="45.79136" lon="4.42277">
        <ele>740.329</ele>
        <time>2017-10-28T09:59:17Z</time>
      </trkpt>
      <trkpt lat="45.79138" lon="4.4225">
        <ele>741.034</ele>
        <time>2017-10-28T09:59:30Z</time>
      </trkpt>
      <trkpt lat="45.79135" lon="4.42223">
        <ele>741.189</ele>
        <time>2017-10-28T09:59:43Z</time>
      </trkpt>
      <trkpt lat="45.7913" lon="4.42196">
        <ele>741.652</ele>
        <time>2017-10-28T09:59:56Z</time>
      </trkpt>
      <trkpt lat="45.79122" lon="4.42176">
        <ele>741.775</ele>
        <time>2017-10-28T10:00:08Z</time>
      </trkpt>
      <trkpt lat="45.79113" lon="4.42152">
        <ele>741.123</ele>
        <time>2017-10-28T10:00:21Z</time>
      </trkpt>
      <trkpt lat="45.79103" lon="4.4213">
        <ele>741.175</ele>
        <time>2017-10-28T10:00:33Z</time>
      </trkpt>
      <trkpt lat="45.79097" lon="4.42104">
        <ele>742.148</ele>
        <time>2017-10-28T10:00:48Z</time>
      </trkpt>
      <trkpt lat="45.79092" lon="4.42066">
        <ele>741.568</ele>
        <time>2017-10-28T10:01:07Z</time>
      </trkpt>
      <trkpt lat="45.79088" lon="4.42032">
        <ele>741.582</ele>
        <time>2017-10-28T10:01:27Z</time>
      </trkpt>
      <trkpt lat="45.7908" lon="4.42001">
        <ele>742.378</ele>
        <time>2017-10-28T10:01:46Z</time>
      </trkpt>
      <trkpt lat="45.79072" lon="4.41975">
        <ele>744.148</ele>
        <time>2017-10-28T10:02:00Z</time>
      </trkpt>
      <trkpt lat="45.79067" lon="4.41958">
        <ele>745.258</ele>
        <time>2017-10-28T10:02:10Z</time>
      </trkpt>
      <trkpt lat="45.79061" lon="4.41932">
        <ele>746.564</ele>
        <time>2017-10-28T10:02:23Z</time>
      </trkpt>
      <trkpt lat="45.79051" lon="4.41898">
        <ele>750.453</ele>
        <time>2017-10-28T10:02:40Z</time>
      </trkpt>
      <trkpt lat="45.79045" lon="4.41872">
        <ele>752.928</ele>
        <time>2017-10-28T10:02:53Z</time>
      </trkpt>
      <trkpt lat="45.79042" lon="4.4186">
        <ele>753.721</ele>
        <time>2017-10-28T10:02:59Z</time>
      </trkpt>
      <trkpt lat="45.79034" lon="4.41839">
        <ele>754.684</ele>
        <time>2017-10-28T10:03:12Z</time>
      </trkpt>
      <trkpt lat="45.79023" lon="4.41811">
        <ele>754.945</ele>
        <time>2017-10-28T10:03:28Z</time>
      </trkpt>
      <trkpt lat="45.79011" lon="4.4179">
        <ele>754.995</ele>
        <time>2017-10-28T10:03:42Z</time>
      </trkpt>
      <trkpt lat="45.78994" lon="4.41764">
        <ele>754.554</ele>
        <time>2017-10-28T10:03:57Z</time>
      </trkpt>
      <trkpt lat="45.78976" lon="4.41745">
        <ele>753.734</ele>
        <time>2017-10-28T10:04:09Z</time>
      </trkpt>
      <trkpt lat="45.78958" lon="4.41729">
        <ele>754.852</ele>
        <time>2017-10-28T10:04:22Z</time>
      </trkpt>
      <trkpt lat="45.78937" lon="4.41722">
        <ele>754.144</ele>
        <time>2017-10-28T10:04:38Z</time>
      </trkpt>
      <trkpt lat="45.7892" lon="4.41714">
        <ele>752.758</ele>
        <time>2017-10-28T10:04:49Z</time>
      </trkpt>
      <trkpt lat="45.7891" lon="4.41705">
        <ele>752.549</ele>
        <time>2017-10-28T10:04:57Z</time>
      </trkpt>
      <trkpt lat="45.78893" lon="4.41694">
        <ele>751.788</ele>
        <time>2017-10-28T10:05:10Z</time>
      </trkpt>
      <trkpt lat="45.78879" lon="4.41676">
        <ele>750.48</ele>
        <time>2017-10-28T10:05:23Z</time>
      </trkpt>
      <trkpt lat="45.7886" lon="4.41661">
        <ele>748.626</ele>
        <time>2017-10-28T10:05:37Z</time>
      </trkpt>
      <trkpt lat="45.78852" lon="4.41644">
        <ele>748.153</ele>
        <time>2017-10-28T10:05:46Z</time>
      </trkpt>
      <trkpt lat="45.78841" lon="4.41633">
        <ele>747.683</ele>
        <time>2017-10-28T10:05:58Z</time>
      </trkpt>
      <trkpt lat="45.78822" lon="4.41603">
        <ele>747.789</ele>
        <time>2017-10-28T10:06:14Z</time>
      </trkpt>
      <trkpt lat="45.78813" lon="4.41595">
        <ele>746.554</ele>
        <time>2017-10-28T10:06:24Z</time>
      </trkpt>
      <trkpt lat="45.78798" lon="4.41564">
        <ele>742.821</ele>
        <time>2017-10-28T10:06:44Z</time>
      </trkpt>
      <trkpt lat="45.78783" lon="4.4154">
        <ele>738.718</ele>
        <time>2017-10-28T10:06:59Z</time>
      </trkpt>
      <trkpt lat="45.78773" lon="4.41516">
        <ele>735.955</ele>
        <time>2017-10-28T10:07:12Z</time>
      </trkpt>
      <trkpt lat="45.78759" lon="4.41501">
        <ele>734.224</ele>
        <time>2017-10-28T10:07:23Z</time>
      </trkpt>
      <trkpt lat="45.78753" lon="4.41488">
        <ele>733.088</ele>
        <time>2017-10-28T10:07:31Z</time>
      </trkpt>
      <trkpt lat="45.78745" lon="4.4147">
        <ele>732.398</ele>
        <time>2017-10-28T10:07:40Z</time>
      </trkpt>
      <trkpt lat="45.78742" lon="4.41446">
        <ele>731.345</ele>
        <time>2017-10-28T10:07:51Z</time>
      </trkpt>
      <trkpt lat="45.78738" lon="4.41416">
        <ele>730.635</ele>
        <time>2017-10-28T10:08:07Z</time>
      </trkpt>
      <trkpt lat="45.78743" lon="4.41387">
        <ele>731.798</ele>
        <time>2017-10-28T10:08:22Z</time>
      </trkpt>
      <trkpt lat="45.78743" lon="4.4136">
        <ele>731.124</ele>
        <time>2017-10-28T10:08:34Z</time>
      </trkpt>
      <trkpt lat="45.78737" lon="4.41338">
        <ele>729.532</ele>
        <time>2017-10-28T10:08:44Z</time>
      </trkpt>
      <trkpt lat="45.78731" lon="4.41313">
        <ele>727.78</ele>
        <time>2017-10-28T10:08:57Z</time>
      </trkpt>
      <trkpt lat="45.78723" lon="4.41291">
        <ele>727.023</ele>
        <time>2017-10-28T10:09:09Z</time>
      </trkpt>
      <trkpt lat="45.78716" lon="4.41272">
        <ele>727.807</ele>
        <time>2017-10-28T10:09:19Z</time>
      </trkpt>
      <trkpt lat="45.78709" lon="4.4125">
        <ele>729.123</ele>
        <time>2017-10-28T10:09:31Z</time>
      </trkpt>
      <trkpt lat="45.78703" lon="4.41223">
        <ele>730.18</ele>
        <time>2017-10-28T10:09:44Z</time>
      </trkpt>
      <trkpt lat="45.78699" lon="4.4121">
        <ele>730.74</ele>
        <time>2017-10-28T10:09:51Z</time>
      </trkpt>
      <trkpt lat="45.78693" lon="4.41183">
        <ele>731.841</ele>
        <time>2017-10-28T10:10:04Z</time>
      </trkpt>
      <trkpt lat="45.78688" lon="4.41166">
        <ele>732.233</ele>
        <time>2017-10-28T10:10:12Z</time>
      </trkpt>
      <trkpt lat="45.78682" lon="4.41148">
        <ele>732.926</ele>
        <time>2017-10-28T10:10:21Z</time>
      </trkpt>
      <trkpt lat="45.78675" lon="4.41123">
        <ele>733.911</ele>
        <time>2017-10-28T10:10:34Z</time>
      </trkpt>
      <trkpt lat="45.78672" lon="4.41108">
        <ele>733.634</ele>
        <time>2017-10-28T10:10:40Z</time>
      </trkpt>
      <trkpt lat="45.78672" lon="4.41108">
        <ele>684.9</ele>
        <time>2017-10-28T10:10:48Z</time>
      </trkpt>
      <trkpt lat="45.78672" lon="4.41108">
        <ele>684.9</ele>
        <time>2017-10-28T10:10:52Z</time>
      </trkpt>
      <trkpt lat="45.78667" lon="4.41096">
        <ele>733.418</ele>
        <time>2017-10-28T10:10:52Z</time>
      </trkpt>
      <trkpt lat="45.78663" lon="4.4108">
        <ele>733.616</ele>
        <time>2017-10-28T10:11:00Z</time>
      </trkpt>
      <trkpt lat="45.78659" lon="4.41067">
        <ele>733.776</ele>
        <time>2017-10-28T10:11:06Z</time>
      </trkpt>
      <trkpt lat="45.78653" lon="4.41042">
        <ele>733.564</ele>
        <time>2017-10-28T10:11:17Z</time>
      </trkpt>
      <trkpt lat="45.78647" lon="4.41015">
        <ele>731.955</ele>
        <time>2017-10-28T10:11:30Z</time>
      </trkpt>
      <trkpt lat="45.78642" lon="4.40991">
        <ele>730.519</ele>
        <time>2017-10-28T10:11:41Z</time>
      </trkpt>
      <trkpt lat="45.78634" lon="4.4097">
        <ele>729.298</ele>
        <time>2017-10-28T10:11:52Z</time>
      </trkpt>
      <trkpt lat="45.78627" lon="4.40939">
        <ele>727.995</ele>
        <time>2017-10-28T10:12:06Z</time>
      </trkpt>
      <trkpt lat="45.78621" lon="4.40917">
        <ele>727.652</ele>
        <time>2017-10-28T10:12:16Z</time>
      </trkpt>
      <trkpt lat="45.78615" lon="4.40882">
        <ele>727.003</ele>
        <time>2017-10-28T10:12:33Z</time>
      </trkpt>
      <trkpt lat="45.7861" lon="4.40853">
        <ele>726.583</ele>
        <time>2017-10-28T10:12:46Z</time>
      </trkpt>
      <trkpt lat="45.786" lon="4.40818">
        <ele>726.174</ele>
        <time>2017-10-28T10:13:03Z</time>
      </trkpt>
      <trkpt lat="45.78594" lon="4.4079">
        <ele>725.973</ele>
        <time>2017-10-28T10:13:17Z</time>
      </trkpt>
      <trkpt lat="45.78587" lon="4.4077">
        <ele>725.885</ele>
        <time>2017-10-28T10:13:25Z</time>
      </trkpt>
      <trkpt lat="45.78586" lon="4.40746">
        <ele>725.177</ele>
        <time>2017-10-28T10:13:37Z</time>
      </trkpt>
      <trkpt lat="45.78582" lon="4.4072">
        <ele>724.017</ele>
        <time>2017-10-28T10:13:49Z</time>
      </trkpt>
      <trkpt lat="45.78576" lon="4.40691">
        <ele>722.204</ele>
        <time>2017-10-28T10:14:04Z</time>
      </trkpt>
      <trkpt lat="45.78572" lon="4.40665">
        <ele>723.181</ele>
        <time>2017-10-28T10:14:16Z</time>
      </trkpt>
      <trkpt lat="45.78565" lon="4.40639">
        <ele>725.01</ele>
        <time>2017-10-28T10:14:29Z</time>
      </trkpt>
      <trkpt lat="45.7856" lon="4.40614">
        <ele>726.096</ele>
        <time>2017-10-28T10:14:41Z</time>
      </trkpt>
      <trkpt lat="45.78552" lon="4.40588">
        <ele>725.873</ele>
        <time>2017-10-28T10:14:55Z</time>
      </trkpt>
      <trkpt lat="45.78549" lon="4.40573">
        <ele>725.32</ele>
        <time>2017-10-28T10:15:03Z</time>
      </trkpt>
      <trkpt lat="45.78542" lon="4.40546">
        <ele>725.223</ele>
        <time>2017-10-28T10:15:17Z</time>
      </trkpt>
      <trkpt lat="45.78536" lon="4.40511">
        <ele>725.559</ele>
        <time>2017-10-28T10:15:34Z</time>
      </trkpt>
      <trkpt lat="45.7853" lon="4.40491">
        <ele>725.983</ele>
        <time>2017-10-28T10:15:45Z</time>
      </trkpt>
      <trkpt lat="45.7852" lon="4.40466">
        <ele>726.72</ele>
        <time>2017-10-28T10:15:59Z</time>
      </trkpt>
      <trkpt lat="45.78512" lon="4.40445">
        <ele>727.31</ele>
        <time>2017-10-28T10:16:11Z</time>
      </trkpt>
      <trkpt lat="45.7851" lon="4.40414">
        <ele>727.627</ele>
        <time>2017-10-28T10:16:26Z</time>
      </trkpt>
      <trkpt lat="45.78509" lon="4.40395">
        <ele>727.986</ele>
        <time>2017-10-28T10:16:35Z</time>
      </trkpt>
      <trkpt lat="45.78508" lon="4.40367">
        <ele>727.977</ele>
        <time>2017-10-28T10:16:49Z</time>
      </trkpt>
      <trkpt lat="45.78508" lon="4.40344">
        <ele>726.918</ele>
        <time>2017-10-28T10:17:00Z</time>
      </trkpt>
      <trkpt lat="45.78508" lon="4.40331">
        <ele>726.587</ele>
        <time>2017-10-28T10:17:06Z</time>
      </trkpt>
      <trkpt lat="45.78501" lon="4.40297">
        <ele>725.181</ele>
        <time>2017-10-28T10:17:24Z</time>
      </trkpt>
      <trkpt lat="45.78494" lon="4.40277">
        <ele>723.926</ele>
        <time>2017-10-28T10:17:35Z</time>
      </trkpt>
      <trkpt lat="45.78493" lon="4.40258">
        <ele>722.841</ele>
        <time>2017-10-28T10:17:44Z</time>
      </trkpt>
      <trkpt lat="45.78498" lon="4.40246">
        <ele>721.813</ele>
        <time>2017-10-28T10:17:51Z</time>
      </trkpt>
      <trkpt lat="45.78502" lon="4.40218">
        <ele>720.13</ele>
        <time>2017-10-28T10:18:07Z</time>
      </trkpt>
      <trkpt lat="45.78504" lon="4.40198">
        <ele>719.352</ele>
        <time>2017-10-28T10:18:17Z</time>
      </trkpt>
      <trkpt lat="45.7851" lon="4.40168">
        <ele>716.96</ele>
        <time>2017-10-28T10:18:33Z</time>
      </trkpt>
      <trkpt lat="45.78516" lon="4.40141">
        <ele>713.479</ele>
        <time>2017-10-28T10:18:48Z</time>
      </trkpt>
      <trkpt lat="45.78524" lon="4.40116">
        <ele>710.89</ele>
        <time>2017-10-28T10:19:01Z</time>
      </trkpt>
      <trkpt lat="45.78529" lon="4.40082">
        <ele>708.223</ele>
        <time>2017-10-28T10:19:17Z</time>
      </trkpt>
      <trkpt lat="45.78529" lon="4.4006">
        <ele>705.514</ele>
        <time>2017-10-28T10:19:26Z</time>
      </trkpt>
      <trkpt lat="45.78528" lon="4.40044">
        <ele>703.639</ele>
        <time>2017-10-28T10:19:33Z</time>
      </trkpt>
      <trkpt lat="45.7852" lon="4.40022">
        <ele>701.361</ele>
        <time>2017-10-28T10:19:44Z</time>
      </trkpt>
      <trkpt lat="45.78507" lon="4.39989">
        <ele>698.923</ele>
        <time>2017-10-28T10:19:59Z</time>
      </trkpt>
      <trkpt lat="45.78497" lon="4.39976">
        <ele>697.684</ele>
        <time>2017-10-28T10:20:09Z</time>
      </trkpt>
      <trkpt lat="45.78486" lon="4.39959">
        <ele>695.679</ele>
        <time>2017-10-28T10:20:24Z</time>
      </trkpt>
      <trkpt lat="45.78477" lon="4.39939">
        <ele>693.956</ele>
        <time>2017-10-28T10:20:35Z</time>
      </trkpt>
      <trkpt lat="45.78466" lon="4.39917">
        <ele>692.211</ele>
        <time>2017-10-28T10:20:48Z</time>
      </trkpt>
      <trkpt lat="45.78448" lon="4.39907">
        <ele>690.997</ele>
        <time>2017-10-28T10:21:00Z</time>
      </trkpt>
      <trkpt lat="45.78432" lon="4.39917">
        <ele>690.468</ele>
        <time>2017-10-28T10:21:10Z</time>
      </trkpt>
      <trkpt lat="45.78423" lon="4.39928">
        <ele>689.427</ele>
        <time>2017-10-28T10:21:18Z</time>
      </trkpt>
      <trkpt lat="45.78398" lon="4.39939">
        <ele>686.454</ele>
        <time>2017-10-28T10:21:35Z</time>
      </trkpt>
      <trkpt lat="45.78386" lon="4.39938">
        <ele>684.771</ele>
        <time>2017-10-28T10:21:44Z</time>
      </trkpt>
      <trkpt lat="45.78375" lon="4.39933">
        <ele>683.696</ele>
        <time>2017-10-28T10:21:51Z</time>
      </trkpt>
      <trkpt lat="45.78359" lon="4.39923">
        <ele>681.992</ele>
        <time>2017-10-28T10:22:04Z</time>
      </trkpt>
      <trkpt lat="45.78342" lon="4.39916">
        <ele>680.213</ele>
        <time>2017-10-28T10:22:17Z</time>
      </trkpt>
      <trkpt lat="45.78323" lon="4.3993">
        <ele>677.249</ele>
        <time>2017-10-28T10:22:30Z</time>
      </trkpt>
      <trkpt lat="45.78305" lon="4.39939">
        <ele>673.863</ele>
        <time>2017-10-28T10:22:45Z</time>
      </trkpt>
      <trkpt lat="45.78285" lon="4.39943">
        <ele>670.965</ele>
        <time>2017-10-28T10:22:59Z</time>
      </trkpt>
      <trkpt lat="45.78269" lon="4.39947">
        <ele>669.247</ele>
        <time>2017-10-28T10:23:11Z</time>
      </trkpt>
      <trkpt lat="45.78257" lon="4.39957">
        <ele>668.435</ele>
        <time>2017-10-28T10:23:20Z</time>
      </trkpt>
      <trkpt lat="45.78243" lon="4.39972">
        <ele>667.233</ele>
        <time>2017-10-28T10:23:32Z</time>
      </trkpt>
      <trkpt lat="45.78224" lon="4.39992">
        <ele>664.916</ele>
        <time>2017-10-28T10:23:48Z</time>
      </trkpt>
      <trkpt lat="45.78211" lon="4.4001">
        <ele>664.297</ele>
        <time>2017-10-28T10:24:00Z</time>
      </trkpt>
      <trkpt lat="45.78202" lon="4.40019">
        <ele>664.207</ele>
        <time>2017-10-28T10:24:07Z</time>
      </trkpt>
      <trkpt lat="45.78186" lon="4.40035">
        <ele>664.212</ele>
        <time>2017-10-28T10:24:21Z</time>
      </trkpt>
      <trkpt lat="45.7817" lon="4.4005">
        <ele>664.304</ele>
        <time>2017-10-28T10:24:40Z</time>
      </trkpt>
      <trkpt lat="45.78156" lon="4.40052">
        <ele>664.466</ele>
        <time>2017-10-28T10:24:47Z</time>
      </trkpt>
      <trkpt lat="45.78146" lon="4.40054">
        <ele>664.129</ele>
        <time>2017-10-28T10:24:56Z</time>
      </trkpt>
      <trkpt lat="45.78122" lon="4.40067">
        <ele>663.781</ele>
        <time>2017-10-28T10:25:10Z</time>
      </trkpt>
      <trkpt lat="45.7811" lon="4.40088">
        <ele>662.28</ele>
        <time>2017-10-28T10:25:21Z</time>
      </trkpt>
      <trkpt lat="45.78097" lon="4.40107">
        <ele>661.134</ele>
        <time>2017-10-28T10:25:33Z</time>
      </trkpt>
      <trkpt lat="45.78091" lon="4.40124">
        <ele>659.684</ele>
        <time>2017-10-28T10:25:43Z</time>
      </trkpt>
      <trkpt lat="45.78076" lon="4.4014">
        <ele>657.502</ele>
        <time>2017-10-28T10:25:57Z</time>
      </trkpt>
      <trkpt lat="45.78063" lon="4.40158">
        <ele>655.317</ele>
        <time>2017-10-28T10:26:09Z</time>
      </trkpt>
      <trkpt lat="45.7805" lon="4.40181">
        <ele>653.934</ele>
        <time>2017-10-28T10:26:24Z</time>
      </trkpt>
      <trkpt lat="45.78038" lon="4.40203">
        <ele>654.563</ele>
        <time>2017-10-28T10:26:36Z</time>
      </trkpt>
      <trkpt lat="45.78026" lon="4.40222">
        <ele>655.596</ele>
        <time>2017-10-28T10:26:49Z</time>
      </trkpt>
      <trkpt lat="45.78009" lon="4.40227">
        <ele>655.74</ele>
        <time>2017-10-28T10:27:02Z</time>
      </trkpt>
      <trkpt lat="45.77997" lon="4.40238">
        <ele>655.667</ele>
        <time>2017-10-28T10:27:12Z</time>
      </trkpt>
      <trkpt lat="45.7798" lon="4.4024">
        <ele>655.128</ele>
        <time>2017-10-28T10:27:29Z</time>
      </trkpt>
      <trkpt lat="45.77969" lon="4.40222">
        <ele>654.399</ele>
        <time>2017-10-28T10:27:45Z</time>
      </trkpt>
      <trkpt lat="45.77969" lon="4.402">
        <ele>652.844</ele>
        <time>2017-10-28T10:27:56Z</time>
      </trkpt>
      <trkpt lat="45.77967" lon="4.40187">
        <ele>651.274</ele>
        <time>2017-10-28T10:28:03Z</time>
      </trkpt>
      <trkpt lat="45.77963" lon="4.40165">
        <ele>647.996</ele>
        <time>2017-10-28T10:28:15Z</time>
      </trkpt>
      <trkpt lat="45.77952" lon="4.40145">
        <ele>645.631</ele>
        <time>2017-10-28T10:28:28Z</time>
      </trkpt>
      <trkpt lat="45.77932" lon="4.40125">
        <ele>645.752</ele>
        <time>2017-10-28T10:28:40Z</time>
      </trkpt>
      <trkpt lat="45.77923" lon="4.40122">
        <ele>646.379</ele>
        <time>2017-10-28T10:28:47Z</time>
      </trkpt>
      <trkpt lat="45.7791" lon="4.40123">
        <ele>647.256</ele>
        <time>2017-10-28T10:28:59Z</time>
      </trkpt>
      <trkpt lat="45.77887" lon="4.40126">
        <ele>649.415</ele>
        <time>2017-10-28T10:29:18Z</time>
      </trkpt>
      <trkpt lat="45.77875" lon="4.40129">
        <ele>651.301</ele>
        <time>2017-10-28T10:29:31Z</time>
      </trkpt>
      <trkpt lat="45.77862" lon="4.40134">
        <ele>652.29</ele>
        <time>2017-10-28T10:29:40Z</time>
      </trkpt>
      <trkpt lat="45.77848" lon="4.40137">
        <ele>653.535</ele>
        <time>2017-10-28T10:29:50Z</time>
      </trkpt>
      <trkpt lat="45.77834" lon="4.40147">
        <ele>655.507</ele>
        <time>2017-10-28T10:30:02Z</time>
      </trkpt>
      <trkpt lat="45.77834" lon="4.40147">
        <ele>603.1</ele>
        <time>2017-10-28T10:30:10Z</time>
      </trkpt>
      <trkpt lat="45.77834" lon="4.40147">
        <ele>603.1</ele>
        <time>2017-10-28T10:30:14Z</time>
      </trkpt>
      <trkpt lat="45.77825" lon="4.40145">
        <ele>656.669</ele>
        <time>2017-10-28T10:30:14Z</time>
      </trkpt>
      <trkpt lat="45.77811" lon="4.4015">
        <ele>657.746</ele>
        <time>2017-10-28T10:30:23Z</time>
      </trkpt>
      <trkpt lat="45.77798" lon="4.40161">
        <ele>659.165</ele>
        <time>2017-10-28T10:30:32Z</time>
      </trkpt>
      <trkpt lat="45.77784" lon="4.40183">
        <ele>659.76</ele>
        <time>2017-10-28T10:30:47Z</time>
      </trkpt>
      <trkpt lat="45.77777" lon="4.40206">
        <ele>659.806</ele>
        <time>2017-10-28T10:31:01Z</time>
      </trkpt>
      <trkpt lat="45.77766" lon="4.40223">
        <ele>660.614</ele>
        <time>2017-10-28T10:31:16Z</time>
      </trkpt>
      <trkpt lat="45.77743" lon="4.40238">
        <ele>663.326</ele>
        <time>2017-10-28T10:31:35Z</time>
      </trkpt>
      <trkpt lat="45.77728" lon="4.40255">
        <ele>664.976</ele>
        <time>2017-10-28T10:31:52Z</time>
      </trkpt>
      <trkpt lat="45.77714" lon="4.4027">
        <ele>666.31</ele>
        <time>2017-10-28T10:32:06Z</time>
      </trkpt>
      <trkpt lat="45.77697" lon="4.40284">
        <ele>667.533</ele>
        <time>2017-10-28T10:32:20Z</time>
      </trkpt>
      <trkpt lat="45.77687" lon="4.40299">
        <ele>669.111</ele>
        <time>2017-10-28T10:32:33Z</time>
      </trkpt>
      <trkpt lat="45.77671" lon="4.40321">
        <ele>671.341</ele>
        <time>2017-10-28T10:32:50Z</time>
      </trkpt>
      <trkpt lat="45.77656" lon="4.4033">
        <ele>672.826</ele>
        <time>2017-10-28T10:33:01Z</time>
      </trkpt>
      <trkpt lat="45.77641" lon="4.40341">
        <ele>675.507</ele>
        <time>2017-10-28T10:33:15Z</time>
      </trkpt>
      <trkpt lat="45.77624" lon="4.40354">
        <ele>679.115</ele>
        <time>2017-10-28T10:33:31Z</time>
      </trkpt>
      <trkpt lat="45.7761" lon="4.40363">
        <ele>681.367</ele>
        <time>2017-10-28T10:33:43Z</time>
      </trkpt>
      <trkpt lat="45.77594" lon="4.40373">
        <ele>683.881</ele>
        <time>2017-10-28T10:33:57Z</time>
      </trkpt>
      <trkpt lat="45.77585" lon="4.40377">
        <ele>685.004</ele>
        <time>2017-10-28T10:34:04Z</time>
      </trkpt>
      <trkpt lat="45.77567" lon="4.4038">
        <ele>687.725</ele>
        <time>2017-10-28T10:34:19Z</time>
      </trkpt>
      <trkpt lat="45.77546" lon="4.40374">
        <ele>689.874</ele>
        <time>2017-10-28T10:34:35Z</time>
      </trkpt>
      <trkpt lat="45.77532" lon="4.40368">
        <ele>691.207</ele>
        <time>2017-10-28T10:34:47Z</time>
      </trkpt>
      <trkpt lat="45.77523" lon="4.40354">
        <ele>692.689</ele>
        <time>2017-10-28T10:35:00Z</time>
      </trkpt>
      <trkpt lat="45.77525" lon="4.40321">
        <ele>695.368</ele>
        <time>2017-10-28T10:35:15Z</time>
      </trkpt>
      <trkpt lat="45.77524" lon="4.40298">
        <ele>696.021</ele>
        <time>2017-10-28T10:35:28Z</time>
      </trkpt>
      <trkpt lat="45.77517" lon="4.40265">
        <ele>694.403</ele>
        <time>2017-10-28T10:35:44Z</time>
      </trkpt>
      <trkpt lat="45.77515" lon="4.40245">
        <ele>693.401</ele>
        <time>2017-10-28T10:35:54Z</time>
      </trkpt>
      <trkpt lat="45.77514" lon="4.40224">
        <ele>694.057</ele>
        <time>2017-10-28T10:36:05Z</time>
      </trkpt>
      <trkpt lat="45.77514" lon="4.4021">
        <ele>694.819</ele>
        <time>2017-10-28T10:36:12Z</time>
      </trkpt>
      <trkpt lat="45.77511" lon="4.40182">
        <ele>696.459</ele>
        <time>2017-10-28T10:36:26Z</time>
      </trkpt>
      <trkpt lat="45.7751" lon="4.40165">
        <ele>696.657</ele>
        <time>2017-10-28T10:36:35Z</time>
      </trkpt>
      <trkpt lat="45.77508" lon="4.40127">
        <ele>697.24</ele>
        <time>2017-10-28T10:36:52Z</time>
      </trkpt>
      <trkpt lat="45.77498" lon="4.40104">
        <ele>697.261</ele>
        <time>2017-10-28T10:37:03Z</time>
      </trkpt>
      <trkpt lat="45.77491" lon="4.40093">
        <ele>697.072</ele>
        <time>2017-10-28T10:37:10Z</time>
      </trkpt>
      <trkpt lat="45.77473" lon="4.40075">
        <ele>697.745</ele>
        <time>2017-10-28T10:37:25Z</time>
      </trkpt>
      <trkpt lat="45.77453" lon="4.40063">
        <ele>698.952</ele>
        <time>2017-10-28T10:37:38Z</time>
      </trkpt>
      <trkpt lat="45.77444" lon="4.40057">
        <ele>699.909</ele>
        <time>2017-10-28T10:37:46Z</time>
      </trkpt>
      <trkpt lat="45.77425" lon="4.40045">
        <ele>701.593</ele>
        <time>2017-10-28T10:38:02Z</time>
      </trkpt>
      <trkpt lat="45.77403" lon="4.40027">
        <ele>703.804</ele>
        <time>2017-10-28T10:38:19Z</time>
      </trkpt>
      <trkpt lat="45.77395" lon="4.40008">
        <ele>705.383</ele>
        <time>2017-10-28T10:38:31Z</time>
      </trkpt>
      <trkpt lat="45.77388" lon="4.39987">
        <ele>705.563</ele>
        <time>2017-10-28T10:38:45Z</time>
      </trkpt>
      <trkpt lat="45.77384" lon="4.39955">
        <ele>704.67</ele>
        <time>2017-10-28T10:39:03Z</time>
      </trkpt>
      <trkpt lat="45.77382" lon="4.39933">
        <ele>703.332</ele>
        <time>2017-10-28T10:39:17Z</time>
      </trkpt>
      <trkpt lat="45.77379" lon="4.39902">
        <ele>705.143</ele>
        <time>2017-10-28T10:39:33Z</time>
      </trkpt>
      <trkpt lat="45.77378" lon="4.39871">
        <ele>707.726</ele>
        <time>2017-10-28T10:39:49Z</time>
      </trkpt>
      <trkpt lat="45.77383" lon="4.39843">
        <ele>709.076</ele>
        <time>2017-10-28T10:40:02Z</time>
      </trkpt>
      <trkpt lat="45.77386" lon="4.39825">
        <ele>710.09</ele>
        <time>2017-10-28T10:40:10Z</time>
      </trkpt>
      <trkpt lat="45.77389" lon="4.39803">
        <ele>710.625</ele>
        <time>2017-10-28T10:40:19Z</time>
      </trkpt>
      <trkpt lat="45.77388" lon="4.39782">
        <ele>711.102</ele>
        <time>2017-10-28T10:40:28Z</time>
      </trkpt>
      <trkpt lat="45.77387" lon="4.39762">
        <ele>710.626</ele>
        <time>2017-10-28T10:40:38Z</time>
      </trkpt>
      <trkpt lat="45.77386" lon="4.39744">
        <ele>710.27</ele>
        <time>2017-10-28T10:40:48Z</time>
      </trkpt>
      <trkpt lat="45.77386" lon="4.39712">
        <ele>710.192</ele>
        <time>2017-10-28T10:41:02Z</time>
      </trkpt>
      <trkpt lat="45.77385" lon="4.39695">
        <ele>709.996</ele>
        <time>2017-10-28T10:41:10Z</time>
      </trkpt>
      <trkpt lat="45.77376" lon="4.39672">
        <ele>709.491</ele>
        <time>2017-10-28T10:41:22Z</time>
      </trkpt>
      <trkpt lat="45.77369" lon="4.39657">
        <ele>709.163</ele>
        <time>2017-10-28T10:41:31Z</time>
      </trkpt>
      <trkpt lat="45.77357" lon="4.39636">
        <ele>708.833</ele>
        <time>2017-10-28T10:41:43Z</time>
      </trkpt>
      <trkpt lat="45.77346" lon="4.39624">
        <ele>708.96</ele>
        <time>2017-10-28T10:41:51Z</time>
      </trkpt>
      <trkpt lat="45.77333" lon="4.39612">
        <ele>708.905</ele>
        <time>2017-10-28T10:42:00Z</time>
      </trkpt>
      <trkpt lat="45.77319" lon="4.39594">
        <ele>708.558</ele>
        <time>2017-10-28T10:42:12Z</time>
      </trkpt>
      <trkpt lat="45.77308" lon="4.39575">
        <ele>708.475</ele>
        <time>2017-10-28T10:42:23Z</time>
      </trkpt>
      <trkpt lat="45.77298" lon="4.39555">
        <ele>708.305</ele>
        <time>2017-10-28T10:42:34Z</time>
      </trkpt>
      <trkpt lat="45.77287" lon="4.39535">
        <ele>708.21</ele>
        <time>2017-10-28T10:42:45Z</time>
      </trkpt>
      <trkpt lat="45.77278" lon="4.3951">
        <ele>708.643</ele>
        <time>2017-10-28T10:42:59Z</time>
      </trkpt>
      <trkpt lat="45.77259" lon="4.39484">
        <ele>709.082</ele>
        <time>2017-10-28T10:43:15Z</time>
      </trkpt>
      <trkpt lat="45.77245" lon="4.39473">
        <ele>709.026</ele>
        <time>2017-10-28T10:43:25Z</time>
      </trkpt>
      <trkpt lat="45.77228" lon="4.39459">
        <ele>708.866</ele>
        <time>2017-10-28T10:43:37Z</time>
      </trkpt>
      <trkpt lat="45.77211" lon="4.39446">
        <ele>708.371</ele>
        <time>2017-10-28T10:43:48Z</time>
      </trkpt>
      <trkpt lat="45.77194" lon="4.39433">
        <ele>707.832</ele>
        <time>2017-10-28T10:44:00Z</time>
      </trkpt>
      <trkpt lat="45.77169" lon="4.39416">
        <ele>707.06</ele>
        <time>2017-10-28T10:44:16Z</time>
      </trkpt>
      <trkpt lat="45.77156" lon="4.39406">
        <ele>706.507</ele>
        <time>2017-10-28T10:44:28Z</time>
      </trkpt>
      <trkpt lat="45.77138" lon="4.39389">
        <ele>704.862</ele>
        <time>2017-10-28T10:44:42Z</time>
      </trkpt>
      <trkpt lat="45.77128" lon="4.3938">
        <ele>703.979</ele>
        <time>2017-10-28T10:44:50Z</time>
      </trkpt>
      <trkpt lat="45.77119" lon="4.39372">
        <ele>703.123</ele>
        <time>2017-10-28T10:44:56Z</time>
      </trkpt>
      <trkpt lat="45.77105" lon="4.39359">
        <ele>701.804</ele>
        <time>2017-10-28T10:45:07Z</time>
      </trkpt>
      <trkpt lat="45.77088" lon="4.39343">
        <ele>701.179</ele>
        <time>2017-10-28T10:45:20Z</time>
      </trkpt>
      <trkpt lat="45.77073" lon="4.39332">
        <ele>700.34</ele>
        <time>2017-10-28T10:45:29Z</time>
      </trkpt>
      <trkpt lat="45.77061" lon="4.39325">
        <ele>698.997</ele>
        <time>2017-10-28T10:45:38Z</time>
      </trkpt>
      <trkpt lat="45.7705" lon="4.39312">
        <ele>697.862</ele>
        <time>2017-10-28T10:45:46Z</time>
      </trkpt>
      <trkpt lat="45.7704" lon="4.39304">
        <ele>697.227</ele>
        <time>2017-10-28T10:45:53Z</time>
      </trkpt>
      <trkpt lat="45.77022" lon="4.39291">
        <ele>695.826</ele>
        <time>2017-10-28T10:46:05Z</time>
      </trkpt>
      <trkpt lat="45.77007" lon="4.39279">
        <ele>694.199</ele>
        <time>2017-10-28T10:46:16Z</time>
      </trkpt>
      <trkpt lat="45.76987" lon="4.39267">
        <ele>692.534</ele>
        <time>2017-10-28T10:46:28Z</time>
      </trkpt>
      <trkpt lat="45.76971" lon="4.39261">
        <ele>691.09</ele>
        <time>2017-10-28T10:46:40Z</time>
      </trkpt>
      <trkpt lat="45.76951" lon="4.39255">
        <ele>689.92</ele>
        <time>2017-10-28T10:46:53Z</time>
      </trkpt>
      <trkpt lat="45.76949" lon="4.39237">
        <ele>689.752</ele>
        <time>2017-10-28T10:47:06Z</time>
      </trkpt>
      <trkpt lat="45.76954" lon="4.39221">
        <ele>690.093</ele>
        <time>2017-10-28T10:47:14Z</time>
      </trkpt>
      <trkpt lat="45.76959" lon="4.39194">
        <ele>690.671</ele>
        <time>2017-10-28T10:47:27Z</time>
      </trkpt>
      <trkpt lat="45.76966" lon="4.39177">
        <ele>690.399</ele>
        <time>2017-10-28T10:47:36Z</time>
      </trkpt>
      <trkpt lat="45.76967" lon="4.39162">
        <ele>689.719</ele>
        <time>2017-10-28T10:47:44Z</time>
      </trkpt>
      <trkpt lat="45.76966" lon="4.39132">
        <ele>688.157</ele>
        <time>2017-10-28T10:47:59Z</time>
      </trkpt>
      <trkpt lat="45.76958" lon="4.39102">
        <ele>684.351</ele>
        <time>2017-10-28T10:48:14Z</time>
      </trkpt>
      <trkpt lat="45.76953" lon="4.39074">
        <ele>679.543</ele>
        <time>2017-10-28T10:48:28Z</time>
      </trkpt>
      <trkpt lat="45.76964" lon="4.39059">
        <ele>676.154</ele>
        <time>2017-10-28T10:48:38Z</time>
      </trkpt>
      <trkpt lat="45.76971" lon="4.39051">
        <ele>674.781</ele>
        <time>2017-10-28T10:48:43Z</time>
      </trkpt>
      <trkpt lat="45.76981" lon="4.39033">
        <ele>671.849</ele>
        <time>2017-10-28T10:48:53Z</time>
      </trkpt>
      <trkpt lat="45.76994" lon="4.39007">
        <ele>668.351</ele>
        <time>2017-10-28T10:49:09Z</time>
      </trkpt>
      <trkpt lat="45.77006" lon="4.38986">
        <ele>665.4</ele>
        <time>2017-10-28T10:49:20Z</time>
      </trkpt>
      <trkpt lat="45.7701" lon="4.38958">
        <ele>662.28</ele>
        <time>2017-10-28T10:49:32Z</time>
      </trkpt>
      <trkpt lat="45.7701" lon="4.38939">
        <ele>660.033</ele>
        <time>2017-10-28T10:49:41Z</time>
      </trkpt>
      <trkpt lat="45.77011" lon="4.38922">
        <ele>658.107</ele>
        <time>2017-10-28T10:49:49Z</time>
      </trkpt>
      <trkpt lat="45.77008" lon="4.38902">
        <ele>655.751</ele>
        <time>2017-10-28T10:49:58Z</time>
      </trkpt>
      <trkpt lat="45.76999" lon="4.38878">
        <ele>653.233</ele>
        <time>2017-10-28T10:50:10Z</time>
      </trkpt>
      <trkpt lat="45.76992" lon="4.38867">
        <ele>652.086</ele>
        <time>2017-10-28T10:50:17Z</time>
      </trkpt>
      <trkpt lat="45.76986" lon="4.38856">
        <ele>651.081</ele>
        <time>2017-10-28T10:50:23Z</time>
      </trkpt>
      <trkpt lat="45.76969" lon="4.38831">
        <ele>649.036</ele>
        <time>2017-10-28T10:50:39Z</time>
      </trkpt>
      <trkpt lat="45.7696" lon="4.38808">
        <ele>647.718</ele>
        <time>2017-10-28T10:50:50Z</time>
      </trkpt>
      <trkpt lat="45.76954" lon="4.38788">
        <ele>646.726</ele>
        <time>2017-10-28T10:50:59Z</time>
      </trkpt>
      <trkpt lat="45.76956" lon="4.38774">
        <ele>645.873</ele>
        <time>2017-10-28T10:51:06Z</time>
      </trkpt>
      <trkpt lat="45.76961" lon="4.3876">
        <ele>645.208</ele>
        <time>2017-10-28T10:51:14Z</time>
      </trkpt>
      <trkpt lat="45.76975" lon="4.38738">
        <ele>644.155</ele>
        <time>2017-10-28T10:51:29Z</time>
      </trkpt>
      <trkpt lat="45.76984" lon="4.38723">
        <ele>643.445</ele>
        <time>2017-10-28T10:51:38Z</time>
      </trkpt>
      <trkpt lat="45.76992" lon="4.3871">
        <ele>642.667</ele>
        <time>2017-10-28T10:51:45Z</time>
      </trkpt>
      <trkpt lat="45.76998" lon="4.387">
        <ele>641.759</ele>
        <time>2017-10-28T10:51:51Z</time>
      </trkpt>
      <trkpt lat="45.77012" lon="4.38675">
        <ele>638.028</ele>
        <time>2017-10-28T10:52:05Z</time>
      </trkpt>
      <trkpt lat="45.77017" lon="4.38645">
        <ele>632.32</ele>
        <time>2017-10-28T10:52:19Z</time>
      </trkpt>
      <trkpt lat="45.77009" lon="4.38625">
        <ele>628.505</ele>
        <time>2017-10-28T10:52:29Z</time>
      </trkpt>
      <trkpt lat="45.77005" lon="4.38598">
        <ele>623.803</ele>
        <time>2017-10-28T10:52:42Z</time>
      </trkpt>
      <trkpt lat="45.77019" lon="4.3857">
        <ele>618.804</ele>
        <time>2017-10-28T10:52:57Z</time>
      </trkpt>
      <trkpt lat="45.77029" lon="4.38544">
        <ele>614.808</ele>
        <time>2017-10-28T10:53:10Z</time>
      </trkpt>
      <trkpt lat="45.77036" lon="4.38527">
        <ele>612.737</ele>
        <time>2017-10-28T10:53:19Z</time>
      </trkpt>
      <trkpt lat="45.77048" lon="4.38513">
        <ele>610.062</ele>
        <time>2017-10-28T10:53:29Z</time>
      </trkpt>
      <trkpt lat="45.77065" lon="4.38504">
        <ele>603.587</ele>
        <time>2017-10-28T10:53:44Z</time>
      </trkpt>
      <trkpt lat="45.77084" lon="4.38477">
        <ele>595.21</ele>
        <time>2017-10-28T10:54:03Z</time>
      </trkpt>
      <trkpt lat="45.77095" lon="4.38463">
        <ele>593.653</ele>
        <time>2017-10-28T10:54:11Z</time>
      </trkpt>
      <trkpt lat="45.77117" lon="4.38437">
        <ele>592.696</ele>
        <time>2017-10-28T10:54:26Z</time>
      </trkpt>
      <trkpt lat="45.77135" lon="4.38421">
        <ele>592.068</ele>
        <time>2017-10-28T10:54:39Z</time>
      </trkpt>
      <trkpt lat="45.7714" lon="4.38415">
        <ele>591.748</ele>
        <time>2017-10-28T10:54:42Z</time>
      </trkpt>
      <trkpt lat="45.7714" lon="4.38415">
        <ele>540.2</ele>
        <time>2017-10-28T10:54:47Z</time>
      </trkpt>
      <trkpt lat="45.7714" lon="4.38415">
        <ele>540.2</ele>
        <time>2017-10-28T10:54:51Z</time>
      </trkpt>
      <trkpt lat="45.77152" lon="4.38412">
        <ele>591.673</ele>
        <time>2017-10-28T10:54:51Z</time>
      </trkpt>
      <trkpt lat="45.77164" lon="4.38406">
        <ele>591.422</ele>
        <time>2017-10-28T10:54:59Z</time>
      </trkpt>
      <trkpt lat="45.77182" lon="4.38386">
        <ele>591.05</ele>
        <time>2017-10-28T10:55:10Z</time>
      </trkpt>
      <trkpt lat="45.772" lon="4.38369">
        <ele>591.329</ele>
        <time>2017-10-28T10:55:25Z</time>
      </trkpt>
      <trkpt lat="45.77212" lon="4.38363">
        <ele>590.266</ele>
        <time>2017-10-28T10:55:35Z</time>
      </trkpt>
      <trkpt lat="45.77224" lon="4.38362">
        <ele>588.499</ele>
        <time>2017-10-28T10:55:43Z</time>
      </trkpt>
      <trkpt lat="45.77242" lon="4.38345">
        <ele>585.295</ele>
        <time>2017-10-28T10:55:59Z</time>
      </trkpt>
      <trkpt lat="45.77256" lon="4.38329">
        <ele>582.843</ele>
        <time>2017-10-28T10:56:10Z</time>
      </trkpt>
      <trkpt lat="45.77274" lon="4.38315">
        <ele>580.274</ele>
        <time>2017-10-28T10:56:23Z</time>
      </trkpt>
      <trkpt lat="45.77296" lon="4.38287">
        <ele>577.642</ele>
        <time>2017-10-28T10:56:36Z</time>
      </trkpt>
      <trkpt lat="45.77308" lon="4.38271">
        <ele>575.271</ele>
        <time>2017-10-28T10:56:48Z</time>
      </trkpt>
      <trkpt lat="45.77307" lon="4.38245">
        <ele>573.507</ele>
        <time>2017-10-28T10:57:00Z</time>
      </trkpt>
      <trkpt lat="45.77302" lon="4.38232">
        <ele>572.667</ele>
        <time>2017-10-28T10:57:06Z</time>
      </trkpt>
      <trkpt lat="45.77301" lon="4.38216">
        <ele>571.362</ele>
        <time>2017-10-28T10:57:14Z</time>
      </trkpt>
      <trkpt lat="45.77295" lon="4.38185">
        <ele>569.145</ele>
        <time>2017-10-28T10:57:30Z</time>
      </trkpt>
      <trkpt lat="45.77291" lon="4.38156">
        <ele>568.607</ele>
        <time>2017-10-28T10:57:43Z</time>
      </trkpt>
      <trkpt lat="45.77288" lon="4.38129">
        <ele>569.628</ele>
        <time>2017-10-28T10:57:56Z</time>
      </trkpt>
      <trkpt lat="45.77272" lon="4.38115">
        <ele>570.518</ele>
        <time>2017-10-28T10:58:07Z</time>
      </trkpt>
      <trkpt lat="45.77254" lon="4.38097">
        <ele>571.43</ele>
        <time>2017-10-28T10:58:22Z</time>
      </trkpt>
      <trkpt lat="45.77241" lon="4.38085">
        <ele>573.055</ele>
        <time>2017-10-28T10:58:32Z</time>
      </trkpt>
      <trkpt lat="45.77231" lon="4.3808">
        <ele>574.225</ele>
        <time>2017-10-28T10:58:39Z</time>
      </trkpt>
      <trkpt lat="45.77216" lon="4.38074">
        <ele>575.829</ele>
        <time>2017-10-28T10:58:49Z</time>
      </trkpt>
      <trkpt lat="45.77202" lon="4.38071">
        <ele>576.561</ele>
        <time>2017-10-28T10:59:01Z</time>
      </trkpt>
      <trkpt lat="45.77198" lon="4.38042">
        <ele>577.031</ele>
        <time>2017-10-28T10:59:17Z</time>
      </trkpt>
      <trkpt lat="45.77202" lon="4.38015">
        <ele>576.052</ele>
        <time>2017-10-28T10:59:31Z</time>
      </trkpt>
      <trkpt lat="45.77206" lon="4.37992">
        <ele>575.493</ele>
        <time>2017-10-28T10:59:42Z</time>
      </trkpt>
      <trkpt lat="45.77207" lon="4.37966">
        <ele>574.434</ele>
        <time>2017-10-28T10:59:53Z</time>
      </trkpt>
      <trkpt lat="45.77208" lon="4.37938">
        <ele>572.947</ele>
        <time>2017-10-28T11:00:05Z</time>
      </trkpt>
      <trkpt lat="45.77203" lon="4.37913">
        <ele>571.478</ele>
        <time>2017-10-28T11:00:15Z</time>
      </trkpt>
      <trkpt lat="45.772" lon="4.37884">
        <ele>570.465</ele>
        <time>2017-10-28T11:00:27Z</time>
      </trkpt>
      <trkpt lat="45.77199" lon="4.37871">
        <ele>570.613</ele>
        <time>2017-10-28T11:00:34Z</time>
      </trkpt>
      <trkpt lat="45.77208" lon="4.37854">
        <ele>572.21</ele>
        <time>2017-10-28T11:00:46Z</time>
      </trkpt>
      <trkpt lat="45.77217" lon="4.37838">
        <ele>573.501</ele>
        <time>2017-10-28T11:00:58Z</time>
      </trkpt>
      <trkpt lat="45.77207" lon="4.37816">
        <ele>574.628</ele>
        <time>2017-10-28T11:01:12Z</time>
      </trkpt>
      <trkpt lat="45.77204" lon="4.378">
        <ele>574.948</ele>
        <time>2017-10-28T11:01:25Z</time>
      </trkpt>
      <trkpt lat="45.77212" lon="4.3779">
        <ele>574.596</ele>
        <time>2017-10-28T11:01:32Z</time>
      </trkpt>
      <trkpt lat="45.7723" lon="4.37774">
        <ele>573.045</ele>
        <time>2017-10-28T11:01:45Z</time>
      </trkpt>
      <trkpt lat="45.77249" lon="4.37753">
        <ele>569.695</ele>
        <time>2017-10-28T11:02:01Z</time>
      </trkpt>
      <trkpt lat="45.77266" lon="4.3774">
        <ele>566.569</ele>
        <time>2017-10-28T11:02:13Z</time>
      </trkpt>
      <trkpt lat="45.7727" lon="4.37736">
        <ele>566.039</ele>
        <time>2017-10-28T11:02:18Z</time>
      </trkpt>
      <trkpt lat="45.7727" lon="4.37736">
        <ele>522.8</ele>
        <time>2017-10-28T11:02:26Z</time>
      </trkpt>
      <trkpt lat="45.7727" lon="4.37736">
        <ele>522.8</ele>
        <time>2017-10-28T11:02:31Z</time>
      </trkpt>
      <trkpt lat="45.77277" lon="4.37739">
        <ele>565.852</ele>
        <time>2017-10-28T11:02:31Z</time>
      </trkpt>
      <trkpt lat="45.77291" lon="4.37766">
        <ele>566.553</ele>
        <time>2017-10-28T11:02:46Z</time>
      </trkpt>
      <trkpt lat="45.773" lon="4.37783">
        <ele>567.227</ele>
        <time>2017-10-28T11:02:55Z</time>
      </trkpt>
      <trkpt lat="45.77307" lon="4.37805">
        <ele>567.95</ele>
        <time>2017-10-28T11:03:07Z</time>
      </trkpt>
      <trkpt lat="45.77316" lon="4.37832">
        <ele>568.128</ele>
        <time>2017-10-28T11:03:21Z</time>
      </trkpt>
      <trkpt lat="45.77325" lon="4.37861">
        <ele>568.606</ele>
        <time>2017-10-28T11:03:36Z</time>
      </trkpt>
      <trkpt lat="45.77343" lon="4.37859">
        <ele>568.436</ele>
        <time>2017-10-28T11:03:47Z</time>
      </trkpt>
      <trkpt lat="45.77363" lon="4.37849">
        <ele>568.014</ele>
        <time>2017-10-28T11:04:03Z</time>
      </trkpt>
      <trkpt lat="45.77375" lon="4.37832">
        <ele>568.056</ele>
        <time>2017-10-28T11:04:12Z</time>
      </trkpt>
      <trkpt lat="45.77386" lon="4.37821">
        <ele>568.283</ele>
        <time>2017-10-28T11:04:21Z</time>
      </trkpt>
      <trkpt lat="45.77404" lon="4.37805">
        <ele>567.869</ele>
        <time>2017-10-28T11:04:38Z</time>
      </trkpt>
      <trkpt lat="45.77421" lon="4.37792">
        <ele>567.937</ele>
        <time>2017-10-28T11:04:52Z</time>
      </trkpt>
      <trkpt lat="45.7744" lon="4.37775">
        <ele>569.541</ele>
        <time>2017-10-28T11:05:07Z</time>
      </trkpt>
      <trkpt lat="45.77459" lon="4.37759">
        <ele>569.571</ele>
        <time>2017-10-28T11:05:23Z</time>
      </trkpt>
      <trkpt lat="45.77475" lon="4.37752">
        <ele>571.371</ele>
        <time>2017-10-28T11:05:35Z</time>
      </trkpt>
      <trkpt lat="45.775" lon="4.37757">
        <ele>572.998</ele>
        <time>2017-10-28T11:05:54Z</time>
      </trkpt>
      <trkpt lat="45.77516" lon="4.37756">
        <ele>574.039</ele>
        <time>2017-10-28T11:06:06Z</time>
      </trkpt>
      <trkpt lat="45.77538" lon="4.37774">
        <ele>576.015</ele>
        <time>2017-10-28T11:06:23Z</time>
      </trkpt>
      <trkpt lat="45.77538" lon="4.37774">
        <ele>576.015</ele>
        <time>2017-10-28T11:06:28Z</time>
      </trkpt>
      <trkpt lat="45.77538" lon="4.37774">
        <ele>549.2</ele>
        <time>2017-10-28T11:06:28Z</time>
      </trkpt>
      <trkpt lat="45.77538" lon="4.37774">
        <ele>549.2</ele>
        <time>2017-10-28T11:06:34Z</time>
      </trkpt>
      <trkpt lat="45.77548" lon="4.37779">
        <ele>576.53</ele>
        <time>2017-10-28T11:06:34Z</time>
      </trkpt>
      <trkpt lat="45.77566" lon="4.37784">
        <ele>580.265</ele>
        <time>2017-10-28T11:06:51Z</time>
      </trkpt>
      <trkpt lat="45.77577" lon="4.37788">
        <ele>583.975</ele>
        <time>2017-10-28T11:07:04Z</time>
      </trkpt>
      <trkpt lat="45.77593" lon="4.3779">
        <ele>587.871</ele>
        <time>2017-10-28T11:07:17Z</time>
      </trkpt>
      <trkpt lat="45.77608" lon="4.37791">
        <ele>589.663</ele>
        <time>2017-10-28T11:07:29Z</time>
      </trkpt>
      <trkpt lat="45.77625" lon="4.37782">
        <ele>591.17</ele>
        <time>2017-10-28T11:07:46Z</time>
      </trkpt>
      <trkpt lat="45.77635" lon="4.37758">
        <ele>591.022</ele>
        <time>2017-10-28T11:07:59Z</time>
      </trkpt>
      <trkpt lat="45.77633" lon="4.37732">
        <ele>591.38</ele>
        <time>2017-10-28T11:08:11Z</time>
      </trkpt>
      <trkpt lat="45.77634" lon="4.37713">
        <ele>591.551</ele>
        <time>2017-10-28T11:08:20Z</time>
      </trkpt>
      <trkpt lat="45.77639" lon="4.37685">
        <ele>591.995</ele>
        <time>2017-10-28T11:08:32Z</time>
      </trkpt>
      <trkpt lat="45.77641" lon="4.37659">
        <ele>592.881</ele>
        <time>2017-10-28T11:08:44Z</time>
      </trkpt>
      <trkpt lat="45.77641" lon="4.37633">
        <ele>595.188</ele>
        <time>2017-10-28T11:08:58Z</time>
      </trkpt>
      <trkpt lat="45.7764" lon="4.37606">
        <ele>599.313</ele>
        <time>2017-10-28T11:09:14Z</time>
      </trkpt>
      <trkpt lat="45.77641" lon="4.37574">
        <ele>604.361</ele>
        <time>2017-10-28T11:09:29Z</time>
      </trkpt>
      <trkpt lat="45.77652" lon="4.37554">
        <ele>607.104</ele>
        <time>2017-10-28T11:09:39Z</time>
      </trkpt>
      <trkpt lat="45.77665" lon="4.3754">
        <ele>609.131</ele>
        <time>2017-10-28T11:09:51Z</time>
      </trkpt>
      <trkpt lat="45.77684" lon="4.37529">
        <ele>610.574</ele>
        <time>2017-10-28T11:10:05Z</time>
      </trkpt>
      <trkpt lat="45.77699" lon="4.37521">
        <ele>611.119</ele>
        <time>2017-10-28T11:10:16Z</time>
      </trkpt>
      <trkpt lat="45.7771" lon="4.37508">
        <ele>611.665</ele>
        <time>2017-10-28T11:10:26Z</time>
      </trkpt>
      <trkpt lat="45.77717" lon="4.37497">
        <ele>611.401</ele>
        <time>2017-10-28T11:10:34Z</time>
      </trkpt>
      <trkpt lat="45.77733" lon="4.37479">
        <ele>609.863</ele>
        <time>2017-10-28T11:10:47Z</time>
      </trkpt>
      <trkpt lat="45.77745" lon="4.3746">
        <ele>609.245</ele>
        <time>2017-10-28T11:10:58Z</time>
      </trkpt>
      <trkpt lat="45.77759" lon="4.37435">
        <ele>609.332</ele>
        <time>2017-10-28T11:11:12Z</time>
      </trkpt>
      <trkpt lat="45.77769" lon="4.37407">
        <ele>611.334</ele>
        <time>2017-10-28T11:11:25Z</time>
      </trkpt>
      <trkpt lat="45.77776" lon="4.37385">
        <ele>612.507</ele>
        <time>2017-10-28T11:11:37Z</time>
      </trkpt>
      <trkpt lat="45.77783" lon="4.37358">
        <ele>612.792</ele>
        <time>2017-10-28T11:11:50Z</time>
      </trkpt>
      <trkpt lat="45.77789" lon="4.37331">
        <ele>612.69</ele>
        <time>2017-10-28T11:12:04Z</time>
      </trkpt>
      <trkpt lat="45.77796" lon="4.37311">
        <ele>613.126</ele>
        <time>2017-10-28T11:12:13Z</time>
      </trkpt>
      <trkpt lat="45.77805" lon="4.37292">
        <ele>614.128</ele>
        <time>2017-10-28T11:12:24Z</time>
      </trkpt>
      <trkpt lat="45.77807" lon="4.3726">
        <ele>614.646</ele>
        <time>2017-10-28T11:12:40Z</time>
      </trkpt>
      <trkpt lat="45.77806" lon="4.37237">
        <ele>613.421</ele>
        <time>2017-10-28T11:12:51Z</time>
      </trkpt>
      <trkpt lat="45.77807" lon="4.37222">
        <ele>612.437</ele>
        <time>2017-10-28T11:12:59Z</time>
      </trkpt>
      <trkpt lat="45.77797" lon="4.37192">
        <ele>610.713</ele>
        <time>2017-10-28T11:13:12Z</time>
      </trkpt>
      <trkpt lat="45.77796" lon="4.37168">
        <ele>609.828</ele>
        <time>2017-10-28T11:13:23Z</time>
      </trkpt>
      <trkpt lat="45.77796" lon="4.37142">
        <ele>609.546</ele>
        <time>2017-10-28T11:13:36Z</time>
      </trkpt>
      <trkpt lat="45.77796" lon="4.3712">
        <ele>610.134</ele>
        <time>2017-10-28T11:13:46Z</time>
      </trkpt>
      <trkpt lat="45.77795" lon="4.37093">
        <ele>609.632</ele>
        <time>2017-10-28T11:14:01Z</time>
      </trkpt>
      <trkpt lat="45.77798" lon="4.37056">
        <ele>608.721</ele>
        <time>2017-10-28T11:14:17Z</time>
      </trkpt>
      <trkpt lat="45.77804" lon="4.3703">
        <ele>607.916</ele>
        <time>2017-10-28T11:14:29Z</time>
      </trkpt>
      <trkpt lat="45.77802" lon="4.37003">
        <ele>607.986</ele>
        <time>2017-10-28T11:14:42Z</time>
      </trkpt>
      <trkpt lat="45.77801" lon="4.36981">
        <ele>607.957</ele>
        <time>2017-10-28T11:14:54Z</time>
      </trkpt>
      <trkpt lat="45.77798" lon="4.3696">
        <ele>608.244</ele>
        <time>2017-10-28T11:15:05Z</time>
      </trkpt>
      <trkpt lat="45.77784" lon="4.36929">
        <ele>610.488</ele>
        <time>2017-10-28T11:15:21Z</time>
      </trkpt>
      <trkpt lat="45.77784" lon="4.36929">
        <ele>581.1</ele>
        <time>2017-10-28T11:15:28Z</time>
      </trkpt>
      <trkpt lat="45.77784" lon="4.36929">
        <ele>581.1</ele>
        <time>2017-10-28T11:15:32Z</time>
      </trkpt>
      <trkpt lat="45.77781" lon="4.36913">
        <ele>611.209</ele>
        <time>2017-10-28T11:15:32Z</time>
      </trkpt>
      <trkpt lat="45.77771" lon="4.36888">
        <ele>616.446</ele>
        <time>2017-10-28T11:15:46Z</time>
      </trkpt>
      <trkpt lat="45.77756" lon="4.36858">
        <ele>619.651</ele>
        <time>2017-10-28T11:16:01Z</time>
      </trkpt>
      <trkpt lat="45.77745" lon="4.36838">
        <ele>619.679</ele>
        <time>2017-10-28T11:16:13Z</time>
      </trkpt>
      <trkpt lat="45.7774" lon="4.36827">
        <ele>619.868</ele>
        <time>2017-10-28T11:16:20Z</time>
      </trkpt>
      <trkpt lat="45.77728" lon="4.36806">
        <ele>620.62</ele>
        <time>2017-10-28T11:16:33Z</time>
      </trkpt>
      <trkpt lat="45.77715" lon="4.36788">
        <ele>621.689</ele>
        <time>2017-10-28T11:16:46Z</time>
      </trkpt>
      <trkpt lat="45.77706" lon="4.36777">
        <ele>622.245</ele>
        <time>2017-10-28T11:16:55Z</time>
      </trkpt>
      <trkpt lat="45.77692" lon="4.36763">
        <ele>623.727</ele>
        <time>2017-10-28T11:17:08Z</time>
      </trkpt>
      <trkpt lat="45.77674" lon="4.36745">
        <ele>625.21</ele>
        <time>2017-10-28T11:17:23Z</time>
      </trkpt>
      <trkpt lat="45.77654" lon="4.36739">
        <ele>626.276</ele>
        <time>2017-10-28T11:17:35Z</time>
      </trkpt>
      <trkpt lat="45.7764" lon="4.36745">
        <ele>626.663</ele>
        <time>2017-10-28T11:17:43Z</time>
      </trkpt>
      <trkpt lat="45.77624" lon="4.36755">
        <ele>627.303</ele>
        <time>2017-10-28T11:17:55Z</time>
      </trkpt>
      <trkpt lat="45.77606" lon="4.3677">
        <ele>628.495</ele>
        <time>2017-10-28T11:18:09Z</time>
      </trkpt>
      <trkpt lat="45.77589" lon="4.36777">
        <ele>628.878</ele>
        <time>2017-10-28T11:18:25Z</time>
      </trkpt>
      <trkpt lat="45.77572" lon="4.36753">
        <ele>627.12</ele>
        <time>2017-10-28T11:18:43Z</time>
      </trkpt>
      <trkpt lat="45.77553" lon="4.36734">
        <ele>624.951</ele>
        <time>2017-10-28T11:18:59Z</time>
      </trkpt>
      <trkpt lat="45.77542" lon="4.36719">
        <ele>623.645</ele>
        <time>2017-10-28T11:19:10Z</time>
      </trkpt>
      <trkpt lat="45.77528" lon="4.36713">
        <ele>622.456</ele>
        <time>2017-10-28T11:19:19Z</time>
      </trkpt>
      <trkpt lat="45.77528" lon="4.36713">
        <ele>566.4</ele>
        <time>2017-10-28T11:19:26Z</time>
      </trkpt>
      <trkpt lat="45.77528" lon="4.36713">
        <ele>566.4</ele>
        <time>2017-10-28T11:19:32Z</time>
      </trkpt>
      <trkpt lat="45.77519" lon="4.36709">
        <ele>621.25</ele>
        <time>2017-10-28T11:19:32Z</time>
      </trkpt>
      <trkpt lat="45.77506" lon="4.36703">
        <ele>620.597</ele>
        <time>2017-10-28T11:19:42Z</time>
      </trkpt>
      <trkpt lat="45.77498" lon="4.36706">
        <ele>619.979</ele>
        <time>2017-10-28T11:19:56Z</time>
      </trkpt>
      <trkpt lat="45.77498" lon="4.36706">
        <ele>619.979</ele>
        <time>2017-10-28T11:29:07Z</time>
      </trkpt>
      <trkpt lat="45.77494" lon="4.36687">
        <ele>615.296</ele>
        <time>2017-10-28T11:30:06Z</time>
      </trkpt>
      <trkpt lat="45.7748" lon="4.36675">
        <ele>615.999</ele>
        <time>2017-10-28T11:30:18Z</time>
      </trkpt>
      <trkpt lat="45.77466" lon="4.36657">
        <ele>615.621</ele>
        <time>2017-10-28T11:30:31Z</time>
      </trkpt>
      <trkpt lat="45.77448" lon="4.3664">
        <ele>615.269</ele>
        <time>2017-10-28T11:30:45Z</time>
      </trkpt>
      <trkpt lat="45.77442" lon="4.36625">
        <ele>615.747</ele>
        <time>2017-10-28T11:30:57Z</time>
      </trkpt>
      <trkpt lat="45.77456" lon="4.36597">
        <ele>615.474</ele>
        <time>2017-10-28T11:31:12Z</time>
      </trkpt>
      <trkpt lat="45.77462" lon="4.36585">
        <ele>615.777</ele>
        <time>2017-10-28T11:31:20Z</time>
      </trkpt>
      <trkpt lat="45.77466" lon="4.3656">
        <ele>614.364</ele>
        <time>2017-10-28T11:31:32Z</time>
      </trkpt>
      <trkpt lat="45.77467" lon="4.3654">
        <ele>613.385</ele>
        <time>2017-10-28T11:31:42Z</time>
      </trkpt>
      <trkpt lat="45.77458" lon="4.36518">
        <ele>614.444</ele>
        <time>2017-10-28T11:31:56Z</time>
      </trkpt>
      <trkpt lat="45.77442" lon="4.365">
        <ele>616.25</ele>
        <time>2017-10-28T11:32:09Z</time>
      </trkpt>
      <trkpt lat="45.77427" lon="4.36481">
        <ele>617.185</ele>
        <time>2017-10-28T11:32:23Z</time>
      </trkpt>
      <trkpt lat="45.77413" lon="4.36454">
        <ele>617.298</ele>
        <time>2017-10-28T11:32:43Z</time>
      </trkpt>
      <trkpt lat="45.7742" lon="4.36424">
        <ele>615.109</ele>
        <time>2017-10-28T11:33:00Z</time>
      </trkpt>
      <trkpt lat="45.77428" lon="4.36398">
        <ele>612.778</ele>
        <time>2017-10-28T11:33:12Z</time>
      </trkpt>
      <trkpt lat="45.77439" lon="4.36384">
        <ele>611.099</ele>
        <time>2017-10-28T11:33:20Z</time>
      </trkpt>
      <trkpt lat="45.77448" lon="4.36353">
        <ele>607.664</ele>
        <time>2017-10-28T11:33:40Z</time>
      </trkpt>
      <trkpt lat="45.7745" lon="4.36334">
        <ele>606.584</ele>
        <time>2017-10-28T11:33:50Z</time>
      </trkpt>
      <trkpt lat="45.77453" lon="4.36311">
        <ele>606.303</ele>
        <time>2017-10-28T11:33:58Z</time>
      </trkpt>
      <trkpt lat="45.77455" lon="4.36289">
        <ele>605.341</ele>
        <time>2017-10-28T11:34:12Z</time>
      </trkpt>
      <trkpt lat="45.77444" lon="4.36257">
        <ele>598.026</ele>
        <time>2017-10-28T11:34:30Z</time>
      </trkpt>
      <trkpt lat="45.77453" lon="4.36224">
        <ele>591.499</ele>
        <time>2017-10-28T11:34:42Z</time>
      </trkpt>
      <trkpt lat="45.77462" lon="4.36194">
        <ele>584.999</ele>
        <time>2017-10-28T11:34:55Z</time>
      </trkpt>
      <trkpt lat="45.77483" lon="4.36181">
        <ele>581.317</ele>
        <time>2017-10-28T11:35:04Z</time>
      </trkpt>
      <trkpt lat="45.7749" lon="4.36177">
        <ele>579.257</ele>
        <time>2017-10-28T11:35:11Z</time>
      </trkpt>
      <trkpt lat="45.77513" lon="4.36169">
        <ele>574.81</ele>
        <time>2017-10-28T11:35:27Z</time>
      </trkpt>
      <trkpt lat="45.77531" lon="4.36159">
        <ele>571.82</ele>
        <time>2017-10-28T11:35:42Z</time>
      </trkpt>
      <trkpt lat="45.77564" lon="4.36124">
        <ele>570.435</ele>
        <time>2017-10-28T11:36:01Z</time>
      </trkpt>
      <trkpt lat="45.77572" lon="4.361">
        <ele>568.598</ele>
        <time>2017-10-28T11:36:17Z</time>
      </trkpt>
      <trkpt lat="45.77576" lon="4.36074">
        <ele>566.355</ele>
        <time>2017-10-28T11:36:30Z</time>
      </trkpt>
      <trkpt lat="45.77589" lon="4.36043">
        <ele>562.385</ele>
        <time>2017-10-28T11:36:45Z</time>
      </trkpt>
      <trkpt lat="45.77597" lon="4.3603">
        <ele>560.457</ele>
        <time>2017-10-28T11:36:53Z</time>
      </trkpt>
      <trkpt lat="45.77614" lon="4.36018">
        <ele>559.05</ele>
        <time>2017-10-28T11:37:03Z</time>
      </trkpt>
      <trkpt lat="45.77627" lon="4.36005">
        <ele>557.849</ele>
        <time>2017-10-28T11:37:16Z</time>
      </trkpt>
      <trkpt lat="45.77628" lon="4.35974">
        <ele>555.576</ele>
        <time>2017-10-28T11:37:33Z</time>
      </trkpt>
      <trkpt lat="45.77622" lon="4.35946">
        <ele>553.09</ele>
        <time>2017-10-28T11:37:46Z</time>
      </trkpt>
      <trkpt lat="45.77619" lon="4.35918">
        <ele>550.502</ele>
        <time>2017-10-28T11:37:59Z</time>
      </trkpt>
      <trkpt lat="45.77616" lon="4.35905">
        <ele>548.97</ele>
        <time>2017-10-28T11:38:08Z</time>
      </trkpt>
      <trkpt lat="45.77615" lon="4.35881">
        <ele>548.793</ele>
        <time>2017-10-28T11:38:24Z</time>
      </trkpt>
      <trkpt lat="45.77613" lon="4.35854">
        <ele>551.589</ele>
        <time>2017-10-28T11:38:40Z</time>
      </trkpt>
      <trkpt lat="45.77613" lon="4.35829">
        <ele>555.321</ele>
        <time>2017-10-28T11:38:55Z</time>
      </trkpt>
      <trkpt lat="45.77606" lon="4.3581">
        <ele>558.439</ele>
        <time>2017-10-28T11:39:09Z</time>
      </trkpt>
      <trkpt lat="45.77597" lon="4.35779">
        <ele>562.239</ele>
        <time>2017-10-28T11:39:26Z</time>
      </trkpt>
      <trkpt lat="45.77592" lon="4.35749">
        <ele>564.491</ele>
        <time>2017-10-28T11:39:39Z</time>
      </trkpt>
      <trkpt lat="45.77582" lon="4.35731">
        <ele>565.279</ele>
        <time>2017-10-28T11:39:56Z</time>
      </trkpt>
      <trkpt lat="45.7756" lon="4.35694">
        <ele>566.87</ele>
        <time>2017-10-28T11:40:12Z</time>
      </trkpt>
      <trkpt lat="45.77551" lon="4.35671">
        <ele>567.792</ele>
        <time>2017-10-28T11:40:23Z</time>
      </trkpt>
      <trkpt lat="45.77541" lon="4.35655">
        <ele>568.329</ele>
        <time>2017-10-28T11:40:33Z</time>
      </trkpt>
      <trkpt lat="45.77525" lon="4.35639">
        <ele>569.786</ele>
        <time>2017-10-28T11:40:51Z</time>
      </trkpt>
      <trkpt lat="45.77513" lon="4.35624">
        <ele>571.751</ele>
        <time>2017-10-28T11:41:08Z</time>
      </trkpt>
      <trkpt lat="45.77502" lon="4.35608">
        <ele>574.093</ele>
        <time>2017-10-28T11:41:21Z</time>
      </trkpt>
      <trkpt lat="45.77494" lon="4.35585">
        <ele>577.508</ele>
        <time>2017-10-28T11:41:36Z</time>
      </trkpt>
      <trkpt lat="45.77479" lon="4.35565">
        <ele>581.34</ele>
        <time>2017-10-28T11:41:54Z</time>
      </trkpt>
      <trkpt lat="45.77469" lon="4.35551">
        <ele>583.63</ele>
        <time>2017-10-28T11:42:06Z</time>
      </trkpt>
      <trkpt lat="45.77452" lon="4.35525">
        <ele>585.763</ele>
        <time>2017-10-28T11:42:23Z</time>
      </trkpt>
      <trkpt lat="45.77439" lon="4.35499">
        <ele>587.873</ele>
        <time>2017-10-28T11:42:41Z</time>
      </trkpt>
      <trkpt lat="45.77427" lon="4.35479">
        <ele>589.8</ele>
        <time>2017-10-28T11:42:56Z</time>
      </trkpt>
      <trkpt lat="45.77422" lon="4.35462">
        <ele>591.938</ele>
        <time>2017-10-28T11:43:11Z</time>
      </trkpt>
      <trkpt lat="45.77417" lon="4.35438">
        <ele>594.294</ele>
        <time>2017-10-28T11:43:28Z</time>
      </trkpt>
      <trkpt lat="45.77417" lon="4.35409">
        <ele>595.848</ele>
        <time>2017-10-28T11:43:42Z</time>
      </trkpt>
      <trkpt lat="45.77422" lon="4.35383">
        <ele>597.278</ele>
        <time>2017-10-28T11:43:54Z</time>
      </trkpt>
      <trkpt lat="45.77427" lon="4.35365">
        <ele>598.147</ele>
        <time>2017-10-28T11:44:00Z</time>
      </trkpt>
      <trkpt lat="45.77434" lon="4.35349">
        <ele>599.871</ele>
        <time>2017-10-28T11:44:09Z</time>
      </trkpt>
      <trkpt lat="45.77439" lon="4.35328">
        <ele>602.128</ele>
        <time>2017-10-28T11:44:21Z</time>
      </trkpt>
      <trkpt lat="45.77443" lon="4.3531">
        <ele>603.72</ele>
        <time>2017-10-28T11:44:33Z</time>
      </trkpt>
      <trkpt lat="45.77449" lon="4.35294">
        <ele>603.258</ele>
        <time>2017-10-28T11:44:42Z</time>
      </trkpt>
      <trkpt lat="45.77458" lon="4.35277">
        <ele>602.189</ele>
        <time>2017-10-28T11:44:52Z</time>
      </trkpt>
      <trkpt lat="45.77469" lon="4.35242">
        <ele>600.885</ele>
        <time>2017-10-28T11:45:09Z</time>
      </trkpt>
      <trkpt lat="45.77463" lon="4.35227">
        <ele>601.748</ele>
        <time>2017-10-28T11:45:21Z</time>
      </trkpt>
      <trkpt lat="45.77456" lon="4.35225">
        <ele>601.939</ele>
        <time>2017-10-28T11:45:30Z</time>
      </trkpt>
      <trkpt lat="45.77456" lon="4.35225">
        <ele>535.7</ele>
        <time>2017-10-28T11:45:37Z</time>
      </trkpt>
      <trkpt lat="45.77456" lon="4.35225">
        <ele>535.7</ele>
        <time>2017-10-28T11:45:41Z</time>
      </trkpt>
      <trkpt lat="45.77453" lon="4.35221">
        <ele>601.167</ele>
        <time>2017-10-28T11:45:41Z</time>
      </trkpt>
      <trkpt lat="45.77449" lon="4.35206">
        <ele>600.452</ele>
        <time>2017-10-28T11:45:47Z</time>
      </trkpt>
      <trkpt lat="45.77449" lon="4.35206">
        <ele>538.2</ele>
        <time>2017-10-28T11:45:52Z</time>
      </trkpt>
      <trkpt lat="45.77449" lon="4.35206">
        <ele>538.2</ele>
        <time>2017-10-28T11:46:05Z</time>
      </trkpt>
      <trkpt lat="45.77441" lon="4.35185">
        <ele>600.167</ele>
        <time>2017-10-28T11:46:05Z</time>
      </trkpt>
      <trkpt lat="45.77429" lon="4.35166">
        <ele>601.159</ele>
        <time>2017-10-28T11:46:25Z</time>
      </trkpt>
      <trkpt lat="45.77421" lon="4.35151">
        <ele>601.19</ele>
        <time>2017-10-28T11:46:37Z</time>
      </trkpt>
      <trkpt lat="45.77409" lon="4.35136">
        <ele>601.212</ele>
        <time>2017-10-28T11:46:52Z</time>
      </trkpt>
      <trkpt lat="45.774" lon="4.35132">
        <ele>601.323</ele>
        <time>2017-10-28T11:47:02Z</time>
      </trkpt>
      <trkpt lat="45.774" lon="4.35132">
        <ele>553.6</ele>
        <time>2017-10-28T11:47:09Z</time>
      </trkpt>
      <trkpt lat="45.774" lon="4.35132">
        <ele>553.6</ele>
        <time>2017-10-28T11:47:15Z</time>
      </trkpt>
      <trkpt lat="45.77391" lon="4.35124">
        <ele>604.815</ele>
        <time>2017-10-28T11:47:15Z</time>
      </trkpt>
      <trkpt lat="45.77378" lon="4.35108">
        <ele>606.821</ele>
        <time>2017-10-28T11:47:30Z</time>
      </trkpt>
      <trkpt lat="45.77364" lon="4.35097">
        <ele>607.168</ele>
        <time>2017-10-28T11:47:42Z</time>
      </trkpt>
      <trkpt lat="45.77355" lon="4.35086">
        <ele>606.935</ele>
        <time>2017-10-28T11:47:56Z</time>
      </trkpt>
      <trkpt lat="45.77355" lon="4.35086">
        <ele>564.6</ele>
        <time>2017-10-28T11:48:05Z</time>
      </trkpt>
      <trkpt lat="45.77355" lon="4.35086">
        <ele>564.6</ele>
        <time>2017-10-28T11:48:09Z</time>
      </trkpt>
      <trkpt lat="45.77356" lon="4.35071">
        <ele>607.597</ele>
        <time>2017-10-28T11:48:09Z</time>
      </trkpt>
      <trkpt lat="45.77364" lon="4.35063">
        <ele>607.991</ele>
        <time>2017-10-28T11:48:18Z</time>
      </trkpt>
      <trkpt lat="45.77367" lon="4.3504">
        <ele>609.142</ele>
        <time>2017-10-28T11:48:35Z</time>
      </trkpt>
      <trkpt lat="45.77374" lon="4.35004">
        <ele>609.918</ele>
        <time>2017-10-28T11:48:54Z</time>
      </trkpt>
      <trkpt lat="45.77363" lon="4.34977">
        <ele>612.892</ele>
        <time>2017-10-28T11:49:11Z</time>
      </trkpt>
      <trkpt lat="45.77349" lon="4.34958">
        <ele>616.232</ele>
        <time>2017-10-28T11:49:27Z</time>
      </trkpt>
      <trkpt lat="45.77341" lon="4.3494">
        <ele>618.884</ele>
        <time>2017-10-28T11:49:41Z</time>
      </trkpt>
      <trkpt lat="45.77337" lon="4.34918">
        <ele>620.665</ele>
        <time>2017-10-28T11:49:56Z</time>
      </trkpt>
      <trkpt lat="45.77336" lon="4.34891">
        <ele>623.253</ele>
        <time>2017-10-28T11:50:13Z</time>
      </trkpt>
      <trkpt lat="45.77335" lon="4.34866">
        <ele>625.913</ele>
        <time>2017-10-28T11:50:25Z</time>
      </trkpt>
      <trkpt lat="45.77338" lon="4.34844">
        <ele>629.174</ele>
        <time>2017-10-28T11:50:37Z</time>
      </trkpt>
      <trkpt lat="45.77341" lon="4.34829">
        <ele>631.228</ele>
        <time>2017-10-28T11:50:45Z</time>
      </trkpt>
      <trkpt lat="45.77346" lon="4.34802">
        <ele>632.503</ele>
        <time>2017-10-28T11:51:00Z</time>
      </trkpt>
      <trkpt lat="45.77363" lon="4.34776">
        <ele>634.441</ele>
        <time>2017-10-28T11:51:16Z</time>
      </trkpt>
      <trkpt lat="45.77372" lon="4.34754">
        <ele>638.084</ele>
        <time>2017-10-28T11:51:30Z</time>
      </trkpt>
      <trkpt lat="45.7739" lon="4.34757">
        <ele>640.185</ele>
        <time>2017-10-28T11:51:44Z</time>
      </trkpt>
      <trkpt lat="45.77405" lon="4.34747">
        <ele>641.079</ele>
        <time>2017-10-28T11:51:56Z</time>
      </trkpt>
      <trkpt lat="45.77418" lon="4.34738">
        <ele>641.623</ele>
        <time>2017-10-28T11:52:06Z</time>
      </trkpt>
      <trkpt lat="45.77436" lon="4.34731">
        <ele>641.327</ele>
        <time>2017-10-28T11:52:19Z</time>
      </trkpt>
      <trkpt lat="45.77448" lon="4.3473">
        <ele>641.323</ele>
        <time>2017-10-28T11:52:28Z</time>
      </trkpt>
      <trkpt lat="45.77464" lon="4.34731">
        <ele>640.493</ele>
        <time>2017-10-28T11:52:40Z</time>
      </trkpt>
      <trkpt lat="45.77475" lon="4.34733">
        <ele>640.644</ele>
        <time>2017-10-28T11:52:50Z</time>
      </trkpt>
      <trkpt lat="45.77503" lon="4.34735">
        <ele>641.839</ele>
        <time>2017-10-28T11:53:08Z</time>
      </trkpt>
      <trkpt lat="45.77524" lon="4.34743">
        <ele>643.433</ele>
        <time>2017-10-28T11:53:22Z</time>
      </trkpt>
      <trkpt lat="45.77544" lon="4.34751">
        <ele>645.718</ele>
        <time>2017-10-28T11:53:36Z</time>
      </trkpt>
      <trkpt lat="45.77566" lon="4.3476">
        <ele>648.121</ele>
        <time>2017-10-28T11:53:52Z</time>
      </trkpt>
      <trkpt lat="45.77583" lon="4.34767">
        <ele>649.701</ele>
        <time>2017-10-28T11:54:05Z</time>
      </trkpt>
      <trkpt lat="45.77598" lon="4.34776">
        <ele>650.825</ele>
        <time>2017-10-28T11:54:18Z</time>
      </trkpt>
      <trkpt lat="45.77616" lon="4.34776">
        <ele>651.817</ele>
        <time>2017-10-28T11:54:32Z</time>
      </trkpt>
      <trkpt lat="45.77636" lon="4.34773">
        <ele>652.148</ele>
        <time>2017-10-28T11:54:46Z</time>
      </trkpt>
      <trkpt lat="45.77664" lon="4.3477">
        <ele>653.074</ele>
        <time>2017-10-28T11:55:04Z</time>
      </trkpt>
      <trkpt lat="45.7768" lon="4.34764">
        <ele>653.944</ele>
        <time>2017-10-28T11:55:16Z</time>
      </trkpt>
      <trkpt lat="45.77691" lon="4.3476">
        <ele>654.868</ele>
        <time>2017-10-28T11:55:24Z</time>
      </trkpt>
      <trkpt lat="45.77703" lon="4.34761">
        <ele>655.131</ele>
        <time>2017-10-28T11:55:32Z</time>
      </trkpt>
      <trkpt lat="45.77717" lon="4.34761">
        <ele>655.508</ele>
        <time>2017-10-28T11:55:43Z</time>
      </trkpt>
      <trkpt lat="45.77733" lon="4.34756">
        <ele>655.796</ele>
        <time>2017-10-28T11:55:53Z</time>
      </trkpt>
      <trkpt lat="45.77752" lon="4.34755">
        <ele>655.164</ele>
        <time>2017-10-28T11:56:06Z</time>
      </trkpt>
      <trkpt lat="45.77764" lon="4.34753">
        <ele>655.523</ele>
        <time>2017-10-28T11:56:14Z</time>
      </trkpt>
      <trkpt lat="45.77783" lon="4.34748">
        <ele>656.571</ele>
        <time>2017-10-28T11:56:27Z</time>
      </trkpt>
      <trkpt lat="45.77798" lon="4.34743">
        <ele>657.138</ele>
        <time>2017-10-28T11:56:38Z</time>
      </trkpt>
      <trkpt lat="45.77814" lon="4.34739">
        <ele>657.196</ele>
        <time>2017-10-28T11:56:50Z</time>
      </trkpt>
      <trkpt lat="45.77844" lon="4.34727">
        <ele>657.009</ele>
        <time>2017-10-28T11:57:09Z</time>
      </trkpt>
      <trkpt lat="45.77868" lon="4.34718">
        <ele>656.398</ele>
        <time>2017-10-28T11:57:27Z</time>
      </trkpt>
      <trkpt lat="45.77888" lon="4.34711">
        <ele>655.907</ele>
        <time>2017-10-28T11:57:40Z</time>
      </trkpt>
      <trkpt lat="45.77905" lon="4.34707">
        <ele>656.673</ele>
        <time>2017-10-28T11:57:52Z</time>
      </trkpt>
      <trkpt lat="45.7793" lon="4.34707">
        <ele>657.577</ele>
        <time>2017-10-28T11:58:10Z</time>
      </trkpt>
      <trkpt lat="45.77958" lon="4.34718">
        <ele>658.699</ele>
        <time>2017-10-28T11:58:29Z</time>
      </trkpt>
      <trkpt lat="45.77974" lon="4.34716">
        <ele>658.868</ele>
        <time>2017-10-28T11:58:42Z</time>
      </trkpt>
      <trkpt lat="45.77993" lon="4.34709">
        <ele>658.161</ele>
        <time>2017-10-28T11:58:58Z</time>
      </trkpt>
      <trkpt lat="45.7802" lon="4.34703">
        <ele>657.563</ele>
        <time>2017-10-28T11:59:17Z</time>
      </trkpt>
      <trkpt lat="45.78035" lon="4.34693">
        <ele>658.787</ele>
        <time>2017-10-28T11:59:30Z</time>
      </trkpt>
      <trkpt lat="45.78046" lon="4.34667">
        <ele>659.741</ele>
        <time>2017-10-28T11:59:43Z</time>
      </trkpt>
      <trkpt lat="45.78057" lon="4.34643">
        <ele>659.472</ele>
        <time>2017-10-28T11:59:56Z</time>
      </trkpt>
      <trkpt lat="45.78065" lon="4.34625">
        <ele>660.121</ele>
        <time>2017-10-28T12:00:06Z</time>
      </trkpt>
      <trkpt lat="45.78077" lon="4.346">
        <ele>660.623</ele>
        <time>2017-10-28T12:00:21Z</time>
      </trkpt>
      <trkpt lat="45.78086" lon="4.34583">
        <ele>661.165</ele>
        <time>2017-10-28T12:00:31Z</time>
      </trkpt>
      <trkpt lat="45.78091" lon="4.34573">
        <ele>662.129</ele>
        <time>2017-10-28T12:00:38Z</time>
      </trkpt>
      <trkpt lat="45.78106" lon="4.34541">
        <ele>664.56</ele>
        <time>2017-10-28T12:00:57Z</time>
      </trkpt>
      <trkpt lat="45.78119" lon="4.34513">
        <ele>665.466</ele>
        <time>2017-10-28T12:01:14Z</time>
      </trkpt>
      <trkpt lat="45.78137" lon="4.34484">
        <ele>666.059</ele>
        <time>2017-10-28T12:01:30Z</time>
      </trkpt>
      <trkpt lat="45.78144" lon="4.34467">
        <ele>666.329</ele>
        <time>2017-10-28T12:01:40Z</time>
      </trkpt>
      <trkpt lat="45.78154" lon="4.34441">
        <ele>667.592</ele>
        <time>2017-10-28T12:01:54Z</time>
      </trkpt>
      <trkpt lat="45.78162" lon="4.34426">
        <ele>668.941</ele>
        <time>2017-10-28T12:02:04Z</time>
      </trkpt>
      <trkpt lat="45.78173" lon="4.34398">
        <ele>670.256</ele>
        <time>2017-10-28T12:02:19Z</time>
      </trkpt>
      <trkpt lat="45.78173" lon="4.34398">
        <ele>670.256</ele>
        <time>2017-10-28T12:02:24Z</time>
      </trkpt>
      <trkpt lat="45.78173" lon="4.34398">
        <ele>620.3</ele>
        <time>2017-10-28T12:02:24Z</time>
      </trkpt>
      <trkpt lat="45.78173" lon="4.34398">
        <ele>620.3</ele>
        <time>2017-10-28T12:02:28Z</time>
      </trkpt>
      <trkpt lat="45.7818" lon="4.34388">
        <ele>670.83</ele>
        <time>2017-10-28T12:02:28Z</time>
      </trkpt>
      <trkpt lat="45.7818" lon="4.34388">
        <ele>670.83</ele>
        <time>2017-10-28T12:02:33Z</time>
      </trkpt>
      <trkpt lat="45.7818" lon="4.34388">
        <ele>620.9</ele>
        <time>2017-10-28T12:02:33Z</time>
      </trkpt>
      <trkpt lat="45.7818" lon="4.34388">
        <ele>620.9</ele>
        <time>2017-10-28T12:02:37Z</time>
      </trkpt>
      <trkpt lat="45.78184" lon="4.34377">
        <ele>670.859</ele>
        <time>2017-10-28T12:02:37Z</time>
      </trkpt>
      <trkpt lat="45.78198" lon="4.34348">
        <ele>670.537</ele>
        <time>2017-10-28T12:02:51Z</time>
      </trkpt>
      <trkpt lat="45.78207" lon="4.34328">
        <ele>670.652</ele>
        <time>2017-10-28T12:03:04Z</time>
      </trkpt>
      <trkpt lat="45.78202" lon="4.34307">
        <ele>671.251</ele>
        <time>2017-10-28T12:03:17Z</time>
      </trkpt>
      <trkpt lat="45.78194" lon="4.34277">
        <ele>673.086</ele>
        <time>2017-10-28T12:03:34Z</time>
      </trkpt>
      <trkpt lat="45.78191" lon="4.34247">
        <ele>673.501</ele>
        <time>2017-10-28T12:03:48Z</time>
      </trkpt>
      <trkpt lat="45.78192" lon="4.34221">
        <ele>674.065</ele>
        <time>2017-10-28T12:04:01Z</time>
      </trkpt>
      <trkpt lat="45.7819" lon="4.34199">
        <ele>674.292</ele>
        <time>2017-10-28T12:04:12Z</time>
      </trkpt>
      <trkpt lat="45.78195" lon="4.34166">
        <ele>674.3</ele>
        <time>2017-10-28T12:04:27Z</time>
      </trkpt>
      <trkpt lat="45.78201" lon="4.3414">
        <ele>674.568</ele>
        <time>2017-10-28T12:04:41Z</time>
      </trkpt>
      <trkpt lat="45.78205" lon="4.34115">
        <ele>676.09</ele>
        <time>2017-10-28T12:04:54Z</time>
      </trkpt>
      <trkpt lat="45.78208" lon="4.34079">
        <ele>676.802</ele>
        <time>2017-10-28T12:05:12Z</time>
      </trkpt>
      <trkpt lat="45.78209" lon="4.34055">
        <ele>677.419</ele>
        <time>2017-10-28T12:05:23Z</time>
      </trkpt>
      <trkpt lat="45.78211" lon="4.34036">
        <ele>677.858</ele>
        <time>2017-10-28T12:05:33Z</time>
      </trkpt>
      <trkpt lat="45.78211" lon="4.34015">
        <ele>677.956</ele>
        <time>2017-10-28T12:05:47Z</time>
      </trkpt>
      <trkpt lat="45.78213" lon="4.33989">
        <ele>678.109</ele>
        <time>2017-10-28T12:06:05Z</time>
      </trkpt>
      <trkpt lat="45.78218" lon="4.33968">
        <ele>679.407</ele>
        <time>2017-10-28T12:06:17Z</time>
      </trkpt>
      <trkpt lat="45.78225" lon="4.33953">
        <ele>680.955</ele>
        <time>2017-10-28T12:06:29Z</time>
      </trkpt>
      <trkpt lat="45.78232" lon="4.33931">
        <ele>683.001</ele>
        <time>2017-10-28T12:06:43Z</time>
      </trkpt>
      <trkpt lat="45.78239" lon="4.33921">
        <ele>684.431</ele>
        <time>2017-10-28T12:06:54Z</time>
      </trkpt>
      <trkpt lat="45.78244" lon="4.33916">
        <ele>684.72</ele>
        <time>2017-10-28T12:06:57Z</time>
      </trkpt>
      <trkpt lat="45.78244" lon="4.33916">
        <ele>639.6</ele>
        <time>2017-10-28T12:07:05Z</time>
      </trkpt>
      <trkpt lat="45.78244" lon="4.33916">
        <ele>639.6</ele>
        <time>2017-10-28T12:07:11Z</time>
      </trkpt>
      <trkpt lat="45.7825" lon="4.33911">
        <ele>686.571</ele>
        <time>2017-10-28T12:07:11Z</time>
      </trkpt>
      <trkpt lat="45.7825" lon="4.33911">
        <ele>686.571</ele>
        <time>2017-10-28T12:07:19Z</time>
      </trkpt>
      <trkpt lat="45.7825" lon="4.33911">
        <ele>640.8</ele>
        <time>2017-10-28T12:07:19Z</time>
      </trkpt>
      <trkpt lat="45.7825" lon="4.33911">
        <ele>640.8</ele>
        <time>2017-10-28T12:07:27Z</time>
      </trkpt>
      <trkpt lat="45.78263" lon="4.339">
        <ele>689.764</ele>
        <time>2017-10-28T12:07:27Z</time>
      </trkpt>
      <trkpt lat="45.78267" lon="4.33897">
        <ele>690.942</ele>
        <time>2017-10-28T12:07:31Z</time>
      </trkpt>
      <trkpt lat="45.78267" lon="4.33897">
        <ele>643.7</ele>
        <time>2017-10-28T12:07:37Z</time>
      </trkpt>
      <trkpt lat="45.78267" lon="4.33897">
        <ele>643.7</ele>
        <time>2017-10-28T12:07:55Z</time>
      </trkpt>
      <trkpt lat="45.7828" lon="4.33872">
        <ele>694.408</ele>
        <time>2017-10-28T12:07:55Z</time>
      </trkpt>
      <trkpt lat="45.78284" lon="4.33854">
        <ele>695.58</ele>
        <time>2017-10-28T12:08:04Z</time>
      </trkpt>
      <trkpt lat="45.78281" lon="4.33832">
        <ele>696.978</ele>
        <time>2017-10-28T12:08:17Z</time>
      </trkpt>
      <trkpt lat="45.78275" lon="4.33799">
        <ele>698.266</ele>
        <time>2017-10-28T12:08:34Z</time>
      </trkpt>
      <trkpt lat="45.7827" lon="4.33776">
        <ele>699.611</ele>
        <time>2017-10-28T12:08:47Z</time>
      </trkpt>
      <trkpt lat="45.78264" lon="4.33756">
        <ele>699.679</ele>
        <time>2017-10-28T12:09:00Z</time>
      </trkpt>
      <trkpt lat="45.78254" lon="4.33734">
        <ele>701.07</ele>
        <time>2017-10-28T12:09:15Z</time>
      </trkpt>
      <trkpt lat="45.78249" lon="4.3372">
        <ele>701.254</ele>
        <time>2017-10-28T12:09:20Z</time>
      </trkpt>
      <trkpt lat="45.78242" lon="4.33703">
        <ele>701.129</ele>
        <time>2017-10-28T12:09:29Z</time>
      </trkpt>
      <trkpt lat="45.78236" lon="4.3368">
        <ele>702.155</ele>
        <time>2017-10-28T12:09:44Z</time>
      </trkpt>
      <trkpt lat="45.7822" lon="4.33642">
        <ele>702.425</ele>
        <time>2017-10-28T12:10:02Z</time>
      </trkpt>
      <trkpt lat="45.78212" lon="4.33626">
        <ele>701.665</ele>
        <time>2017-10-28T12:10:13Z</time>
      </trkpt>
      <trkpt lat="45.78198" lon="4.33606">
        <ele>700.64</ele>
        <time>2017-10-28T12:10:28Z</time>
      </trkpt>
      <trkpt lat="45.78187" lon="4.33588">
        <ele>699.747</ele>
        <time>2017-10-28T12:10:39Z</time>
      </trkpt>
      <trkpt lat="45.78182" lon="4.33579">
        <ele>699.25</ele>
        <time>2017-10-28T12:10:44Z</time>
      </trkpt>
      <trkpt lat="45.78162" lon="4.33552">
        <ele>696.794</ele>
        <time>2017-10-28T12:11:00Z</time>
      </trkpt>
      <trkpt lat="45.78153" lon="4.33538">
        <ele>695.922</ele>
        <time>2017-10-28T12:11:08Z</time>
      </trkpt>
      <trkpt lat="45.78153" lon="4.33538">
        <ele>639.2</ele>
        <time>2017-10-28T12:11:13Z</time>
      </trkpt>
      <trkpt lat="45.78153" lon="4.33538">
        <ele>639.2</ele>
        <time>2017-10-28T12:11:16Z</time>
      </trkpt>
      <trkpt lat="45.78147" lon="4.33532">
        <ele>694.7</ele>
        <time>2017-10-28T12:11:16Z</time>
      </trkpt>
      <trkpt lat="45.78132" lon="4.33507">
        <ele>693.321</ele>
        <time>2017-10-28T12:11:29Z</time>
      </trkpt>
      <trkpt lat="45.7812" lon="4.33489">
        <ele>691.622</ele>
        <time>2017-10-28T12:11:41Z</time>
      </trkpt>
      <trkpt lat="45.78115" lon="4.3346">
        <ele>689.355</ele>
        <time>2017-10-28T12:11:54Z</time>
      </trkpt>
      <trkpt lat="45.78107" lon="4.33443">
        <ele>687.745</ele>
        <time>2017-10-28T12:12:05Z</time>
      </trkpt>
      <trkpt lat="45.78095" lon="4.33408">
        <ele>687.459</ele>
        <time>2017-10-28T12:12:20Z</time>
      </trkpt>
      <trkpt lat="45.78087" lon="4.33392">
        <ele>686.274</ele>
        <time>2017-10-28T12:12:31Z</time>
      </trkpt>
      <trkpt lat="45.78083" lon="4.33365">
        <ele>684.084</ele>
        <time>2017-10-28T12:12:44Z</time>
      </trkpt>
      <trkpt lat="45.78071" lon="4.33339">
        <ele>683.114</ele>
        <time>2017-10-28T12:12:59Z</time>
      </trkpt>
      <trkpt lat="45.78067" lon="4.33313">
        <ele>681.473</ele>
        <time>2017-10-28T12:13:12Z</time>
      </trkpt>
      <trkpt lat="45.78075" lon="4.33281">
        <ele>678.107</ele>
        <time>2017-10-28T12:13:28Z</time>
      </trkpt>
      <trkpt lat="45.78066" lon="4.33267">
        <ele>676.268</ele>
        <time>2017-10-28T12:13:38Z</time>
      </trkpt>
      <trkpt lat="45.7808" lon="4.33241">
        <ele>675.503</ele>
        <time>2017-10-28T12:13:51Z</time>
      </trkpt>
      <trkpt lat="45.78091" lon="4.3323">
        <ele>674.335</ele>
        <time>2017-10-28T12:14:02Z</time>
      </trkpt>
      <trkpt lat="45.78105" lon="4.33204">
        <ele>671.522</ele>
        <time>2017-10-28T12:14:18Z</time>
      </trkpt>
      <trkpt lat="45.78104" lon="4.33177">
        <ele>669.062</ele>
        <time>2017-10-28T12:14:30Z</time>
      </trkpt>
      <trkpt lat="45.78104" lon="4.33149">
        <ele>666.724</ele>
        <time>2017-10-28T12:14:43Z</time>
      </trkpt>
      <trkpt lat="45.78101" lon="4.33126">
        <ele>663.668</ele>
        <time>2017-10-28T12:14:56Z</time>
      </trkpt>
      <trkpt lat="45.78105" lon="4.33096">
        <ele>662.077</ele>
        <time>2017-10-28T12:15:09Z</time>
      </trkpt>
      <trkpt lat="45.78102" lon="4.33057">
        <ele>659.432</ele>
        <time>2017-10-28T12:15:27Z</time>
      </trkpt>
      <trkpt lat="45.78097" lon="4.33028">
        <ele>656.776</ele>
        <time>2017-10-28T12:15:42Z</time>
      </trkpt>
      <trkpt lat="45.78093" lon="4.33">
        <ele>653.558</ele>
        <time>2017-10-28T12:15:54Z</time>
      </trkpt>
      <trkpt lat="45.7809" lon="4.32971">
        <ele>648.117</ele>
        <time>2017-10-28T12:16:08Z</time>
      </trkpt>
      <trkpt lat="45.78085" lon="4.32942">
        <ele>644.216</ele>
        <time>2017-10-28T12:16:22Z</time>
      </trkpt>
      <trkpt lat="45.78088" lon="4.3291">
        <ele>641.763</ele>
        <time>2017-10-28T12:16:36Z</time>
      </trkpt>
      <trkpt lat="45.78089" lon="4.32881">
        <ele>640.877</ele>
        <time>2017-10-28T12:16:49Z</time>
      </trkpt>
      <trkpt lat="45.78086" lon="4.32848">
        <ele>640.157</ele>
        <time>2017-10-28T12:17:02Z</time>
      </trkpt>
      <trkpt lat="45.7809" lon="4.32828">
        <ele>638.069</ele>
        <time>2017-10-28T12:17:12Z</time>
      </trkpt>
      <trkpt lat="45.78091" lon="4.3282">
        <ele>636.842</ele>
        <time>2017-10-28T12:17:16Z</time>
      </trkpt>
      <trkpt lat="45.78091" lon="4.3282">
        <ele>589.5</ele>
        <time>2017-10-28T12:17:22Z</time>
      </trkpt>
      <trkpt lat="45.78091" lon="4.3282">
        <ele>589.5</ele>
        <time>2017-10-28T12:17:25Z</time>
      </trkpt>
      <trkpt lat="45.78098" lon="4.32809">
        <ele>634.608</ele>
        <time>2017-10-28T12:17:25Z</time>
      </trkpt>
      <trkpt lat="45.78107" lon="4.3279">
        <ele>633.715</ele>
        <time>2017-10-28T12:17:32Z</time>
      </trkpt>
      <trkpt lat="45.78112" lon="4.32778">
        <ele>633.459</ele>
        <time>2017-10-28T12:17:39Z</time>
      </trkpt>
      <trkpt lat="45.78122" lon="4.3275">
        <ele>633.318</ele>
        <time>2017-10-28T12:17:54Z</time>
      </trkpt>
      <trkpt lat="45.78129" lon="4.32732">
        <ele>633.326</ele>
        <time>2017-10-28T12:18:04Z</time>
      </trkpt>
      <trkpt lat="45.78137" lon="4.32716">
        <ele>633.371</ele>
        <time>2017-10-28T12:18:11Z</time>
      </trkpt>
      <trkpt lat="45.78143" lon="4.32705">
        <ele>632.901</ele>
        <time>2017-10-28T12:18:18Z</time>
      </trkpt>
      <trkpt lat="45.78149" lon="4.32685">
        <ele>631.482</ele>
        <time>2017-10-28T12:18:28Z</time>
      </trkpt>
      <trkpt lat="45.78158" lon="4.32654">
        <ele>630.314</ele>
        <time>2017-10-28T12:18:45Z</time>
      </trkpt>
      <trkpt lat="45.78159" lon="4.32631">
        <ele>630.572</ele>
        <time>2017-10-28T12:18:57Z</time>
      </trkpt>
      <trkpt lat="45.78156" lon="4.32608">
        <ele>630.547</ele>
        <time>2017-10-28T12:19:06Z</time>
      </trkpt>
      <trkpt lat="45.78147" lon="4.32578">
        <ele>630.512</ele>
        <time>2017-10-28T12:19:20Z</time>
      </trkpt>
      <trkpt lat="45.78142" lon="4.32565">
        <ele>629.467</ele>
        <time>2017-10-28T12:19:27Z</time>
      </trkpt>
      <trkpt lat="45.78135" lon="4.32544">
        <ele>627.323</ele>
        <time>2017-10-28T12:19:39Z</time>
      </trkpt>
      <trkpt lat="45.78131" lon="4.32518">
        <ele>627.007</ele>
        <time>2017-10-28T12:19:51Z</time>
      </trkpt>
      <trkpt lat="45.78126" lon="4.32503">
        <ele>626.663</ele>
        <time>2017-10-28T12:19:58Z</time>
      </trkpt>
      <trkpt lat="45.78121" lon="4.32483">
        <ele>625.931</ele>
        <time>2017-10-28T12:20:08Z</time>
      </trkpt>
      <trkpt lat="45.78119" lon="4.32456">
        <ele>625.104</ele>
        <time>2017-10-28T12:20:21Z</time>
      </trkpt>
      <trkpt lat="45.78112" lon="4.32436">
        <ele>624.804</ele>
        <time>2017-10-28T12:20:31Z</time>
      </trkpt>
      <trkpt lat="45.78105" lon="4.32406">
        <ele>624.909</ele>
        <time>2017-10-28T12:20:45Z</time>
      </trkpt>
      <trkpt lat="45.78095" lon="4.32384">
        <ele>624.249</ele>
        <time>2017-10-28T12:20:57Z</time>
      </trkpt>
      <trkpt lat="45.78087" lon="4.32363">
        <ele>623.774</ele>
        <time>2017-10-28T12:21:08Z</time>
      </trkpt>
      <trkpt lat="45.78078" lon="4.32331">
        <ele>623.193</ele>
        <time>2017-10-28T12:21:25Z</time>
      </trkpt>
      <trkpt lat="45.78071" lon="4.32301">
        <ele>623.107</ele>
        <time>2017-10-28T12:21:40Z</time>
      </trkpt>
      <trkpt lat="45.78062" lon="4.3227">
        <ele>623.031</ele>
        <time>2017-10-28T12:21:53Z</time>
      </trkpt>
      <trkpt lat="45.78051" lon="4.32251">
        <ele>622.678</ele>
        <time>2017-10-28T12:22:05Z</time>
      </trkpt>
      <trkpt lat="45.78043" lon="4.3223">
        <ele>621.684</ele>
        <time>2017-10-28T12:22:16Z</time>
      </trkpt>
      <trkpt lat="45.78031" lon="4.32207">
        <ele>620.474</ele>
        <time>2017-10-28T12:22:31Z</time>
      </trkpt>
      <trkpt lat="45.78021" lon="4.3218">
        <ele>619.469</ele>
        <time>2017-10-28T12:22:44Z</time>
      </trkpt>
      <trkpt lat="45.7801" lon="4.32165">
        <ele>618.913</ele>
        <time>2017-10-28T12:22:55Z</time>
      </trkpt>
      <trkpt lat="45.78003" lon="4.32154">
        <ele>618.514</ele>
        <time>2017-10-28T12:23:02Z</time>
      </trkpt>
      <trkpt lat="45.77992" lon="4.32135">
        <ele>617.787</ele>
        <time>2017-10-28T12:23:14Z</time>
      </trkpt>
      <trkpt lat="45.77981" lon="4.32117">
        <ele>617.307</ele>
        <time>2017-10-28T12:23:26Z</time>
      </trkpt>
      <trkpt lat="45.77968" lon="4.32094">
        <ele>616.683</ele>
        <time>2017-10-28T12:23:39Z</time>
      </trkpt>
      <trkpt lat="45.77955" lon="4.32071">
        <ele>615.445</ele>
        <time>2017-10-28T12:23:52Z</time>
      </trkpt>
      <trkpt lat="45.77946" lon="4.32049">
        <ele>614.315</ele>
        <time>2017-10-28T12:24:03Z</time>
      </trkpt>
      <trkpt lat="45.77934" lon="4.3203">
        <ele>613.502</ele>
        <time>2017-10-28T12:24:15Z</time>
      </trkpt>
      <trkpt lat="45.77927" lon="4.32017">
        <ele>612.794</ele>
        <time>2017-10-28T12:24:23Z</time>
      </trkpt>
      <trkpt lat="45.77916" lon="4.32004">
        <ele>611.936</ele>
        <time>2017-10-28T12:24:32Z</time>
      </trkpt>
      <trkpt lat="45.77905" lon="4.3198">
        <ele>610.912</ele>
        <time>2017-10-28T12:24:45Z</time>
      </trkpt>
      <trkpt lat="45.77894" lon="4.31963">
        <ele>610.068</ele>
        <time>2017-10-28T12:24:56Z</time>
      </trkpt>
      <trkpt lat="45.77882" lon="4.31937">
        <ele>609.241</ele>
        <time>2017-10-28T12:25:12Z</time>
      </trkpt>
      <trkpt lat="45.77875" lon="4.31915">
        <ele>608.663</ele>
        <time>2017-10-28T12:25:24Z</time>
      </trkpt>
      <trkpt lat="45.77857" lon="4.31891">
        <ele>608.041</ele>
        <time>2017-10-28T12:25:39Z</time>
      </trkpt>
      <trkpt lat="45.77841" lon="4.31881">
        <ele>607.397</ele>
        <time>2017-10-28T12:25:48Z</time>
      </trkpt>
      <trkpt lat="45.77831" lon="4.31875">
        <ele>605.688</ele>
        <time>2017-10-28T12:25:58Z</time>
      </trkpt>
      <trkpt lat="45.77816" lon="4.31867">
        <ele>604.231</ele>
        <time>2017-10-28T12:26:10Z</time>
      </trkpt>
      <trkpt lat="45.77801" lon="4.31865">
        <ele>603.011</ele>
        <time>2017-10-28T12:26:21Z</time>
      </trkpt>
      <trkpt lat="45.77786" lon="4.31856">
        <ele>601.952</ele>
        <time>2017-10-28T12:26:31Z</time>
      </trkpt>
      <trkpt lat="45.77769" lon="4.31844">
        <ele>601.879</ele>
        <time>2017-10-28T12:26:42Z</time>
      </trkpt>
      <trkpt lat="45.77751" lon="4.31829">
        <ele>602.021</ele>
        <time>2017-10-28T12:26:55Z</time>
      </trkpt>
      <trkpt lat="45.77735" lon="4.3182">
        <ele>602.027</ele>
        <time>2017-10-28T12:27:07Z</time>
      </trkpt>
      <trkpt lat="45.77726" lon="4.31814">
        <ele>602.076</ele>
        <time>2017-10-28T12:27:13Z</time>
      </trkpt>
      <trkpt lat="45.77713" lon="4.31806">
        <ele>602.008</ele>
        <time>2017-10-28T12:27:23Z</time>
      </trkpt>
      <trkpt lat="45.77695" lon="4.31796">
        <ele>601.628</ele>
        <time>2017-10-28T12:27:37Z</time>
      </trkpt>
      <trkpt lat="45.77684" lon="4.31785">
        <ele>600.974</ele>
        <time>2017-10-28T12:27:46Z</time>
      </trkpt>
      <trkpt lat="45.77661" lon="4.31774">
        <ele>600.102</ele>
        <time>2017-10-28T12:28:01Z</time>
      </trkpt>
      <trkpt lat="45.77648" lon="4.31766">
        <ele>599.509</ele>
        <time>2017-10-28T12:28:12Z</time>
      </trkpt>
      <trkpt lat="45.77631" lon="4.31751">
        <ele>598.596</ele>
        <time>2017-10-28T12:28:25Z</time>
      </trkpt>
      <trkpt lat="45.77621" lon="4.31745">
        <ele>597.763</ele>
        <time>2017-10-28T12:28:33Z</time>
      </trkpt>
      <trkpt lat="45.77602" lon="4.31731">
        <ele>595.777</ele>
        <time>2017-10-28T12:28:47Z</time>
      </trkpt>
      <trkpt lat="45.77591" lon="4.31726">
        <ele>595.384</ele>
        <time>2017-10-28T12:28:54Z</time>
      </trkpt>
      <trkpt lat="45.77579" lon="4.31715">
        <ele>595.372</ele>
        <time>2017-10-28T12:29:05Z</time>
      </trkpt>
      <trkpt lat="45.77558" lon="4.31704">
        <ele>593.174</ele>
        <time>2017-10-28T12:29:21Z</time>
      </trkpt>
      <trkpt lat="45.77546" lon="4.31697">
        <ele>591.461</ele>
        <time>2017-10-28T12:29:31Z</time>
      </trkpt>
      <trkpt lat="45.77531" lon="4.31683">
        <ele>589.455</ele>
        <time>2017-10-28T12:29:43Z</time>
      </trkpt>
      <trkpt lat="45.77508" lon="4.31668">
        <ele>586.268</ele>
        <time>2017-10-28T12:30:00Z</time>
      </trkpt>
      <trkpt lat="45.77506" lon="4.31667">
        <ele>585.912</ele>
        <time>2017-10-28T12:30:02Z</time>
      </trkpt>
      <trkpt lat="45.77506" lon="4.31667">
        <ele>533.8</ele>
        <time>2017-10-28T12:30:07Z</time>
      </trkpt>
      <trkpt lat="45.77506" lon="4.31667">
        <ele>533.8</ele>
        <time>2017-10-28T12:30:11Z</time>
      </trkpt>
      <trkpt lat="45.77499" lon="4.31661">
        <ele>584.46</ele>
        <time>2017-10-28T12:30:11Z</time>
      </trkpt>
      <trkpt lat="45.77484" lon="4.31655">
        <ele>583.635</ele>
        <time>2017-10-28T12:30:21Z</time>
      </trkpt>
      <trkpt lat="45.77479" lon="4.31655">
        <ele>583.696</ele>
        <time>2017-10-28T12:30:25Z</time>
      </trkpt>
      <trkpt lat="45.77479" lon="4.31655">
        <ele>530.4</ele>
        <time>2017-10-28T12:30:30Z</time>
      </trkpt>
      <trkpt lat="45.77479" lon="4.31655">
        <ele>530.4</ele>
        <time>2017-10-28T12:30:34Z</time>
      </trkpt>
      <trkpt lat="45.77466" lon="4.31656">
        <ele>583.903</ele>
        <time>2017-10-28T12:30:34Z</time>
      </trkpt>
      <trkpt lat="45.77451" lon="4.31662">
        <ele>583.67</ele>
        <time>2017-10-28T12:30:46Z</time>
      </trkpt>
      <trkpt lat="45.77441" lon="4.31692">
        <ele>582.645</ele>
        <time>2017-10-28T12:31:02Z</time>
      </trkpt>
      <trkpt lat="45.77423" lon="4.31701">
        <ele>580.637</ele>
        <time>2017-10-28T12:31:18Z</time>
      </trkpt>
      <trkpt lat="45.77397" lon="4.31695">
        <ele>577.057</ele>
        <time>2017-10-28T12:31:37Z</time>
      </trkpt>
      <trkpt lat="45.77378" lon="4.31686">
        <ele>575.311</ele>
        <time>2017-10-28T12:31:53Z</time>
      </trkpt>
      <trkpt lat="45.77358" lon="4.3167">
        <ele>574.571</ele>
        <time>2017-10-28T12:32:09Z</time>
      </trkpt>
      <trkpt lat="45.77341" lon="4.31658">
        <ele>574.449</ele>
        <time>2017-10-28T12:32:20Z</time>
      </trkpt>
      <trkpt lat="45.77318" lon="4.31654">
        <ele>572.835</ele>
        <time>2017-10-28T12:32:38Z</time>
      </trkpt>
      <trkpt lat="45.77302" lon="4.31657">
        <ele>572.187</ele>
        <time>2017-10-28T12:32:50Z</time>
      </trkpt>
      <trkpt lat="45.77286" lon="4.31658">
        <ele>571.393</ele>
        <time>2017-10-28T12:33:01Z</time>
      </trkpt>
      <trkpt lat="45.77271" lon="4.31662">
        <ele>571.18</ele>
        <time>2017-10-28T12:33:13Z</time>
      </trkpt>
      <trkpt lat="45.77247" lon="4.31679">
        <ele>570.787</ele>
        <time>2017-10-28T12:33:30Z</time>
      </trkpt>
      <trkpt lat="45.77227" lon="4.31685">
        <ele>570.525</ele>
        <time>2017-10-28T12:33:44Z</time>
      </trkpt>
      <trkpt lat="45.77219" lon="4.31688">
        <ele>570.109</ele>
        <time>2017-10-28T12:33:51Z</time>
      </trkpt>
      <trkpt lat="45.77199" lon="4.3169">
        <ele>570.955</ele>
        <time>2017-10-28T12:34:06Z</time>
      </trkpt>
      <trkpt lat="45.77187" lon="4.31691">
        <ele>571.609</ele>
        <time>2017-10-28T12:34:16Z</time>
      </trkpt>
      <trkpt lat="45.77168" lon="4.31699">
        <ele>572.385</ele>
        <time>2017-10-28T12:34:30Z</time>
      </trkpt>
      <trkpt lat="45.77149" lon="4.31703">
        <ele>574.523</ele>
        <time>2017-10-28T12:34:44Z</time>
      </trkpt>
      <trkpt lat="45.77135" lon="4.31705">
        <ele>575.8</ele>
        <time>2017-10-28T12:34:55Z</time>
      </trkpt>
      <trkpt lat="45.77116" lon="4.3171">
        <ele>577.505</ele>
        <time>2017-10-28T12:35:12Z</time>
      </trkpt>
      <trkpt lat="45.77096" lon="4.31715">
        <ele>579.826</ele>
        <time>2017-10-28T12:35:30Z</time>
      </trkpt>
      <trkpt lat="45.77076" lon="4.31719">
        <ele>581.762</ele>
        <time>2017-10-28T12:35:46Z</time>
      </trkpt>
      <trkpt lat="45.77059" lon="4.31719">
        <ele>584.008</ele>
        <time>2017-10-28T12:36:01Z</time>
      </trkpt>
      <trkpt lat="45.77041" lon="4.31705">
        <ele>585.67</ele>
        <time>2017-10-28T12:36:20Z</time>
      </trkpt>
      <trkpt lat="45.77019" lon="4.31691">
        <ele>587.276</ele>
        <time>2017-10-28T12:36:38Z</time>
      </trkpt>
      <trkpt lat="45.77007" lon="4.31686">
        <ele>588.513</ele>
        <time>2017-10-28T12:36:49Z</time>
      </trkpt>
      <trkpt lat="45.76997" lon="4.31681">
        <ele>589.684</ele>
        <time>2017-10-28T12:36:58Z</time>
      </trkpt>
      <trkpt lat="45.76974" lon="4.31681">
        <ele>592.282</ele>
        <time>2017-10-28T12:37:13Z</time>
      </trkpt>
      <trkpt lat="45.76963" lon="4.31668">
        <ele>593.687</ele>
        <time>2017-10-28T12:37:24Z</time>
      </trkpt>
      <trkpt lat="45.76959" lon="4.31647">
        <ele>596.015</ele>
        <time>2017-10-28T12:37:35Z</time>
      </trkpt>
      <trkpt lat="45.76954" lon="4.31616">
        <ele>600.611</ele>
        <time>2017-10-28T12:37:51Z</time>
      </trkpt>
      <trkpt lat="45.76941" lon="4.31595">
        <ele>602.712</ele>
        <time>2017-10-28T12:38:05Z</time>
      </trkpt>
      <trkpt lat="45.76929" lon="4.31565">
        <ele>602.784</ele>
        <time>2017-10-28T12:38:22Z</time>
      </trkpt>
      <trkpt lat="45.76922" lon="4.31544">
        <ele>604.201</ele>
        <time>2017-10-28T12:38:35Z</time>
      </trkpt>
      <trkpt lat="45.7691" lon="4.31514">
        <ele>605.864</ele>
        <time>2017-10-28T12:38:53Z</time>
      </trkpt>
      <trkpt lat="45.76896" lon="4.31495">
        <ele>606.406</ele>
        <time>2017-10-28T12:39:08Z</time>
      </trkpt>
      <trkpt lat="45.76877" lon="4.31471">
        <ele>604.898</ele>
        <time>2017-10-28T12:39:24Z</time>
      </trkpt>
      <trkpt lat="45.76871" lon="4.31462">
        <ele>604.933</ele>
        <time>2017-10-28T12:39:30Z</time>
      </trkpt>
      <trkpt lat="45.7686" lon="4.31441">
        <ele>605.625</ele>
        <time>2017-10-28T12:39:44Z</time>
      </trkpt>
      <trkpt lat="45.76848" lon="4.31429">
        <ele>605.809</ele>
        <time>2017-10-28T12:39:56Z</time>
      </trkpt>
      <trkpt lat="45.76827" lon="4.31407">
        <ele>606.735</ele>
        <time>2017-10-28T12:40:13Z</time>
      </trkpt>
      <trkpt lat="45.76814" lon="4.31388">
        <ele>607.028</ele>
        <time>2017-10-28T12:40:27Z</time>
      </trkpt>
      <trkpt lat="45.76804" lon="4.31361">
        <ele>607.663</ele>
        <time>2017-10-28T12:40:43Z</time>
      </trkpt>
      <trkpt lat="45.76802" lon="4.31337">
        <ele>608.153</ele>
        <time>2017-10-28T12:40:58Z</time>
      </trkpt>
      <trkpt lat="45.768" lon="4.31319">
        <ele>608.094</ele>
        <time>2017-10-28T12:41:09Z</time>
      </trkpt>
      <trkpt lat="45.76794" lon="4.31286">
        <ele>608.908</ele>
        <time>2017-10-28T12:41:28Z</time>
      </trkpt>
      <trkpt lat="45.76802" lon="4.31267">
        <ele>608.387</ele>
        <time>2017-10-28T12:41:40Z</time>
      </trkpt>
      <trkpt lat="45.76803" lon="4.31238">
        <ele>607.453</ele>
        <time>2017-10-28T12:41:51Z</time>
      </trkpt>
      <trkpt lat="45.76808" lon="4.3122">
        <ele>609.95</ele>
        <time>2017-10-28T12:42:02Z</time>
      </trkpt>
      <trkpt lat="45.76813" lon="4.31186">
        <ele>613.332</ele>
        <time>2017-10-28T12:42:18Z</time>
      </trkpt>
      <trkpt lat="45.76812" lon="4.31157">
        <ele>614.184</ele>
        <time>2017-10-28T12:42:32Z</time>
      </trkpt>
      <trkpt lat="45.76802" lon="4.31127">
        <ele>615.291</ele>
        <time>2017-10-28T12:42:48Z</time>
      </trkpt>
      <trkpt lat="45.76799" lon="4.31103">
        <ele>616.913</ele>
        <time>2017-10-28T12:43:01Z</time>
      </trkpt>
      <trkpt lat="45.76802" lon="4.31083">
        <ele>617.671</ele>
        <time>2017-10-28T12:43:14Z</time>
      </trkpt>
      <trkpt lat="45.76793" lon="4.3106">
        <ele>617.85</ele>
        <time>2017-10-28T12:43:26Z</time>
      </trkpt>
      <trkpt lat="45.76781" lon="4.31043">
        <ele>618.191</ele>
        <time>2017-10-28T12:43:36Z</time>
      </trkpt>
      <trkpt lat="45.76769" lon="4.31023">
        <ele>617.692</ele>
        <time>2017-10-28T12:43:52Z</time>
      </trkpt>
      <trkpt lat="45.76756" lon="4.31012">
        <ele>615.545</ele>
        <time>2017-10-28T12:44:03Z</time>
      </trkpt>
      <trkpt lat="45.76747" lon="4.31">
        <ele>612.986</ele>
        <time>2017-10-28T12:44:13Z</time>
      </trkpt>
      <trkpt lat="45.76734" lon="4.30978">
        <ele>610.891</ele>
        <time>2017-10-28T12:44:25Z</time>
      </trkpt>
      <trkpt lat="45.76729" lon="4.30967">
        <ele>609.903</ele>
        <time>2017-10-28T12:44:35Z</time>
      </trkpt>
      <trkpt lat="45.76718" lon="4.30952">
        <ele>608.427</ele>
        <time>2017-10-28T12:44:45Z</time>
      </trkpt>
      <trkpt lat="45.76701" lon="4.30938">
        <ele>606.287</ele>
        <time>2017-10-28T12:44:57Z</time>
      </trkpt>
      <trkpt lat="45.76681" lon="4.3092">
        <ele>604.276</ele>
        <time>2017-10-28T12:45:13Z</time>
      </trkpt>
      <trkpt lat="45.76668" lon="4.30904">
        <ele>603.171</ele>
        <time>2017-10-28T12:45:25Z</time>
      </trkpt>
      <trkpt lat="45.76658" lon="4.30891">
        <ele>602.478</ele>
        <time>2017-10-28T12:45:35Z</time>
      </trkpt>
      <trkpt lat="45.76646" lon="4.30861">
        <ele>600.896</ele>
        <time>2017-10-28T12:45:53Z</time>
      </trkpt>
      <trkpt lat="45.76638" lon="4.30832">
        <ele>599.591</ele>
        <time>2017-10-28T12:46:08Z</time>
      </trkpt>
      <trkpt lat="45.76627" lon="4.30805">
        <ele>596.698</ele>
        <time>2017-10-28T12:46:26Z</time>
      </trkpt>
      <trkpt lat="45.76618" lon="4.30779">
        <ele>594.734</ele>
        <time>2017-10-28T12:46:41Z</time>
      </trkpt>
      <trkpt lat="45.76606" lon="4.30756">
        <ele>592.673</ele>
        <time>2017-10-28T12:46:56Z</time>
      </trkpt>
      <trkpt lat="45.76594" lon="4.30742">
        <ele>590.722</ele>
        <time>2017-10-28T12:47:08Z</time>
      </trkpt>
      <trkpt lat="45.76581" lon="4.30723">
        <ele>588.686</ele>
        <time>2017-10-28T12:47:22Z</time>
      </trkpt>
      <trkpt lat="45.76571" lon="4.30706">
        <ele>587.731</ele>
        <time>2017-10-28T12:47:31Z</time>
      </trkpt>
      <trkpt lat="45.7656" lon="4.30691">
        <ele>587.183</ele>
        <time>2017-10-28T12:47:43Z</time>
      </trkpt>
      <trkpt lat="45.76548" lon="4.30675">
        <ele>585.841</ele>
        <time>2017-10-28T12:47:56Z</time>
      </trkpt>
      <trkpt lat="45.76536" lon="4.30662">
        <ele>584.883</ele>
        <time>2017-10-28T12:48:06Z</time>
      </trkpt>
      <trkpt lat="45.76523" lon="4.30636">
        <ele>583.507</ele>
        <time>2017-10-28T12:48:22Z</time>
      </trkpt>
      <trkpt lat="45.7652" lon="4.3062">
        <ele>583.357</ele>
        <time>2017-10-28T12:48:31Z</time>
      </trkpt>
      <trkpt lat="45.7652" lon="4.3062">
        <ele>532</ele>
        <time>2017-10-28T12:48:38Z</time>
      </trkpt>
      <trkpt lat="45.7652" lon="4.3062">
        <ele>532</ele>
        <time>2017-10-28T12:49:02Z</time>
      </trkpt>
      <trkpt lat="45.76513" lon="4.30587">
        <ele>584.799</ele>
        <time>2017-10-28T12:49:02Z</time>
      </trkpt>
      <trkpt lat="45.76505" lon="4.30574">
        <ele>584.144</ele>
        <time>2017-10-28T12:49:14Z</time>
      </trkpt>
      <trkpt lat="45.76495" lon="4.30565">
        <ele>583.115</ele>
        <time>2017-10-28T12:49:23Z</time>
      </trkpt>
      <trkpt lat="45.76484" lon="4.30569">
        <ele>581.33</ele>
        <time>2017-10-28T12:49:33Z</time>
      </trkpt>
      <trkpt lat="45.76465" lon="4.30563">
        <ele>577.045</ele>
        <time>2017-10-28T12:49:51Z</time>
      </trkpt>
      <trkpt lat="45.76468" lon="4.30533">
        <ele>574.228</ele>
        <time>2017-10-28T12:50:06Z</time>
      </trkpt>
      <trkpt lat="45.76469" lon="4.30502">
        <ele>571.246</ele>
        <time>2017-10-28T12:50:22Z</time>
      </trkpt>
      <trkpt lat="45.76462" lon="4.30482">
        <ele>569.044</ele>
        <time>2017-10-28T12:50:34Z</time>
      </trkpt>
      <trkpt lat="45.76453" lon="4.30467">
        <ele>567.523</ele>
        <time>2017-10-28T12:50:44Z</time>
      </trkpt>
      <trkpt lat="45.7644" lon="4.30447">
        <ele>565.326</ele>
        <time>2017-10-28T12:50:57Z</time>
      </trkpt>
      <trkpt lat="45.76426" lon="4.30422">
        <ele>563.212</ele>
        <time>2017-10-28T12:51:12Z</time>
      </trkpt>
      <trkpt lat="45.76419" lon="4.30403">
        <ele>562.608</ele>
        <time>2017-10-28T12:51:23Z</time>
      </trkpt>
      <trkpt lat="45.7641" lon="4.30381">
        <ele>561.897</ele>
        <time>2017-10-28T12:51:37Z</time>
      </trkpt>
      <trkpt lat="45.76401" lon="4.30357">
        <ele>562.145</ele>
        <time>2017-10-28T12:51:49Z</time>
      </trkpt>
      <trkpt lat="45.76388" lon="4.30331">
        <ele>563.493</ele>
        <time>2017-10-28T12:52:05Z</time>
      </trkpt>
      <trkpt lat="45.76378" lon="4.30307">
        <ele>564.577</ele>
        <time>2017-10-28T12:52:22Z</time>
      </trkpt>
      <trkpt lat="45.76372" lon="4.30292">
        <ele>564.572</ele>
        <time>2017-10-28T12:52:31Z</time>
      </trkpt>
      <trkpt lat="45.76366" lon="4.30282">
        <ele>564.875</ele>
        <time>2017-10-28T12:52:39Z</time>
      </trkpt>
      <trkpt lat="45.7635" lon="4.30255">
        <ele>563.861</ele>
        <time>2017-10-28T12:52:56Z</time>
      </trkpt>
      <trkpt lat="45.76345" lon="4.30244">
        <ele>563.012</ele>
        <time>2017-10-28T12:53:03Z</time>
      </trkpt>
      <trkpt lat="45.7633" lon="4.30215">
        <ele>560.903</ele>
        <time>2017-10-28T12:53:21Z</time>
      </trkpt>
      <trkpt lat="45.76321" lon="4.30201">
        <ele>559.984</ele>
        <time>2017-10-28T12:53:32Z</time>
      </trkpt>
      <trkpt lat="45.76314" lon="4.30178">
        <ele>559.445</ele>
        <time>2017-10-28T12:53:44Z</time>
      </trkpt>
      <trkpt lat="45.76305" lon="4.30159">
        <ele>559.751</ele>
        <time>2017-10-28T12:53:56Z</time>
      </trkpt>
      <trkpt lat="45.76292" lon="4.30139">
        <ele>560.407</ele>
        <time>2017-10-28T12:54:10Z</time>
      </trkpt>
      <trkpt lat="45.76285" lon="4.30124">
        <ele>559.125</ele>
        <time>2017-10-28T12:54:23Z</time>
      </trkpt>
      <trkpt lat="45.76277" lon="4.30103">
        <ele>557.179</ele>
        <time>2017-10-28T12:54:33Z</time>
      </trkpt>
      <trkpt lat="45.76264" lon="4.30079">
        <ele>553.66</ele>
        <time>2017-10-28T12:54:50Z</time>
      </trkpt>
      <trkpt lat="45.76257" lon="4.30057">
        <ele>550.899</ele>
        <time>2017-10-28T12:55:04Z</time>
      </trkpt>
      <trkpt lat="45.76244" lon="4.30028">
        <ele>546.818</ele>
        <time>2017-10-28T12:55:21Z</time>
      </trkpt>
      <trkpt lat="45.76237" lon="4.30011">
        <ele>544.29</ele>
        <time>2017-10-28T12:55:32Z</time>
      </trkpt>
      <trkpt lat="45.76227" lon="4.29989">
        <ele>541.825</ele>
        <time>2017-10-28T12:55:45Z</time>
      </trkpt>
      <trkpt lat="45.76218" lon="4.29964">
        <ele>539.113</ele>
        <time>2017-10-28T12:55:59Z</time>
      </trkpt>
      <trkpt lat="45.76212" lon="4.29937">
        <ele>536.643</ele>
        <time>2017-10-28T12:56:13Z</time>
      </trkpt>
      <trkpt lat="45.76209" lon="4.29907">
        <ele>534.484</ele>
        <time>2017-10-28T12:56:29Z</time>
      </trkpt>
      <trkpt lat="45.76208" lon="4.29886">
        <ele>532.421</ele>
        <time>2017-10-28T12:56:40Z</time>
      </trkpt>
      <trkpt lat="45.76203" lon="4.29858">
        <ele>528.184</ele>
        <time>2017-10-28T12:56:55Z</time>
      </trkpt>
      <trkpt lat="45.76204" lon="4.2984">
        <ele>525.708</ele>
        <time>2017-10-28T12:57:04Z</time>
      </trkpt>
      <trkpt lat="45.76205" lon="4.29821">
        <ele>523.597</ele>
        <time>2017-10-28T12:57:13Z</time>
      </trkpt>
      <trkpt lat="45.76208" lon="4.29795">
        <ele>521.358</ele>
        <time>2017-10-28T12:57:26Z</time>
      </trkpt>
      <trkpt lat="45.76212" lon="4.29768">
        <ele>518.251</ele>
        <time>2017-10-28T12:57:40Z</time>
      </trkpt>
      <trkpt lat="45.76217" lon="4.29748">
        <ele>516.631</ele>
        <time>2017-10-28T12:57:50Z</time>
      </trkpt>
      <trkpt lat="45.76225" lon="4.29721">
        <ele>513.948</ele>
        <time>2017-10-28T12:58:05Z</time>
      </trkpt>
      <trkpt lat="45.76229" lon="4.297">
        <ele>511.843</ele>
        <time>2017-10-28T12:58:17Z</time>
      </trkpt>
      <trkpt lat="45.76236" lon="4.29667">
        <ele>510.324</ele>
        <time>2017-10-28T12:58:34Z</time>
      </trkpt>
      <trkpt lat="45.7624" lon="4.2965">
        <ele>509.726</ele>
        <time>2017-10-28T12:58:44Z</time>
      </trkpt>
      <trkpt lat="45.76245" lon="4.29626">
        <ele>508.504</ele>
        <time>2017-10-28T12:58:57Z</time>
      </trkpt>
      <trkpt lat="45.7625" lon="4.29606">
        <ele>507.262</ele>
        <time>2017-10-28T12:59:07Z</time>
      </trkpt>
      <trkpt lat="45.76249" lon="4.29591">
        <ele>506.396</ele>
        <time>2017-10-28T12:59:15Z</time>
      </trkpt>
      <trkpt lat="45.76244" lon="4.29565">
        <ele>505.514</ele>
        <time>2017-10-28T12:59:29Z</time>
      </trkpt>
      <trkpt lat="45.7623" lon="4.29545">
        <ele>504.97</ele>
        <time>2017-10-28T12:59:44Z</time>
      </trkpt>
      <trkpt lat="45.76215" lon="4.29541">
        <ele>504.555</ele>
        <time>2017-10-28T12:59:59Z</time>
      </trkpt>
      <trkpt lat="45.76189" lon="4.29536">
        <ele>503.008</ele>
        <time>2017-10-28T13:00:19Z</time>
      </trkpt>
      <trkpt lat="45.76176" lon="4.29533">
        <ele>502.166</ele>
        <time>2017-10-28T13:00:32Z</time>
      </trkpt>
      <trkpt lat="45.76159" lon="4.29525">
        <ele>501.032</ele>
        <time>2017-10-28T13:00:45Z</time>
      </trkpt>
      <trkpt lat="45.76142" lon="4.29515">
        <ele>499.793</ele>
        <time>2017-10-28T13:00:59Z</time>
      </trkpt>
      <trkpt lat="45.76124" lon="4.29509">
        <ele>498.366</ele>
        <time>2017-10-28T13:01:12Z</time>
      </trkpt>
      <trkpt lat="45.7611" lon="4.29502">
        <ele>496.874</ele>
        <time>2017-10-28T13:01:23Z</time>
      </trkpt>
      <trkpt lat="45.76094" lon="4.29494">
        <ele>494.551</ele>
        <time>2017-10-28T13:01:37Z</time>
      </trkpt>
      <trkpt lat="45.76084" lon="4.29487">
        <ele>492.819</ele>
        <time>2017-10-28T13:01:47Z</time>
      </trkpt>
      <trkpt lat="45.7607" lon="4.29476">
        <ele>490.447</ele>
        <time>2017-10-28T13:02:01Z</time>
      </trkpt>
      <trkpt lat="45.7607" lon="4.29476">
        <ele>429.7</ele>
        <time>2017-10-28T13:02:08Z</time>
      </trkpt>
      <trkpt lat="45.7607" lon="4.29476">
        <ele>429.7</ele>
        <time>2017-10-28T13:03:26Z</time>
      </trkpt>
      <trkpt lat="45.7606" lon="4.29461">
        <ele>489.698</ele>
        <time>2017-10-28T13:03:26Z</time>
      </trkpt>
      <trkpt lat="45.76057" lon="4.29439">
        <ele>488.777</ele>
        <time>2017-10-28T13:03:39Z</time>
      </trkpt>
      <trkpt lat="45.76058" lon="4.29406">
        <ele>486.401</ele>
        <time>2017-10-28T13:03:56Z</time>
      </trkpt>
      <trkpt lat="45.76062" lon="4.29386">
        <ele>484.385</ele>
        <time>2017-10-28T13:04:09Z</time>
      </trkpt>
      <trkpt lat="45.76071" lon="4.29374">
        <ele>482.98</ele>
        <time>2017-10-28T13:04:17Z</time>
      </trkpt>
      <trkpt lat="45.76084" lon="4.29364">
        <ele>481.887</ele>
        <time>2017-10-28T13:04:25Z</time>
      </trkpt>
      <trkpt lat="45.76095" lon="4.29353">
        <ele>481</ele>
        <time>2017-10-28T13:04:32Z</time>
      </trkpt>
      <trkpt lat="45.76109" lon="4.29338">
        <ele>479.169</ele>
        <time>2017-10-28T13:04:46Z</time>
      </trkpt>
      <trkpt lat="45.76127" lon="4.29326">
        <ele>477.646</ele>
        <time>2017-10-28T13:05:00Z</time>
      </trkpt>
      <trkpt lat="45.76145" lon="4.29313">
        <ele>475.685</ele>
        <time>2017-10-28T13:05:15Z</time>
      </trkpt>
      <trkpt lat="45.76157" lon="4.29303">
        <ele>474.661</ele>
        <time>2017-10-28T13:05:23Z</time>
      </trkpt>
      <trkpt lat="45.76172" lon="4.29284">
        <ele>473.093</ele>
        <time>2017-10-28T13:05:38Z</time>
      </trkpt>
      <trkpt lat="45.76179" lon="4.29277">
        <ele>472.539</ele>
        <time>2017-10-28T13:05:46Z</time>
      </trkpt>
      <trkpt lat="45.762" lon="4.29253">
        <ele>471.993</ele>
        <time>2017-10-28T13:06:04Z</time>
      </trkpt>
      <trkpt lat="45.76213" lon="4.29227">
        <ele>471.174</ele>
        <time>2017-10-28T13:06:17Z</time>
      </trkpt>
      <trkpt lat="45.76227" lon="4.29203">
        <ele>470.989</ele>
        <time>2017-10-28T13:06:32Z</time>
      </trkpt>
      <trkpt lat="45.76245" lon="4.29186">
        <ele>469.874</ele>
        <time>2017-10-28T13:06:48Z</time>
      </trkpt>
      <trkpt lat="45.76255" lon="4.29165">
        <ele>468.838</ele>
        <time>2017-10-28T13:07:01Z</time>
      </trkpt>
      <trkpt lat="45.76257" lon="4.29142">
        <ele>467.601</ele>
        <time>2017-10-28T13:07:13Z</time>
      </trkpt>
      <trkpt lat="45.76259" lon="4.29113">
        <ele>466.117</ele>
        <time>2017-10-28T13:07:28Z</time>
      </trkpt>
      <trkpt lat="45.76258" lon="4.29101">
        <ele>465.791</ele>
        <time>2017-10-28T13:07:36Z</time>
      </trkpt>
      <trkpt lat="45.76252" lon="4.29102">
        <ele>465.686</ele>
        <time>2017-10-28T13:07:39Z</time>
      </trkpt>
      <trkpt lat="45.76252" lon="4.29102">
        <ele>410.7</ele>
        <time>2017-10-28T13:07:47Z</time>
      </trkpt>
      <trkpt lat="45.76252" lon="4.29102">
        <ele>410.7</ele>
        <time>2017-10-28T13:12:11Z</time>
      </trkpt>
      <trkpt lat="45.76276" lon="4.29115">
        <ele>462.778</ele>
        <time>2017-10-28T13:12:11Z</time>
      </trkpt>
      <trkpt lat="45.7629" lon="4.29131">
        <ele>464.67</ele>
        <time>2017-10-28T13:12:30Z</time>
      </trkpt>
      <trkpt lat="45.76306" lon="4.29134">
        <ele>466.103</ele>
        <time>2017-10-28T13:12:52Z</time>
      </trkpt>
      <trkpt lat="45.76306" lon="4.29134">
        <ele>466.103</ele>
        <time>2017-10-28T13:12:59Z</time>
      </trkpt>
      <trkpt lat="45.76306" lon="4.29134">
        <ele>406.3</ele>
        <time>2017-10-28T13:12:59Z</time>
      </trkpt>
      <trkpt lat="45.76306" lon="4.29134">
        <ele>406.3</ele>
        <time>2017-10-28T13:13:13Z</time>
      </trkpt>
      <trkpt lat="45.76321" lon="4.29143">
        <ele>463.515</ele>
        <time>2017-10-28T13:13:13Z</time>
      </trkpt>
      <trkpt lat="45.76334" lon="4.29164">
        <ele>461.277</ele>
        <time>2017-10-28T13:13:27Z</time>
      </trkpt>
      <trkpt lat="45.76348" lon="4.29174">
        <ele>459.222</ele>
        <time>2017-10-28T13:13:37Z</time>
      </trkpt>
      <trkpt lat="45.76372" lon="4.29183">
        <ele>456.172</ele>
        <time>2017-10-28T13:13:51Z</time>
      </trkpt>
      <trkpt lat="45.76386" lon="4.29187">
        <ele>454.903</ele>
        <time>2017-10-28T13:14:03Z</time>
      </trkpt>
      <trkpt lat="45.76405" lon="4.29188">
        <ele>452.751</ele>
        <time>2017-10-28T13:14:16Z</time>
      </trkpt>
      <trkpt lat="45.7642" lon="4.29193">
        <ele>451.166</ele>
        <time>2017-10-28T13:14:26Z</time>
      </trkpt>
      <trkpt lat="45.76439" lon="4.29195">
        <ele>450.185</ele>
        <time>2017-10-28T13:14:40Z</time>
      </trkpt>
      <trkpt lat="45.76454" lon="4.29193">
        <ele>449.902</ele>
        <time>2017-10-28T13:14:49Z</time>
      </trkpt>
      <trkpt lat="45.76462" lon="4.29192">
        <ele>449.934</ele>
        <time>2017-10-28T13:14:55Z</time>
      </trkpt>
      <trkpt lat="45.76477" lon="4.29195">
        <ele>451.789</ele>
        <time>2017-10-28T13:15:12Z</time>
      </trkpt>
      <trkpt lat="45.76502" lon="4.2919">
        <ele>453.408</ele>
        <time>2017-10-28T13:15:26Z</time>
      </trkpt>
      <trkpt lat="45.76523" lon="4.29189">
        <ele>454.377</ele>
        <time>2017-10-28T13:15:40Z</time>
      </trkpt>
      <trkpt lat="45.76526" lon="4.29166">
        <ele>454.474</ele>
        <time>2017-10-28T13:15:52Z</time>
      </trkpt>
      <trkpt lat="45.76524" lon="4.29131">
        <ele>453.603</ele>
        <time>2017-10-28T13:16:09Z</time>
      </trkpt>
      <trkpt lat="45.76521" lon="4.29107">
        <ele>452.306</ele>
        <time>2017-10-28T13:16:21Z</time>
      </trkpt>
      <trkpt lat="45.76518" lon="4.29085">
        <ele>452.261</ele>
        <time>2017-10-28T13:16:32Z</time>
      </trkpt>
      <trkpt lat="45.76515" lon="4.29058">
        <ele>452.925</ele>
        <time>2017-10-28T13:16:45Z</time>
      </trkpt>
      <trkpt lat="45.76517" lon="4.29042">
        <ele>453.566</ele>
        <time>2017-10-28T13:16:52Z</time>
      </trkpt>
      <trkpt lat="45.76518" lon="4.2902">
        <ele>454.911</ele>
        <time>2017-10-28T13:17:03Z</time>
      </trkpt>
      <trkpt lat="45.76523" lon="4.28987">
        <ele>455.711</ele>
        <time>2017-10-28T13:17:19Z</time>
      </trkpt>
      <trkpt lat="45.76514" lon="4.28963">
        <ele>456.146</ele>
        <time>2017-10-28T13:17:32Z</time>
      </trkpt>
      <trkpt lat="45.76501" lon="4.28944">
        <ele>455.103</ele>
        <time>2017-10-28T13:17:44Z</time>
      </trkpt>
      <trkpt lat="45.76483" lon="4.28931">
        <ele>455.107</ele>
        <time>2017-10-28T13:17:57Z</time>
      </trkpt>
      <trkpt lat="45.76479" lon="4.28929">
        <ele>455.832</ele>
        <time>2017-10-28T13:18:01Z</time>
      </trkpt>
      <trkpt lat="45.76479" lon="4.28929">
        <ele>406.4</ele>
        <time>2017-10-28T13:18:09Z</time>
      </trkpt>
      <trkpt lat="45.76479" lon="4.28929">
        <ele>406.4</ele>
        <time>2017-10-28T13:18:27Z</time>
      </trkpt>
      <trkpt lat="45.765" lon="4.28928">
        <ele>462.686</ele>
        <time>2017-10-28T13:18:27Z</time>
      </trkpt>
      <trkpt lat="45.76518" lon="4.28918">
        <ele>466.704</ele>
        <time>2017-10-28T13:18:42Z</time>
      </trkpt>
      <trkpt lat="45.76535" lon="4.28904">
        <ele>467.653</ele>
        <time>2017-10-28T13:18:52Z</time>
      </trkpt>
      <trkpt lat="45.76538" lon="4.28902">
        <ele>467.546</ele>
        <time>2017-10-28T13:18:54Z</time>
      </trkpt>
      <trkpt lat="45.76538" lon="4.28902">
        <ele>413.9</ele>
        <time>2017-10-28T13:19:00Z</time>
      </trkpt>
      <trkpt lat="45.76538" lon="4.28902">
        <ele>413.9</ele>
        <time>2017-10-28T13:19:15Z</time>
      </trkpt>
      <trkpt lat="45.76522" lon="4.28895">
        <ele>467.51</ele>
        <time>2017-10-28T13:19:15Z</time>
      </trkpt>
      <trkpt lat="45.76513" lon="4.28891">
        <ele>467.527</ele>
        <time>2017-10-28T13:19:27Z</time>
      </trkpt>
      <trkpt lat="45.76496" lon="4.28887">
        <ele>468.002</ele>
        <time>2017-10-28T13:19:39Z</time>
      </trkpt>
      <trkpt lat="45.76477" lon="4.28878">
        <ele>470.259</ele>
        <time>2017-10-28T13:19:58Z</time>
      </trkpt>
      <trkpt lat="45.76464" lon="4.28873">
        <ele>470.908</ele>
        <time>2017-10-28T13:20:10Z</time>
      </trkpt>
      <trkpt lat="45.76444" lon="4.28849">
        <ele>474.01</ele>
        <time>2017-10-28T13:20:27Z</time>
      </trkpt>
      <trkpt lat="45.7644" lon="4.28823">
        <ele>478.7</ele>
        <time>2017-10-28T13:20:45Z</time>
      </trkpt>
      <trkpt lat="45.76438" lon="4.28799">
        <ele>482.808</ele>
        <time>2017-10-28T13:21:01Z</time>
      </trkpt>
      <trkpt lat="45.7644" lon="4.2878">
        <ele>487.063</ele>
        <time>2017-10-28T13:21:15Z</time>
      </trkpt>
      <trkpt lat="45.76443" lon="4.2876">
        <ele>489.546</ele>
        <time>2017-10-28T13:21:28Z</time>
      </trkpt>
      <trkpt lat="45.76446" lon="4.28737">
        <ele>490.834</ele>
        <time>2017-10-28T13:21:40Z</time>
      </trkpt>
      <trkpt lat="45.76441" lon="4.28712">
        <ele>491.865</ele>
        <time>2017-10-28T13:21:54Z</time>
      </trkpt>
      <trkpt lat="45.76436" lon="4.28699">
        <ele>493.498</ele>
        <time>2017-10-28T13:22:04Z</time>
      </trkpt>
      <trkpt lat="45.76436" lon="4.28699">
        <ele>441.4</ele>
        <time>2017-10-28T13:22:11Z</time>
      </trkpt>
      <trkpt lat="45.76436" lon="4.28699">
        <ele>441.4</ele>
        <time>2017-10-28T13:22:17Z</time>
      </trkpt>
      <trkpt lat="45.76433" lon="4.2869">
        <ele>496.358</ele>
        <time>2017-10-28T13:22:17Z</time>
      </trkpt>
      <trkpt lat="45.76421" lon="4.28686">
        <ele>497.445</ele>
        <time>2017-10-28T13:22:22Z</time>
      </trkpt>
      <trkpt lat="45.76421" lon="4.28686">
        <ele>442.4</ele>
        <time>2017-10-28T13:22:29Z</time>
      </trkpt>
      <trkpt lat="45.76421" lon="4.28686">
        <ele>442.4</ele>
        <time>2017-10-28T13:22:33Z</time>
      </trkpt>
      <trkpt lat="45.76415" lon="4.28679">
        <ele>499.178</ele>
        <time>2017-10-28T13:22:33Z</time>
      </trkpt>
      <trkpt lat="45.76406" lon="4.28671">
        <ele>500.096</ele>
        <time>2017-10-28T13:22:42Z</time>
      </trkpt>
      <trkpt lat="45.76406" lon="4.28671">
        <ele>444.6</ele>
        <time>2017-10-28T13:22:50Z</time>
      </trkpt>
      <trkpt lat="45.76406" lon="4.28671">
        <ele>444.6</ele>
        <time>2017-10-28T13:22:57Z</time>
      </trkpt>
      <trkpt lat="45.764" lon="4.28671">
        <ele>499.558</ele>
        <time>2017-10-28T13:22:57Z</time>
      </trkpt>
      <trkpt lat="45.76387" lon="4.28669">
        <ele>498.938</ele>
        <time>2017-10-28T13:23:12Z</time>
      </trkpt>
      <trkpt lat="45.76374" lon="4.2867">
        <ele>499.953</ele>
        <time>2017-10-28T13:23:25Z</time>
      </trkpt>
      <trkpt lat="45.76359" lon="4.28669">
        <ele>500.456</ele>
        <time>2017-10-28T13:23:33Z</time>
      </trkpt>
      <trkpt lat="45.76346" lon="4.28664">
        <ele>501.582</ele>
        <time>2017-10-28T13:23:46Z</time>
      </trkpt>
      <trkpt lat="45.76346" lon="4.28664">
        <ele>501.582</ele>
        <time>2017-10-28T13:23:53Z</time>
      </trkpt>
      <trkpt lat="45.76346" lon="4.28664">
        <ele>449.3</ele>
        <time>2017-10-28T13:23:53Z</time>
      </trkpt>
      <trkpt lat="45.76346" lon="4.28664">
        <ele>449.3</ele>
        <time>2017-10-28T13:24:10Z</time>
      </trkpt>
      <trkpt lat="45.76331" lon="4.28656">
        <ele>505.932</ele>
        <time>2017-10-28T13:24:10Z</time>
      </trkpt>
      <trkpt lat="45.7632" lon="4.28647">
        <ele>509.124</ele>
        <time>2017-10-28T13:24:27Z</time>
      </trkpt>
      <trkpt lat="45.76304" lon="4.28643">
        <ele>510.43</ele>
        <time>2017-10-28T13:24:44Z</time>
      </trkpt>
      <trkpt lat="45.76289" lon="4.28636">
        <ele>512.454</ele>
        <time>2017-10-28T13:25:00Z</time>
      </trkpt>
      <trkpt lat="45.76276" lon="4.28626">
        <ele>514.603</ele>
        <time>2017-10-28T13:25:15Z</time>
      </trkpt>
      <trkpt lat="45.76273" lon="4.28611">
        <ele>516.632</ele>
        <time>2017-10-28T13:25:23Z</time>
      </trkpt>
      <trkpt lat="45.76273" lon="4.28611">
        <ele>466.2</ele>
        <time>2017-10-28T13:25:30Z</time>
      </trkpt>
      <trkpt lat="45.76273" lon="4.28611">
        <ele>466.2</ele>
        <time>2017-10-28T13:25:33Z</time>
      </trkpt>
      <trkpt lat="45.76268" lon="4.28601">
        <ele>519.187</ele>
        <time>2017-10-28T13:25:33Z</time>
      </trkpt>
      <trkpt lat="45.76253" lon="4.28577">
        <ele>521.449</ele>
        <time>2017-10-28T13:25:46Z</time>
      </trkpt>
      <trkpt lat="45.76252" lon="4.28561">
        <ele>522.737</ele>
        <time>2017-10-28T13:25:54Z</time>
      </trkpt>
      <trkpt lat="45.76251" lon="4.28533">
        <ele>524.16</ele>
        <time>2017-10-28T13:26:09Z</time>
      </trkpt>
      <trkpt lat="45.7625" lon="4.2851">
        <ele>524.232</ele>
        <time>2017-10-28T13:26:20Z</time>
      </trkpt>
      <trkpt lat="45.76242" lon="4.28482">
        <ele>524.633</ele>
        <time>2017-10-28T13:26:35Z</time>
      </trkpt>
      <trkpt lat="45.76228" lon="4.28459">
        <ele>524.89</ele>
        <time>2017-10-28T13:26:50Z</time>
      </trkpt>
      <trkpt lat="45.76217" lon="4.28443">
        <ele>524.139</ele>
        <time>2017-10-28T13:27:00Z</time>
      </trkpt>
      <trkpt lat="45.76204" lon="4.28424">
        <ele>524.037</ele>
        <time>2017-10-28T13:27:14Z</time>
      </trkpt>
      <trkpt lat="45.76187" lon="4.28402">
        <ele>523.954</ele>
        <time>2017-10-28T13:27:30Z</time>
      </trkpt>
      <trkpt lat="45.76177" lon="4.28388">
        <ele>525.202</ele>
        <time>2017-10-28T13:27:40Z</time>
      </trkpt>
      <trkpt lat="45.7616" lon="4.28371">
        <ele>526.308</ele>
        <time>2017-10-28T13:27:56Z</time>
      </trkpt>
      <trkpt lat="45.76149" lon="4.28361">
        <ele>526.001</ele>
        <time>2017-10-28T13:28:06Z</time>
      </trkpt>
      <trkpt lat="45.76129" lon="4.28343">
        <ele>523.607</ele>
        <time>2017-10-28T13:28:21Z</time>
      </trkpt>
      <trkpt lat="45.7612" lon="4.28335">
        <ele>522.297</ele>
        <time>2017-10-28T13:28:29Z</time>
      </trkpt>
      <trkpt lat="45.76112" lon="4.28324">
        <ele>521.333</ele>
        <time>2017-10-28T13:28:38Z</time>
      </trkpt>
      <trkpt lat="45.76097" lon="4.28303">
        <ele>522.119</ele>
        <time>2017-10-28T13:28:52Z</time>
      </trkpt>
      <trkpt lat="45.76082" lon="4.28287">
        <ele>524.788</ele>
        <time>2017-10-28T13:29:05Z</time>
      </trkpt>
      <trkpt lat="45.76068" lon="4.28264">
        <ele>525.251</ele>
        <time>2017-10-28T13:29:19Z</time>
      </trkpt>
      <trkpt lat="45.7606" lon="4.28248">
        <ele>524.787</ele>
        <time>2017-10-28T13:29:29Z</time>
      </trkpt>
      <trkpt lat="45.76053" lon="4.28214">
        <ele>524.349</ele>
        <time>2017-10-28T13:29:47Z</time>
      </trkpt>
      <trkpt lat="45.76042" lon="4.28186">
        <ele>523.918</ele>
        <time>2017-10-28T13:30:01Z</time>
      </trkpt>
      <trkpt lat="45.76036" lon="4.2816">
        <ele>523.759</ele>
        <time>2017-10-28T13:30:15Z</time>
      </trkpt>
      <trkpt lat="45.76028" lon="4.28137">
        <ele>524.865</ele>
        <time>2017-10-28T13:30:28Z</time>
      </trkpt>
      <trkpt lat="45.76021" lon="4.28107">
        <ele>525.577</ele>
        <time>2017-10-28T13:30:44Z</time>
      </trkpt>
      <trkpt lat="45.76019" lon="4.28079">
        <ele>525.972</ele>
        <time>2017-10-28T13:30:59Z</time>
      </trkpt>
      <trkpt lat="45.76022" lon="4.28054">
        <ele>525.002</ele>
        <time>2017-10-28T13:31:12Z</time>
      </trkpt>
      <trkpt lat="45.76025" lon="4.28032">
        <ele>524.053</ele>
        <time>2017-10-28T13:31:24Z</time>
      </trkpt>
      <trkpt lat="45.76024" lon="4.2801">
        <ele>522.875</ele>
        <time>2017-10-28T13:31:35Z</time>
      </trkpt>
      <trkpt lat="45.76023" lon="4.27983">
        <ele>520.379</ele>
        <time>2017-10-28T13:31:49Z</time>
      </trkpt>
      <trkpt lat="45.7602" lon="4.27957">
        <ele>518.773</ele>
        <time>2017-10-28T13:32:02Z</time>
      </trkpt>
      <trkpt lat="45.76021" lon="4.27941">
        <ele>517.93</ele>
        <time>2017-10-28T13:32:11Z</time>
      </trkpt>
      <trkpt lat="45.76022" lon="4.27909">
        <ele>516.34</ele>
        <time>2017-10-28T13:32:27Z</time>
      </trkpt>
      <trkpt lat="45.76023" lon="4.27889">
        <ele>514.907</ele>
        <time>2017-10-28T13:32:37Z</time>
      </trkpt>
      <trkpt lat="45.76023" lon="4.27866">
        <ele>513.519</ele>
        <time>2017-10-28T13:32:49Z</time>
      </trkpt>
      <trkpt lat="45.76027" lon="4.27846">
        <ele>512.57</ele>
        <time>2017-10-28T13:33:01Z</time>
      </trkpt>
      <trkpt lat="45.76028" lon="4.27827">
        <ele>511.85</ele>
        <time>2017-10-28T13:33:13Z</time>
      </trkpt>
      <trkpt lat="45.76034" lon="4.27799">
        <ele>510.079</ele>
        <time>2017-10-28T13:33:28Z</time>
      </trkpt>
      <trkpt lat="45.76036" lon="4.27774">
        <ele>507.94</ele>
        <time>2017-10-28T13:33:42Z</time>
      </trkpt>
      <trkpt lat="45.76041" lon="4.27755">
        <ele>506.232</ele>
        <time>2017-10-28T13:33:54Z</time>
      </trkpt>
      <trkpt lat="45.76042" lon="4.27744">
        <ele>505.083</ele>
        <time>2017-10-28T13:34:00Z</time>
      </trkpt>
      <trkpt lat="45.76038" lon="4.27722">
        <ele>503.41</ele>
        <time>2017-10-28T13:34:09Z</time>
      </trkpt>
      <trkpt lat="45.76034" lon="4.27705">
        <ele>501.959</ele>
        <time>2017-10-28T13:34:19Z</time>
      </trkpt>
      <trkpt lat="45.76026" lon="4.27688">
        <ele>500.609</ele>
        <time>2017-10-28T13:34:32Z</time>
      </trkpt>
      <trkpt lat="45.76016" lon="4.27668">
        <ele>499.505</ele>
        <time>2017-10-28T13:34:46Z</time>
      </trkpt>
      <trkpt lat="45.76006" lon="4.2765">
        <ele>497.913</ele>
        <time>2017-10-28T13:35:01Z</time>
      </trkpt>
      <trkpt lat="45.76005" lon="4.27628">
        <ele>496.628</ele>
        <time>2017-10-28T13:35:14Z</time>
      </trkpt>
      <trkpt lat="45.7601" lon="4.27611">
        <ele>494.279</ele>
        <time>2017-10-28T13:35:28Z</time>
      </trkpt>
      <trkpt lat="45.76022" lon="4.27602">
        <ele>493.01</ele>
        <time>2017-10-28T13:35:36Z</time>
      </trkpt>
      <trkpt lat="45.76029" lon="4.27587">
        <ele>491.734</ele>
        <time>2017-10-28T13:35:45Z</time>
      </trkpt>
      <trkpt lat="45.76028" lon="4.27563">
        <ele>490.64</ele>
        <time>2017-10-28T13:35:57Z</time>
      </trkpt>
      <trkpt lat="45.76018" lon="4.27538">
        <ele>489.674</ele>
        <time>2017-10-28T13:36:11Z</time>
      </trkpt>
      <trkpt lat="45.76007" lon="4.27523">
        <ele>488.664</ele>
        <time>2017-10-28T13:36:22Z</time>
      </trkpt>
      <trkpt lat="45.75993" lon="4.2751">
        <ele>485.528</ele>
        <time>2017-10-28T13:36:35Z</time>
      </trkpt>
      <trkpt lat="45.75972" lon="4.2749">
        <ele>481.454</ele>
        <time>2017-10-28T13:36:53Z</time>
      </trkpt>
      <trkpt lat="45.75957" lon="4.2748">
        <ele>478.717</ele>
        <time>2017-10-28T13:37:06Z</time>
      </trkpt>
      <trkpt lat="45.75952" lon="4.27457">
        <ele>476.981</ele>
        <time>2017-10-28T13:37:19Z</time>
      </trkpt>
      <trkpt lat="45.75955" lon="4.27443">
        <ele>476.599</ele>
        <time>2017-10-28T13:37:27Z</time>
      </trkpt>
      <trkpt lat="45.75963" lon="4.27419">
        <ele>476.067</ele>
        <time>2017-10-28T13:37:40Z</time>
      </trkpt>
      <trkpt lat="45.75967" lon="4.27394">
        <ele>476.509</ele>
        <time>2017-10-28T13:37:53Z</time>
      </trkpt>
      <trkpt lat="45.75972" lon="4.27369">
        <ele>476.549</ele>
        <time>2017-10-28T13:38:06Z</time>
      </trkpt>
      <trkpt lat="45.75971" lon="4.2735">
        <ele>476.033</ele>
        <time>2017-10-28T13:38:17Z</time>
      </trkpt>
      <trkpt lat="45.7596" lon="4.27332">
        <ele>474.238</ele>
        <time>2017-10-28T13:38:31Z</time>
      </trkpt>
      <trkpt lat="45.75965" lon="4.27302">
        <ele>471.805</ele>
        <time>2017-10-28T13:38:46Z</time>
      </trkpt>
      <trkpt lat="45.7597" lon="4.27272">
        <ele>471.368</ele>
        <time>2017-10-28T13:39:01Z</time>
      </trkpt>
      <trkpt lat="45.75971" lon="4.27259">
        <ele>471.44</ele>
        <time>2017-10-28T13:39:09Z</time>
      </trkpt>
      <trkpt lat="45.75986" lon="4.27236">
        <ele>471.59</ele>
        <time>2017-10-28T13:39:24Z</time>
      </trkpt>
      <trkpt lat="45.75986" lon="4.27214">
        <ele>471.797</ele>
        <time>2017-10-28T13:39:34Z</time>
      </trkpt>
      <trkpt lat="45.75997" lon="4.27198">
        <ele>471.118</ele>
        <time>2017-10-28T13:39:45Z</time>
      </trkpt>
      <trkpt lat="45.76011" lon="4.27178">
        <ele>470.784</ele>
        <time>2017-10-28T13:39:57Z</time>
      </trkpt>
      <trkpt lat="45.76011" lon="4.27157">
        <ele>470.707</ele>
        <time>2017-10-28T13:40:09Z</time>
      </trkpt>
      <trkpt lat="45.75994" lon="4.27146">
        <ele>468.991</ele>
        <time>2017-10-28T13:40:25Z</time>
      </trkpt>
      <trkpt lat="45.7598" lon="4.2713">
        <ele>466.684</ele>
        <time>2017-10-28T13:40:37Z</time>
      </trkpt>
      <trkpt lat="45.75969" lon="4.27118">
        <ele>464.401</ele>
        <time>2017-10-28T13:40:48Z</time>
      </trkpt>
      <trkpt lat="45.75954" lon="4.27099">
        <ele>461.193</ele>
        <time>2017-10-28T13:41:03Z</time>
      </trkpt>
      <trkpt lat="45.75934" lon="4.27075">
        <ele>457.555</ele>
        <time>2017-10-28T13:41:21Z</time>
      </trkpt>
      <trkpt lat="45.75917" lon="4.27051">
        <ele>453.308</ele>
        <time>2017-10-28T13:41:37Z</time>
      </trkpt>
      <trkpt lat="45.75907" lon="4.27033">
        <ele>452.659</ele>
        <time>2017-10-28T13:41:48Z</time>
      </trkpt>
      <trkpt lat="45.75903" lon="4.27014">
        <ele>452.911</ele>
        <time>2017-10-28T13:41:59Z</time>
      </trkpt>
      <trkpt lat="45.75892" lon="4.26983">
        <ele>452.516</ele>
        <time>2017-10-28T13:42:15Z</time>
      </trkpt>
      <trkpt lat="45.7588" lon="4.26956">
        <ele>451.393</ele>
        <time>2017-10-28T13:42:31Z</time>
      </trkpt>
      <trkpt lat="45.7587" lon="4.26921">
        <ele>449.468</ele>
        <time>2017-10-28T13:42:48Z</time>
      </trkpt>
      <trkpt lat="45.75862" lon="4.26898">
        <ele>447.719</ele>
        <time>2017-10-28T13:43:01Z</time>
      </trkpt>
      <trkpt lat="45.75863" lon="4.2687">
        <ele>445.605</ele>
        <time>2017-10-28T13:43:14Z</time>
      </trkpt>
      <trkpt lat="45.75876" lon="4.26855">
        <ele>445.606</ele>
        <time>2017-10-28T13:43:28Z</time>
      </trkpt>
      <trkpt lat="45.75902" lon="4.26847">
        <ele>445.303</ele>
        <time>2017-10-28T13:43:46Z</time>
      </trkpt>
      <trkpt lat="45.75915" lon="4.2684">
        <ele>445.724</ele>
        <time>2017-10-28T13:43:59Z</time>
      </trkpt>
      <trkpt lat="45.75934" lon="4.26836">
        <ele>446.569</ele>
        <time>2017-10-28T13:44:13Z</time>
      </trkpt>
      <trkpt lat="45.7595" lon="4.26823">
        <ele>447.051</ele>
        <time>2017-10-28T13:44:27Z</time>
      </trkpt>
      <trkpt lat="45.75966" lon="4.26804">
        <ele>447.338</ele>
        <time>2017-10-28T13:44:44Z</time>
      </trkpt>
      <trkpt lat="45.75961" lon="4.2678">
        <ele>446.83</ele>
        <time>2017-10-28T13:44:57Z</time>
      </trkpt>
      <trkpt lat="45.75951" lon="4.2676">
        <ele>445.976</ele>
        <time>2017-10-28T13:45:09Z</time>
      </trkpt>
      <trkpt lat="45.75943" lon="4.26747">
        <ele>445.371</ele>
        <time>2017-10-28T13:45:18Z</time>
      </trkpt>
      <trkpt lat="45.75928" lon="4.26731">
        <ele>444.131</ele>
        <time>2017-10-28T13:45:31Z</time>
      </trkpt>
      <trkpt lat="45.75907" lon="4.26719">
        <ele>438.785</ele>
        <time>2017-10-28T13:45:48Z</time>
      </trkpt>
      <trkpt lat="45.75893" lon="4.26712">
        <ele>433.844</ele>
        <time>2017-10-28T13:45:58Z</time>
      </trkpt>
      <trkpt lat="45.75879" lon="4.26706">
        <ele>429.148</ele>
        <time>2017-10-28T13:46:09Z</time>
      </trkpt>
      <trkpt lat="45.75864" lon="4.26688">
        <ele>426.048</ele>
        <time>2017-10-28T13:46:20Z</time>
      </trkpt>
      <trkpt lat="45.7585" lon="4.26672">
        <ele>424.411</ele>
        <time>2017-10-28T13:46:31Z</time>
      </trkpt>
      <trkpt lat="45.75835" lon="4.26654">
        <ele>424.977</ele>
        <time>2017-10-28T13:46:44Z</time>
      </trkpt>
      <trkpt lat="45.75825" lon="4.26628">
        <ele>428.71</ele>
        <time>2017-10-28T13:46:59Z</time>
      </trkpt>
      <trkpt lat="45.75813" lon="4.26604">
        <ele>431.065</ele>
        <time>2017-10-28T13:47:13Z</time>
      </trkpt>
      <trkpt lat="45.75807" lon="4.26587">
        <ele>432.264</ele>
        <time>2017-10-28T13:47:22Z</time>
      </trkpt>
      <trkpt lat="45.758" lon="4.26569">
        <ele>432.166</ele>
        <time>2017-10-28T13:47:31Z</time>
      </trkpt>
      <trkpt lat="45.75796" lon="4.26554">
        <ele>431.755</ele>
        <time>2017-10-28T13:47:39Z</time>
      </trkpt>
      <trkpt lat="45.75788" lon="4.26528">
        <ele>431.188</ele>
        <time>2017-10-28T13:47:52Z</time>
      </trkpt>
      <trkpt lat="45.7578" lon="4.26505">
        <ele>430.43</ele>
        <time>2017-10-28T13:48:04Z</time>
      </trkpt>
      <trkpt lat="45.75776" lon="4.26492">
        <ele>429.992</ele>
        <time>2017-10-28T13:48:11Z</time>
      </trkpt>
      <trkpt lat="45.7577" lon="4.26467">
        <ele>429.451</ele>
        <time>2017-10-28T13:48:24Z</time>
      </trkpt>
      <trkpt lat="45.75765" lon="4.26451">
        <ele>428.846</ele>
        <time>2017-10-28T13:48:33Z</time>
      </trkpt>
      <trkpt lat="45.7576" lon="4.26424">
        <ele>427.567</ele>
        <time>2017-10-28T13:48:48Z</time>
      </trkpt>
      <trkpt lat="45.75757" lon="4.26406">
        <ele>427.358</ele>
        <time>2017-10-28T13:48:59Z</time>
      </trkpt>
      <trkpt lat="45.75748" lon="4.26382">
        <ele>425.839</ele>
        <time>2017-10-28T13:49:15Z</time>
      </trkpt>
      <trkpt lat="45.75743" lon="4.26355">
        <ele>425.026</ele>
        <time>2017-10-28T13:49:28Z</time>
      </trkpt>
      <trkpt lat="45.75735" lon="4.26329">
        <ele>424.736</ele>
        <time>2017-10-28T13:49:42Z</time>
      </trkpt>
      <trkpt lat="45.75728" lon="4.26313">
        <ele>424.6</ele>
        <time>2017-10-28T13:49:51Z</time>
      </trkpt>
      <trkpt lat="45.75724" lon="4.26292">
        <ele>425.283</ele>
        <time>2017-10-28T13:50:01Z</time>
      </trkpt>
      <trkpt lat="45.75715" lon="4.26277">
        <ele>425.166</ele>
        <time>2017-10-28T13:50:10Z</time>
      </trkpt>
      <trkpt lat="45.75704" lon="4.26256">
        <ele>426.161</ele>
        <time>2017-10-28T13:50:22Z</time>
      </trkpt>
      <trkpt lat="45.75699" lon="4.26241">
        <ele>427.159</ele>
        <time>2017-10-28T13:50:29Z</time>
      </trkpt>
      <trkpt lat="45.75694" lon="4.2622">
        <ele>428.658</ele>
        <time>2017-10-28T13:50:38Z</time>
      </trkpt>
      <trkpt lat="45.75691" lon="4.26206">
        <ele>428.227</ele>
        <time>2017-10-28T13:50:48Z</time>
      </trkpt>
      <trkpt lat="45.75678" lon="4.26176">
        <ele>428.073</ele>
        <time>2017-10-28T13:51:04Z</time>
      </trkpt>
      <trkpt lat="45.7567" lon="4.26147">
        <ele>427.171</ele>
        <time>2017-10-28T13:51:19Z</time>
      </trkpt>
      <trkpt lat="45.75667" lon="4.26135">
        <ele>427.214</ele>
        <time>2017-10-28T13:51:28Z</time>
      </trkpt>
      <trkpt lat="45.75651" lon="4.26113">
        <ele>421.828</ele>
        <time>2017-10-28T13:51:45Z</time>
      </trkpt>
      <trkpt lat="45.75643" lon="4.26098">
        <ele>419.354</ele>
        <time>2017-10-28T13:51:54Z</time>
      </trkpt>
      <trkpt lat="45.75628" lon="4.2607">
        <ele>417.215</ele>
        <time>2017-10-28T13:52:09Z</time>
      </trkpt>
      <trkpt lat="45.75616" lon="4.26053">
        <ele>417.354</ele>
        <time>2017-10-28T13:52:19Z</time>
      </trkpt>
      <trkpt lat="45.75603" lon="4.26033">
        <ele>417.573</ele>
        <time>2017-10-28T13:52:32Z</time>
      </trkpt>
      <trkpt lat="45.75589" lon="4.26012">
        <ele>417.58</ele>
        <time>2017-10-28T13:52:46Z</time>
      </trkpt>
      <trkpt lat="45.75576" lon="4.25987">
        <ele>415.598</ele>
        <time>2017-10-28T13:53:01Z</time>
      </trkpt>
      <trkpt lat="45.7556" lon="4.25958">
        <ele>413.235</ele>
        <time>2017-10-28T13:53:18Z</time>
      </trkpt>
      <trkpt lat="45.7555" lon="4.25941">
        <ele>411.337</ele>
        <time>2017-10-28T13:53:31Z</time>
      </trkpt>
      <trkpt lat="45.75529" lon="4.25917">
        <ele>409.966</ele>
        <time>2017-10-28T13:53:46Z</time>
      </trkpt>
      <trkpt lat="45.7552" lon="4.25912">
        <ele>410.025</ele>
        <time>2017-10-28T13:53:53Z</time>
      </trkpt>
      <trkpt lat="45.75501" lon="4.25893">
        <ele>411.497</ele>
        <time>2017-10-28T13:54:10Z</time>
      </trkpt>
      <trkpt lat="45.75486" lon="4.25869">
        <ele>413.352</ele>
        <time>2017-10-28T13:54:24Z</time>
      </trkpt>
      <trkpt lat="45.75479" lon="4.25853">
        <ele>414.121</ele>
        <time>2017-10-28T13:54:33Z</time>
      </trkpt>
      <trkpt lat="45.75466" lon="4.25826">
        <ele>413.59</ele>
        <time>2017-10-28T13:54:49Z</time>
      </trkpt>
      <trkpt lat="45.75454" lon="4.25799">
        <ele>413.531</ele>
        <time>2017-10-28T13:55:06Z</time>
      </trkpt>
      <trkpt lat="45.75451" lon="4.25779">
        <ele>414.636</ele>
        <time>2017-10-28T13:55:17Z</time>
      </trkpt>
      <trkpt lat="45.75438" lon="4.25753">
        <ele>415.308</ele>
        <time>2017-10-28T13:55:31Z</time>
      </trkpt>
      <trkpt lat="45.75423" lon="4.25719">
        <ele>413.598</ele>
        <time>2017-10-28T13:55:47Z</time>
      </trkpt>
      <trkpt lat="45.7541" lon="4.25699">
        <ele>414.628</ele>
        <time>2017-10-28T13:55:59Z</time>
      </trkpt>
      <trkpt lat="45.75402" lon="4.25689">
        <ele>415.921</ele>
        <time>2017-10-28T13:56:07Z</time>
      </trkpt>
      <trkpt lat="45.75393" lon="4.25674">
        <ele>416.485</ele>
        <time>2017-10-28T13:56:16Z</time>
      </trkpt>
      <trkpt lat="45.75381" lon="4.25652">
        <ele>416.764</ele>
        <time>2017-10-28T13:56:29Z</time>
      </trkpt>
      <trkpt lat="45.7537" lon="4.25631">
        <ele>416.913</ele>
        <time>2017-10-28T13:56:41Z</time>
      </trkpt>
      <trkpt lat="45.7536" lon="4.25618">
        <ele>416.383</ele>
        <time>2017-10-28T13:56:50Z</time>
      </trkpt>
      <trkpt lat="45.75348" lon="4.256">
        <ele>416.03</ele>
        <time>2017-10-28T13:57:01Z</time>
      </trkpt>
      <trkpt lat="45.75334" lon="4.25575">
        <ele>416.452</ele>
        <time>2017-10-28T13:57:16Z</time>
      </trkpt>
      <trkpt lat="45.75325" lon="4.25565">
        <ele>417.498</ele>
        <time>2017-10-28T13:57:25Z</time>
      </trkpt>
      <trkpt lat="45.75313" lon="4.2556">
        <ele>416.013</ele>
        <time>2017-10-28T13:57:39Z</time>
      </trkpt>
      <trkpt lat="45.75301" lon="4.2555">
        <ele>412.102</ele>
        <time>2017-10-28T13:57:50Z</time>
      </trkpt>
      <trkpt lat="45.75287" lon="4.25539">
        <ele>409.305</ele>
        <time>2017-10-28T13:58:03Z</time>
      </trkpt>
      <trkpt lat="45.75258" lon="4.25521">
        <ele>406.008</ele>
        <time>2017-10-28T13:58:19Z</time>
      </trkpt>
      <trkpt lat="45.7524" lon="4.25517">
        <ele>403.242</ele>
        <time>2017-10-28T13:58:30Z</time>
      </trkpt>
      <trkpt lat="45.75227" lon="4.2551">
        <ele>402.141</ele>
        <time>2017-10-28T13:58:40Z</time>
      </trkpt>
      <trkpt lat="45.75211" lon="4.25501">
        <ele>401.824</ele>
        <time>2017-10-28T13:58:49Z</time>
      </trkpt>
      <trkpt lat="45.752" lon="4.25497">
        <ele>401.949</ele>
        <time>2017-10-28T13:58:55Z</time>
      </trkpt>
      <trkpt lat="45.75189" lon="4.25491">
        <ele>402.983</ele>
        <time>2017-10-28T13:59:05Z</time>
      </trkpt>
      <trkpt lat="45.75167" lon="4.25478">
        <ele>408.188</ele>
        <time>2017-10-28T13:59:18Z</time>
      </trkpt>
      <trkpt lat="45.75144" lon="4.2547">
        <ele>412.789</ele>
        <time>2017-10-28T13:59:31Z</time>
      </trkpt>
      <trkpt lat="45.75127" lon="4.25463">
        <ele>419.239</ele>
        <time>2017-10-28T13:59:41Z</time>
      </trkpt>
      <trkpt lat="45.7511" lon="4.25454">
        <ele>427.362</ele>
        <time>2017-10-28T13:59:54Z</time>
      </trkpt>
      <trkpt lat="45.75087" lon="4.2544">
        <ele>435.463</ele>
        <time>2017-10-28T14:00:10Z</time>
      </trkpt>
      <trkpt lat="45.75079" lon="4.25433">
        <ele>436.64</ele>
        <time>2017-10-28T14:00:19Z</time>
      </trkpt>
      <trkpt lat="45.75062" lon="4.25421">
        <ele>427.443</ele>
        <time>2017-10-28T14:00:37Z</time>
      </trkpt>
      <trkpt lat="45.75037" lon="4.25422">
        <ele>416.72</ele>
        <time>2017-10-28T14:00:53Z</time>
      </trkpt>
      <trkpt lat="45.75024" lon="4.25414">
        <ele>414.695</ele>
        <time>2017-10-28T14:00:59Z</time>
      </trkpt>
      <trkpt lat="45.75015" lon="4.25412">
        <ele>412.783</ele>
        <time>2017-10-28T14:01:07Z</time>
      </trkpt>
      <trkpt lat="45.74997" lon="4.25409">
        <ele>410.222</ele>
        <time>2017-10-28T14:01:17Z</time>
      </trkpt>
      <trkpt lat="45.74986" lon="4.25407">
        <ele>406.205</ele>
        <time>2017-10-28T14:01:28Z</time>
      </trkpt>
      <trkpt lat="45.7498" lon="4.25393">
        <ele>402.799</ele>
        <time>2017-10-28T14:01:37Z</time>
      </trkpt>
      <trkpt lat="45.7497" lon="4.25371">
        <ele>398.016</ele>
        <time>2017-10-28T14:01:53Z</time>
      </trkpt>
      <trkpt lat="45.74955" lon="4.25364">
        <ele>394.793</ele>
        <time>2017-10-28T14:02:03Z</time>
      </trkpt>
      <trkpt lat="45.74942" lon="4.25356">
        <ele>392.843</ele>
        <time>2017-10-28T14:02:11Z</time>
      </trkpt>
      <trkpt lat="45.74932" lon="4.25358">
        <ele>391.682</ele>
        <time>2017-10-28T14:02:19Z</time>
      </trkpt>
      <trkpt lat="45.74914" lon="4.25354">
        <ele>389.693</ele>
        <time>2017-10-28T14:02:30Z</time>
      </trkpt>
      <trkpt lat="45.74901" lon="4.25349">
        <ele>388.036</ele>
        <time>2017-10-28T14:02:40Z</time>
      </trkpt>
      <trkpt lat="45.74886" lon="4.25345">
        <ele>386.58</ele>
        <time>2017-10-28T14:02:51Z</time>
      </trkpt>
      <trkpt lat="45.7487" lon="4.25344">
        <ele>385.781</ele>
        <time>2017-10-28T14:03:01Z</time>
      </trkpt>
      <trkpt lat="45.74852" lon="4.25339">
        <ele>384.564</ele>
        <time>2017-10-28T14:03:12Z</time>
      </trkpt>
      <trkpt lat="45.74829" lon="4.25329">
        <ele>383.768</ele>
        <time>2017-10-28T14:03:26Z</time>
      </trkpt>
      <trkpt lat="45.74808" lon="4.25327">
        <ele>383.225</ele>
        <time>2017-10-28T14:03:41Z</time>
      </trkpt>
      <trkpt lat="45.74803" lon="4.25325">
        <ele>382.967</ele>
        <time>2017-10-28T14:03:44Z</time>
      </trkpt>
      <trkpt lat="45.74803" lon="4.25325">
        <ele>340.1</ele>
        <time>2017-10-28T14:03:51Z</time>
      </trkpt>
      <trkpt lat="45.74803" lon="4.25325">
        <ele>340.1</ele>
        <time>2017-10-28T14:05:31Z</time>
      </trkpt>
      <trkpt lat="45.74785" lon="4.25321">
        <ele>383.812</ele>
        <time>2017-10-28T14:05:31Z</time>
      </trkpt>
      <trkpt lat="45.74775" lon="4.25316">
        <ele>384.151</ele>
        <time>2017-10-28T14:05:43Z</time>
      </trkpt>
      <trkpt lat="45.74754" lon="4.25317">
        <ele>381.503</ele>
        <time>2017-10-28T14:05:58Z</time>
      </trkpt>
      <trkpt lat="45.7474" lon="4.25313">
        <ele>380.295</ele>
        <time>2017-10-28T14:06:07Z</time>
      </trkpt>
      <trkpt lat="45.7473" lon="4.25308">
        <ele>379.723</ele>
        <time>2017-10-28T14:06:14Z</time>
      </trkpt>
      <trkpt lat="45.74703" lon="4.25302">
        <ele>379.727</ele>
        <time>2017-10-28T14:06:31Z</time>
      </trkpt>
      <trkpt lat="45.7469" lon="4.25293">
        <ele>380.809</ele>
        <time>2017-10-28T14:06:41Z</time>
      </trkpt>
      <trkpt lat="45.74669" lon="4.25279">
        <ele>383.486</ele>
        <time>2017-10-28T14:06:57Z</time>
      </trkpt>
      <trkpt lat="45.74655" lon="4.25252">
        <ele>387.146</ele>
        <time>2017-10-28T14:07:14Z</time>
      </trkpt>
      <trkpt lat="45.74646" lon="4.25235">
        <ele>390.714</ele>
        <time>2017-10-28T14:07:22Z</time>
      </trkpt>
      <trkpt lat="45.74642" lon="4.25213">
        <ele>396.78</ele>
        <time>2017-10-28T14:07:35Z</time>
      </trkpt>
      <trkpt lat="45.74634" lon="4.25185">
        <ele>400.429</ele>
        <time>2017-10-28T14:07:47Z</time>
      </trkpt>
      <trkpt lat="45.74631" lon="4.25171">
        <ele>401.222</ele>
        <time>2017-10-28T14:07:55Z</time>
      </trkpt>
      <trkpt lat="45.74634" lon="4.25143">
        <ele>402.637</ele>
        <time>2017-10-28T14:08:08Z</time>
      </trkpt>
      <trkpt lat="45.74641" lon="4.25116">
        <ele>402.786</ele>
        <time>2017-10-28T14:08:23Z</time>
      </trkpt>
      <trkpt lat="45.74648" lon="4.25105">
        <ele>403.255</ele>
        <time>2017-10-28T14:08:30Z</time>
      </trkpt>
      <trkpt lat="45.7465" lon="4.25075">
        <ele>403.264</ele>
        <time>2017-10-28T14:08:45Z</time>
      </trkpt>
      <trkpt lat="45.74643" lon="4.2505">
        <ele>402.06</ele>
        <time>2017-10-28T14:08:59Z</time>
      </trkpt>
      <trkpt lat="45.74638" lon="4.25028">
        <ele>402.311</ele>
        <time>2017-10-28T14:09:13Z</time>
      </trkpt>
      <trkpt lat="45.74629" lon="4.25003">
        <ele>402.765</ele>
        <time>2017-10-28T14:09:28Z</time>
      </trkpt>
      <trkpt lat="45.74612" lon="4.24979">
        <ele>401.212</ele>
        <time>2017-10-28T14:09:45Z</time>
      </trkpt>
      <trkpt lat="45.74604" lon="4.24966">
        <ele>396.847</ele>
        <time>2017-10-28T14:09:59Z</time>
      </trkpt>
      <trkpt lat="45.74578" lon="4.24946">
        <ele>398.999</ele>
        <time>2017-10-28T14:10:15Z</time>
      </trkpt>
      <trkpt lat="45.74567" lon="4.24937">
        <ele>401.533</ele>
        <time>2017-10-28T14:10:26Z</time>
      </trkpt>
      <trkpt lat="45.74557" lon="4.24909">
        <ele>400.662</ele>
        <time>2017-10-28T14:10:44Z</time>
      </trkpt>
      <trkpt lat="45.74541" lon="4.24889">
        <ele>400.697</ele>
        <time>2017-10-28T14:10:58Z</time>
      </trkpt>
      <trkpt lat="45.74527" lon="4.24867">
        <ele>401.702</ele>
        <time>2017-10-28T14:11:13Z</time>
      </trkpt>
      <trkpt lat="45.74523" lon="4.24841">
        <ele>402.011</ele>
        <time>2017-10-28T14:11:27Z</time>
      </trkpt>
      <trkpt lat="45.7451" lon="4.24811">
        <ele>401.831</ele>
        <time>2017-10-28T14:11:43Z</time>
      </trkpt>
      <trkpt lat="45.74503" lon="4.24782">
        <ele>402.981</ele>
        <time>2017-10-28T14:11:58Z</time>
      </trkpt>
      <trkpt lat="45.74496" lon="4.2475">
        <ele>404.297</ele>
        <time>2017-10-28T14:12:13Z</time>
      </trkpt>
      <trkpt lat="45.74491" lon="4.24733">
        <ele>405.287</ele>
        <time>2017-10-28T14:12:22Z</time>
      </trkpt>
      <trkpt lat="45.74484" lon="4.247">
        <ele>406.36</ele>
        <time>2017-10-28T14:12:38Z</time>
      </trkpt>
      <trkpt lat="45.74476" lon="4.24669">
        <ele>407.718</ele>
        <time>2017-10-28T14:12:53Z</time>
      </trkpt>
      <trkpt lat="45.74472" lon="4.24643">
        <ele>408.348</ele>
        <time>2017-10-28T14:13:05Z</time>
      </trkpt>
      <trkpt lat="45.74472" lon="4.24616">
        <ele>408.423</ele>
        <time>2017-10-28T14:13:17Z</time>
      </trkpt>
      <trkpt lat="45.74468" lon="4.24599">
        <ele>408.039</ele>
        <time>2017-10-28T14:13:25Z</time>
      </trkpt>
      <trkpt lat="45.74462" lon="4.24574">
        <ele>407.652</ele>
        <time>2017-10-28T14:13:38Z</time>
      </trkpt>
      <trkpt lat="45.74459" lon="4.24551">
        <ele>407.502</ele>
        <time>2017-10-28T14:13:49Z</time>
      </trkpt>
      <trkpt lat="45.74453" lon="4.24525">
        <ele>407.401</ele>
        <time>2017-10-28T14:14:02Z</time>
      </trkpt>
      <trkpt lat="45.74447" lon="4.24498">
        <ele>407.306</ele>
        <time>2017-10-28T14:14:16Z</time>
      </trkpt>
      <trkpt lat="45.74442" lon="4.24473">
        <ele>408.208</ele>
        <time>2017-10-28T14:14:29Z</time>
      </trkpt>
      <trkpt lat="45.74437" lon="4.24443">
        <ele>407.688</ele>
        <time>2017-10-28T14:14:42Z</time>
      </trkpt>
      <trkpt lat="45.74435" lon="4.24423">
        <ele>407.662</ele>
        <time>2017-10-28T14:14:52Z</time>
      </trkpt>
      <trkpt lat="45.7443" lon="4.24397">
        <ele>407.94</ele>
        <time>2017-10-28T14:15:04Z</time>
      </trkpt>
      <trkpt lat="45.74426" lon="4.24371">
        <ele>408.292</ele>
        <time>2017-10-28T14:15:17Z</time>
      </trkpt>
      <trkpt lat="45.74421" lon="4.24345">
        <ele>409.342</ele>
        <time>2017-10-28T14:15:29Z</time>
      </trkpt>
      <trkpt lat="45.74418" lon="4.24323">
        <ele>409.614</ele>
        <time>2017-10-28T14:15:40Z</time>
      </trkpt>
      <trkpt lat="45.74411" lon="4.2429">
        <ele>409.169</ele>
        <time>2017-10-28T14:15:56Z</time>
      </trkpt>
      <trkpt lat="45.74408" lon="4.24268">
        <ele>408.649</ele>
        <time>2017-10-28T14:16:07Z</time>
      </trkpt>
      <trkpt lat="45.74406" lon="4.24241">
        <ele>407.956</ele>
        <time>2017-10-28T14:16:20Z</time>
      </trkpt>
      <trkpt lat="45.74409" lon="4.24224">
        <ele>408.185</ele>
        <time>2017-10-28T14:16:28Z</time>
      </trkpt>
      <trkpt lat="45.74409" lon="4.24224">
        <ele>345.8</ele>
        <time>2017-10-28T14:16:36Z</time>
      </trkpt>
      <trkpt lat="45.74409" lon="4.24224">
        <ele>345.8</ele>
        <time>2017-10-28T14:17:18Z</time>
      </trkpt>
      <trkpt lat="45.7441" lon="4.24201">
        <ele>406.479</ele>
        <time>2017-10-28T14:17:18Z</time>
      </trkpt>
      <trkpt lat="45.74412" lon="4.24167">
        <ele>404.794</ele>
        <time>2017-10-28T14:17:34Z</time>
      </trkpt>
      <trkpt lat="45.74411" lon="4.24156">
        <ele>405.044</ele>
        <time>2017-10-28T14:17:40Z</time>
      </trkpt>
      <trkpt lat="45.74415" lon="4.24121">
        <ele>404.639</ele>
        <time>2017-10-28T14:17:58Z</time>
      </trkpt>
      <trkpt lat="45.74417" lon="4.241">
        <ele>404.551</ele>
        <time>2017-10-28T14:18:08Z</time>
      </trkpt>
      <trkpt lat="45.7442" lon="4.24086">
        <ele>404.426</ele>
        <time>2017-10-28T14:18:15Z</time>
      </trkpt>
      <trkpt lat="45.74421" lon="4.24061">
        <ele>403.88</ele>
        <time>2017-10-28T14:18:27Z</time>
      </trkpt>
      <trkpt lat="45.74422" lon="4.24048">
        <ele>403.437</ele>
        <time>2017-10-28T14:18:33Z</time>
      </trkpt>
      <trkpt lat="45.74423" lon="4.24028">
        <ele>402.762</ele>
        <time>2017-10-28T14:18:42Z</time>
      </trkpt>
      <trkpt lat="45.74425" lon="4.24005">
        <ele>402.147</ele>
        <time>2017-10-28T14:18:54Z</time>
      </trkpt>
      <trkpt lat="45.74427" lon="4.23988">
        <ele>401.863</ele>
        <time>2017-10-28T14:19:02Z</time>
      </trkpt>
      <trkpt lat="45.74428" lon="4.2397">
        <ele>401.014</ele>
        <time>2017-10-28T14:19:13Z</time>
      </trkpt>
      <trkpt lat="45.74432" lon="4.23943">
        <ele>400.944</ele>
        <time>2017-10-28T14:19:27Z</time>
      </trkpt>
      <trkpt lat="45.74434" lon="4.23914">
        <ele>400.612</ele>
        <time>2017-10-28T14:19:42Z</time>
      </trkpt>
      <trkpt lat="45.74433" lon="4.23885">
        <ele>400.397</ele>
        <time>2017-10-28T14:19:57Z</time>
      </trkpt>
      <trkpt lat="45.74433" lon="4.23859">
        <ele>400.247</ele>
        <time>2017-10-28T14:20:10Z</time>
      </trkpt>
      <trkpt lat="45.74434" lon="4.23834">
        <ele>400.236</ele>
        <time>2017-10-28T14:20:22Z</time>
      </trkpt>
      <trkpt lat="45.74436" lon="4.23809">
        <ele>400.247</ele>
        <time>2017-10-28T14:20:35Z</time>
      </trkpt>
      <trkpt lat="45.74435" lon="4.23797">
        <ele>400.504</ele>
        <time>2017-10-28T14:20:43Z</time>
      </trkpt>
      <trkpt lat="45.74431" lon="4.2378">
        <ele>402.281</ele>
        <time>2017-10-28T14:20:54Z</time>
      </trkpt>
      <trkpt lat="45.74427" lon="4.23752">
        <ele>403.098</ele>
        <time>2017-10-28T14:21:07Z</time>
      </trkpt>
      <trkpt lat="45.74432" lon="4.23737">
        <ele>402.3</ele>
        <time>2017-10-28T14:21:17Z</time>
      </trkpt>
      <trkpt lat="45.7443" lon="4.23705">
        <ele>401.599</ele>
        <time>2017-10-28T14:21:32Z</time>
      </trkpt>
      <trkpt lat="45.74433" lon="4.23676">
        <ele>402.062</ele>
        <time>2017-10-28T14:21:48Z</time>
      </trkpt>
      <trkpt lat="45.74429" lon="4.23657">
        <ele>403.899</ele>
        <time>2017-10-28T14:21:59Z</time>
      </trkpt>
      <trkpt lat="45.74433" lon="4.23634">
        <ele>405.051</ele>
        <time>2017-10-28T14:22:09Z</time>
      </trkpt>
      <trkpt lat="45.74434" lon="4.23614">
        <ele>404.827</ele>
        <time>2017-10-28T14:22:19Z</time>
      </trkpt>
      <trkpt lat="45.74434" lon="4.23583">
        <ele>404.957</ele>
        <time>2017-10-28T14:22:34Z</time>
      </trkpt>
      <trkpt lat="45.74436" lon="4.23555">
        <ele>405</ele>
        <time>2017-10-28T14:22:48Z</time>
      </trkpt>
      <trkpt lat="45.74435" lon="4.23524">
        <ele>403.675</ele>
        <time>2017-10-28T14:23:03Z</time>
      </trkpt>
      <trkpt lat="45.74434" lon="4.23501">
        <ele>403.538</ele>
        <time>2017-10-28T14:23:14Z</time>
      </trkpt>
      <trkpt lat="45.74432" lon="4.23482">
        <ele>402.823</ele>
        <time>2017-10-28T14:23:23Z</time>
      </trkpt>
      <trkpt lat="45.74432" lon="4.23457">
        <ele>402.527</ele>
        <time>2017-10-28T14:23:37Z</time>
      </trkpt>
      <trkpt lat="45.74435" lon="4.23437">
        <ele>402.646</ele>
        <time>2017-10-28T14:23:50Z</time>
      </trkpt>
      <trkpt lat="45.74435" lon="4.23437">
        <ele>347</ele>
        <time>2017-10-28T14:23:58Z</time>
      </trkpt>
      <trkpt lat="45.74435" lon="4.23437">
        <ele>347</ele>
        <time>2017-10-28T14:24:12Z</time>
      </trkpt>
    </trkseg>
  </trk>
</gpx>